<?xml version="1.0" encoding="UTF-8" standalone="no" ?>
<gpx xmlns="http://www.topografix.com/GPX/1/1" xmlns:xsi="http://www.w3.org/2001/XMLSchema-instance" xsi:schemaLocation="http://www.topografix.com/GPX/1/1 http://www.topografix.com/GPX/1/1/gpx.xsd" version="1.1" creator="VisuGPX - https://www.visugpx.com">
  <metadata>
    <name>Murlin </name>
    <desc><![CDATA[Murlin , belle rando , tout en sous bois , assez physique à cause de la présence d'eau dans certains chemins , ]]></desc>
  </metadata>
  <trk>
    <name><![CDATA[Murlin _1]]></name>
    <trkseg>
      <trkpt lat="47.20246" lon="3.17999">
        <ele>227.12329101562</ele>
        <time>2016-02-15T07:45:57.000Z</time>
      </trkpt>
      <trkpt lat="47.20247" lon="3.18002">
        <ele>227.07301330566</ele>
        <time>2016-02-15T07:46:02.000Z</time>
      </trkpt>
      <trkpt lat="47.20247" lon="3.18007">
        <ele>227.0157623291</ele>
        <time>2016-02-15T07:46:04.000Z</time>
      </trkpt>
      <trkpt lat="47.20247" lon="3.18012">
        <ele>226.95436096191</ele>
        <time>2016-02-15T07:46:04.000Z</time>
      </trkpt>
      <trkpt lat="47.20247" lon="3.18016">
        <ele>226.89724731445</ele>
        <time>2016-02-15T07:46:05.000Z</time>
      </trkpt>
      <trkpt lat="47.20248" lon="3.18022">
        <ele>226.77481079102</ele>
        <time>2016-02-15T07:46:23.000Z</time>
      </trkpt>
      <trkpt lat="47.20249" lon="3.18028">
        <ele>226.64370727539</ele>
        <time>2016-02-15T07:46:23.000Z</time>
      </trkpt>
      <trkpt lat="47.20249" lon="3.18032">
        <ele>226.51399230957</ele>
        <time>2016-02-15T07:46:24.000Z</time>
      </trkpt>
      <trkpt lat="47.20249" lon="3.18037">
        <ele>226.38720703125</ele>
        <time>2016-02-15T07:46:24.000Z</time>
      </trkpt>
      <trkpt lat="47.20249" lon="3.1804">
        <ele>226.26867675781</ele>
        <time>2016-02-15T07:46:24.000Z</time>
      </trkpt>
      <trkpt lat="47.20247" lon="3.18044">
        <ele>226.16569519043</ele>
        <time>2016-02-15T07:46:24.000Z</time>
      </trkpt>
      <trkpt lat="47.20245" lon="3.1805">
        <ele>226.06643676758</ele>
        <time>2016-02-15T07:46:24.000Z</time>
      </trkpt>
      <trkpt lat="47.20244" lon="3.18054">
        <ele>225.97721862793</ele>
        <time>2016-02-15T07:46:24.000Z</time>
      </trkpt>
      <trkpt lat="47.20243" lon="3.18058">
        <ele>225.89596557617</ele>
        <time>2016-02-15T07:46:25.000Z</time>
      </trkpt>
      <trkpt lat="47.20242" lon="3.18063">
        <ele>225.79989624023</ele>
        <time>2016-02-15T07:46:25.000Z</time>
      </trkpt>
      <trkpt lat="47.20241" lon="3.18066">
        <ele>225.70805358887</ele>
        <time>2016-02-15T07:46:25.000Z</time>
      </trkpt>
      <trkpt lat="47.20241" lon="3.1807">
        <ele>225.62495422363</ele>
        <time>2016-02-15T07:46:26.000Z</time>
      </trkpt>
      <trkpt lat="47.2024" lon="3.18076">
        <ele>225.52714538574</ele>
        <time>2016-02-15T07:46:26.000Z</time>
      </trkpt>
      <trkpt lat="47.20239" lon="3.1808">
        <ele>225.42739868164</ele>
        <time>2016-02-15T07:46:26.000Z</time>
      </trkpt>
      <trkpt lat="47.20238" lon="3.18083">
        <ele>225.33869934082</ele>
        <time>2016-02-15T07:46:26.000Z</time>
      </trkpt>
      <trkpt lat="47.20238" lon="3.18088">
        <ele>225.25126647949</ele>
        <time>2016-02-15T07:46:27.000Z</time>
      </trkpt>
      <trkpt lat="47.20237" lon="3.18093">
        <ele>225.17036437988</ele>
        <time>2016-02-15T07:46:30.000Z</time>
      </trkpt>
      <trkpt lat="47.20237" lon="3.18097">
        <ele>225.11056518555</ele>
        <time>2016-02-15T07:46:32.000Z</time>
      </trkpt>
      <trkpt lat="47.20237" lon="3.18101">
        <ele>225.06066894531</ele>
        <time>2016-02-15T07:46:34.000Z</time>
      </trkpt>
      <trkpt lat="47.20236" lon="3.18106">
        <ele>225.01821899414</ele>
        <time>2016-02-15T07:46:38.000Z</time>
      </trkpt>
      <trkpt lat="47.20235" lon="3.18112">
        <ele>224.97563171387</ele>
        <time>2016-02-15T07:46:40.000Z</time>
      </trkpt>
      <trkpt lat="47.20235" lon="3.18117">
        <ele>224.93557739258</ele>
        <time>2016-02-15T07:46:43.000Z</time>
      </trkpt>
      <trkpt lat="47.20234" lon="3.18121">
        <ele>224.8970489502</ele>
        <time>2016-02-15T07:46:45.000Z</time>
      </trkpt>
      <trkpt lat="47.20233" lon="3.18127">
        <ele>224.85958862305</ele>
        <time>2016-02-15T07:46:48.000Z</time>
      </trkpt>
      <trkpt lat="47.20232" lon="3.1813">
        <ele>224.82894897461</ele>
        <time>2016-02-15T07:46:50.000Z</time>
      </trkpt>
      <trkpt lat="47.2023" lon="3.18135">
        <ele>224.80395507812</ele>
        <time>2016-02-15T07:46:53.000Z</time>
      </trkpt>
      <trkpt lat="47.2023" lon="3.18142">
        <ele>224.7738494873</ele>
        <time>2016-02-15T07:46:56.000Z</time>
      </trkpt>
      <trkpt lat="47.20231" lon="3.18147">
        <ele>224.73661804199</ele>
        <time>2016-02-15T07:46:59.000Z</time>
      </trkpt>
      <trkpt lat="47.20232" lon="3.18151">
        <ele>224.6965637207</ele>
        <time>2016-02-15T07:47:01.000Z</time>
      </trkpt>
      <trkpt lat="47.20232" lon="3.18156">
        <ele>224.64323425293</ele>
        <time>2016-02-15T07:47:04.000Z</time>
      </trkpt>
      <trkpt lat="47.20234" lon="3.18164">
        <ele>224.57052612305</ele>
        <time>2016-02-15T07:47:07.000Z</time>
      </trkpt>
      <trkpt lat="47.20235" lon="3.18169">
        <ele>224.50247192383</ele>
        <time>2016-02-15T07:47:10.000Z</time>
      </trkpt>
      <trkpt lat="47.20237" lon="3.18173">
        <ele>224.44772338867</ele>
        <time>2016-02-15T07:47:12.000Z</time>
      </trkpt>
      <trkpt lat="47.20237" lon="3.1818">
        <ele>224.40727233887</ele>
        <time>2016-02-15T07:47:15.000Z</time>
      </trkpt>
      <trkpt lat="47.20238" lon="3.18184">
        <ele>224.38528442383</ele>
        <time>2016-02-15T07:47:17.000Z</time>
      </trkpt>
      <trkpt lat="47.20238" lon="3.18189">
        <ele>224.39245605469</ele>
        <time>2016-02-15T07:47:20.000Z</time>
      </trkpt>
      <trkpt lat="47.20239" lon="3.18193">
        <ele>224.41055297852</ele>
        <time>2016-02-15T07:47:22.000Z</time>
      </trkpt>
      <trkpt lat="47.2024" lon="3.18199">
        <ele>224.4342956543</ele>
        <time>2016-02-15T07:47:25.000Z</time>
      </trkpt>
      <trkpt lat="47.20241" lon="3.18205">
        <ele>224.46102905273</ele>
        <time>2016-02-15T07:47:28.000Z</time>
      </trkpt>
      <trkpt lat="47.20241" lon="3.18209">
        <ele>224.49069213867</ele>
        <time>2016-02-15T07:47:31.000Z</time>
      </trkpt>
      <trkpt lat="47.20242" lon="3.18216">
        <ele>224.52612304688</ele>
        <time>2016-02-15T07:47:34.000Z</time>
      </trkpt>
      <trkpt lat="47.20243" lon="3.1822">
        <ele>224.56523132324</ele>
        <time>2016-02-15T07:47:36.000Z</time>
      </trkpt>
      <trkpt lat="47.20244" lon="3.18225">
        <ele>224.6068572998</ele>
        <time>2016-02-15T07:47:38.000Z</time>
      </trkpt>
      <trkpt lat="47.20245" lon="3.18229">
        <ele>224.6484375</ele>
        <time>2016-02-15T07:47:40.000Z</time>
      </trkpt>
      <trkpt lat="47.20246" lon="3.18233">
        <ele>224.69204711914</ele>
        <time>2016-02-15T07:47:42.000Z</time>
      </trkpt>
      <trkpt lat="47.20246" lon="3.18239">
        <ele>224.7373046875</ele>
        <time>2016-02-15T07:47:49.000Z</time>
      </trkpt>
      <trkpt lat="47.20245" lon="3.18244">
        <ele>224.78439331055</ele>
        <time>2016-02-15T07:47:49.000Z</time>
      </trkpt>
      <trkpt lat="47.20246" lon="3.18249">
        <ele>224.83407592773</ele>
        <time>2016-02-15T07:47:50.000Z</time>
      </trkpt>
      <trkpt lat="47.20245" lon="3.18253">
        <ele>224.90849304199</ele>
        <time>2016-02-15T07:47:52.000Z</time>
      </trkpt>
      <trkpt lat="47.20245" lon="3.1826">
        <ele>225.03622436523</ele>
        <time>2016-02-15T07:47:55.000Z</time>
      </trkpt>
      <trkpt lat="47.20245" lon="3.18264">
        <ele>225.19372558594</ele>
        <time>2016-02-15T07:47:57.000Z</time>
      </trkpt>
      <trkpt lat="47.20245" lon="3.18271">
        <ele>225.40942382812</ele>
        <time>2016-02-15T07:48:04.000Z</time>
      </trkpt>
      <trkpt lat="47.20246" lon="3.18274">
        <ele>225.64599609375</ele>
        <time>2016-02-15T07:48:04.000Z</time>
      </trkpt>
      <trkpt lat="47.20245" lon="3.1828">
        <ele>225.900390625</ele>
        <time>2016-02-15T07:48:05.000Z</time>
      </trkpt>
      <trkpt lat="47.20245" lon="3.18284">
        <ele>226.13427734375</ele>
        <time>2016-02-15T07:48:07.000Z</time>
      </trkpt>
      <trkpt lat="47.20244" lon="3.1829">
        <ele>226.380859375</ele>
        <time>2016-02-15T07:48:10.000Z</time>
      </trkpt>
      <trkpt lat="47.20245" lon="3.18297">
        <ele>226.62963867188</ele>
        <time>2016-02-15T07:48:13.000Z</time>
      </trkpt>
      <trkpt lat="47.20244" lon="3.18303">
        <ele>226.90405273438</ele>
        <time>2016-02-15T07:48:16.000Z</time>
      </trkpt>
      <trkpt lat="47.20244" lon="3.18308">
        <ele>227.1669921875</ele>
        <time>2016-02-15T07:48:18.000Z</time>
      </trkpt>
      <trkpt lat="47.20244" lon="3.18314">
        <ele>227.45043945312</ele>
        <time>2016-02-15T07:48:21.000Z</time>
      </trkpt>
      <trkpt lat="47.20244" lon="3.18321">
        <ele>227.74096679688</ele>
        <time>2016-02-15T07:48:24.000Z</time>
      </trkpt>
      <trkpt lat="47.20244" lon="3.18323">
        <ele>227.986328125</ele>
        <time>2016-02-15T07:48:26.000Z</time>
      </trkpt>
      <trkpt lat="47.20243" lon="3.18327">
        <ele>228.21069335938</ele>
        <time>2016-02-15T07:48:28.000Z</time>
      </trkpt>
      <trkpt lat="47.20243" lon="3.18331">
        <ele>228.4345703125</ele>
        <time>2016-02-15T07:48:30.000Z</time>
      </trkpt>
      <trkpt lat="47.20242" lon="3.18337">
        <ele>228.64489746094</ele>
        <time>2016-02-15T07:48:34.000Z</time>
      </trkpt>
      <trkpt lat="47.2024" lon="3.18343">
        <ele>228.83117675781</ele>
        <time>2016-02-15T07:48:36.000Z</time>
      </trkpt>
      <trkpt lat="47.20238" lon="3.18347">
        <ele>229.01928710938</ele>
        <time>2016-02-15T07:48:39.000Z</time>
      </trkpt>
      <trkpt lat="47.20237" lon="3.1835">
        <ele>229.18884277344</ele>
        <time>2016-02-15T07:48:41.000Z</time>
      </trkpt>
      <trkpt lat="47.20235" lon="3.18353">
        <ele>229.33866882324</ele>
        <time>2016-02-15T07:48:43.000Z</time>
      </trkpt>
      <trkpt lat="47.20232" lon="3.18357">
        <ele>229.46884155273</ele>
        <time>2016-02-15T07:48:46.000Z</time>
      </trkpt>
      <trkpt lat="47.20229" lon="3.18359">
        <ele>229.57446289062</ele>
        <time>2016-02-15T07:48:48.000Z</time>
      </trkpt>
      <trkpt lat="47.20225" lon="3.18361">
        <ele>229.66268920898</ele>
        <time>2016-02-15T07:48:51.000Z</time>
      </trkpt>
      <trkpt lat="47.20221" lon="3.18362">
        <ele>229.73188781738</ele>
        <time>2016-02-15T07:48:54.000Z</time>
      </trkpt>
      <trkpt lat="47.20218" lon="3.18362">
        <ele>229.77694702148</ele>
        <time>2016-02-15T07:48:56.000Z</time>
      </trkpt>
      <trkpt lat="47.20213" lon="3.18362">
        <ele>229.78617858887</ele>
        <time>2016-02-15T07:48:59.000Z</time>
      </trkpt>
      <trkpt lat="47.20209" lon="3.18363">
        <ele>229.78266906738</ele>
        <time>2016-02-15T07:49:02.000Z</time>
      </trkpt>
      <trkpt lat="47.20205" lon="3.18363">
        <ele>229.76496887207</ele>
        <time>2016-02-15T07:49:05.000Z</time>
      </trkpt>
      <trkpt lat="47.20203" lon="3.18363">
        <ele>229.74714660645</ele>
        <time>2016-02-15T07:49:07.000Z</time>
      </trkpt>
      <trkpt lat="47.202" lon="3.18364">
        <ele>229.73075866699</ele>
        <time>2016-02-15T07:49:09.000Z</time>
      </trkpt>
      <trkpt lat="47.20195" lon="3.18364">
        <ele>229.71810913086</ele>
        <time>2016-02-15T07:49:12.000Z</time>
      </trkpt>
      <trkpt lat="47.2019" lon="3.18364">
        <ele>229.70053100586</ele>
        <time>2016-02-15T07:49:15.000Z</time>
      </trkpt>
      <trkpt lat="47.20188" lon="3.18365">
        <ele>229.68786621094</ele>
        <time>2016-02-15T07:49:17.000Z</time>
      </trkpt>
      <trkpt lat="47.20185" lon="3.18365">
        <ele>229.67630004883</ele>
        <time>2016-02-15T07:49:19.000Z</time>
      </trkpt>
      <trkpt lat="47.20182" lon="3.18366">
        <ele>229.66926574707</ele>
        <time>2016-02-15T07:49:21.000Z</time>
      </trkpt>
      <trkpt lat="47.20178" lon="3.18368">
        <ele>229.67910766602</ele>
        <time>2016-02-15T07:49:24.000Z</time>
      </trkpt>
      <trkpt lat="47.20174" lon="3.18369">
        <ele>229.69438171387</ele>
        <time>2016-02-15T07:49:27.000Z</time>
      </trkpt>
      <trkpt lat="47.20171" lon="3.18369">
        <ele>229.71304321289</ele>
        <time>2016-02-15T07:49:30.000Z</time>
      </trkpt>
      <trkpt lat="47.20168" lon="3.1837">
        <ele>229.73168945312</ele>
        <time>2016-02-15T07:49:32.000Z</time>
      </trkpt>
      <trkpt lat="47.20165" lon="3.18371">
        <ele>229.75662231445</ele>
        <time>2016-02-15T07:49:34.000Z</time>
      </trkpt>
      <trkpt lat="47.20161" lon="3.18373">
        <ele>229.77656555176</ele>
        <time>2016-02-15T07:49:37.000Z</time>
      </trkpt>
      <trkpt lat="47.20158" lon="3.18374">
        <ele>229.80130004883</ele>
        <time>2016-02-15T07:49:39.000Z</time>
      </trkpt>
      <trkpt lat="47.20153" lon="3.18376">
        <ele>229.8298034668</ele>
        <time>2016-02-15T07:49:42.000Z</time>
      </trkpt>
      <trkpt lat="47.20149" lon="3.18379">
        <ele>229.86860656738</ele>
        <time>2016-02-15T07:49:45.000Z</time>
      </trkpt>
      <trkpt lat="47.20146" lon="3.18381">
        <ele>229.9098815918</ele>
        <time>2016-02-15T07:49:47.000Z</time>
      </trkpt>
      <trkpt lat="47.20142" lon="3.18383">
        <ele>229.95108032227</ele>
        <time>2016-02-15T07:49:50.000Z</time>
      </trkpt>
      <trkpt lat="47.2014" lon="3.18384">
        <ele>229.98840332031</ele>
        <time>2016-02-15T07:49:52.000Z</time>
      </trkpt>
      <trkpt lat="47.20137" lon="3.18386">
        <ele>230.02584838867</ele>
        <time>2016-02-15T07:49:54.000Z</time>
      </trkpt>
      <trkpt lat="47.20134" lon="3.18389">
        <ele>230.06155395508</ele>
        <time>2016-02-15T07:49:57.000Z</time>
      </trkpt>
      <trkpt lat="47.20131" lon="3.1839">
        <ele>230.08999633789</ele>
        <time>2016-02-15T07:49:59.000Z</time>
      </trkpt>
      <trkpt lat="47.20127" lon="3.18391">
        <ele>230.1029510498</ele>
        <time>2016-02-15T07:50:02.000Z</time>
      </trkpt>
      <trkpt lat="47.20125" lon="3.18393">
        <ele>230.11898803711</ele>
        <time>2016-02-15T07:50:04.000Z</time>
      </trkpt>
      <trkpt lat="47.20122" lon="3.18395">
        <ele>230.13723754883</ele>
        <time>2016-02-15T07:50:06.000Z</time>
      </trkpt>
      <trkpt lat="47.20118" lon="3.184">
        <ele>230.16548156738</ele>
        <time>2016-02-15T07:50:09.000Z</time>
      </trkpt>
      <trkpt lat="47.20115" lon="3.18403">
        <ele>230.20034790039</ele>
        <time>2016-02-15T07:50:12.000Z</time>
      </trkpt>
      <trkpt lat="47.20111" lon="3.18406">
        <ele>230.24421691895</ele>
        <time>2016-02-15T07:50:15.000Z</time>
      </trkpt>
      <trkpt lat="47.20106" lon="3.1841">
        <ele>230.28540039062</ele>
        <time>2016-02-15T07:50:18.000Z</time>
      </trkpt>
      <trkpt lat="47.20103" lon="3.18412">
        <ele>230.31973266602</ele>
        <time>2016-02-15T07:50:20.000Z</time>
      </trkpt>
      <trkpt lat="47.201" lon="3.18415">
        <ele>230.33491516113</ele>
        <time>2016-02-15T07:50:23.000Z</time>
      </trkpt>
      <trkpt lat="47.20098" lon="3.18417">
        <ele>230.34350585938</ele>
        <time>2016-02-15T07:50:25.000Z</time>
      </trkpt>
      <trkpt lat="47.20095" lon="3.1842">
        <ele>230.36337280273</ele>
        <time>2016-02-15T07:50:27.000Z</time>
      </trkpt>
      <trkpt lat="47.20092" lon="3.18422">
        <ele>230.3908996582</ele>
        <time>2016-02-15T07:50:29.000Z</time>
      </trkpt>
      <trkpt lat="47.20089" lon="3.18425">
        <ele>230.43698120117</ele>
        <time>2016-02-15T07:50:32.000Z</time>
      </trkpt>
      <trkpt lat="47.20087" lon="3.18428">
        <ele>230.49612426758</ele>
        <time>2016-02-15T07:50:34.000Z</time>
      </trkpt>
      <trkpt lat="47.20084" lon="3.18431">
        <ele>230.5666809082</ele>
        <time>2016-02-15T07:50:36.000Z</time>
      </trkpt>
      <trkpt lat="47.20082" lon="3.18435">
        <ele>230.65995788574</ele>
        <time>2016-02-15T07:50:39.000Z</time>
      </trkpt>
      <trkpt lat="47.2008" lon="3.18438">
        <ele>230.77519226074</ele>
        <time>2016-02-15T07:50:41.000Z</time>
      </trkpt>
      <trkpt lat="47.20077" lon="3.18443">
        <ele>230.92134094238</ele>
        <time>2016-02-15T07:50:44.000Z</time>
      </trkpt>
      <trkpt lat="47.20074" lon="3.18448">
        <ele>231.11050415039</ele>
        <time>2016-02-15T07:50:49.000Z</time>
      </trkpt>
      <trkpt lat="47.20073" lon="3.18451">
        <ele>231.31762695312</ele>
        <time>2016-02-15T07:50:49.000Z</time>
      </trkpt>
      <trkpt lat="47.2007" lon="3.18455">
        <ele>231.52670288086</ele>
        <time>2016-02-15T07:50:51.000Z</time>
      </trkpt>
      <trkpt lat="47.20067" lon="3.18461">
        <ele>231.76318359375</ele>
        <time>2016-02-15T07:50:54.000Z</time>
      </trkpt>
      <trkpt lat="47.20065" lon="3.18464">
        <ele>231.97482299805</ele>
        <time>2016-02-15T07:50:57.000Z</time>
      </trkpt>
      <trkpt lat="47.20064" lon="3.18466">
        <ele>232.15010070801</ele>
        <time>2016-02-15T07:50:59.000Z</time>
      </trkpt>
      <trkpt lat="47.20061" lon="3.1847">
        <ele>232.32876586914</ele>
        <time>2016-02-15T07:51:01.000Z</time>
      </trkpt>
      <trkpt lat="47.20058" lon="3.18474">
        <ele>232.51289367676</ele>
        <time>2016-02-15T07:51:04.000Z</time>
      </trkpt>
      <trkpt lat="47.20057" lon="3.18476">
        <ele>232.65824890137</ele>
        <time>2016-02-15T07:51:06.000Z</time>
      </trkpt>
      <trkpt lat="47.20054" lon="3.18481">
        <ele>232.82133483887</ele>
        <time>2016-02-15T07:51:09.000Z</time>
      </trkpt>
      <trkpt lat="47.20052" lon="3.18486">
        <ele>233.00473022461</ele>
        <time>2016-02-15T07:51:12.000Z</time>
      </trkpt>
      <trkpt lat="47.20049" lon="3.18491">
        <ele>233.19511413574</ele>
        <time>2016-02-15T07:51:15.000Z</time>
      </trkpt>
      <trkpt lat="47.20045" lon="3.18495">
        <ele>233.38442993164</ele>
        <time>2016-02-15T07:51:18.000Z</time>
      </trkpt>
      <trkpt lat="47.20042" lon="3.185">
        <ele>233.59211730957</ele>
        <time>2016-02-15T07:51:21.000Z</time>
      </trkpt>
      <trkpt lat="47.20041" lon="3.18502">
        <ele>233.76724243164</ele>
        <time>2016-02-15T07:51:23.000Z</time>
      </trkpt>
      <trkpt lat="47.20037" lon="3.18508">
        <ele>233.92488098145</ele>
        <time>2016-02-15T07:51:26.000Z</time>
      </trkpt>
      <trkpt lat="47.20034" lon="3.18512">
        <ele>234.0601348877</ele>
        <time>2016-02-15T07:51:29.000Z</time>
      </trkpt>
      <trkpt lat="47.20032" lon="3.18519">
        <ele>234.18032836914</ele>
        <time>2016-02-15T07:51:32.000Z</time>
      </trkpt>
      <trkpt lat="47.20031" lon="3.18523">
        <ele>234.27766418457</ele>
        <time>2016-02-15T07:51:34.000Z</time>
      </trkpt>
      <trkpt lat="47.20029" lon="3.18527">
        <ele>234.37619018555</ele>
        <time>2016-02-15T07:51:37.000Z</time>
      </trkpt>
      <trkpt lat="47.20028" lon="3.18529">
        <ele>234.45840454102</ele>
        <time>2016-02-15T07:51:39.000Z</time>
      </trkpt>
      <trkpt lat="47.20025" lon="3.18533">
        <ele>234.53103637695</ele>
        <time>2016-02-15T07:51:42.000Z</time>
      </trkpt>
      <trkpt lat="47.20024" lon="3.18538">
        <ele>234.59338378906</ele>
        <time>2016-02-15T07:51:45.000Z</time>
      </trkpt>
      <trkpt lat="47.20023" lon="3.18543">
        <ele>234.65756225586</ele>
        <time>2016-02-15T07:51:48.000Z</time>
      </trkpt>
      <trkpt lat="47.20022" lon="3.18548">
        <ele>234.72378540039</ele>
        <time>2016-02-15T07:51:50.000Z</time>
      </trkpt>
      <trkpt lat="47.20021" lon="3.18551">
        <ele>234.79345703125</ele>
        <time>2016-02-15T07:51:52.000Z</time>
      </trkpt>
      <trkpt lat="47.2002" lon="3.18557">
        <ele>234.87019348145</ele>
        <time>2016-02-15T07:51:55.000Z</time>
      </trkpt>
      <trkpt lat="47.20018" lon="3.18562">
        <ele>234.94131469727</ele>
        <time>2016-02-15T07:51:58.000Z</time>
      </trkpt>
      <trkpt lat="47.20018" lon="3.18569">
        <ele>235.013671875</ele>
        <time>2016-02-15T07:52:01.000Z</time>
      </trkpt>
      <trkpt lat="47.20018" lon="3.18573">
        <ele>235.087890625</ele>
        <time>2016-02-15T07:52:04.000Z</time>
      </trkpt>
      <trkpt lat="47.20017" lon="3.18579">
        <ele>235.1685333252</ele>
        <time>2016-02-15T07:52:07.000Z</time>
      </trkpt>
      <trkpt lat="47.20016" lon="3.18581">
        <ele>235.23544311523</ele>
        <time>2016-02-15T07:52:09.000Z</time>
      </trkpt>
      <trkpt lat="47.20016" lon="3.18585">
        <ele>235.31698608398</ele>
        <time>2016-02-15T07:52:12.000Z</time>
      </trkpt>
      <trkpt lat="47.20015" lon="3.18591">
        <ele>235.42959594727</ele>
        <time>2016-02-15T07:52:16.000Z</time>
      </trkpt>
      <trkpt lat="47.20013" lon="3.18595">
        <ele>235.55892944336</ele>
        <time>2016-02-15T07:52:18.000Z</time>
      </trkpt>
      <trkpt lat="47.20012" lon="3.186">
        <ele>235.70938110352</ele>
        <time>2016-02-15T07:52:20.000Z</time>
      </trkpt>
      <trkpt lat="47.20009" lon="3.18606">
        <ele>235.90087890625</ele>
        <time>2016-02-15T07:52:23.000Z</time>
      </trkpt>
      <trkpt lat="47.20007" lon="3.18612">
        <ele>236.11059570312</ele>
        <time>2016-02-15T07:52:26.000Z</time>
      </trkpt>
      <trkpt lat="47.20005" lon="3.18616">
        <ele>236.30200195312</ele>
        <time>2016-02-15T07:52:29.000Z</time>
      </trkpt>
      <trkpt lat="47.20002" lon="3.18622">
        <ele>236.50122070312</ele>
        <time>2016-02-15T07:52:32.000Z</time>
      </trkpt>
      <trkpt lat="47.20001" lon="3.18624">
        <ele>236.6806640625</ele>
        <time>2016-02-15T07:52:34.000Z</time>
      </trkpt>
      <trkpt lat="47.19999" lon="3.18629">
        <ele>236.86752319336</ele>
        <time>2016-02-15T07:52:37.000Z</time>
      </trkpt>
      <trkpt lat="47.19998" lon="3.18633">
        <ele>237.0583190918</ele>
        <time>2016-02-15T07:52:40.000Z</time>
      </trkpt>
      <trkpt lat="47.19997" lon="3.18636">
        <ele>237.26455688477</ele>
        <time>2016-02-15T07:52:42.000Z</time>
      </trkpt>
      <trkpt lat="47.19996" lon="3.1864">
        <ele>237.47579956055</ele>
        <time>2016-02-15T07:52:44.000Z</time>
      </trkpt>
      <trkpt lat="47.19994" lon="3.18645">
        <ele>237.74760437012</ele>
        <time>2016-02-15T07:52:47.000Z</time>
      </trkpt>
      <trkpt lat="47.19992" lon="3.18648">
        <ele>238.03030395508</ele>
        <time>2016-02-15T07:52:49.000Z</time>
      </trkpt>
      <trkpt lat="47.19991" lon="3.18652">
        <ele>238.31982421875</ele>
        <time>2016-02-15T07:52:51.000Z</time>
      </trkpt>
      <trkpt lat="47.19988" lon="3.18656">
        <ele>238.64144897461</ele>
        <time>2016-02-15T07:52:54.000Z</time>
      </trkpt>
      <trkpt lat="47.19985" lon="3.18659">
        <ele>238.98503112793</ele>
        <time>2016-02-15T07:52:57.000Z</time>
      </trkpt>
      <trkpt lat="47.19983" lon="3.18661">
        <ele>239.3140411377</ele>
        <time>2016-02-15T07:53:00.000Z</time>
      </trkpt>
      <trkpt lat="47.1998" lon="3.18663">
        <ele>239.63562011719</ele>
        <time>2016-02-15T07:53:02.000Z</time>
      </trkpt>
      <trkpt lat="47.19978" lon="3.18663">
        <ele>239.93305969238</ele>
        <time>2016-02-15T07:53:04.000Z</time>
      </trkpt>
      <trkpt lat="47.19976" lon="3.18663">
        <ele>240.17984008789</ele>
        <time>2016-02-15T07:53:07.000Z</time>
      </trkpt>
      <trkpt lat="47.19974" lon="3.18664">
        <ele>240.39770507812</ele>
        <time>2016-02-15T07:53:13.000Z</time>
      </trkpt>
      <trkpt lat="47.1997" lon="3.18666">
        <ele>240.61730957031</ele>
        <time>2016-02-15T07:53:13.000Z</time>
      </trkpt>
      <trkpt lat="47.19967" lon="3.18666">
        <ele>240.82412719727</ele>
        <time>2016-02-15T07:53:16.000Z</time>
      </trkpt>
      <trkpt lat="47.19963" lon="3.18665">
        <ele>241.0560760498</ele>
        <time>2016-02-15T07:53:19.000Z</time>
      </trkpt>
      <trkpt lat="47.19959" lon="3.18665">
        <ele>241.31367492676</ele>
        <time>2016-02-15T07:53:22.000Z</time>
      </trkpt>
      <trkpt lat="47.19956" lon="3.18664">
        <ele>241.56091308594</ele>
        <time>2016-02-15T07:53:25.000Z</time>
      </trkpt>
      <trkpt lat="47.19954" lon="3.18663">
        <ele>241.7698059082</ele>
        <time>2016-02-15T07:53:28.000Z</time>
      </trkpt>
      <trkpt lat="47.19952" lon="3.18663">
        <ele>241.96884155273</ele>
        <time>2016-02-15T07:53:30.000Z</time>
      </trkpt>
      <trkpt lat="47.19947" lon="3.18662">
        <ele>242.16830444336</ele>
        <time>2016-02-15T07:53:33.000Z</time>
      </trkpt>
      <trkpt lat="47.19944" lon="3.18663">
        <ele>242.36845397949</ele>
        <time>2016-02-15T07:53:36.000Z</time>
      </trkpt>
      <trkpt lat="47.19942" lon="3.18662">
        <ele>242.55847167969</ele>
        <time>2016-02-15T07:53:38.000Z</time>
      </trkpt>
      <trkpt lat="47.19939" lon="3.18661">
        <ele>242.74031066895</ele>
        <time>2016-02-15T07:53:40.000Z</time>
      </trkpt>
      <trkpt lat="47.19937" lon="3.18659">
        <ele>242.90621948242</ele>
        <time>2016-02-15T07:53:43.000Z</time>
      </trkpt>
      <trkpt lat="47.19934" lon="3.18658">
        <ele>243.04496765137</ele>
        <time>2016-02-15T07:53:46.000Z</time>
      </trkpt>
      <trkpt lat="47.1993" lon="3.18658">
        <ele>243.18539428711</ele>
        <time>2016-02-15T07:53:49.000Z</time>
      </trkpt>
      <trkpt lat="47.19928" lon="3.18658">
        <ele>243.33818054199</ele>
        <time>2016-02-15T07:53:51.000Z</time>
      </trkpt>
      <trkpt lat="47.19924" lon="3.18656">
        <ele>243.49555969238</ele>
        <time>2016-02-15T07:53:54.000Z</time>
      </trkpt>
      <trkpt lat="47.19921" lon="3.18653">
        <ele>243.65007019043</ele>
        <time>2016-02-15T07:53:57.000Z</time>
      </trkpt>
      <trkpt lat="47.19919" lon="3.18652">
        <ele>243.79235839844</ele>
        <time>2016-02-15T07:53:59.000Z</time>
      </trkpt>
      <trkpt lat="47.19915" lon="3.18649">
        <ele>243.89472961426</ele>
        <time>2016-02-15T07:54:07.000Z</time>
      </trkpt>
      <trkpt lat="47.19911" lon="3.18648">
        <ele>243.99084472656</ele>
        <time>2016-02-15T07:54:09.000Z</time>
      </trkpt>
      <trkpt lat="47.19907" lon="3.18645">
        <ele>244.09896850586</ele>
        <time>2016-02-15T07:54:09.000Z</time>
      </trkpt>
      <trkpt lat="47.19901" lon="3.18641">
        <ele>244.22256469727</ele>
        <time>2016-02-15T07:54:11.000Z</time>
      </trkpt>
      <trkpt lat="47.19898" lon="3.18638">
        <ele>244.34509277344</ele>
        <time>2016-02-15T07:54:13.000Z</time>
      </trkpt>
      <trkpt lat="47.19895" lon="3.18635">
        <ele>244.45866394043</ele>
        <time>2016-02-15T07:54:16.000Z</time>
      </trkpt>
      <trkpt lat="47.19893" lon="3.18632">
        <ele>244.55122375488</ele>
        <time>2016-02-15T07:54:19.000Z</time>
      </trkpt>
      <trkpt lat="47.1989" lon="3.18629">
        <ele>244.62426757812</ele>
        <time>2016-02-15T07:54:22.000Z</time>
      </trkpt>
      <trkpt lat="47.19888" lon="3.18627">
        <ele>244.67329406738</ele>
        <time>2016-02-15T07:54:24.000Z</time>
      </trkpt>
      <trkpt lat="47.19887" lon="3.18625">
        <ele>244.72077941895</ele>
        <time>2016-02-15T07:54:27.000Z</time>
      </trkpt>
      <trkpt lat="47.19883" lon="3.18624">
        <ele>244.80912780762</ele>
        <time>2016-02-15T07:54:30.000Z</time>
      </trkpt>
      <trkpt lat="47.19881" lon="3.18623">
        <ele>244.90898132324</ele>
        <time>2016-02-15T07:54:32.000Z</time>
      </trkpt>
      <trkpt lat="47.19878" lon="3.18619">
        <ele>245.01989746094</ele>
        <time>2016-02-15T07:54:35.000Z</time>
      </trkpt>
      <trkpt lat="47.19877" lon="3.18617">
        <ele>245.14016723633</ele>
        <time>2016-02-15T07:54:37.000Z</time>
      </trkpt>
      <trkpt lat="47.19874" lon="3.18613">
        <ele>245.26347351074</ele>
        <time>2016-02-15T07:54:40.000Z</time>
      </trkpt>
      <trkpt lat="47.19872" lon="3.1861">
        <ele>245.35615539551</ele>
        <time>2016-02-15T07:54:43.000Z</time>
      </trkpt>
      <trkpt lat="47.19871" lon="3.18608">
        <ele>245.45283508301</ele>
        <time>2016-02-15T07:54:46.000Z</time>
      </trkpt>
      <trkpt lat="47.19869" lon="3.18607">
        <ele>245.5386505127</ele>
        <time>2016-02-15T07:54:48.000Z</time>
      </trkpt>
      <trkpt lat="47.19867" lon="3.18604">
        <ele>245.64750671387</ele>
        <time>2016-02-15T07:54:51.000Z</time>
      </trkpt>
      <trkpt lat="47.19865" lon="3.18602">
        <ele>245.76908874512</ele>
        <time>2016-02-15T07:54:53.000Z</time>
      </trkpt>
      <trkpt lat="47.19862" lon="3.18599">
        <ele>245.89950561523</ele>
        <time>2016-02-15T07:54:55.000Z</time>
      </trkpt>
      <trkpt lat="47.19858" lon="3.18594">
        <ele>246.07646179199</ele>
        <time>2016-02-15T07:54:58.000Z</time>
      </trkpt>
      <trkpt lat="47.19856" lon="3.1859">
        <ele>246.25744628906</ele>
        <time>2016-02-15T07:55:00.000Z</time>
      </trkpt>
      <trkpt lat="47.19852" lon="3.18585">
        <ele>246.4729309082</ele>
        <time>2016-02-15T07:55:03.000Z</time>
      </trkpt>
      <trkpt lat="47.19848" lon="3.18582">
        <ele>246.71430969238</ele>
        <time>2016-02-15T07:55:06.000Z</time>
      </trkpt>
      <trkpt lat="47.19844" lon="3.18578">
        <ele>246.93803405762</ele>
        <time>2016-02-15T07:55:09.000Z</time>
      </trkpt>
      <trkpt lat="47.19841" lon="3.18576">
        <ele>247.11959838867</ele>
        <time>2016-02-15T07:55:11.000Z</time>
      </trkpt>
      <trkpt lat="47.19838" lon="3.18572">
        <ele>247.28681945801</ele>
        <time>2016-02-15T07:55:14.000Z</time>
      </trkpt>
      <trkpt lat="47.19834" lon="3.18568">
        <ele>247.37728881836</ele>
        <time>2016-02-15T07:55:17.000Z</time>
      </trkpt>
      <trkpt lat="47.19832" lon="3.18566">
        <ele>247.39916992188</ele>
        <time>2016-02-15T07:55:20.000Z</time>
      </trkpt>
      <trkpt lat="47.19828" lon="3.18562">
        <ele>247.38888549805</ele>
        <time>2016-02-15T07:55:23.000Z</time>
      </trkpt>
      <trkpt lat="47.19826" lon="3.1856">
        <ele>247.33163452148</ele>
        <time>2016-02-15T07:55:25.000Z</time>
      </trkpt>
      <trkpt lat="47.19823" lon="3.18557">
        <ele>247.24320983887</ele>
        <time>2016-02-15T07:55:28.000Z</time>
      </trkpt>
      <trkpt lat="47.1982" lon="3.18556">
        <ele>247.16201782227</ele>
        <time>2016-02-15T07:55:31.000Z</time>
      </trkpt>
      <trkpt lat="47.19818" lon="3.18555">
        <ele>247.09201049805</ele>
        <time>2016-02-15T07:55:33.000Z</time>
      </trkpt>
      <trkpt lat="47.19815" lon="3.18552">
        <ele>247.04281616211</ele>
        <time>2016-02-15T07:55:36.000Z</time>
      </trkpt>
      <trkpt lat="47.19813" lon="3.18551">
        <ele>247.00895690918</ele>
        <time>2016-02-15T07:55:38.000Z</time>
      </trkpt>
      <trkpt lat="47.1981" lon="3.18549">
        <ele>247.00386047363</ele>
        <time>2016-02-15T07:55:40.000Z</time>
      </trkpt>
      <trkpt lat="47.19807" lon="3.18547">
        <ele>246.99787902832</ele>
        <time>2016-02-15T07:55:43.000Z</time>
      </trkpt>
      <trkpt lat="47.19806" lon="3.18546">
        <ele>246.9935760498</ele>
        <time>2016-02-15T07:55:45.000Z</time>
      </trkpt>
      <trkpt lat="47.19802" lon="3.18543">
        <ele>246.99618530273</ele>
        <time>2016-02-15T07:55:48.000Z</time>
      </trkpt>
      <trkpt lat="47.198" lon="3.18541">
        <ele>246.99743652344</ele>
        <time>2016-02-15T07:55:50.000Z</time>
      </trkpt>
      <trkpt lat="47.19798" lon="3.18539">
        <ele>246.98910522461</ele>
        <time>2016-02-15T07:55:53.000Z</time>
      </trkpt>
      <trkpt lat="47.19796" lon="3.18538">
        <ele>246.97402954102</ele>
        <time>2016-02-15T07:55:55.000Z</time>
      </trkpt>
      <trkpt lat="47.19793" lon="3.18535">
        <ele>246.96224975586</ele>
        <time>2016-02-15T07:55:57.000Z</time>
      </trkpt>
      <trkpt lat="47.1979" lon="3.18532">
        <ele>246.94384765625</ele>
        <time>2016-02-15T07:56:00.000Z</time>
      </trkpt>
      <trkpt lat="47.19788" lon="3.1853">
        <ele>246.9326171875</ele>
        <time>2016-02-15T07:56:02.000Z</time>
      </trkpt>
      <trkpt lat="47.19786" lon="3.18528">
        <ele>246.93588256836</ele>
        <time>2016-02-15T07:56:04.000Z</time>
      </trkpt>
      <trkpt lat="47.19782" lon="3.18525">
        <ele>246.94384765625</ele>
        <time>2016-02-15T07:56:07.000Z</time>
      </trkpt>
      <trkpt lat="47.19778" lon="3.18522">
        <ele>246.96398925781</ele>
        <time>2016-02-15T07:56:10.000Z</time>
      </trkpt>
      <trkpt lat="47.19775" lon="3.1852">
        <ele>247.00198364258</ele>
        <time>2016-02-15T07:56:12.000Z</time>
      </trkpt>
      <trkpt lat="47.19773" lon="3.18518">
        <ele>247.05160522461</ele>
        <time>2016-02-15T07:56:14.000Z</time>
      </trkpt>
      <trkpt lat="47.19772" lon="3.18517">
        <ele>247.09887695312</ele>
        <time>2016-02-15T07:56:16.000Z</time>
      </trkpt>
      <trkpt lat="47.1977" lon="3.18515">
        <ele>247.14277648926</ele>
        <time>2016-02-15T07:56:18.000Z</time>
      </trkpt>
      <trkpt lat="47.19765" lon="3.18511">
        <ele>247.1976776123</ele>
        <time>2016-02-15T07:56:21.000Z</time>
      </trkpt>
      <trkpt lat="47.19762" lon="3.18508">
        <ele>247.26596069336</ele>
        <time>2016-02-15T07:56:24.000Z</time>
      </trkpt>
      <trkpt lat="47.19756" lon="3.18505">
        <ele>247.37614440918</ele>
        <time>2016-02-15T07:56:27.000Z</time>
      </trkpt>
      <trkpt lat="47.19753" lon="3.18503">
        <ele>247.51240539551</ele>
        <time>2016-02-15T07:56:30.000Z</time>
      </trkpt>
      <trkpt lat="47.1975" lon="3.18501">
        <ele>247.69079589844</ele>
        <time>2016-02-15T07:56:33.000Z</time>
      </trkpt>
      <trkpt lat="47.19748" lon="3.185">
        <ele>247.88410949707</ele>
        <time>2016-02-15T07:56:35.000Z</time>
      </trkpt>
      <trkpt lat="47.19746" lon="3.18498">
        <ele>248.08120727539</ele>
        <time>2016-02-15T07:56:38.000Z</time>
      </trkpt>
      <trkpt lat="47.19743" lon="3.18496">
        <ele>248.27339172363</ele>
        <time>2016-02-15T07:56:40.000Z</time>
      </trkpt>
      <trkpt lat="47.19741" lon="3.18495">
        <ele>248.46076965332</ele>
        <time>2016-02-15T07:56:42.000Z</time>
      </trkpt>
      <trkpt lat="47.19738" lon="3.18492">
        <ele>248.6438293457</ele>
        <time>2016-02-15T07:56:45.000Z</time>
      </trkpt>
      <trkpt lat="47.19735" lon="3.18487">
        <ele>248.76362609863</ele>
        <time>2016-02-15T07:56:48.000Z</time>
      </trkpt>
      <trkpt lat="47.19733" lon="3.18485">
        <ele>248.87121582031</ele>
        <time>2016-02-15T07:56:50.000Z</time>
      </trkpt>
      <trkpt lat="47.19731" lon="3.18483">
        <ele>248.94746398926</ele>
        <time>2016-02-15T07:56:53.000Z</time>
      </trkpt>
      <trkpt lat="47.19727" lon="3.1848">
        <ele>249.02987670898</ele>
        <time>2016-02-15T07:56:56.000Z</time>
      </trkpt>
      <trkpt lat="47.19726" lon="3.18478">
        <ele>249.08557128906</ele>
        <time>2016-02-15T07:56:58.000Z</time>
      </trkpt>
      <trkpt lat="47.19724" lon="3.18476">
        <ele>249.16975402832</ele>
        <time>2016-02-15T07:57:01.000Z</time>
      </trkpt>
      <trkpt lat="47.1972" lon="3.18473">
        <ele>249.25566101074</ele>
        <time>2016-02-15T07:57:06.000Z</time>
      </trkpt>
      <trkpt lat="47.19717" lon="3.18471">
        <ele>249.36184692383</ele>
        <time>2016-02-15T07:57:07.000Z</time>
      </trkpt>
      <trkpt lat="47.19714" lon="3.18467">
        <ele>249.44364929199</ele>
        <time>2016-02-15T07:57:11.000Z</time>
      </trkpt>
      <trkpt lat="47.19713" lon="3.18466">
        <ele>249.53482055664</ele>
        <time>2016-02-15T07:57:12.000Z</time>
      </trkpt>
      <trkpt lat="47.19709" lon="3.18461">
        <ele>249.60751342773</ele>
        <time>2016-02-15T07:57:15.000Z</time>
      </trkpt>
      <trkpt lat="47.19706" lon="3.18457">
        <ele>249.66305541992</ele>
        <time>2016-02-15T07:57:18.000Z</time>
      </trkpt>
      <trkpt lat="47.19704" lon="3.18454">
        <ele>249.67008972168</ele>
        <time>2016-02-15T07:57:20.000Z</time>
      </trkpt>
      <trkpt lat="47.19702" lon="3.18451">
        <ele>249.65512084961</ele>
        <time>2016-02-15T07:57:22.000Z</time>
      </trkpt>
      <trkpt lat="47.19698" lon="3.18447">
        <ele>249.62435913086</ele>
        <time>2016-02-15T07:57:25.000Z</time>
      </trkpt>
      <trkpt lat="47.19695" lon="3.18444">
        <ele>249.62373352051</ele>
        <time>2016-02-15T07:57:27.000Z</time>
      </trkpt>
      <trkpt lat="47.19693" lon="3.18442">
        <ele>249.62490844727</ele>
        <time>2016-02-15T07:57:29.000Z</time>
      </trkpt>
      <trkpt lat="47.19691" lon="3.1844">
        <ele>249.65266418457</ele>
        <time>2016-02-15T07:57:32.000Z</time>
      </trkpt>
      <trkpt lat="47.19689" lon="3.18438">
        <ele>249.69900512695</ele>
        <time>2016-02-15T07:57:34.000Z</time>
      </trkpt>
      <trkpt lat="47.19686" lon="3.18434">
        <ele>249.72257995605</ele>
        <time>2016-02-15T07:57:37.000Z</time>
      </trkpt>
      <trkpt lat="47.19685" lon="3.18432">
        <ele>249.71011352539</ele>
        <time>2016-02-15T07:57:39.000Z</time>
      </trkpt>
      <trkpt lat="47.19681" lon="3.18427">
        <ele>249.67280578613</ele>
        <time>2016-02-15T07:57:42.000Z</time>
      </trkpt>
      <trkpt lat="47.19678" lon="3.18424">
        <ele>249.60221862793</ele>
        <time>2016-02-15T07:57:44.000Z</time>
      </trkpt>
      <trkpt lat="47.19675" lon="3.18418">
        <ele>249.48791503906</ele>
        <time>2016-02-15T07:57:47.000Z</time>
      </trkpt>
      <trkpt lat="47.19672" lon="3.18414">
        <ele>249.37448120117</ele>
        <time>2016-02-15T07:57:50.000Z</time>
      </trkpt>
      <trkpt lat="47.19669" lon="3.1841">
        <ele>249.26821899414</ele>
        <time>2016-02-15T07:57:53.000Z</time>
      </trkpt>
      <trkpt lat="47.19667" lon="3.1841">
        <ele>249.21322631836</ele>
        <time>2016-02-15T07:57:55.000Z</time>
      </trkpt>
      <trkpt lat="47.19665" lon="3.18408">
        <ele>249.19816589355</ele>
        <time>2016-02-15T07:57:58.000Z</time>
      </trkpt>
      <trkpt lat="47.1966" lon="3.18404">
        <ele>249.28610229492</ele>
        <time>2016-02-15T07:58:02.000Z</time>
      </trkpt>
      <trkpt lat="47.19657" lon="3.184">
        <ele>249.40454101562</ele>
        <time>2016-02-15T07:58:04.000Z</time>
      </trkpt>
      <trkpt lat="47.19654" lon="3.18397">
        <ele>249.5532989502</ele>
        <time>2016-02-15T07:58:06.000Z</time>
      </trkpt>
      <trkpt lat="47.19653" lon="3.18395">
        <ele>249.67317199707</ele>
        <time>2016-02-15T07:58:09.000Z</time>
      </trkpt>
      <trkpt lat="47.19651" lon="3.18393">
        <ele>249.7982635498</ele>
        <time>2016-02-15T07:58:12.000Z</time>
      </trkpt>
      <trkpt lat="47.19649" lon="3.1839">
        <ele>249.86544799805</ele>
        <time>2016-02-15T07:58:15.000Z</time>
      </trkpt>
      <trkpt lat="47.19647" lon="3.18388">
        <ele>249.9401550293</ele>
        <time>2016-02-15T07:58:17.000Z</time>
      </trkpt>
      <trkpt lat="47.19644" lon="3.18384">
        <ele>250.03352355957</ele>
        <time>2016-02-15T07:58:20.000Z</time>
      </trkpt>
      <trkpt lat="47.1964" lon="3.18382">
        <ele>250.21145629883</ele>
        <time>2016-02-15T07:58:23.000Z</time>
      </trkpt>
      <trkpt lat="47.19638" lon="3.18381">
        <ele>250.40617370605</ele>
        <time>2016-02-15T07:58:25.000Z</time>
      </trkpt>
      <trkpt lat="47.19636" lon="3.18379">
        <ele>250.64082336426</ele>
        <time>2016-02-15T07:58:27.000Z</time>
      </trkpt>
      <trkpt lat="47.19633" lon="3.18377">
        <ele>250.92370605469</ele>
        <time>2016-02-15T07:58:30.000Z</time>
      </trkpt>
      <trkpt lat="47.19632" lon="3.18377">
        <ele>251.19421386719</ele>
        <time>2016-02-15T07:58:32.000Z</time>
      </trkpt>
      <trkpt lat="47.19628" lon="3.18373">
        <ele>251.47172546387</ele>
        <time>2016-02-15T07:58:34.000Z</time>
      </trkpt>
      <trkpt lat="47.19622" lon="3.18367">
        <ele>251.79537963867</ele>
        <time>2016-02-15T07:58:40.000Z</time>
      </trkpt>
      <trkpt lat="47.1962" lon="3.18363">
        <ele>252.10751342773</ele>
        <time>2016-02-15T07:58:40.000Z</time>
      </trkpt>
      <trkpt lat="47.19618" lon="3.1836">
        <ele>252.39199829102</ele>
        <time>2016-02-15T07:58:42.000Z</time>
      </trkpt>
      <trkpt lat="47.19613" lon="3.18356">
        <ele>252.74824523926</ele>
        <time>2016-02-15T07:58:44.000Z</time>
      </trkpt>
      <trkpt lat="47.19611" lon="3.18353">
        <ele>253.04545593262</ele>
        <time>2016-02-15T07:58:47.000Z</time>
      </trkpt>
      <trkpt lat="47.19607" lon="3.18347">
        <ele>253.34794616699</ele>
        <time>2016-02-15T07:58:50.000Z</time>
      </trkpt>
      <trkpt lat="47.19604" lon="3.18343">
        <ele>253.69270324707</ele>
        <time>2016-02-15T07:58:53.000Z</time>
      </trkpt>
      <trkpt lat="47.19601" lon="3.1834">
        <ele>254.06352233887</ele>
        <time>2016-02-15T07:58:55.000Z</time>
      </trkpt>
      <trkpt lat="47.19599" lon="3.18338">
        <ele>254.40835571289</ele>
        <time>2016-02-15T07:58:57.000Z</time>
      </trkpt>
      <trkpt lat="47.19595" lon="3.18335">
        <ele>254.80766296387</ele>
        <time>2016-02-15T07:59:00.000Z</time>
      </trkpt>
      <trkpt lat="47.19594" lon="3.18333">
        <ele>255.1459197998</ele>
        <time>2016-02-15T07:59:03.000Z</time>
      </trkpt>
      <trkpt lat="47.19592" lon="3.18331">
        <ele>255.45657348633</ele>
        <time>2016-02-15T07:59:05.000Z</time>
      </trkpt>
      <trkpt lat="47.1959" lon="3.1833">
        <ele>255.7395324707</ele>
        <time>2016-02-15T07:59:07.000Z</time>
      </trkpt>
      <trkpt lat="47.19588" lon="3.18329">
        <ele>255.99502563477</ele>
        <time>2016-02-15T07:59:09.000Z</time>
      </trkpt>
      <trkpt lat="47.19586" lon="3.18329">
        <ele>256.25433349609</ele>
        <time>2016-02-15T07:59:12.000Z</time>
      </trkpt>
      <trkpt lat="47.19583" lon="3.18329">
        <ele>256.57952880859</ele>
        <time>2016-02-15T07:59:15.000Z</time>
      </trkpt>
      <trkpt lat="47.19581" lon="3.18328">
        <ele>256.8916015625</ele>
        <time>2016-02-15T07:59:17.000Z</time>
      </trkpt>
      <trkpt lat="47.19578" lon="3.18328">
        <ele>257.23065185547</ele>
        <time>2016-02-15T07:59:20.000Z</time>
      </trkpt>
      <trkpt lat="47.19572" lon="3.18326">
        <ele>257.58758544922</ele>
        <time>2016-02-15T07:59:23.000Z</time>
      </trkpt>
      <trkpt lat="47.19571" lon="3.18324">
        <ele>257.82681274414</ele>
        <time>2016-02-15T07:59:25.000Z</time>
      </trkpt>
      <trkpt lat="47.19567" lon="3.18321">
        <ele>257.99243164062</ele>
        <time>2016-02-15T07:59:28.000Z</time>
      </trkpt>
      <trkpt lat="47.1956" lon="3.18316">
        <ele>258.12051391602</ele>
        <time>2016-02-15T07:59:31.000Z</time>
      </trkpt>
      <trkpt lat="47.19556" lon="3.18313">
        <ele>258.18481445312</ele>
        <time>2016-02-15T07:59:34.000Z</time>
      </trkpt>
      <trkpt lat="47.19553" lon="3.18311">
        <ele>258.20916748047</ele>
        <time>2016-02-15T07:59:36.000Z</time>
      </trkpt>
      <trkpt lat="47.1955" lon="3.18308">
        <ele>258.23773193359</ele>
        <time>2016-02-15T07:59:39.000Z</time>
      </trkpt>
      <trkpt lat="47.19547" lon="3.18306">
        <ele>258.25146484375</ele>
        <time>2016-02-15T07:59:42.000Z</time>
      </trkpt>
      <trkpt lat="47.19546" lon="3.18305">
        <ele>258.25830078125</ele>
        <time>2016-02-15T07:59:45.000Z</time>
      </trkpt>
      <trkpt lat="47.19542" lon="3.18303">
        <ele>258.30941772461</ele>
        <time>2016-02-15T07:59:47.000Z</time>
      </trkpt>
      <trkpt lat="47.19539" lon="3.18301">
        <ele>258.33099365234</ele>
        <time>2016-02-15T07:59:50.000Z</time>
      </trkpt>
      <trkpt lat="47.19536" lon="3.18299">
        <ele>258.40905761719</ele>
        <time>2016-02-15T07:59:53.000Z</time>
      </trkpt>
      <trkpt lat="47.19533" lon="3.18298">
        <ele>258.50708007812</ele>
        <time>2016-02-15T07:59:55.000Z</time>
      </trkpt>
      <trkpt lat="47.1953" lon="3.18298">
        <ele>258.66790771484</ele>
        <time>2016-02-15T07:59:59.000Z</time>
      </trkpt>
      <trkpt lat="47.19527" lon="3.18296">
        <ele>258.80908203125</ele>
        <time>2016-02-15T08:00:00.000Z</time>
      </trkpt>
      <trkpt lat="47.19524" lon="3.18295">
        <ele>259.00012207031</ele>
        <time>2016-02-15T08:00:03.000Z</time>
      </trkpt>
      <trkpt lat="47.1952" lon="3.18293">
        <ele>259.17230224609</ele>
        <time>2016-02-15T08:00:05.000Z</time>
      </trkpt>
      <trkpt lat="47.19518" lon="3.18291">
        <ele>259.30682373047</ele>
        <time>2016-02-15T08:00:07.000Z</time>
      </trkpt>
      <trkpt lat="47.19516" lon="3.18289">
        <ele>259.3935546875</ele>
        <time>2016-02-15T08:00:10.000Z</time>
      </trkpt>
      <trkpt lat="47.19515" lon="3.18289">
        <ele>259.45782470703</ele>
        <time>2016-02-15T08:00:13.000Z</time>
      </trkpt>
      <trkpt lat="47.19513" lon="3.18288">
        <ele>259.50708007812</ele>
        <time>2016-02-15T08:00:15.000Z</time>
      </trkpt>
      <trkpt lat="47.19509" lon="3.18286">
        <ele>259.56039428711</ele>
        <time>2016-02-15T08:00:18.000Z</time>
      </trkpt>
      <trkpt lat="47.19505" lon="3.18285">
        <ele>259.68127441406</ele>
        <time>2016-02-15T08:00:21.000Z</time>
      </trkpt>
      <trkpt lat="47.19502" lon="3.18283">
        <ele>259.80682373047</ele>
        <time>2016-02-15T08:00:25.000Z</time>
      </trkpt>
      <trkpt lat="47.19499" lon="3.18279">
        <ele>259.89346313477</ele>
        <time>2016-02-15T08:00:28.000Z</time>
      </trkpt>
      <trkpt lat="47.19497" lon="3.18277">
        <ele>259.92932128906</ele>
        <time>2016-02-15T08:00:31.000Z</time>
      </trkpt>
      <trkpt lat="47.19495" lon="3.18276">
        <ele>259.9499206543</ele>
        <time>2016-02-15T08:00:33.000Z</time>
      </trkpt>
      <trkpt lat="47.19491" lon="3.18274">
        <ele>259.93206787109</ele>
        <time>2016-02-15T08:00:36.000Z</time>
      </trkpt>
      <trkpt lat="47.19483" lon="3.1827">
        <ele>259.97323608398</ele>
        <time>2016-02-15T08:00:39.000Z</time>
      </trkpt>
      <trkpt lat="47.19482" lon="3.1827">
        <ele>260.05651855469</ele>
        <time>2016-02-15T08:00:41.000Z</time>
      </trkpt>
      <trkpt lat="47.19481" lon="3.18268">
        <ele>260.16986083984</ele>
        <time>2016-02-15T08:00:46.000Z</time>
      </trkpt>
      <trkpt lat="47.19475" lon="3.18262">
        <ele>260.25704956055</ele>
        <time>2016-02-15T08:00:49.000Z</time>
      </trkpt>
      <trkpt lat="47.19471" lon="3.18257">
        <ele>260.31185913086</ele>
        <time>2016-02-15T08:00:52.000Z</time>
      </trkpt>
      <trkpt lat="47.19464" lon="3.1825">
        <ele>260.29931640625</ele>
        <time>2016-02-15T08:00:55.000Z</time>
      </trkpt>
      <trkpt lat="47.19463" lon="3.18249">
        <ele>260.27035522461</ele>
        <time>2016-02-15T08:00:58.000Z</time>
      </trkpt>
      <trkpt lat="47.19461" lon="3.18246">
        <ele>260.1852722168</ele>
        <time>2016-02-15T08:01:00.000Z</time>
      </trkpt>
      <trkpt lat="47.19455" lon="3.18246">
        <ele>260.23043823242</ele>
        <time>2016-02-15T08:01:06.000Z</time>
      </trkpt>
      <trkpt lat="47.19454" lon="3.18245">
        <ele>260.29132080078</ele>
        <time>2016-02-15T08:01:08.000Z</time>
      </trkpt>
      <trkpt lat="47.1945" lon="3.18241">
        <ele>260.30194091797</ele>
        <time>2016-02-15T08:01:11.000Z</time>
      </trkpt>
      <trkpt lat="47.19445" lon="3.18237">
        <ele>260.25823974609</ele>
        <time>2016-02-15T08:01:14.000Z</time>
      </trkpt>
      <trkpt lat="47.19444" lon="3.18236">
        <ele>260.27438354492</ele>
        <time>2016-02-15T08:01:16.000Z</time>
      </trkpt>
      <trkpt lat="47.19442" lon="3.18234">
        <ele>260.14068603516</ele>
        <time>2016-02-15T08:01:18.000Z</time>
      </trkpt>
      <trkpt lat="47.19435" lon="3.18229">
        <ele>259.95474243164</ele>
        <time>2016-02-15T08:01:21.000Z</time>
      </trkpt>
      <trkpt lat="47.19432" lon="3.18226">
        <ele>259.79113769531</ele>
        <time>2016-02-15T08:01:23.000Z</time>
      </trkpt>
      <trkpt lat="47.1943" lon="3.18224">
        <ele>259.65802001953</ele>
        <time>2016-02-15T08:01:25.000Z</time>
      </trkpt>
      <trkpt lat="47.19429" lon="3.18222">
        <ele>259.45333862305</ele>
        <time>2016-02-15T08:01:27.000Z</time>
      </trkpt>
      <trkpt lat="47.19425" lon="3.18218">
        <ele>259.25936889648</ele>
        <time>2016-02-15T08:01:30.000Z</time>
      </trkpt>
      <trkpt lat="47.19421" lon="3.18217">
        <ele>259.15631103516</ele>
        <time>2016-02-15T08:01:33.000Z</time>
      </trkpt>
      <trkpt lat="47.19419" lon="3.18215">
        <ele>259.06484985352</ele>
        <time>2016-02-15T08:01:35.000Z</time>
      </trkpt>
      <trkpt lat="47.19416" lon="3.18215">
        <ele>259.04580688477</ele>
        <time>2016-02-15T08:01:38.000Z</time>
      </trkpt>
      <trkpt lat="47.19414" lon="3.18213">
        <ele>259.04531860352</ele>
        <time>2016-02-15T08:01:41.000Z</time>
      </trkpt>
      <trkpt lat="47.19408" lon="3.18209">
        <ele>259.00384521484</ele>
        <time>2016-02-15T08:01:44.000Z</time>
      </trkpt>
      <trkpt lat="47.19405" lon="3.18205">
        <ele>258.83316040039</ele>
        <time>2016-02-15T08:01:46.000Z</time>
      </trkpt>
      <trkpt lat="47.19401" lon="3.18204">
        <ele>258.67034912109</ele>
        <time>2016-02-15T08:01:48.000Z</time>
      </trkpt>
      <trkpt lat="47.19398" lon="3.18203">
        <ele>258.47399902344</ele>
        <time>2016-02-15T08:01:51.000Z</time>
      </trkpt>
      <trkpt lat="47.19394" lon="3.18201">
        <ele>258.31262207031</ele>
        <time>2016-02-15T08:01:54.000Z</time>
      </trkpt>
      <trkpt lat="47.1939" lon="3.18199">
        <ele>258.20941162109</ele>
        <time>2016-02-15T08:01:56.000Z</time>
      </trkpt>
      <trkpt lat="47.19388" lon="3.18197">
        <ele>258.13607788086</ele>
        <time>2016-02-15T08:01:59.000Z</time>
      </trkpt>
      <trkpt lat="47.19386" lon="3.18196">
        <ele>258.07064819336</ele>
        <time>2016-02-15T08:02:01.000Z</time>
      </trkpt>
      <trkpt lat="47.19382" lon="3.18195">
        <ele>258.02996826172</ele>
        <time>2016-02-15T08:02:04.000Z</time>
      </trkpt>
      <trkpt lat="47.19379" lon="3.18194">
        <ele>258.01470947266</ele>
        <time>2016-02-15T08:02:06.000Z</time>
      </trkpt>
      <trkpt lat="47.19376" lon="3.18192">
        <ele>257.99157714844</ele>
        <time>2016-02-15T08:02:09.000Z</time>
      </trkpt>
      <trkpt lat="47.19371" lon="3.1819">
        <ele>258.02767944336</ele>
        <time>2016-02-15T08:02:12.000Z</time>
      </trkpt>
      <trkpt lat="47.19369" lon="3.1819">
        <ele>258.08618164062</ele>
        <time>2016-02-15T08:02:14.000Z</time>
      </trkpt>
      <trkpt lat="47.19363" lon="3.18189">
        <ele>258.17172241211</ele>
        <time>2016-02-15T08:02:17.000Z</time>
      </trkpt>
      <trkpt lat="47.19359" lon="3.18188">
        <ele>258.29644775391</ele>
        <time>2016-02-15T08:02:20.000Z</time>
      </trkpt>
      <trkpt lat="47.19354" lon="3.18187">
        <ele>258.49639892578</ele>
        <time>2016-02-15T08:02:23.000Z</time>
      </trkpt>
      <trkpt lat="47.19348" lon="3.18187">
        <ele>258.76831054688</ele>
        <time>2016-02-15T08:02:26.000Z</time>
      </trkpt>
      <trkpt lat="47.19345" lon="3.18186">
        <ele>259.05401611328</ele>
        <time>2016-02-15T08:02:28.000Z</time>
      </trkpt>
      <trkpt lat="47.19342" lon="3.18185">
        <ele>259.30261230469</ele>
        <time>2016-02-15T08:02:30.000Z</time>
      </trkpt>
      <trkpt lat="47.19339" lon="3.18183">
        <ele>259.49642944336</ele>
        <time>2016-02-15T08:02:33.000Z</time>
      </trkpt>
      <trkpt lat="47.19334" lon="3.18182">
        <ele>259.69534301758</ele>
        <time>2016-02-15T08:02:36.000Z</time>
      </trkpt>
      <trkpt lat="47.19331" lon="3.1818">
        <ele>259.78939819336</ele>
        <time>2016-02-15T08:02:38.000Z</time>
      </trkpt>
      <trkpt lat="47.19329" lon="3.18179">
        <ele>259.81903076172</ele>
        <time>2016-02-15T08:02:40.000Z</time>
      </trkpt>
      <trkpt lat="47.19328" lon="3.18178">
        <ele>259.79830932617</ele>
        <time>2016-02-15T08:02:43.000Z</time>
      </trkpt>
      <trkpt lat="47.19324" lon="3.18176">
        <ele>259.75527954102</ele>
        <time>2016-02-15T08:02:46.000Z</time>
      </trkpt>
      <trkpt lat="47.19321" lon="3.18174">
        <ele>259.63339233398</ele>
        <time>2016-02-15T08:02:49.000Z</time>
      </trkpt>
      <trkpt lat="47.19319" lon="3.18174">
        <ele>259.52938842773</ele>
        <time>2016-02-15T08:02:51.000Z</time>
      </trkpt>
      <trkpt lat="47.19315" lon="3.18173">
        <ele>259.46325683594</ele>
        <time>2016-02-15T08:02:54.000Z</time>
      </trkpt>
      <trkpt lat="47.19313" lon="3.18172">
        <ele>259.42486572266</ele>
        <time>2016-02-15T08:02:56.000Z</time>
      </trkpt>
      <trkpt lat="47.19308" lon="3.18169">
        <ele>259.36303710938</ele>
        <time>2016-02-15T08:02:59.000Z</time>
      </trkpt>
      <trkpt lat="47.19306" lon="3.18167">
        <ele>259.29281616211</ele>
        <time>2016-02-15T08:03:01.000Z</time>
      </trkpt>
      <trkpt lat="47.19303" lon="3.18166">
        <ele>259.22714233398</ele>
        <time>2016-02-15T08:03:04.000Z</time>
      </trkpt>
      <trkpt lat="47.19297" lon="3.18166">
        <ele>259.19055175781</ele>
        <time>2016-02-15T08:03:07.000Z</time>
      </trkpt>
      <trkpt lat="47.19292" lon="3.18167">
        <ele>259.21948242188</ele>
        <time>2016-02-15T08:03:10.000Z</time>
      </trkpt>
      <trkpt lat="47.19287" lon="3.18168">
        <ele>259.34069824219</ele>
        <time>2016-02-15T08:03:13.000Z</time>
      </trkpt>
      <trkpt lat="47.19285" lon="3.18168">
        <ele>259.49139404297</ele>
        <time>2016-02-15T08:03:16.000Z</time>
      </trkpt>
      <trkpt lat="47.19281" lon="3.18165">
        <ele>259.64672851562</ele>
        <time>2016-02-15T08:03:21.000Z</time>
      </trkpt>
      <trkpt lat="47.19271" lon="3.18161">
        <ele>259.77749633789</ele>
        <time>2016-02-15T08:03:24.000Z</time>
      </trkpt>
      <trkpt lat="47.19268" lon="3.1816">
        <ele>259.84600830078</ele>
        <time>2016-02-15T08:03:27.000Z</time>
      </trkpt>
      <trkpt lat="47.19265" lon="3.18159">
        <ele>259.87216186523</ele>
        <time>2016-02-15T08:03:30.000Z</time>
      </trkpt>
      <trkpt lat="47.19263" lon="3.18159">
        <ele>259.90298461914</ele>
        <time>2016-02-15T08:03:32.000Z</time>
      </trkpt>
      <trkpt lat="47.19258" lon="3.18159">
        <ele>259.96752929688</ele>
        <time>2016-02-15T08:03:35.000Z</time>
      </trkpt>
      <trkpt lat="47.19254" lon="3.18159">
        <ele>260.04403686523</ele>
        <time>2016-02-15T08:03:38.000Z</time>
      </trkpt>
      <trkpt lat="47.19252" lon="3.18159">
        <ele>260.14077758789</ele>
        <time>2016-02-15T08:03:40.000Z</time>
      </trkpt>
      <trkpt lat="47.19247" lon="3.18159">
        <ele>260.25445556641</ele>
        <time>2016-02-15T08:03:43.000Z</time>
      </trkpt>
      <trkpt lat="47.19244" lon="3.18159">
        <ele>260.36505126953</ele>
        <time>2016-02-15T08:03:46.000Z</time>
      </trkpt>
      <trkpt lat="47.1924" lon="3.1816">
        <ele>260.46954345703</ele>
        <time>2016-02-15T08:03:49.000Z</time>
      </trkpt>
      <trkpt lat="47.19236" lon="3.18161">
        <ele>260.57015991211</ele>
        <time>2016-02-15T08:03:52.000Z</time>
      </trkpt>
      <trkpt lat="47.19233" lon="3.18161">
        <ele>260.66186523438</ele>
        <time>2016-02-15T08:03:54.000Z</time>
      </trkpt>
      <trkpt lat="47.1923" lon="3.18162">
        <ele>260.74517822266</ele>
        <time>2016-02-15T08:03:56.000Z</time>
      </trkpt>
      <trkpt lat="47.19226" lon="3.18163">
        <ele>260.8479309082</ele>
        <time>2016-02-15T08:03:59.000Z</time>
      </trkpt>
      <trkpt lat="47.19223" lon="3.18163">
        <ele>260.92816162109</ele>
        <time>2016-02-15T08:04:03.000Z</time>
      </trkpt>
      <trkpt lat="47.19218" lon="3.18162">
        <ele>260.98892211914</ele>
        <time>2016-02-15T08:04:05.000Z</time>
      </trkpt>
      <trkpt lat="47.19217" lon="3.18162">
        <ele>261.0390625</ele>
        <time>2016-02-15T08:04:07.000Z</time>
      </trkpt>
      <trkpt lat="47.19211" lon="3.1816">
        <ele>261.07495117188</ele>
        <time>2016-02-15T08:04:11.000Z</time>
      </trkpt>
      <trkpt lat="47.19207" lon="3.1816">
        <ele>261.09268188477</ele>
        <time>2016-02-15T08:04:13.000Z</time>
      </trkpt>
      <trkpt lat="47.19204" lon="3.18161">
        <ele>261.11920166016</ele>
        <time>2016-02-15T08:04:17.000Z</time>
      </trkpt>
      <trkpt lat="47.19201" lon="3.18161">
        <ele>261.15997314453</ele>
        <time>2016-02-15T08:04:20.000Z</time>
      </trkpt>
      <trkpt lat="47.19196" lon="3.18161">
        <ele>261.2096862793</ele>
        <time>2016-02-15T08:04:23.000Z</time>
      </trkpt>
      <trkpt lat="47.19193" lon="3.1816">
        <ele>261.25714111328</ele>
        <time>2016-02-15T08:04:25.000Z</time>
      </trkpt>
      <trkpt lat="47.19188" lon="3.18157">
        <ele>261.2766418457</ele>
        <time>2016-02-15T08:04:29.000Z</time>
      </trkpt>
      <trkpt lat="47.19187" lon="3.18156">
        <ele>261.27551269531</ele>
        <time>2016-02-15T08:04:32.000Z</time>
      </trkpt>
      <trkpt lat="47.19184" lon="3.18155">
        <ele>261.24566650391</ele>
        <time>2016-02-15T08:04:35.000Z</time>
      </trkpt>
      <trkpt lat="47.19182" lon="3.18154">
        <ele>261.20803833008</ele>
        <time>2016-02-15T08:04:38.000Z</time>
      </trkpt>
      <trkpt lat="47.1918" lon="3.18154">
        <ele>261.18121337891</ele>
        <time>2016-02-15T08:04:40.000Z</time>
      </trkpt>
      <trkpt lat="47.19178" lon="3.18154">
        <ele>261.17562866211</ele>
        <time>2016-02-15T08:04:42.000Z</time>
      </trkpt>
      <trkpt lat="47.19174" lon="3.18153">
        <ele>261.18670654297</ele>
        <time>2016-02-15T08:04:45.000Z</time>
      </trkpt>
      <trkpt lat="47.1917" lon="3.18154">
        <ele>261.22778320312</ele>
        <time>2016-02-15T08:04:48.000Z</time>
      </trkpt>
      <trkpt lat="47.19168" lon="3.18155">
        <ele>261.27874755859</ele>
        <time>2016-02-15T08:04:50.000Z</time>
      </trkpt>
      <trkpt lat="47.19166" lon="3.18155">
        <ele>261.33700561523</ele>
        <time>2016-02-15T08:04:52.000Z</time>
      </trkpt>
      <trkpt lat="47.19164" lon="3.18155">
        <ele>261.43768310547</ele>
        <time>2016-02-15T08:04:55.000Z</time>
      </trkpt>
      <trkpt lat="47.19161" lon="3.18154">
        <ele>261.55938720703</ele>
        <time>2016-02-15T08:04:57.000Z</time>
      </trkpt>
      <trkpt lat="47.19159" lon="3.18153">
        <ele>261.68865966797</ele>
        <time>2016-02-15T08:05:00.000Z</time>
      </trkpt>
      <trkpt lat="47.19158" lon="3.18153">
        <ele>261.82745361328</ele>
        <time>2016-02-15T08:05:03.000Z</time>
      </trkpt>
      <trkpt lat="47.19156" lon="3.18154">
        <ele>261.97787475586</ele>
        <time>2016-02-15T08:05:05.000Z</time>
      </trkpt>
      <trkpt lat="47.19154" lon="3.18154">
        <ele>262.12899780273</ele>
        <time>2016-02-15T08:05:07.000Z</time>
      </trkpt>
      <trkpt lat="47.19152" lon="3.18155">
        <ele>262.28237915039</ele>
        <time>2016-02-15T08:05:10.000Z</time>
      </trkpt>
      <trkpt lat="47.19151" lon="3.18155">
        <ele>262.44390869141</ele>
        <time>2016-02-15T08:05:13.000Z</time>
      </trkpt>
      <trkpt lat="47.19149" lon="3.18156">
        <ele>262.61218261719</ele>
        <time>2016-02-15T08:05:16.000Z</time>
      </trkpt>
      <trkpt lat="47.19148" lon="3.18157">
        <ele>262.77780151367</ele>
        <time>2016-02-15T08:05:18.000Z</time>
      </trkpt>
      <trkpt lat="47.19145" lon="3.18156">
        <ele>262.94219970703</ele>
        <time>2016-02-15T08:05:20.000Z</time>
      </trkpt>
      <trkpt lat="47.19139" lon="3.18156">
        <ele>263.17202758789</ele>
        <time>2016-02-15T08:05:23.000Z</time>
      </trkpt>
      <trkpt lat="47.19128" lon="3.18156">
        <ele>263.53839111328</ele>
        <time>2016-02-15T08:05:26.000Z</time>
      </trkpt>
      <trkpt lat="47.19123" lon="3.18157">
        <ele>263.96820068359</ele>
        <time>2016-02-15T08:05:29.000Z</time>
      </trkpt>
      <trkpt lat="47.19122" lon="3.18157">
        <ele>264.41244506836</ele>
        <time>2016-02-15T08:05:31.000Z</time>
      </trkpt>
      <trkpt lat="47.19117" lon="3.18156">
        <ele>264.86993408203</ele>
        <time>2016-02-15T08:05:34.000Z</time>
      </trkpt>
      <trkpt lat="47.19114" lon="3.18157">
        <ele>265.30395507812</ele>
        <time>2016-02-15T08:05:36.000Z</time>
      </trkpt>
      <trkpt lat="47.19112" lon="3.18158">
        <ele>265.60098266602</ele>
        <time>2016-02-15T08:05:38.000Z</time>
      </trkpt>
      <trkpt lat="47.1911" lon="3.18158">
        <ele>265.84774780273</ele>
        <time>2016-02-15T08:05:40.000Z</time>
      </trkpt>
      <trkpt lat="47.19106" lon="3.18159">
        <ele>266.119140625</ele>
        <time>2016-02-15T08:05:43.000Z</time>
      </trkpt>
      <trkpt lat="47.19102" lon="3.18161">
        <ele>266.42831420898</ele>
        <time>2016-02-15T08:05:46.000Z</time>
      </trkpt>
      <trkpt lat="47.19098" lon="3.18162">
        <ele>266.73941040039</ele>
        <time>2016-02-15T08:05:48.000Z</time>
      </trkpt>
      <trkpt lat="47.19096" lon="3.18163">
        <ele>267.06591796875</ele>
        <time>2016-02-15T08:05:50.000Z</time>
      </trkpt>
      <trkpt lat="47.19093" lon="3.18164">
        <ele>267.39682006836</ele>
        <time>2016-02-15T08:05:53.000Z</time>
      </trkpt>
      <trkpt lat="47.19091" lon="3.18164">
        <ele>267.71026611328</ele>
        <time>2016-02-15T08:05:56.000Z</time>
      </trkpt>
      <trkpt lat="47.19089" lon="3.18165">
        <ele>267.97775268555</ele>
        <time>2016-02-15T08:05:58.000Z</time>
      </trkpt>
      <trkpt lat="47.19086" lon="3.18167">
        <ele>268.23941040039</ele>
        <time>2016-02-15T08:06:01.000Z</time>
      </trkpt>
      <trkpt lat="47.19084" lon="3.18167">
        <ele>268.47827148438</ele>
        <time>2016-02-15T08:06:04.000Z</time>
      </trkpt>
      <trkpt lat="47.19081" lon="3.18168">
        <ele>268.71914672852</ele>
        <time>2016-02-15T08:06:07.000Z</time>
      </trkpt>
      <trkpt lat="47.19078" lon="3.18169">
        <ele>268.99298095703</ele>
        <time>2016-02-15T08:06:10.000Z</time>
      </trkpt>
      <trkpt lat="47.19071" lon="3.18169">
        <ele>269.34869384766</ele>
        <time>2016-02-15T08:06:13.000Z</time>
      </trkpt>
      <trkpt lat="47.19067" lon="3.18168">
        <ele>269.71279907227</ele>
        <time>2016-02-15T08:06:16.000Z</time>
      </trkpt>
      <trkpt lat="47.19061" lon="3.18168">
        <ele>270.14849853516</ele>
        <time>2016-02-15T08:06:19.000Z</time>
      </trkpt>
      <trkpt lat="47.19057" lon="3.18168">
        <ele>270.60748291016</ele>
        <time>2016-02-15T08:06:22.000Z</time>
      </trkpt>
      <trkpt lat="47.19054" lon="3.18168">
        <ele>271.04794311523</ele>
        <time>2016-02-15T08:06:24.000Z</time>
      </trkpt>
      <trkpt lat="47.19047" lon="3.18166">
        <ele>271.49841308594</ele>
        <time>2016-02-15T08:06:27.000Z</time>
      </trkpt>
      <trkpt lat="47.19043" lon="3.18163">
        <ele>271.90942382812</ele>
        <time>2016-02-15T08:06:30.000Z</time>
      </trkpt>
      <trkpt lat="47.19041" lon="3.18164">
        <ele>272.26113891602</ele>
        <time>2016-02-15T08:06:32.000Z</time>
      </trkpt>
      <trkpt lat="47.19038" lon="3.18165">
        <ele>272.62329101562</ele>
        <time>2016-02-15T08:06:35.000Z</time>
      </trkpt>
      <trkpt lat="47.19035" lon="3.18167">
        <ele>272.98977661133</ele>
        <time>2016-02-15T08:06:37.000Z</time>
      </trkpt>
      <trkpt lat="47.19033" lon="3.18168">
        <ele>273.26211547852</ele>
        <time>2016-02-15T08:06:40.000Z</time>
      </trkpt>
      <trkpt lat="47.1903" lon="3.1817">
        <ele>273.55776977539</ele>
        <time>2016-02-15T08:06:43.000Z</time>
      </trkpt>
      <trkpt lat="47.19025" lon="3.1817">
        <ele>273.904296875</ele>
        <time>2016-02-15T08:06:48.000Z</time>
      </trkpt>
      <trkpt lat="47.1902" lon="3.18173">
        <ele>274.24459838867</ele>
        <time>2016-02-15T08:06:50.000Z</time>
      </trkpt>
      <trkpt lat="47.19015" lon="3.18171">
        <ele>274.62066650391</ele>
        <time>2016-02-15T08:06:52.000Z</time>
      </trkpt>
      <trkpt lat="47.19014" lon="3.1817">
        <ele>274.97534179688</ele>
        <time>2016-02-15T08:06:55.000Z</time>
      </trkpt>
      <trkpt lat="47.19013" lon="3.18169">
        <ele>275.29315185547</ele>
        <time>2016-02-15T08:06:57.000Z</time>
      </trkpt>
      <trkpt lat="47.1901" lon="3.18169">
        <ele>275.57308959961</ele>
        <time>2016-02-15T08:07:00.000Z</time>
      </trkpt>
      <trkpt lat="47.19007" lon="3.1817">
        <ele>275.83926391602</ele>
        <time>2016-02-15T08:07:03.000Z</time>
      </trkpt>
      <trkpt lat="47.19002" lon="3.1817">
        <ele>276.08868408203</ele>
        <time>2016-02-15T08:07:06.000Z</time>
      </trkpt>
      <trkpt lat="47.18998" lon="3.18171">
        <ele>276.36697387695</ele>
        <time>2016-02-15T08:07:09.000Z</time>
      </trkpt>
      <trkpt lat="47.18995" lon="3.18174">
        <ele>276.6369934082</ele>
        <time>2016-02-15T08:07:12.000Z</time>
      </trkpt>
      <trkpt lat="47.18993" lon="3.18175">
        <ele>276.86660766602</ele>
        <time>2016-02-15T08:07:14.000Z</time>
      </trkpt>
      <trkpt lat="47.18991" lon="3.18176">
        <ele>277.0510559082</ele>
        <time>2016-02-15T08:07:17.000Z</time>
      </trkpt>
      <trkpt lat="47.18987" lon="3.18177">
        <ele>277.18127441406</ele>
        <time>2016-02-15T08:07:20.000Z</time>
      </trkpt>
      <trkpt lat="47.18982" lon="3.18178">
        <ele>277.30218505859</ele>
        <time>2016-02-15T08:07:22.000Z</time>
      </trkpt>
      <trkpt lat="47.18979" lon="3.18179">
        <ele>277.42681884766</ele>
        <time>2016-02-15T08:07:24.000Z</time>
      </trkpt>
      <trkpt lat="47.18975" lon="3.1818">
        <ele>277.56695556641</ele>
        <time>2016-02-15T08:07:27.000Z</time>
      </trkpt>
      <trkpt lat="47.1897" lon="3.18182">
        <ele>277.73315429688</ele>
        <time>2016-02-15T08:07:30.000Z</time>
      </trkpt>
      <trkpt lat="47.18966" lon="3.18181">
        <ele>277.90286254883</ele>
        <time>2016-02-15T08:07:33.000Z</time>
      </trkpt>
      <trkpt lat="47.18962" lon="3.18182">
        <ele>278.0666809082</ele>
        <time>2016-02-15T08:07:36.000Z</time>
      </trkpt>
      <trkpt lat="47.1896" lon="3.18181">
        <ele>278.22723388672</ele>
        <time>2016-02-15T08:07:38.000Z</time>
      </trkpt>
      <trkpt lat="47.18956" lon="3.18179">
        <ele>278.39190673828</ele>
        <time>2016-02-15T08:07:41.000Z</time>
      </trkpt>
      <trkpt lat="47.18953" lon="3.18176">
        <ele>278.53475952148</ele>
        <time>2016-02-15T08:07:44.000Z</time>
      </trkpt>
      <trkpt lat="47.1895" lon="3.18174">
        <ele>278.66546630859</ele>
        <time>2016-02-15T08:07:47.000Z</time>
      </trkpt>
      <trkpt lat="47.18948" lon="3.18172">
        <ele>278.76312255859</ele>
        <time>2016-02-15T08:07:49.000Z</time>
      </trkpt>
      <trkpt lat="47.18945" lon="3.18171">
        <ele>278.86822509766</ele>
        <time>2016-02-15T08:07:52.000Z</time>
      </trkpt>
      <trkpt lat="47.18941" lon="3.1817">
        <ele>278.96566772461</ele>
        <time>2016-02-15T08:07:54.000Z</time>
      </trkpt>
      <trkpt lat="47.18935" lon="3.18168">
        <ele>279.08184814453</ele>
        <time>2016-02-15T08:07:57.000Z</time>
      </trkpt>
      <trkpt lat="47.18929" lon="3.18167">
        <ele>279.21417236328</ele>
        <time>2016-02-15T08:08:00.000Z</time>
      </trkpt>
      <trkpt lat="47.18924" lon="3.18167">
        <ele>279.37701416016</ele>
        <time>2016-02-15T08:08:03.000Z</time>
      </trkpt>
      <trkpt lat="47.18922" lon="3.18168">
        <ele>279.53399658203</ele>
        <time>2016-02-15T08:08:05.000Z</time>
      </trkpt>
      <trkpt lat="47.1892" lon="3.18168">
        <ele>279.68011474609</ele>
        <time>2016-02-15T08:08:08.000Z</time>
      </trkpt>
      <trkpt lat="47.18917" lon="3.18167">
        <ele>279.80230712891</ele>
        <time>2016-02-15T08:08:11.000Z</time>
      </trkpt>
      <trkpt lat="47.18915" lon="3.18166">
        <ele>279.89990234375</ele>
        <time>2016-02-15T08:08:13.000Z</time>
      </trkpt>
      <trkpt lat="47.18911" lon="3.18166">
        <ele>280.00457763672</ele>
        <time>2016-02-15T08:08:16.000Z</time>
      </trkpt>
      <trkpt lat="47.18907" lon="3.18166">
        <ele>280.12982177734</ele>
        <time>2016-02-15T08:08:18.000Z</time>
      </trkpt>
      <trkpt lat="47.18902" lon="3.18168">
        <ele>280.29312133789</ele>
        <time>2016-02-15T08:08:21.000Z</time>
      </trkpt>
      <trkpt lat="47.18901" lon="3.18169">
        <ele>280.4641418457</ele>
        <time>2016-02-15T08:08:23.000Z</time>
      </trkpt>
      <trkpt lat="47.18899" lon="3.1817">
        <ele>280.64404296875</ele>
        <time>2016-02-15T08:08:25.000Z</time>
      </trkpt>
      <trkpt lat="47.18894" lon="3.18172">
        <ele>280.84521484375</ele>
        <time>2016-02-15T08:08:30.000Z</time>
      </trkpt>
      <trkpt lat="47.18891" lon="3.18173">
        <ele>281.03857421875</ele>
        <time>2016-02-15T08:08:32.000Z</time>
      </trkpt>
      <trkpt lat="47.1889" lon="3.18174">
        <ele>281.19692993164</ele>
        <time>2016-02-15T08:08:36.000Z</time>
      </trkpt>
      <trkpt lat="47.18887" lon="3.18176">
        <ele>281.37075805664</ele>
        <time>2016-02-15T08:08:38.000Z</time>
      </trkpt>
      <trkpt lat="47.18879" lon="3.18183">
        <ele>281.65829467773</ele>
        <time>2016-02-15T08:08:41.000Z</time>
      </trkpt>
      <trkpt lat="47.18874" lon="3.18185">
        <ele>281.94369506836</ele>
        <time>2016-02-15T08:08:44.000Z</time>
      </trkpt>
      <trkpt lat="47.18872" lon="3.18187">
        <ele>282.24081420898</ele>
        <time>2016-02-15T08:08:47.000Z</time>
      </trkpt>
      <trkpt lat="47.18869" lon="3.18189">
        <ele>282.56036376953</ele>
        <time>2016-02-15T08:08:49.000Z</time>
      </trkpt>
      <trkpt lat="47.18864" lon="3.18191">
        <ele>282.91119384766</ele>
        <time>2016-02-15T08:08:52.000Z</time>
      </trkpt>
      <trkpt lat="47.18861" lon="3.18193">
        <ele>283.17575073242</ele>
        <time>2016-02-15T08:08:55.000Z</time>
      </trkpt>
      <trkpt lat="47.18859" lon="3.18194">
        <ele>283.41012573242</ele>
        <time>2016-02-15T08:08:57.000Z</time>
      </trkpt>
      <trkpt lat="47.18856" lon="3.18196">
        <ele>283.65386962891</ele>
        <time>2016-02-15T08:09:00.000Z</time>
      </trkpt>
      <trkpt lat="47.18851" lon="3.18197">
        <ele>283.91848754883</ele>
        <time>2016-02-15T08:09:02.000Z</time>
      </trkpt>
      <trkpt lat="47.18847" lon="3.18197">
        <ele>284.1689453125</ele>
        <time>2016-02-15T08:09:05.000Z</time>
      </trkpt>
      <trkpt lat="47.18843" lon="3.18198">
        <ele>284.41949462891</ele>
        <time>2016-02-15T08:09:08.000Z</time>
      </trkpt>
      <trkpt lat="47.1884" lon="3.182">
        <ele>284.69537353516</ele>
        <time>2016-02-15T08:09:11.000Z</time>
      </trkpt>
      <trkpt lat="47.18837" lon="3.18202">
        <ele>284.96926879883</ele>
        <time>2016-02-15T08:09:14.000Z</time>
      </trkpt>
      <trkpt lat="47.18828" lon="3.18207">
        <ele>285.27117919922</ele>
        <time>2016-02-15T08:09:17.000Z</time>
      </trkpt>
      <trkpt lat="47.18821" lon="3.18209">
        <ele>285.54693603516</ele>
        <time>2016-02-15T08:09:20.000Z</time>
      </trkpt>
      <trkpt lat="47.18818" lon="3.18209">
        <ele>285.78057861328</ele>
        <time>2016-02-15T08:09:22.000Z</time>
      </trkpt>
      <trkpt lat="47.18816" lon="3.18209">
        <ele>285.96157836914</ele>
        <time>2016-02-15T08:09:25.000Z</time>
      </trkpt>
      <trkpt lat="47.18815" lon="3.1821">
        <ele>286.09970092773</ele>
        <time>2016-02-15T08:09:28.000Z</time>
      </trkpt>
      <trkpt lat="47.18813" lon="3.18211">
        <ele>286.15960693359</ele>
        <time>2016-02-15T08:09:30.000Z</time>
      </trkpt>
      <trkpt lat="47.18811" lon="3.18212">
        <ele>286.20611572266</ele>
        <time>2016-02-15T08:09:32.000Z</time>
      </trkpt>
      <trkpt lat="47.18807" lon="3.18214">
        <ele>286.26495361328</ele>
        <time>2016-02-15T08:09:35.000Z</time>
      </trkpt>
      <trkpt lat="47.18803" lon="3.18216">
        <ele>286.33743286133</ele>
        <time>2016-02-15T08:09:37.000Z</time>
      </trkpt>
      <trkpt lat="47.18801" lon="3.18217">
        <ele>286.41180419922</ele>
        <time>2016-02-15T08:09:40.000Z</time>
      </trkpt>
      <trkpt lat="47.18794" lon="3.18217">
        <ele>286.47952270508</ele>
        <time>2016-02-15T08:09:43.000Z</time>
      </trkpt>
      <trkpt lat="47.18792" lon="3.18216">
        <ele>286.53179931641</ele>
        <time>2016-02-15T08:09:45.000Z</time>
      </trkpt>
      <trkpt lat="47.18786" lon="3.18218">
        <ele>286.58627319336</ele>
        <time>2016-02-15T08:09:57.000Z</time>
      </trkpt>
      <trkpt lat="47.18784" lon="3.18219">
        <ele>286.62826538086</ele>
        <time>2016-02-15T08:09:59.000Z</time>
      </trkpt>
      <trkpt lat="47.18778" lon="3.18217">
        <ele>286.65045166016</ele>
        <time>2016-02-15T08:10:02.000Z</time>
      </trkpt>
      <trkpt lat="47.18774" lon="3.18213">
        <ele>286.64199829102</ele>
        <time>2016-02-15T08:10:05.000Z</time>
      </trkpt>
      <trkpt lat="47.18772" lon="3.18212">
        <ele>286.62774658203</ele>
        <time>2016-02-15T08:10:07.000Z</time>
      </trkpt>
      <trkpt lat="47.18767" lon="3.1821">
        <ele>286.57952880859</ele>
        <time>2016-02-15T08:10:09.000Z</time>
      </trkpt>
      <trkpt lat="47.18765" lon="3.18209">
        <ele>286.52215576172</ele>
        <time>2016-02-15T08:10:12.000Z</time>
      </trkpt>
      <trkpt lat="47.18761" lon="3.1821">
        <ele>286.48687744141</ele>
        <time>2016-02-15T08:10:15.000Z</time>
      </trkpt>
      <trkpt lat="47.18759" lon="3.18212">
        <ele>286.49526977539</ele>
        <time>2016-02-15T08:10:18.000Z</time>
      </trkpt>
      <trkpt lat="47.18756" lon="3.18214">
        <ele>286.52368164062</ele>
        <time>2016-02-15T08:10:21.000Z</time>
      </trkpt>
      <trkpt lat="47.18755" lon="3.18215">
        <ele>286.57415771484</ele>
        <time>2016-02-15T08:10:24.000Z</time>
      </trkpt>
      <trkpt lat="47.18749" lon="3.18216">
        <ele>286.65399169922</ele>
        <time>2016-02-15T08:10:26.000Z</time>
      </trkpt>
      <trkpt lat="47.18746" lon="3.18217">
        <ele>286.74984741211</ele>
        <time>2016-02-15T08:10:28.000Z</time>
      </trkpt>
      <trkpt lat="47.18743" lon="3.18218">
        <ele>286.85968017578</ele>
        <time>2016-02-15T08:10:31.000Z</time>
      </trkpt>
      <trkpt lat="47.1874" lon="3.18216">
        <ele>286.96734619141</ele>
        <time>2016-02-15T08:10:34.000Z</time>
      </trkpt>
      <trkpt lat="47.18738" lon="3.18214">
        <ele>287.06744384766</ele>
        <time>2016-02-15T08:10:37.000Z</time>
      </trkpt>
      <trkpt lat="47.18737" lon="3.18214">
        <ele>287.14617919922</ele>
        <time>2016-02-15T08:10:40.000Z</time>
      </trkpt>
      <trkpt lat="47.18735" lon="3.18213">
        <ele>287.21020507812</ele>
        <time>2016-02-15T08:10:42.000Z</time>
      </trkpt>
      <trkpt lat="47.18733" lon="3.18213">
        <ele>287.25317382812</ele>
        <time>2016-02-15T08:10:44.000Z</time>
      </trkpt>
      <trkpt lat="47.18732" lon="3.18213">
        <ele>287.29803466797</ele>
        <time>2016-02-15T08:10:46.000Z</time>
      </trkpt>
      <trkpt lat="47.1873" lon="3.18214">
        <ele>287.36395263672</ele>
        <time>2016-02-15T08:10:49.000Z</time>
      </trkpt>
      <trkpt lat="47.18723" lon="3.18212">
        <ele>287.46722412109</ele>
        <time>2016-02-15T08:10:52.000Z</time>
      </trkpt>
      <trkpt lat="47.18723" lon="3.18212">
        <ele>287.564453125</ele>
        <time>2016-02-15T08:10:54.000Z</time>
      </trkpt>
      <trkpt lat="47.18718" lon="3.18211">
        <ele>287.68572998047</ele>
        <time>2016-02-15T08:11:00.000Z</time>
      </trkpt>
      <trkpt lat="47.18713" lon="3.1821">
        <ele>287.82064819336</ele>
        <time>2016-02-15T08:11:02.000Z</time>
      </trkpt>
      <trkpt lat="47.1871" lon="3.1821">
        <ele>287.96099853516</ele>
        <time>2016-02-15T08:11:05.000Z</time>
      </trkpt>
      <trkpt lat="47.18708" lon="3.18209">
        <ele>288.06826782227</ele>
        <time>2016-02-15T08:11:08.000Z</time>
      </trkpt>
      <trkpt lat="47.18704" lon="3.18204">
        <ele>288.17456054688</ele>
        <time>2016-02-15T08:11:12.000Z</time>
      </trkpt>
      <trkpt lat="47.187" lon="3.18202">
        <ele>288.26641845703</ele>
        <time>2016-02-15T08:11:16.000Z</time>
      </trkpt>
      <trkpt lat="47.18698" lon="3.18203">
        <ele>288.35684204102</ele>
        <time>2016-02-15T08:11:19.000Z</time>
      </trkpt>
      <trkpt lat="47.18697" lon="3.18204">
        <ele>288.43469238281</ele>
        <time>2016-02-15T08:11:22.000Z</time>
      </trkpt>
      <trkpt lat="47.18694" lon="3.18207">
        <ele>288.54376220703</ele>
        <time>2016-02-15T08:11:25.000Z</time>
      </trkpt>
      <trkpt lat="47.18691" lon="3.18209">
        <ele>288.6794128418</ele>
        <time>2016-02-15T08:11:27.000Z</time>
      </trkpt>
      <trkpt lat="47.18687" lon="3.1821">
        <ele>288.83303833008</ele>
        <time>2016-02-15T08:11:30.000Z</time>
      </trkpt>
      <trkpt lat="47.18684" lon="3.1821">
        <ele>288.98754882812</ele>
        <time>2016-02-15T08:11:33.000Z</time>
      </trkpt>
      <trkpt lat="47.1868" lon="3.1821">
        <ele>289.15777587891</ele>
        <time>2016-02-15T08:11:36.000Z</time>
      </trkpt>
      <trkpt lat="47.18678" lon="3.18208">
        <ele>289.29034423828</ele>
        <time>2016-02-15T08:11:39.000Z</time>
      </trkpt>
      <trkpt lat="47.18677" lon="3.18205">
        <ele>289.39157104492</ele>
        <time>2016-02-15T08:11:42.000Z</time>
      </trkpt>
      <trkpt lat="47.18675" lon="3.18204">
        <ele>289.46606445312</ele>
        <time>2016-02-15T08:11:44.000Z</time>
      </trkpt>
      <trkpt lat="47.18673" lon="3.18203">
        <ele>289.5241394043</ele>
        <time>2016-02-15T08:11:47.000Z</time>
      </trkpt>
      <trkpt lat="47.1867" lon="3.18203">
        <ele>289.57806396484</ele>
        <time>2016-02-15T08:11:50.000Z</time>
      </trkpt>
      <trkpt lat="47.18668" lon="3.18203">
        <ele>289.64404296875</ele>
        <time>2016-02-15T08:11:53.000Z</time>
      </trkpt>
      <trkpt lat="47.18663" lon="3.18203">
        <ele>289.74237060547</ele>
        <time>2016-02-15T08:11:56.000Z</time>
      </trkpt>
      <trkpt lat="47.18661" lon="3.18203">
        <ele>289.84585571289</ele>
        <time>2016-02-15T08:11:59.000Z</time>
      </trkpt>
      <trkpt lat="47.18656" lon="3.18202">
        <ele>289.97894287109</ele>
        <time>2016-02-15T08:12:07.000Z</time>
      </trkpt>
      <trkpt lat="47.1865" lon="3.18201">
        <ele>290.12338256836</ele>
        <time>2016-02-15T08:12:18.000Z</time>
      </trkpt>
      <trkpt lat="47.18645" lon="3.182">
        <ele>290.28387451172</ele>
        <time>2016-02-15T08:12:22.000Z</time>
      </trkpt>
      <trkpt lat="47.1864" lon="3.18198">
        <ele>290.44323730469</ele>
        <time>2016-02-15T08:12:25.000Z</time>
      </trkpt>
      <trkpt lat="47.18634" lon="3.18195">
        <ele>290.62850952148</ele>
        <time>2016-02-15T08:12:28.000Z</time>
      </trkpt>
      <trkpt lat="47.18618" lon="3.18191">
        <ele>290.884765625</ele>
        <time>2016-02-15T08:12:31.000Z</time>
      </trkpt>
      <trkpt lat="47.18615" lon="3.18189">
        <ele>291.13226318359</ele>
        <time>2016-02-15T08:12:34.000Z</time>
      </trkpt>
      <trkpt lat="47.18612" lon="3.18189">
        <ele>291.36514282227</ele>
        <time>2016-02-15T08:12:37.000Z</time>
      </trkpt>
      <trkpt lat="47.18609" lon="3.18189">
        <ele>291.59292602539</ele>
        <time>2016-02-15T08:12:40.000Z</time>
      </trkpt>
      <trkpt lat="47.18608" lon="3.18189">
        <ele>291.78851318359</ele>
        <time>2016-02-15T08:12:43.000Z</time>
      </trkpt>
      <trkpt lat="47.18605" lon="3.18189">
        <ele>291.89712524414</ele>
        <time>2016-02-15T08:12:45.000Z</time>
      </trkpt>
      <trkpt lat="47.18601" lon="3.1819">
        <ele>292.00912475586</ele>
        <time>2016-02-15T08:12:48.000Z</time>
      </trkpt>
      <trkpt lat="47.18598" lon="3.18191">
        <ele>292.12921142578</ele>
        <time>2016-02-15T08:12:51.000Z</time>
      </trkpt>
      <trkpt lat="47.18597" lon="3.18191">
        <ele>292.23565673828</ele>
        <time>2016-02-15T08:12:53.000Z</time>
      </trkpt>
      <trkpt lat="47.18594" lon="3.1819">
        <ele>292.35107421875</ele>
        <time>2016-02-15T08:12:56.000Z</time>
      </trkpt>
      <trkpt lat="47.18592" lon="3.1819">
        <ele>292.45623779297</ele>
        <time>2016-02-15T08:12:58.000Z</time>
      </trkpt>
      <trkpt lat="47.1859" lon="3.18189">
        <ele>292.55014038086</ele>
        <time>2016-02-15T08:13:01.000Z</time>
      </trkpt>
      <trkpt lat="47.18588" lon="3.18189">
        <ele>292.63323974609</ele>
        <time>2016-02-15T08:13:03.000Z</time>
      </trkpt>
      <trkpt lat="47.18586" lon="3.18182">
        <ele>292.71896362305</ele>
        <time>2016-02-15T08:13:22.000Z</time>
      </trkpt>
      <trkpt lat="47.18585" lon="3.18181">
        <ele>292.79580688477</ele>
        <time>2016-02-15T08:13:29.000Z</time>
      </trkpt>
      <trkpt lat="47.18583" lon="3.1818">
        <ele>292.87457275391</ele>
        <time>2016-02-15T08:13:33.000Z</time>
      </trkpt>
      <trkpt lat="47.18578" lon="3.18175">
        <ele>292.94165039062</ele>
        <time>2016-02-15T08:13:36.000Z</time>
      </trkpt>
      <trkpt lat="47.18568" lon="3.18172">
        <ele>293.02069091797</ele>
        <time>2016-02-15T08:13:39.000Z</time>
      </trkpt>
      <trkpt lat="47.18566" lon="3.18171">
        <ele>293.08782958984</ele>
        <time>2016-02-15T08:13:41.000Z</time>
      </trkpt>
      <trkpt lat="47.18563" lon="3.18172">
        <ele>293.15182495117</ele>
        <time>2016-02-15T08:13:44.000Z</time>
      </trkpt>
      <trkpt lat="47.18558" lon="3.18171">
        <ele>293.21343994141</ele>
        <time>2016-02-15T08:13:47.000Z</time>
      </trkpt>
      <trkpt lat="47.18554" lon="3.1817">
        <ele>293.27172851562</ele>
        <time>2016-02-15T08:13:49.000Z</time>
      </trkpt>
      <trkpt lat="47.18551" lon="3.18169">
        <ele>293.31079101562</ele>
        <time>2016-02-15T08:13:52.000Z</time>
      </trkpt>
      <trkpt lat="47.1855" lon="3.18169">
        <ele>293.34930419922</ele>
        <time>2016-02-15T08:13:54.000Z</time>
      </trkpt>
      <trkpt lat="47.18548" lon="3.18168">
        <ele>293.38339233398</ele>
        <time>2016-02-15T08:13:57.000Z</time>
      </trkpt>
      <trkpt lat="47.18544" lon="3.18167">
        <ele>293.41253662109</ele>
        <time>2016-02-15T08:14:00.000Z</time>
      </trkpt>
      <trkpt lat="47.18542" lon="3.18166">
        <ele>293.43627929688</ele>
        <time>2016-02-15T08:14:03.000Z</time>
      </trkpt>
      <trkpt lat="47.18541" lon="3.18166">
        <ele>293.45468139648</ele>
        <time>2016-02-15T08:14:05.000Z</time>
      </trkpt>
      <trkpt lat="47.18538" lon="3.18165">
        <ele>293.47119140625</ele>
        <time>2016-02-15T08:14:08.000Z</time>
      </trkpt>
      <trkpt lat="47.18528" lon="3.18165">
        <ele>293.50537109375</ele>
        <time>2016-02-15T08:14:14.000Z</time>
      </trkpt>
      <trkpt lat="47.18523" lon="3.18163">
        <ele>293.52923583984</ele>
        <time>2016-02-15T08:14:17.000Z</time>
      </trkpt>
      <trkpt lat="47.18518" lon="3.1816">
        <ele>293.54180908203</ele>
        <time>2016-02-15T08:14:22.000Z</time>
      </trkpt>
      <trkpt lat="47.18514" lon="3.18158">
        <ele>293.55102539062</ele>
        <time>2016-02-15T08:14:25.000Z</time>
      </trkpt>
      <trkpt lat="47.18509" lon="3.18158">
        <ele>293.57061767578</ele>
        <time>2016-02-15T08:14:30.000Z</time>
      </trkpt>
      <trkpt lat="47.18507" lon="3.18158">
        <ele>293.57104492188</ele>
        <time>2016-02-15T08:14:32.000Z</time>
      </trkpt>
      <trkpt lat="47.18505" lon="3.18158">
        <ele>293.58129882812</ele>
        <time>2016-02-15T08:14:34.000Z</time>
      </trkpt>
      <trkpt lat="47.185" lon="3.18159">
        <ele>293.61737060547</ele>
        <time>2016-02-15T08:14:37.000Z</time>
      </trkpt>
      <trkpt lat="47.18493" lon="3.18161">
        <ele>293.72015380859</ele>
        <time>2016-02-15T08:14:40.000Z</time>
      </trkpt>
      <trkpt lat="47.1849" lon="3.18161">
        <ele>293.83480834961</ele>
        <time>2016-02-15T08:14:43.000Z</time>
      </trkpt>
      <trkpt lat="47.18486" lon="3.18159">
        <ele>293.96075439453</ele>
        <time>2016-02-15T08:14:45.000Z</time>
      </trkpt>
      <trkpt lat="47.18484" lon="3.18159">
        <ele>294.09411621094</ele>
        <time>2016-02-15T08:14:48.000Z</time>
      </trkpt>
      <trkpt lat="47.1848" lon="3.18159">
        <ele>294.24136352539</ele>
        <time>2016-02-15T08:14:51.000Z</time>
      </trkpt>
      <trkpt lat="47.18478" lon="3.1816">
        <ele>294.33892822266</ele>
        <time>2016-02-15T08:14:55.000Z</time>
      </trkpt>
      <trkpt lat="47.18473" lon="3.18159">
        <ele>294.44970703125</ele>
        <time>2016-02-15T08:15:00.000Z</time>
      </trkpt>
      <trkpt lat="47.18462" lon="3.18158">
        <ele>294.61505126953</ele>
        <time>2016-02-15T08:15:03.000Z</time>
      </trkpt>
      <trkpt lat="47.1846" lon="3.18158">
        <ele>294.77581787109</ele>
        <time>2016-02-15T08:15:05.000Z</time>
      </trkpt>
      <trkpt lat="47.18457" lon="3.18157">
        <ele>294.92468261719</ele>
        <time>2016-02-15T08:15:07.000Z</time>
      </trkpt>
      <trkpt lat="47.18455" lon="3.18157">
        <ele>295.07574462891</ele>
        <time>2016-02-15T08:15:10.000Z</time>
      </trkpt>
      <trkpt lat="47.18454" lon="3.18156">
        <ele>295.18963623047</ele>
        <time>2016-02-15T08:15:13.000Z</time>
      </trkpt>
      <trkpt lat="47.1845" lon="3.18157">
        <ele>295.26889038086</ele>
        <time>2016-02-15T08:15:15.000Z</time>
      </trkpt>
      <trkpt lat="47.18447" lon="3.18157">
        <ele>295.35827636719</ele>
        <time>2016-02-15T08:15:17.000Z</time>
      </trkpt>
      <trkpt lat="47.18443" lon="3.18157">
        <ele>295.45825195312</ele>
        <time>2016-02-15T08:15:20.000Z</time>
      </trkpt>
      <trkpt lat="47.18441" lon="3.18159">
        <ele>295.57250976562</ele>
        <time>2016-02-15T08:15:23.000Z</time>
      </trkpt>
      <trkpt lat="47.18439" lon="3.1816">
        <ele>295.70306396484</ele>
        <time>2016-02-15T08:15:25.000Z</time>
      </trkpt>
      <trkpt lat="47.18436" lon="3.18161">
        <ele>295.82775878906</ele>
        <time>2016-02-15T08:15:28.000Z</time>
      </trkpt>
      <trkpt lat="47.18435" lon="3.18161">
        <ele>295.94476318359</ele>
        <time>2016-02-15T08:15:30.000Z</time>
      </trkpt>
      <trkpt lat="47.18432" lon="3.18162">
        <ele>296.05902099609</ele>
        <time>2016-02-15T08:15:32.000Z</time>
      </trkpt>
      <trkpt lat="47.18431" lon="3.18162">
        <ele>296.15533447266</ele>
        <time>2016-02-15T08:15:34.000Z</time>
      </trkpt>
      <trkpt lat="47.18428" lon="3.18163">
        <ele>296.25531005859</ele>
        <time>2016-02-15T08:15:37.000Z</time>
      </trkpt>
      <trkpt lat="47.18427" lon="3.18163">
        <ele>296.33462524414</ele>
        <time>2016-02-15T08:15:39.000Z</time>
      </trkpt>
      <trkpt lat="47.18424" lon="3.1816">
        <ele>296.40747070312</ele>
        <time>2016-02-15T08:15:41.000Z</time>
      </trkpt>
      <trkpt lat="47.18417" lon="3.18156">
        <ele>296.47045898438</ele>
        <time>2016-02-15T08:15:44.000Z</time>
      </trkpt>
      <trkpt lat="47.18414" lon="3.18153">
        <ele>296.50640869141</ele>
        <time>2016-02-15T08:15:46.000Z</time>
      </trkpt>
      <trkpt lat="47.18411" lon="3.18151">
        <ele>296.51019287109</ele>
        <time>2016-02-15T08:15:48.000Z</time>
      </trkpt>
      <trkpt lat="47.1841" lon="3.1815">
        <ele>296.50259399414</ele>
        <time>2016-02-15T08:15:50.000Z</time>
      </trkpt>
      <trkpt lat="47.18404" lon="3.18148">
        <ele>296.47680664062</ele>
        <time>2016-02-15T08:15:53.000Z</time>
      </trkpt>
      <trkpt lat="47.184" lon="3.18149">
        <ele>296.43746948242</ele>
        <time>2016-02-15T08:15:55.000Z</time>
      </trkpt>
      <trkpt lat="47.18395" lon="3.1815">
        <ele>296.42074584961</ele>
        <time>2016-02-15T08:15:58.000Z</time>
      </trkpt>
      <trkpt lat="47.18394" lon="3.1815">
        <ele>296.42169189453</ele>
        <time>2016-02-15T08:16:00.000Z</time>
      </trkpt>
      <trkpt lat="47.18392" lon="3.18152">
        <ele>296.43725585938</ele>
        <time>2016-02-15T08:16:02.000Z</time>
      </trkpt>
      <trkpt lat="47.18391" lon="3.18153">
        <ele>296.47073364258</ele>
        <time>2016-02-15T08:16:05.000Z</time>
      </trkpt>
      <trkpt lat="47.1839" lon="3.18153">
        <ele>296.50592041016</ele>
        <time>2016-02-15T08:16:07.000Z</time>
      </trkpt>
      <trkpt lat="47.18389" lon="3.18154">
        <ele>296.53793334961</ele>
        <time>2016-02-15T08:16:09.000Z</time>
      </trkpt>
      <trkpt lat="47.18386" lon="3.18155">
        <ele>296.56860351562</ele>
        <time>2016-02-15T08:16:12.000Z</time>
      </trkpt>
      <trkpt lat="47.18385" lon="3.18154">
        <ele>296.58343505859</ele>
        <time>2016-02-15T08:16:15.000Z</time>
      </trkpt>
      <trkpt lat="47.18383" lon="3.18154">
        <ele>296.59323120117</ele>
        <time>2016-02-15T08:16:17.000Z</time>
      </trkpt>
      <trkpt lat="47.1838" lon="3.18153">
        <ele>296.59320068359</ele>
        <time>2016-02-15T08:16:20.000Z</time>
      </trkpt>
      <trkpt lat="47.18378" lon="3.18151">
        <ele>296.57940673828</ele>
        <time>2016-02-15T08:16:23.000Z</time>
      </trkpt>
      <trkpt lat="47.18376" lon="3.18151">
        <ele>296.55874633789</ele>
        <time>2016-02-15T08:16:25.000Z</time>
      </trkpt>
      <trkpt lat="47.18373" lon="3.1815">
        <ele>296.54107666016</ele>
        <time>2016-02-15T08:16:28.000Z</time>
      </trkpt>
      <trkpt lat="47.1837" lon="3.1815">
        <ele>296.52526855469</ele>
        <time>2016-02-15T08:16:31.000Z</time>
      </trkpt>
      <trkpt lat="47.18369" lon="3.18149">
        <ele>296.50628662109</ele>
        <time>2016-02-15T08:16:34.000Z</time>
      </trkpt>
      <trkpt lat="47.18367" lon="3.18147">
        <ele>296.48712158203</ele>
        <time>2016-02-15T08:16:37.000Z</time>
      </trkpt>
      <trkpt lat="47.18365" lon="3.18147">
        <ele>296.47131347656</ele>
        <time>2016-02-15T08:16:40.000Z</time>
      </trkpt>
      <trkpt lat="47.18362" lon="3.18147">
        <ele>296.45983886719</ele>
        <time>2016-02-15T08:16:43.000Z</time>
      </trkpt>
      <trkpt lat="47.18357" lon="3.18146">
        <ele>296.44409179688</ele>
        <time>2016-02-15T08:16:46.000Z</time>
      </trkpt>
      <trkpt lat="47.18354" lon="3.18145">
        <ele>296.43414306641</ele>
        <time>2016-02-15T08:16:50.000Z</time>
      </trkpt>
      <trkpt lat="47.18349" lon="3.18144">
        <ele>296.42993164062</ele>
        <time>2016-02-15T08:16:53.000Z</time>
      </trkpt>
      <trkpt lat="47.18343" lon="3.18144">
        <ele>296.42553710938</ele>
        <time>2016-02-15T08:16:56.000Z</time>
      </trkpt>
      <trkpt lat="47.1833" lon="3.18143">
        <ele>296.43298339844</ele>
        <time>2016-02-15T08:16:59.000Z</time>
      </trkpt>
      <trkpt lat="47.18327" lon="3.18144">
        <ele>296.45431518555</ele>
        <time>2016-02-15T08:17:01.000Z</time>
      </trkpt>
      <trkpt lat="47.18323" lon="3.18144">
        <ele>296.49322509766</ele>
        <time>2016-02-15T08:17:04.000Z</time>
      </trkpt>
      <trkpt lat="47.1832" lon="3.18145">
        <ele>296.55004882812</ele>
        <time>2016-02-15T08:17:07.000Z</time>
      </trkpt>
      <trkpt lat="47.18317" lon="3.18147">
        <ele>296.61874389648</ele>
        <time>2016-02-15T08:17:10.000Z</time>
      </trkpt>
      <trkpt lat="47.18315" lon="3.18148">
        <ele>296.68951416016</ele>
        <time>2016-02-15T08:17:12.000Z</time>
      </trkpt>
      <trkpt lat="47.18313" lon="3.18148">
        <ele>296.75122070312</ele>
        <time>2016-02-15T08:17:15.000Z</time>
      </trkpt>
      <trkpt lat="47.18311" lon="3.18148">
        <ele>296.80465698242</ele>
        <time>2016-02-15T08:17:17.000Z</time>
      </trkpt>
      <trkpt lat="47.18307" lon="3.18147">
        <ele>296.84805297852</ele>
        <time>2016-02-15T08:17:19.000Z</time>
      </trkpt>
      <trkpt lat="47.18306" lon="3.18145">
        <ele>296.87457275391</ele>
        <time>2016-02-15T08:17:22.000Z</time>
      </trkpt>
      <trkpt lat="47.18303" lon="3.18144">
        <ele>296.89263916016</ele>
        <time>2016-02-15T08:17:25.000Z</time>
      </trkpt>
      <trkpt lat="47.18301" lon="3.18143">
        <ele>296.90899658203</ele>
        <time>2016-02-15T08:17:27.000Z</time>
      </trkpt>
      <trkpt lat="47.18298" lon="3.18142">
        <ele>296.92425537109</ele>
        <time>2016-02-15T08:17:29.000Z</time>
      </trkpt>
      <trkpt lat="47.18297" lon="3.18142">
        <ele>296.93536376953</ele>
        <time>2016-02-15T08:17:32.000Z</time>
      </trkpt>
      <trkpt lat="47.18288" lon="3.18142">
        <ele>296.97958374023</ele>
        <time>2016-02-15T08:17:35.000Z</time>
      </trkpt>
      <trkpt lat="47.18285" lon="3.18142">
        <ele>297.02444458008</ele>
        <time>2016-02-15T08:17:37.000Z</time>
      </trkpt>
      <trkpt lat="47.18281" lon="3.18141">
        <ele>297.08081054688</ele>
        <time>2016-02-15T08:17:41.000Z</time>
      </trkpt>
      <trkpt lat="47.18275" lon="3.1814">
        <ele>297.14364624023</ele>
        <time>2016-02-15T08:17:44.000Z</time>
      </trkpt>
      <trkpt lat="47.18272" lon="3.18138">
        <ele>297.21078491211</ele>
        <time>2016-02-15T08:17:47.000Z</time>
      </trkpt>
      <trkpt lat="47.1827" lon="3.18137">
        <ele>297.25155639648</ele>
        <time>2016-02-15T08:17:49.000Z</time>
      </trkpt>
      <trkpt lat="47.18268" lon="3.18136">
        <ele>297.28948974609</ele>
        <time>2016-02-15T08:17:53.000Z</time>
      </trkpt>
      <trkpt lat="47.18266" lon="3.18133">
        <ele>297.31170654297</ele>
        <time>2016-02-15T08:17:56.000Z</time>
      </trkpt>
      <trkpt lat="47.18262" lon="3.18131">
        <ele>297.32995605469</ele>
        <time>2016-02-15T08:17:59.000Z</time>
      </trkpt>
      <trkpt lat="47.1826" lon="3.18133">
        <ele>297.35452270508</ele>
        <time>2016-02-15T08:18:02.000Z</time>
      </trkpt>
      <trkpt lat="47.18255" lon="3.18136">
        <ele>297.40023803711</ele>
        <time>2016-02-15T08:18:05.000Z</time>
      </trkpt>
      <trkpt lat="47.18254" lon="3.18136">
        <ele>297.44799804688</ele>
        <time>2016-02-15T08:18:07.000Z</time>
      </trkpt>
      <trkpt lat="47.18246" lon="3.18137">
        <ele>297.54095458984</ele>
        <time>2016-02-15T08:18:10.000Z</time>
      </trkpt>
      <trkpt lat="47.18239" lon="3.18135">
        <ele>297.67825317383</ele>
        <time>2016-02-15T08:18:12.000Z</time>
      </trkpt>
      <trkpt lat="47.18237" lon="3.18135">
        <ele>297.82626342773</ele>
        <time>2016-02-15T08:18:15.000Z</time>
      </trkpt>
      <trkpt lat="47.18233" lon="3.18133">
        <ele>297.97027587891</ele>
        <time>2016-02-15T08:18:17.000Z</time>
      </trkpt>
      <trkpt lat="47.18231" lon="3.1813">
        <ele>298.12564086914</ele>
        <time>2016-02-15T08:18:20.000Z</time>
      </trkpt>
      <trkpt lat="47.18229" lon="3.1813">
        <ele>298.25079345703</ele>
        <time>2016-02-15T08:18:22.000Z</time>
      </trkpt>
      <trkpt lat="47.18225" lon="3.1813">
        <ele>298.35327148438</ele>
        <time>2016-02-15T08:18:26.000Z</time>
      </trkpt>
      <trkpt lat="47.18221" lon="3.18129">
        <ele>298.46575927734</ele>
        <time>2016-02-15T08:18:29.000Z</time>
      </trkpt>
      <trkpt lat="47.18219" lon="3.18129">
        <ele>298.57543945312</ele>
        <time>2016-02-15T08:18:31.000Z</time>
      </trkpt>
      <trkpt lat="47.18216" lon="3.18128">
        <ele>298.69360351562</ele>
        <time>2016-02-15T08:18:34.000Z</time>
      </trkpt>
      <trkpt lat="47.18213" lon="3.18128">
        <ele>298.82907104492</ele>
        <time>2016-02-15T08:18:37.000Z</time>
      </trkpt>
      <trkpt lat="47.18205" lon="3.18133">
        <ele>299.00045776367</ele>
        <time>2016-02-15T08:18:41.000Z</time>
      </trkpt>
      <trkpt lat="47.18202" lon="3.18135">
        <ele>299.16851806641</ele>
        <time>2016-02-15T08:18:44.000Z</time>
      </trkpt>
      <trkpt lat="47.18198" lon="3.18135">
        <ele>299.35336303711</ele>
        <time>2016-02-15T08:18:47.000Z</time>
      </trkpt>
      <trkpt lat="47.18195" lon="3.18135">
        <ele>299.53485107422</ele>
        <time>2016-02-15T08:18:49.000Z</time>
      </trkpt>
      <trkpt lat="47.18192" lon="3.18134">
        <ele>299.70861816406</ele>
        <time>2016-02-15T08:18:52.000Z</time>
      </trkpt>
      <trkpt lat="47.18191" lon="3.18133">
        <ele>299.82550048828</ele>
        <time>2016-02-15T08:18:54.000Z</time>
      </trkpt>
      <trkpt lat="47.18188" lon="3.18132">
        <ele>299.93572998047</ele>
        <time>2016-02-15T08:18:57.000Z</time>
      </trkpt>
      <trkpt lat="47.18187" lon="3.18131">
        <ele>300.02563476562</ele>
        <time>2016-02-15T08:19:00.000Z</time>
      </trkpt>
      <trkpt lat="47.1818" lon="3.18129">
        <ele>300.14251708984</ele>
        <time>2016-02-15T08:19:03.000Z</time>
      </trkpt>
      <trkpt lat="47.18178" lon="3.18128">
        <ele>300.25341796875</ele>
        <time>2016-02-15T08:19:06.000Z</time>
      </trkpt>
      <trkpt lat="47.18176" lon="3.18127">
        <ele>300.37466430664</ele>
        <time>2016-02-15T08:19:08.000Z</time>
      </trkpt>
      <trkpt lat="47.18174" lon="3.18125">
        <ele>300.49371337891</ele>
        <time>2016-02-15T08:19:11.000Z</time>
      </trkpt>
      <trkpt lat="47.18169" lon="3.18124">
        <ele>300.63388061523</ele>
        <time>2016-02-15T08:19:14.000Z</time>
      </trkpt>
      <trkpt lat="47.18166" lon="3.18121">
        <ele>300.74996948242</ele>
        <time>2016-02-15T08:19:17.000Z</time>
      </trkpt>
      <trkpt lat="47.18163" lon="3.1812">
        <ele>300.86407470703</ele>
        <time>2016-02-15T08:19:19.000Z</time>
      </trkpt>
      <trkpt lat="47.18159" lon="3.18118">
        <ele>300.98211669922</ele>
        <time>2016-02-15T08:19:22.000Z</time>
      </trkpt>
      <trkpt lat="47.18156" lon="3.18117">
        <ele>301.09530639648</ele>
        <time>2016-02-15T08:19:25.000Z</time>
      </trkpt>
      <trkpt lat="47.18152" lon="3.18117">
        <ele>301.19412231445</ele>
        <time>2016-02-15T08:19:28.000Z</time>
      </trkpt>
      <trkpt lat="47.18149" lon="3.18117">
        <ele>301.28460693359</ele>
        <time>2016-02-15T08:19:30.000Z</time>
      </trkpt>
      <trkpt lat="47.18147" lon="3.18119">
        <ele>301.37127685547</ele>
        <time>2016-02-15T08:19:33.000Z</time>
      </trkpt>
      <trkpt lat="47.18142" lon="3.18119">
        <ele>301.45938110352</ele>
        <time>2016-02-15T08:19:36.000Z</time>
      </trkpt>
      <trkpt lat="47.18137" lon="3.18119">
        <ele>301.55401611328</ele>
        <time>2016-02-15T08:19:39.000Z</time>
      </trkpt>
      <trkpt lat="47.18135" lon="3.18119">
        <ele>301.64019775391</ele>
        <time>2016-02-15T08:19:42.000Z</time>
      </trkpt>
      <trkpt lat="47.18133" lon="3.18119">
        <ele>301.72207641602</ele>
        <time>2016-02-15T08:19:44.000Z</time>
      </trkpt>
      <trkpt lat="47.18131" lon="3.18119">
        <ele>301.80160522461</ele>
        <time>2016-02-15T08:19:47.000Z</time>
      </trkpt>
      <trkpt lat="47.18122" lon="3.18119">
        <ele>301.89981079102</ele>
        <time>2016-02-15T08:19:52.000Z</time>
      </trkpt>
      <trkpt lat="47.18119" lon="3.18118">
        <ele>301.99755859375</ele>
        <time>2016-02-15T08:19:54.000Z</time>
      </trkpt>
      <trkpt lat="47.18116" lon="3.18116">
        <ele>302.10662841797</ele>
        <time>2016-02-15T08:19:58.000Z</time>
      </trkpt>
      <trkpt lat="47.1811" lon="3.18115">
        <ele>302.23544311523</ele>
        <time>2016-02-15T08:20:00.000Z</time>
      </trkpt>
      <trkpt lat="47.18109" lon="3.18114">
        <ele>302.36676025391</ele>
        <time>2016-02-15T08:20:03.000Z</time>
      </trkpt>
      <trkpt lat="47.18103" lon="3.18112">
        <ele>302.49462890625</ele>
        <time>2016-02-15T08:20:06.000Z</time>
      </trkpt>
      <trkpt lat="47.181" lon="3.18111">
        <ele>302.61907958984</ele>
        <time>2016-02-15T08:20:09.000Z</time>
      </trkpt>
      <trkpt lat="47.18095" lon="3.1811">
        <ele>302.75247192383</ele>
        <time>2016-02-15T08:20:18.000Z</time>
      </trkpt>
      <trkpt lat="47.1809" lon="3.1811">
        <ele>302.87866210938</ele>
        <time>2016-02-15T08:20:20.000Z</time>
      </trkpt>
      <trkpt lat="47.18089" lon="3.18111">
        <ele>303.00009155273</ele>
        <time>2016-02-15T08:20:22.000Z</time>
      </trkpt>
      <trkpt lat="47.18077" lon="3.1811">
        <ele>303.1272277832</ele>
        <time>2016-02-15T08:20:25.000Z</time>
      </trkpt>
      <trkpt lat="47.18076" lon="3.1811">
        <ele>303.23913574219</ele>
        <time>2016-02-15T08:20:27.000Z</time>
      </trkpt>
      <trkpt lat="47.18072" lon="3.18111">
        <ele>303.32183837891</ele>
        <time>2016-02-15T08:20:31.000Z</time>
      </trkpt>
      <trkpt lat="47.18069" lon="3.18111">
        <ele>303.37866210938</ele>
        <time>2016-02-15T08:20:33.000Z</time>
      </trkpt>
      <trkpt lat="47.18067" lon="3.18112">
        <ele>303.42779541016</ele>
        <time>2016-02-15T08:20:36.000Z</time>
      </trkpt>
      <trkpt lat="47.18062" lon="3.18113">
        <ele>303.43615722656</ele>
        <time>2016-02-15T08:20:38.000Z</time>
      </trkpt>
      <trkpt lat="47.18057" lon="3.18112">
        <ele>303.45208740234</ele>
        <time>2016-02-15T08:20:41.000Z</time>
      </trkpt>
      <trkpt lat="47.18053" lon="3.18113">
        <ele>303.46636962891</ele>
        <time>2016-02-15T08:20:44.000Z</time>
      </trkpt>
      <trkpt lat="47.18052" lon="3.18114">
        <ele>303.48297119141</ele>
        <time>2016-02-15T08:20:47.000Z</time>
      </trkpt>
      <trkpt lat="47.18048" lon="3.18113">
        <ele>303.50885009766</ele>
        <time>2016-02-15T08:20:49.000Z</time>
      </trkpt>
      <trkpt lat="47.18044" lon="3.18113">
        <ele>303.53778076172</ele>
        <time>2016-02-15T08:20:52.000Z</time>
      </trkpt>
      <trkpt lat="47.18039" lon="3.18113">
        <ele>303.56341552734</ele>
        <time>2016-02-15T08:20:54.000Z</time>
      </trkpt>
      <trkpt lat="47.18034" lon="3.18114">
        <ele>303.59194946289</ele>
        <time>2016-02-15T08:20:58.000Z</time>
      </trkpt>
      <trkpt lat="47.1803" lon="3.18115">
        <ele>303.61770629883</ele>
        <time>2016-02-15T08:21:01.000Z</time>
      </trkpt>
      <trkpt lat="47.18027" lon="3.18116">
        <ele>303.63305664062</ele>
        <time>2016-02-15T08:21:04.000Z</time>
      </trkpt>
      <trkpt lat="47.18025" lon="3.18117">
        <ele>303.63400268555</ele>
        <time>2016-02-15T08:21:06.000Z</time>
      </trkpt>
      <trkpt lat="47.18023" lon="3.18118">
        <ele>303.62405395508</ele>
        <time>2016-02-15T08:21:08.000Z</time>
      </trkpt>
      <trkpt lat="47.1802" lon="3.18118">
        <ele>303.61410522461</ele>
        <time>2016-02-15T08:21:11.000Z</time>
      </trkpt>
      <trkpt lat="47.18018" lon="3.18119">
        <ele>303.60589599609</ele>
        <time>2016-02-15T08:21:14.000Z</time>
      </trkpt>
      <trkpt lat="47.18017" lon="3.18119">
        <ele>303.60223388672</ele>
        <time>2016-02-15T08:21:16.000Z</time>
      </trkpt>
      <trkpt lat="47.18015" lon="3.18119">
        <ele>303.60278320312</ele>
        <time>2016-02-15T08:21:19.000Z</time>
      </trkpt>
      <trkpt lat="47.18012" lon="3.1812">
        <ele>303.60443115234</ele>
        <time>2016-02-15T08:21:21.000Z</time>
      </trkpt>
      <trkpt lat="47.1801" lon="3.18121">
        <ele>303.60229492188</ele>
        <time>2016-02-15T08:21:23.000Z</time>
      </trkpt>
      <trkpt lat="47.18003" lon="3.18123">
        <ele>303.59075927734</ele>
        <time>2016-02-15T08:21:26.000Z</time>
      </trkpt>
      <trkpt lat="47.17997" lon="3.18124">
        <ele>303.59692382812</ele>
        <time>2016-02-15T08:21:29.000Z</time>
      </trkpt>
      <trkpt lat="47.17994" lon="3.18124">
        <ele>303.62286376953</ele>
        <time>2016-02-15T08:21:32.000Z</time>
      </trkpt>
      <trkpt lat="47.1799" lon="3.18126">
        <ele>303.66790771484</ele>
        <time>2016-02-15T08:21:35.000Z</time>
      </trkpt>
      <trkpt lat="47.17988" lon="3.18128">
        <ele>303.72015380859</ele>
        <time>2016-02-15T08:21:38.000Z</time>
      </trkpt>
      <trkpt lat="47.17986" lon="3.18128">
        <ele>303.80075073242</ele>
        <time>2016-02-15T08:21:40.000Z</time>
      </trkpt>
      <trkpt lat="47.17981" lon="3.18128">
        <ele>303.89224243164</ele>
        <time>2016-02-15T08:21:43.000Z</time>
      </trkpt>
      <trkpt lat="47.17976" lon="3.18128">
        <ele>304.00231933594</ele>
        <time>2016-02-15T08:21:46.000Z</time>
      </trkpt>
      <trkpt lat="47.17971" lon="3.18129">
        <ele>304.13372802734</ele>
        <time>2016-02-15T08:21:51.000Z</time>
      </trkpt>
      <trkpt lat="47.17965" lon="3.18128">
        <ele>304.30169677734</ele>
        <time>2016-02-15T08:21:54.000Z</time>
      </trkpt>
      <trkpt lat="47.1796" lon="3.18128">
        <ele>304.48956298828</ele>
        <time>2016-02-15T08:21:56.000Z</time>
      </trkpt>
      <trkpt lat="47.17957" lon="3.18127">
        <ele>304.67669677734</ele>
        <time>2016-02-15T08:21:59.000Z</time>
      </trkpt>
      <trkpt lat="47.17953" lon="3.18125">
        <ele>304.85589599609</ele>
        <time>2016-02-15T08:22:02.000Z</time>
      </trkpt>
      <trkpt lat="47.17948" lon="3.18125">
        <ele>305.03842163086</ele>
        <time>2016-02-15T08:22:06.000Z</time>
      </trkpt>
      <trkpt lat="47.17944" lon="3.18129">
        <ele>305.20077514648</ele>
        <time>2016-02-15T08:22:09.000Z</time>
      </trkpt>
      <trkpt lat="47.17942" lon="3.18133">
        <ele>305.34039306641</ele>
        <time>2016-02-15T08:22:12.000Z</time>
      </trkpt>
      <trkpt lat="47.17939" lon="3.18135">
        <ele>305.47296142578</ele>
        <time>2016-02-15T08:22:15.000Z</time>
      </trkpt>
      <trkpt lat="47.17937" lon="3.18137">
        <ele>305.59408569336</ele>
        <time>2016-02-15T08:22:17.000Z</time>
      </trkpt>
      <trkpt lat="47.17935" lon="3.18138">
        <ele>305.68502807617</ele>
        <time>2016-02-15T08:22:20.000Z</time>
      </trkpt>
      <trkpt lat="47.17933" lon="3.1814">
        <ele>305.77127075195</ele>
        <time>2016-02-15T08:22:23.000Z</time>
      </trkpt>
      <trkpt lat="47.17931" lon="3.18142">
        <ele>305.86001586914</ele>
        <time>2016-02-15T08:22:26.000Z</time>
      </trkpt>
      <trkpt lat="47.17929" lon="3.18143">
        <ele>305.94915771484</ele>
        <time>2016-02-15T08:22:29.000Z</time>
      </trkpt>
      <trkpt lat="47.17923" lon="3.18146">
        <ele>306.07977294922</ele>
        <time>2016-02-15T08:22:31.000Z</time>
      </trkpt>
      <trkpt lat="47.17917" lon="3.18146">
        <ele>306.26162719727</ele>
        <time>2016-02-15T08:22:33.000Z</time>
      </trkpt>
      <trkpt lat="47.17914" lon="3.18146">
        <ele>306.43618774414</ele>
        <time>2016-02-15T08:22:36.000Z</time>
      </trkpt>
      <trkpt lat="47.17912" lon="3.18147">
        <ele>306.60372924805</ele>
        <time>2016-02-15T08:22:38.000Z</time>
      </trkpt>
      <trkpt lat="47.17907" lon="3.18149">
        <ele>306.77069091797</ele>
        <time>2016-02-15T08:22:41.000Z</time>
      </trkpt>
      <trkpt lat="47.17904" lon="3.18149">
        <ele>306.89401245117</ele>
        <time>2016-02-15T08:22:43.000Z</time>
      </trkpt>
      <trkpt lat="47.179" lon="3.1815">
        <ele>306.97662353516</ele>
        <time>2016-02-15T08:22:46.000Z</time>
      </trkpt>
      <trkpt lat="47.17897" lon="3.1815">
        <ele>307.05688476562</ele>
        <time>2016-02-15T08:22:48.000Z</time>
      </trkpt>
      <trkpt lat="47.17895" lon="3.18149">
        <ele>307.13534545898</ele>
        <time>2016-02-15T08:22:51.000Z</time>
      </trkpt>
      <trkpt lat="47.17889" lon="3.18146">
        <ele>307.20532226562</ele>
        <time>2016-02-15T08:22:54.000Z</time>
      </trkpt>
      <trkpt lat="47.17885" lon="3.18148">
        <ele>307.28353881836</ele>
        <time>2016-02-15T08:22:57.000Z</time>
      </trkpt>
      <trkpt lat="47.17881" lon="3.18148">
        <ele>307.35955810547</ele>
        <time>2016-02-15T08:23:00.000Z</time>
      </trkpt>
      <trkpt lat="47.17878" lon="3.18149">
        <ele>307.43988037109</ele>
        <time>2016-02-15T08:23:02.000Z</time>
      </trkpt>
      <trkpt lat="47.17873" lon="3.18151">
        <ele>307.53793334961</ele>
        <time>2016-02-15T08:23:07.000Z</time>
      </trkpt>
      <trkpt lat="47.1787" lon="3.18151">
        <ele>307.64041137695</ele>
        <time>2016-02-15T08:23:10.000Z</time>
      </trkpt>
      <trkpt lat="47.17865" lon="3.18153">
        <ele>307.74481201172</ele>
        <time>2016-02-15T08:23:13.000Z</time>
      </trkpt>
      <trkpt lat="47.17863" lon="3.18154">
        <ele>307.84524536133</ele>
        <time>2016-02-15T08:23:16.000Z</time>
      </trkpt>
      <trkpt lat="47.17862" lon="3.18155">
        <ele>307.94027709961</ele>
        <time>2016-02-15T08:23:18.000Z</time>
      </trkpt>
      <trkpt lat="47.1786" lon="3.18155">
        <ele>308.01382446289</ele>
        <time>2016-02-15T08:23:20.000Z</time>
      </trkpt>
      <trkpt lat="47.17857" lon="3.18156">
        <ele>308.087890625</ele>
        <time>2016-02-15T08:23:23.000Z</time>
      </trkpt>
      <trkpt lat="47.17854" lon="3.18156">
        <ele>308.14981079102</ele>
        <time>2016-02-15T08:23:26.000Z</time>
      </trkpt>
      <trkpt lat="47.17851" lon="3.18157">
        <ele>308.21655273438</ele>
        <time>2016-02-15T08:23:29.000Z</time>
      </trkpt>
      <trkpt lat="47.17848" lon="3.18159">
        <ele>308.29592895508</ele>
        <time>2016-02-15T08:23:31.000Z</time>
      </trkpt>
      <trkpt lat="47.17845" lon="3.18161">
        <ele>308.38906860352</ele>
        <time>2016-02-15T08:23:33.000Z</time>
      </trkpt>
      <trkpt lat="47.1784" lon="3.18164">
        <ele>308.49984741211</ele>
        <time>2016-02-15T08:23:36.000Z</time>
      </trkpt>
      <trkpt lat="47.17836" lon="3.18165">
        <ele>308.62124633789</ele>
        <time>2016-02-15T08:23:42.000Z</time>
      </trkpt>
      <trkpt lat="47.17832" lon="3.18164">
        <ele>308.74591064453</ele>
        <time>2016-02-15T08:23:45.000Z</time>
      </trkpt>
      <trkpt lat="47.1783" lon="3.18164">
        <ele>308.85824584961</ele>
        <time>2016-02-15T08:23:47.000Z</time>
      </trkpt>
      <trkpt lat="47.17823" lon="3.18164">
        <ele>308.99859619141</ele>
        <time>2016-02-15T08:23:50.000Z</time>
      </trkpt>
      <trkpt lat="47.1782" lon="3.18164">
        <ele>309.12756347656</ele>
        <time>2016-02-15T08:23:52.000Z</time>
      </trkpt>
      <trkpt lat="47.17817" lon="3.18164">
        <ele>309.25079345703</ele>
        <time>2016-02-15T08:23:55.000Z</time>
      </trkpt>
      <trkpt lat="47.17815" lon="3.18165">
        <ele>309.3698425293</ele>
        <time>2016-02-15T08:23:58.000Z</time>
      </trkpt>
      <trkpt lat="47.17811" lon="3.18166">
        <ele>309.51596069336</ele>
        <time>2016-02-15T08:24:01.000Z</time>
      </trkpt>
      <trkpt lat="47.17809" lon="3.18168">
        <ele>309.63879394531</ele>
        <time>2016-02-15T08:24:03.000Z</time>
      </trkpt>
      <trkpt lat="47.17804" lon="3.18169">
        <ele>309.76666259766</ele>
        <time>2016-02-15T08:24:06.000Z</time>
      </trkpt>
      <trkpt lat="47.17802" lon="3.18171">
        <ele>309.89450073242</ele>
        <time>2016-02-15T08:24:09.000Z</time>
      </trkpt>
      <trkpt lat="47.17798" lon="3.18174">
        <ele>310.03265380859</ele>
        <time>2016-02-15T08:24:12.000Z</time>
      </trkpt>
      <trkpt lat="47.17795" lon="3.18175">
        <ele>310.15802001953</ele>
        <time>2016-02-15T08:24:14.000Z</time>
      </trkpt>
      <trkpt lat="47.17789" lon="3.18178">
        <ele>310.29315185547</ele>
        <time>2016-02-15T08:24:17.000Z</time>
      </trkpt>
      <trkpt lat="47.17786" lon="3.18179">
        <ele>310.41610717773</ele>
        <time>2016-02-15T08:24:19.000Z</time>
      </trkpt>
      <trkpt lat="47.17783" lon="3.18182">
        <ele>310.54376220703</ele>
        <time>2016-02-15T08:24:22.000Z</time>
      </trkpt>
      <trkpt lat="47.17781" lon="3.18182">
        <ele>310.64962768555</ele>
        <time>2016-02-15T08:24:24.000Z</time>
      </trkpt>
      <trkpt lat="47.17778" lon="3.18182">
        <ele>310.75628662109</ele>
        <time>2016-02-15T08:24:27.000Z</time>
      </trkpt>
      <trkpt lat="47.17775" lon="3.18183">
        <ele>310.84747314453</ele>
        <time>2016-02-15T08:24:30.000Z</time>
      </trkpt>
      <trkpt lat="47.17771" lon="3.18184">
        <ele>310.94485473633</ele>
        <time>2016-02-15T08:24:33.000Z</time>
      </trkpt>
      <trkpt lat="47.17767" lon="3.18185">
        <ele>311.03857421875</ele>
        <time>2016-02-15T08:24:35.000Z</time>
      </trkpt>
      <trkpt lat="47.17764" lon="3.18184">
        <ele>311.14282226562</ele>
        <time>2016-02-15T08:24:38.000Z</time>
      </trkpt>
      <trkpt lat="47.17758" lon="3.18187">
        <ele>311.25863647461</ele>
        <time>2016-02-15T08:24:48.000Z</time>
      </trkpt>
      <trkpt lat="47.17751" lon="3.18188">
        <ele>311.39291381836</ele>
        <time>2016-02-15T08:24:51.000Z</time>
      </trkpt>
      <trkpt lat="47.17747" lon="3.18187">
        <ele>311.51910400391</ele>
        <time>2016-02-15T08:24:53.000Z</time>
      </trkpt>
      <trkpt lat="47.17744" lon="3.18186">
        <ele>311.63150024414</ele>
        <time>2016-02-15T08:24:56.000Z</time>
      </trkpt>
      <trkpt lat="47.17739" lon="3.18187">
        <ele>311.73348999023</ele>
        <time>2016-02-15T08:24:59.000Z</time>
      </trkpt>
      <trkpt lat="47.17736" lon="3.18188">
        <ele>311.80532836914</ele>
        <time>2016-02-15T08:25:01.000Z</time>
      </trkpt>
      <trkpt lat="47.17733" lon="3.1819">
        <ele>311.84323120117</ele>
        <time>2016-02-15T08:25:04.000Z</time>
      </trkpt>
      <trkpt lat="47.1773" lon="3.18192">
        <ele>311.86856079102</ele>
        <time>2016-02-15T08:25:07.000Z</time>
      </trkpt>
      <trkpt lat="47.17725" lon="3.18194">
        <ele>311.89852905273</ele>
        <time>2016-02-15T08:25:10.000Z</time>
      </trkpt>
      <trkpt lat="47.17722" lon="3.18196">
        <ele>311.93057250977</ele>
        <time>2016-02-15T08:25:12.000Z</time>
      </trkpt>
      <trkpt lat="47.17718" lon="3.18195">
        <ele>311.96615600586</ele>
        <time>2016-02-15T08:25:15.000Z</time>
      </trkpt>
      <trkpt lat="47.17716" lon="3.18196">
        <ele>312.00415039062</ele>
        <time>2016-02-15T08:25:18.000Z</time>
      </trkpt>
      <trkpt lat="47.17715" lon="3.18197">
        <ele>312.0400390625</ele>
        <time>2016-02-15T08:25:21.000Z</time>
      </trkpt>
      <trkpt lat="47.17713" lon="3.18198">
        <ele>312.0735168457</ele>
        <time>2016-02-15T08:25:23.000Z</time>
      </trkpt>
      <trkpt lat="47.17712" lon="3.18199">
        <ele>312.10113525391</ele>
        <time>2016-02-15T08:25:26.000Z</time>
      </trkpt>
      <trkpt lat="47.17709" lon="3.18201">
        <ele>312.12915039062</ele>
        <time>2016-02-15T08:25:30.000Z</time>
      </trkpt>
      <trkpt lat="47.17706" lon="3.18203">
        <ele>312.16452026367</ele>
        <time>2016-02-15T08:25:32.000Z</time>
      </trkpt>
      <trkpt lat="47.17703" lon="3.18204">
        <ele>312.2087097168</ele>
        <time>2016-02-15T08:25:34.000Z</time>
      </trkpt>
      <trkpt lat="47.17698" lon="3.18208">
        <ele>312.26834106445</ele>
        <time>2016-02-15T08:25:37.000Z</time>
      </trkpt>
      <trkpt lat="47.17694" lon="3.18209">
        <ele>312.33987426758</ele>
        <time>2016-02-15T08:25:40.000Z</time>
      </trkpt>
      <trkpt lat="47.17692" lon="3.1821">
        <ele>312.41366577148</ele>
        <time>2016-02-15T08:25:43.000Z</time>
      </trkpt>
      <trkpt lat="47.17691" lon="3.1821">
        <ele>312.47955322266</ele>
        <time>2016-02-15T08:25:45.000Z</time>
      </trkpt>
      <trkpt lat="47.17689" lon="3.18211">
        <ele>312.54443359375</ele>
        <time>2016-02-15T08:25:48.000Z</time>
      </trkpt>
      <trkpt lat="47.17687" lon="3.18212">
        <ele>312.59921264648</ele>
        <time>2016-02-15T08:25:50.000Z</time>
      </trkpt>
      <trkpt lat="47.17685" lon="3.18213">
        <ele>312.6494140625</ele>
        <time>2016-02-15T08:25:53.000Z</time>
      </trkpt>
      <trkpt lat="47.17683" lon="3.18215">
        <ele>312.70001220703</ele>
        <time>2016-02-15T08:25:55.000Z</time>
      </trkpt>
      <trkpt lat="47.1768" lon="3.18217">
        <ele>312.76864624023</ele>
        <time>2016-02-15T08:25:58.000Z</time>
      </trkpt>
      <trkpt lat="47.17677" lon="3.18218">
        <ele>312.83947753906</ele>
        <time>2016-02-15T08:26:00.000Z</time>
      </trkpt>
      <trkpt lat="47.17674" lon="3.18218">
        <ele>312.91302490234</ele>
        <time>2016-02-15T08:26:02.000Z</time>
      </trkpt>
      <trkpt lat="47.17671" lon="3.18222">
        <ele>313.00482177734</ele>
        <time>2016-02-15T08:26:05.000Z</time>
      </trkpt>
      <trkpt lat="47.17667" lon="3.18224">
        <ele>313.11804199219</ele>
        <time>2016-02-15T08:26:07.000Z</time>
      </trkpt>
      <trkpt lat="47.17665" lon="3.18226">
        <ele>313.21572875977</ele>
        <time>2016-02-15T08:26:10.000Z</time>
      </trkpt>
      <trkpt lat="47.17663" lon="3.18228">
        <ele>313.30722045898</ele>
        <time>2016-02-15T08:26:12.000Z</time>
      </trkpt>
      <trkpt lat="47.17662" lon="3.18229">
        <ele>313.38568115234</ele>
        <time>2016-02-15T08:26:14.000Z</time>
      </trkpt>
      <trkpt lat="47.17657" lon="3.18231">
        <ele>313.43075561523</ele>
        <time>2016-02-15T08:26:17.000Z</time>
      </trkpt>
      <trkpt lat="47.17654" lon="3.1823">
        <ele>313.43579101562</ele>
        <time>2016-02-15T08:26:19.000Z</time>
      </trkpt>
      <trkpt lat="47.1765" lon="3.18231">
        <ele>313.42755126953</ele>
        <time>2016-02-15T08:26:22.000Z</time>
      </trkpt>
      <trkpt lat="47.17648" lon="3.18231">
        <ele>313.41232299805</ele>
        <time>2016-02-15T08:26:24.000Z</time>
      </trkpt>
      <trkpt lat="47.17646" lon="3.18231">
        <ele>313.39218139648</ele>
        <time>2016-02-15T08:26:27.000Z</time>
      </trkpt>
      <trkpt lat="47.17645" lon="3.18233">
        <ele>313.38189697266</ele>
        <time>2016-02-15T08:26:29.000Z</time>
      </trkpt>
      <trkpt lat="47.17644" lon="3.18235">
        <ele>313.38342285156</ele>
        <time>2016-02-15T08:26:32.000Z</time>
      </trkpt>
      <trkpt lat="47.17641" lon="3.18238">
        <ele>313.3967590332</ele>
        <time>2016-02-15T08:26:35.000Z</time>
      </trkpt>
      <trkpt lat="47.17638" lon="3.1824">
        <ele>313.4130859375</ele>
        <time>2016-02-15T08:26:38.000Z</time>
      </trkpt>
      <trkpt lat="47.17635" lon="3.1824">
        <ele>313.42840576172</ele>
        <time>2016-02-15T08:26:40.000Z</time>
      </trkpt>
      <trkpt lat="47.17632" lon="3.18241">
        <ele>313.43218994141</ele>
        <time>2016-02-15T08:26:43.000Z</time>
      </trkpt>
      <trkpt lat="47.17627" lon="3.18243">
        <ele>313.42779541016</ele>
        <time>2016-02-15T08:26:46.000Z</time>
      </trkpt>
      <trkpt lat="47.17625" lon="3.18244">
        <ele>313.41500854492</ele>
        <time>2016-02-15T08:26:49.000Z</time>
      </trkpt>
      <trkpt lat="47.17622" lon="3.18245">
        <ele>313.39810180664</ele>
        <time>2016-02-15T08:26:52.000Z</time>
      </trkpt>
      <trkpt lat="47.17621" lon="3.18244">
        <ele>313.3818359375</ele>
        <time>2016-02-15T08:26:54.000Z</time>
      </trkpt>
      <trkpt lat="47.17619" lon="3.18245">
        <ele>313.37026977539</ele>
        <time>2016-02-15T08:26:57.000Z</time>
      </trkpt>
      <trkpt lat="47.17618" lon="3.18247">
        <ele>313.365234375</ele>
        <time>2016-02-15T08:26:59.000Z</time>
      </trkpt>
      <trkpt lat="47.17616" lon="3.18249">
        <ele>313.36517333984</ele>
        <time>2016-02-15T08:27:01.000Z</time>
      </trkpt>
      <trkpt lat="47.17611" lon="3.1825">
        <ele>313.35772705078</ele>
        <time>2016-02-15T08:27:04.000Z</time>
      </trkpt>
      <trkpt lat="47.17608" lon="3.1825">
        <ele>313.34552001953</ele>
        <time>2016-02-15T08:27:06.000Z</time>
      </trkpt>
      <trkpt lat="47.17606" lon="3.18251">
        <ele>313.32934570312</ele>
        <time>2016-02-15T08:27:08.000Z</time>
      </trkpt>
      <trkpt lat="47.17604" lon="3.18252">
        <ele>313.30828857422</ele>
        <time>2016-02-15T08:27:14.000Z</time>
      </trkpt>
      <trkpt lat="47.17602" lon="3.18253">
        <ele>313.27911376953</ele>
        <time>2016-02-15T08:27:16.000Z</time>
      </trkpt>
      <trkpt lat="47.176" lon="3.18254">
        <ele>313.25665283203</ele>
        <time>2016-02-15T08:27:18.000Z</time>
      </trkpt>
      <trkpt lat="47.17597" lon="3.18256">
        <ele>313.23834228516</ele>
        <time>2016-02-15T08:27:21.000Z</time>
      </trkpt>
      <trkpt lat="47.17596" lon="3.1826">
        <ele>313.22796630859</ele>
        <time>2016-02-15T08:27:24.000Z</time>
      </trkpt>
      <trkpt lat="47.17595" lon="3.18264">
        <ele>313.22299194336</ele>
        <time>2016-02-15T08:27:27.000Z</time>
      </trkpt>
      <trkpt lat="47.17593" lon="3.18264">
        <ele>313.22100830078</ele>
        <time>2016-02-15T08:27:29.000Z</time>
      </trkpt>
      <trkpt lat="47.17589" lon="3.18264">
        <ele>313.21722412109</ele>
        <time>2016-02-15T08:27:32.000Z</time>
      </trkpt>
      <trkpt lat="47.17586" lon="3.18263">
        <ele>313.21115112305</ele>
        <time>2016-02-15T08:27:35.000Z</time>
      </trkpt>
      <trkpt lat="47.17582" lon="3.18264">
        <ele>313.19842529297</ele>
        <time>2016-02-15T08:27:38.000Z</time>
      </trkpt>
      <trkpt lat="47.1758" lon="3.18268">
        <ele>313.18740844727</ele>
        <time>2016-02-15T08:27:40.000Z</time>
      </trkpt>
      <trkpt lat="47.17579" lon="3.1827">
        <ele>313.17913818359</ele>
        <time>2016-02-15T08:27:43.000Z</time>
      </trkpt>
      <trkpt lat="47.17578" lon="3.18271">
        <ele>313.17758178711</ele>
        <time>2016-02-15T08:27:46.000Z</time>
      </trkpt>
      <trkpt lat="47.17577" lon="3.18272">
        <ele>313.18170166016</ele>
        <time>2016-02-15T08:27:50.000Z</time>
      </trkpt>
      <trkpt lat="47.17577" lon="3.18274">
        <ele>313.19274902344</ele>
        <time>2016-02-15T08:27:54.000Z</time>
      </trkpt>
      <trkpt lat="47.17574" lon="3.18281">
        <ele>313.20953369141</ele>
        <time>2016-02-15T08:27:57.000Z</time>
      </trkpt>
      <trkpt lat="47.17571" lon="3.18287">
        <ele>313.23156738281</ele>
        <time>2016-02-15T08:28:00.000Z</time>
      </trkpt>
      <trkpt lat="47.17567" lon="3.18294">
        <ele>313.26055908203</ele>
        <time>2016-02-15T08:28:03.000Z</time>
      </trkpt>
      <trkpt lat="47.17565" lon="3.18297">
        <ele>313.29125976562</ele>
        <time>2016-02-15T08:28:05.000Z</time>
      </trkpt>
      <trkpt lat="47.17563" lon="3.18298">
        <ele>313.31622314453</ele>
        <time>2016-02-15T08:28:09.000Z</time>
      </trkpt>
      <trkpt lat="47.17562" lon="3.18299">
        <ele>313.330078125</ele>
        <time>2016-02-15T08:28:12.000Z</time>
      </trkpt>
      <trkpt lat="47.17559" lon="3.183">
        <ele>313.33282470703</ele>
        <time>2016-02-15T08:28:15.000Z</time>
      </trkpt>
      <trkpt lat="47.17551" lon="3.18302">
        <ele>313.31268310547</ele>
        <time>2016-02-15T08:28:18.000Z</time>
      </trkpt>
      <trkpt lat="47.1755" lon="3.18303">
        <ele>313.29248046875</ele>
        <time>2016-02-15T08:28:23.000Z</time>
      </trkpt>
      <trkpt lat="47.1755" lon="3.18305">
        <ele>313.27890014648</ele>
        <time>2016-02-15T08:28:26.000Z</time>
      </trkpt>
      <trkpt lat="47.1755" lon="3.18306">
        <ele>313.26675415039</ele>
        <time>2016-02-15T08:28:29.000Z</time>
      </trkpt>
      <trkpt lat="47.17548" lon="3.18309">
        <ele>313.26083374023</ele>
        <time>2016-02-15T08:28:32.000Z</time>
      </trkpt>
      <trkpt lat="47.17542" lon="3.18312">
        <ele>313.26226806641</ele>
        <time>2016-02-15T08:28:35.000Z</time>
      </trkpt>
      <trkpt lat="47.17538" lon="3.18313">
        <ele>313.25665283203</ele>
        <time>2016-02-15T08:28:38.000Z</time>
      </trkpt>
      <trkpt lat="47.17537" lon="3.18313">
        <ele>313.24334716797</ele>
        <time>2016-02-15T08:28:40.000Z</time>
      </trkpt>
      <trkpt lat="47.17535" lon="3.18313">
        <ele>313.22509765625</ele>
        <time>2016-02-15T08:28:44.000Z</time>
      </trkpt>
      <trkpt lat="47.17533" lon="3.18315">
        <ele>313.20574951172</ele>
        <time>2016-02-15T08:28:46.000Z</time>
      </trkpt>
      <trkpt lat="47.17531" lon="3.18318">
        <ele>313.19458007812</ele>
        <time>2016-02-15T08:28:49.000Z</time>
      </trkpt>
      <trkpt lat="47.17528" lon="3.18322">
        <ele>313.19018554688</ele>
        <time>2016-02-15T08:28:52.000Z</time>
      </trkpt>
      <trkpt lat="47.17526" lon="3.18324">
        <ele>313.18978881836</ele>
        <time>2016-02-15T08:28:55.000Z</time>
      </trkpt>
      <trkpt lat="47.17522" lon="3.18326">
        <ele>313.18933105469</ele>
        <time>2016-02-15T08:28:58.000Z</time>
      </trkpt>
      <trkpt lat="47.17516" lon="3.18326">
        <ele>313.17449951172</ele>
        <time>2016-02-15T08:29:07.000Z</time>
      </trkpt>
      <trkpt lat="47.17511" lon="3.18327">
        <ele>313.14709472656</ele>
        <time>2016-02-15T08:29:12.000Z</time>
      </trkpt>
      <trkpt lat="47.175" lon="3.18333">
        <ele>313.10699462891</ele>
        <time>2016-02-15T08:29:15.000Z</time>
      </trkpt>
      <trkpt lat="47.17498" lon="3.18333">
        <ele>313.04833984375</ele>
        <time>2016-02-15T08:29:17.000Z</time>
      </trkpt>
      <trkpt lat="47.17493" lon="3.18333">
        <ele>312.96490478516</ele>
        <time>2016-02-15T08:29:20.000Z</time>
      </trkpt>
      <trkpt lat="47.17492" lon="3.18333">
        <ele>312.87945556641</ele>
        <time>2016-02-15T08:29:22.000Z</time>
      </trkpt>
      <trkpt lat="47.17489" lon="3.18332">
        <ele>312.78689575195</ele>
        <time>2016-02-15T08:29:24.000Z</time>
      </trkpt>
      <trkpt lat="47.17486" lon="3.18332">
        <ele>312.68170166016</ele>
        <time>2016-02-15T08:29:27.000Z</time>
      </trkpt>
      <trkpt lat="47.17483" lon="3.18333">
        <ele>312.57904052734</ele>
        <time>2016-02-15T08:29:30.000Z</time>
      </trkpt>
      <trkpt lat="47.17481" lon="3.18332">
        <ele>312.48519897461</ele>
        <time>2016-02-15T08:29:32.000Z</time>
      </trkpt>
      <trkpt lat="47.17479" lon="3.18333">
        <ele>312.39077758789</ele>
        <time>2016-02-15T08:29:34.000Z</time>
      </trkpt>
      <trkpt lat="47.17475" lon="3.18333">
        <ele>312.29174804688</ele>
        <time>2016-02-15T08:29:37.000Z</time>
      </trkpt>
      <trkpt lat="47.17472" lon="3.18333">
        <ele>312.19195556641</ele>
        <time>2016-02-15T08:29:40.000Z</time>
      </trkpt>
      <trkpt lat="47.17468" lon="3.18334">
        <ele>312.08038330078</ele>
        <time>2016-02-15T08:29:42.000Z</time>
      </trkpt>
      <trkpt lat="47.17461" lon="3.18337">
        <ele>311.92208862305</ele>
        <time>2016-02-15T08:29:45.000Z</time>
      </trkpt>
      <trkpt lat="47.17459" lon="3.18337">
        <ele>311.76727294922</ele>
        <time>2016-02-15T08:29:47.000Z</time>
      </trkpt>
      <trkpt lat="47.17458" lon="3.18337">
        <ele>311.62860107422</ele>
        <time>2016-02-15T08:29:49.000Z</time>
      </trkpt>
      <trkpt lat="47.17454" lon="3.18339">
        <ele>311.47787475586</ele>
        <time>2016-02-15T08:29:52.000Z</time>
      </trkpt>
      <trkpt lat="47.1745" lon="3.1834">
        <ele>311.32366943359</ele>
        <time>2016-02-15T08:29:55.000Z</time>
      </trkpt>
      <trkpt lat="47.17448" lon="3.1834">
        <ele>311.224609375</ele>
        <time>2016-02-15T08:29:58.000Z</time>
      </trkpt>
      <trkpt lat="47.17447" lon="3.1834">
        <ele>311.13192749023</ele>
        <time>2016-02-15T08:30:00.000Z</time>
      </trkpt>
      <trkpt lat="47.17444" lon="3.18342">
        <ele>311.02346801758</ele>
        <time>2016-02-15T08:30:03.000Z</time>
      </trkpt>
      <trkpt lat="47.17442" lon="3.18342">
        <ele>310.93774414062</ele>
        <time>2016-02-15T08:30:05.000Z</time>
      </trkpt>
      <trkpt lat="47.1744" lon="3.18343">
        <ele>310.8674621582</ele>
        <time>2016-02-15T08:30:07.000Z</time>
      </trkpt>
      <trkpt lat="47.17437" lon="3.18344">
        <ele>310.78628540039</ele>
        <time>2016-02-15T08:30:10.000Z</time>
      </trkpt>
      <trkpt lat="47.17435" lon="3.18345">
        <ele>310.70153808594</ele>
        <time>2016-02-15T08:30:16.000Z</time>
      </trkpt>
      <trkpt lat="47.17428" lon="3.18346">
        <ele>310.59524536133</ele>
        <time>2016-02-15T08:30:19.000Z</time>
      </trkpt>
      <trkpt lat="47.17423" lon="3.18345">
        <ele>310.47265625</ele>
        <time>2016-02-15T08:30:24.000Z</time>
      </trkpt>
      <trkpt lat="47.17421" lon="3.18345">
        <ele>310.35366821289</ele>
        <time>2016-02-15T08:30:25.000Z</time>
      </trkpt>
      <trkpt lat="47.17419" lon="3.18344">
        <ele>310.25030517578</ele>
        <time>2016-02-15T08:30:28.000Z</time>
      </trkpt>
      <trkpt lat="47.17418" lon="3.18343">
        <ele>310.14486694336</ele>
        <time>2016-02-15T08:30:30.000Z</time>
      </trkpt>
      <trkpt lat="47.17414" lon="3.18341">
        <ele>310.06924438477</ele>
        <time>2016-02-15T08:30:33.000Z</time>
      </trkpt>
      <trkpt lat="47.17413" lon="3.18341">
        <ele>310.01824951172</ele>
        <time>2016-02-15T08:30:35.000Z</time>
      </trkpt>
      <trkpt lat="47.17411" lon="3.1834">
        <ele>309.96899414062</ele>
        <time>2016-02-15T08:30:38.000Z</time>
      </trkpt>
      <trkpt lat="47.17408" lon="3.1834">
        <ele>309.9111328125</ele>
        <time>2016-02-15T08:30:41.000Z</time>
      </trkpt>
      <trkpt lat="47.17401" lon="3.18343">
        <ele>309.83203125</ele>
        <time>2016-02-15T08:30:44.000Z</time>
      </trkpt>
      <trkpt lat="47.17398" lon="3.18344">
        <ele>309.751953125</ele>
        <time>2016-02-15T08:30:46.000Z</time>
      </trkpt>
      <trkpt lat="47.17393" lon="3.18346">
        <ele>309.654296875</ele>
        <time>2016-02-15T08:30:49.000Z</time>
      </trkpt>
      <trkpt lat="47.17391" lon="3.18346">
        <ele>309.55859375</ele>
        <time>2016-02-15T08:30:51.000Z</time>
      </trkpt>
      <trkpt lat="47.1739" lon="3.18345">
        <ele>309.470703125</ele>
        <time>2016-02-15T08:30:54.000Z</time>
      </trkpt>
      <trkpt lat="47.17388" lon="3.18345">
        <ele>309.40625</ele>
        <time>2016-02-15T08:30:56.000Z</time>
      </trkpt>
      <trkpt lat="47.17384" lon="3.18344">
        <ele>309.337890625</ele>
        <time>2016-02-15T08:30:59.000Z</time>
      </trkpt>
      <trkpt lat="47.17379" lon="3.18345">
        <ele>309.271484375</ele>
        <time>2016-02-15T08:31:02.000Z</time>
      </trkpt>
      <trkpt lat="47.17374" lon="3.18345">
        <ele>309.1875</ele>
        <time>2016-02-15T08:31:05.000Z</time>
      </trkpt>
      <trkpt lat="47.17371" lon="3.18344">
        <ele>309.09765625</ele>
        <time>2016-02-15T08:31:07.000Z</time>
      </trkpt>
      <trkpt lat="47.17367" lon="3.18343">
        <ele>309</ele>
        <time>2016-02-15T08:31:10.000Z</time>
      </trkpt>
      <trkpt lat="47.17363" lon="3.1834">
        <ele>308.900390625</ele>
        <time>2016-02-15T08:31:13.000Z</time>
      </trkpt>
      <trkpt lat="47.1736" lon="3.1834">
        <ele>308.810546875</ele>
        <time>2016-02-15T08:31:16.000Z</time>
      </trkpt>
      <trkpt lat="47.17357" lon="3.1834">
        <ele>308.728515625</ele>
        <time>2016-02-15T08:31:19.000Z</time>
      </trkpt>
      <trkpt lat="47.17355" lon="3.18341">
        <ele>308.65234375</ele>
        <time>2016-02-15T08:31:21.000Z</time>
      </trkpt>
      <trkpt lat="47.17352" lon="3.18343">
        <ele>308.580078125</ele>
        <time>2016-02-15T08:31:24.000Z</time>
      </trkpt>
      <trkpt lat="47.17348" lon="3.18344">
        <ele>308.509765625</ele>
        <time>2016-02-15T08:31:27.000Z</time>
      </trkpt>
      <trkpt lat="47.17345" lon="3.18346">
        <ele>308.43359375</ele>
        <time>2016-02-15T08:31:29.000Z</time>
      </trkpt>
      <trkpt lat="47.1734" lon="3.18346">
        <ele>308.353515625</ele>
        <time>2016-02-15T08:31:32.000Z</time>
      </trkpt>
      <trkpt lat="47.17338" lon="3.18346">
        <ele>308.271484375</ele>
        <time>2016-02-15T08:31:35.000Z</time>
      </trkpt>
      <trkpt lat="47.17335" lon="3.18346">
        <ele>308.1875</ele>
        <time>2016-02-15T08:31:38.000Z</time>
      </trkpt>
      <trkpt lat="47.17332" lon="3.18345">
        <ele>308.11602783203</ele>
        <time>2016-02-15T08:31:40.000Z</time>
      </trkpt>
      <trkpt lat="47.17327" lon="3.18343">
        <ele>308.06210327148</ele>
        <time>2016-02-15T08:31:43.000Z</time>
      </trkpt>
      <trkpt lat="47.17324" lon="3.18343">
        <ele>308.02969360352</ele>
        <time>2016-02-15T08:31:46.000Z</time>
      </trkpt>
      <trkpt lat="47.17321" lon="3.18345">
        <ele>308.00701904297</ele>
        <time>2016-02-15T08:31:49.000Z</time>
      </trkpt>
      <trkpt lat="47.17319" lon="3.18345">
        <ele>308</ele>
        <time>2016-02-15T08:31:54.000Z</time>
      </trkpt>
      <trkpt lat="47.17313" lon="3.18345">
        <ele>308</ele>
        <time>2016-02-15T08:31:57.000Z</time>
      </trkpt>
      <trkpt lat="47.17308" lon="3.18345">
        <ele>308</ele>
        <time>2016-02-15T08:32:00.000Z</time>
      </trkpt>
      <trkpt lat="47.17303" lon="3.18345">
        <ele>308</ele>
        <time>2016-02-15T08:32:02.000Z</time>
      </trkpt>
      <trkpt lat="47.17296" lon="3.18344">
        <ele>308</ele>
        <time>2016-02-15T08:32:05.000Z</time>
      </trkpt>
      <trkpt lat="47.17293" lon="3.18344">
        <ele>308</ele>
        <time>2016-02-15T08:32:08.000Z</time>
      </trkpt>
      <trkpt lat="47.17286" lon="3.18344">
        <ele>308</ele>
        <time>2016-02-15T08:32:11.000Z</time>
      </trkpt>
      <trkpt lat="47.17282" lon="3.18343">
        <ele>308</ele>
        <time>2016-02-15T08:32:13.000Z</time>
      </trkpt>
      <trkpt lat="47.17279" lon="3.18343">
        <ele>308</ele>
        <time>2016-02-15T08:32:15.000Z</time>
      </trkpt>
      <trkpt lat="47.17278" lon="3.18342">
        <ele>308</ele>
        <time>2016-02-15T08:32:18.000Z</time>
      </trkpt>
      <trkpt lat="47.17274" lon="3.18342">
        <ele>308</ele>
        <time>2016-02-15T08:32:20.000Z</time>
      </trkpt>
      <trkpt lat="47.1727" lon="3.18337">
        <ele>308</ele>
        <time>2016-02-15T08:32:24.000Z</time>
      </trkpt>
      <trkpt lat="47.17269" lon="3.18336">
        <ele>308</ele>
        <time>2016-02-15T08:32:29.000Z</time>
      </trkpt>
      <trkpt lat="47.17263" lon="3.18334">
        <ele>308</ele>
        <time>2016-02-15T08:32:32.000Z</time>
      </trkpt>
      <trkpt lat="47.1726" lon="3.18331">
        <ele>307.99365234375</ele>
        <time>2016-02-15T08:32:34.000Z</time>
      </trkpt>
      <trkpt lat="47.17258" lon="3.18329">
        <ele>307.98318481445</ele>
        <time>2016-02-15T08:32:37.000Z</time>
      </trkpt>
      <trkpt lat="47.17256" lon="3.18328">
        <ele>307.96829223633</ele>
        <time>2016-02-15T08:32:39.000Z</time>
      </trkpt>
      <trkpt lat="47.17254" lon="3.18326">
        <ele>307.94915771484</ele>
        <time>2016-02-15T08:32:43.000Z</time>
      </trkpt>
      <trkpt lat="47.17251" lon="3.18323">
        <ele>307.92327880859</ele>
        <time>2016-02-15T08:32:46.000Z</time>
      </trkpt>
      <trkpt lat="47.17242" lon="3.1832">
        <ele>307.87713623047</ele>
        <time>2016-02-15T08:32:54.000Z</time>
      </trkpt>
      <trkpt lat="47.17237" lon="3.18316">
        <ele>307.81524658203</ele>
        <time>2016-02-15T08:32:56.000Z</time>
      </trkpt>
      <trkpt lat="47.17234" lon="3.18316">
        <ele>307.74789428711</ele>
        <time>2016-02-15T08:32:58.000Z</time>
      </trkpt>
      <trkpt lat="47.17229" lon="3.18315">
        <ele>307.67428588867</ele>
        <time>2016-02-15T08:33:03.000Z</time>
      </trkpt>
      <trkpt lat="47.17228" lon="3.18316">
        <ele>307.60424804688</ele>
        <time>2016-02-15T08:33:06.000Z</time>
      </trkpt>
      <trkpt lat="47.17223" lon="3.18316">
        <ele>307.55059814453</ele>
        <time>2016-02-15T08:33:08.000Z</time>
      </trkpt>
      <trkpt lat="47.1722" lon="3.18315">
        <ele>307.50689697266</ele>
        <time>2016-02-15T08:33:11.000Z</time>
      </trkpt>
      <trkpt lat="47.17217" lon="3.18315">
        <ele>307.46685791016</ele>
        <time>2016-02-15T08:33:14.000Z</time>
      </trkpt>
      <trkpt lat="47.17209" lon="3.18316">
        <ele>307.41973876953</ele>
        <time>2016-02-15T08:33:18.000Z</time>
      </trkpt>
      <trkpt lat="47.17205" lon="3.18317">
        <ele>307.37036132812</ele>
        <time>2016-02-15T08:33:21.000Z</time>
      </trkpt>
      <trkpt lat="47.17204" lon="3.18317">
        <ele>307.32650756836</ele>
        <time>2016-02-15T08:33:25.000Z</time>
      </trkpt>
      <trkpt lat="47.17202" lon="3.18318">
        <ele>307.28894042969</ele>
        <time>2016-02-15T08:33:28.000Z</time>
      </trkpt>
      <trkpt lat="47.17197" lon="3.18318">
        <ele>307.24670410156</ele>
        <time>2016-02-15T08:33:30.000Z</time>
      </trkpt>
      <trkpt lat="47.17191" lon="3.18319">
        <ele>307.21160888672</ele>
        <time>2016-02-15T08:33:33.000Z</time>
      </trkpt>
      <trkpt lat="47.17188" lon="3.18322">
        <ele>307.17950439453</ele>
        <time>2016-02-15T08:33:36.000Z</time>
      </trkpt>
      <trkpt lat="47.17185" lon="3.18324">
        <ele>307.15026855469</ele>
        <time>2016-02-15T08:33:38.000Z</time>
      </trkpt>
      <trkpt lat="47.17184" lon="3.18325">
        <ele>307.12585449219</ele>
        <time>2016-02-15T08:33:41.000Z</time>
      </trkpt>
      <trkpt lat="47.17182" lon="3.18327">
        <ele>307.11059570312</ele>
        <time>2016-02-15T08:33:43.000Z</time>
      </trkpt>
      <trkpt lat="47.17179" lon="3.18328">
        <ele>307.10015869141</ele>
        <time>2016-02-15T08:33:46.000Z</time>
      </trkpt>
      <trkpt lat="47.17176" lon="3.18328">
        <ele>307.08862304688</ele>
        <time>2016-02-15T08:33:49.000Z</time>
      </trkpt>
      <trkpt lat="47.17173" lon="3.18329">
        <ele>307.07257080078</ele>
        <time>2016-02-15T08:33:51.000Z</time>
      </trkpt>
      <trkpt lat="47.1717" lon="3.18328">
        <ele>307.04449462891</ele>
        <time>2016-02-15T08:33:54.000Z</time>
      </trkpt>
      <trkpt lat="47.17166" lon="3.18325">
        <ele>306.99822998047</ele>
        <time>2016-02-15T08:33:57.000Z</time>
      </trkpt>
      <trkpt lat="47.17163" lon="3.18325">
        <ele>306.92547607422</ele>
        <time>2016-02-15T08:33:59.000Z</time>
      </trkpt>
      <trkpt lat="47.17158" lon="3.18326">
        <ele>306.81387329102</ele>
        <time>2016-02-15T08:34:01.000Z</time>
      </trkpt>
      <trkpt lat="47.17155" lon="3.18327">
        <ele>306.68740844727</ele>
        <time>2016-02-15T08:34:03.000Z</time>
      </trkpt>
      <trkpt lat="47.17151" lon="3.18328">
        <ele>306.53530883789</ele>
        <time>2016-02-15T08:34:06.000Z</time>
      </trkpt>
      <trkpt lat="47.1715" lon="3.1833">
        <ele>306.39129638672</ele>
        <time>2016-02-15T08:34:08.000Z</time>
      </trkpt>
      <trkpt lat="47.17147" lon="3.18332">
        <ele>306.25561523438</ele>
        <time>2016-02-15T08:34:11.000Z</time>
      </trkpt>
      <trkpt lat="47.17142" lon="3.18333">
        <ele>306.11859130859</ele>
        <time>2016-02-15T08:34:14.000Z</time>
      </trkpt>
      <trkpt lat="47.17139" lon="3.18334">
        <ele>305.97930908203</ele>
        <time>2016-02-15T08:34:16.000Z</time>
      </trkpt>
      <trkpt lat="47.17138" lon="3.18335">
        <ele>305.86102294922</ele>
        <time>2016-02-15T08:34:19.000Z</time>
      </trkpt>
      <trkpt lat="47.17134" lon="3.18337">
        <ele>305.71929931641</ele>
        <time>2016-02-15T08:34:22.000Z</time>
      </trkpt>
      <trkpt lat="47.17132" lon="3.18337">
        <ele>305.58190917969</ele>
        <time>2016-02-15T08:34:24.000Z</time>
      </trkpt>
      <trkpt lat="47.17129" lon="3.18338">
        <ele>305.45703125</ele>
        <time>2016-02-15T08:34:27.000Z</time>
      </trkpt>
      <trkpt lat="47.1713" lon="3.18337">
        <ele>305.36328125</ele>
        <time>2016-02-15T08:34:34.000Z</time>
      </trkpt>
      <trkpt lat="47.17131" lon="3.18338">
        <ele>305.29296875</ele>
        <time>2016-02-15T08:34:46.000Z</time>
      </trkpt>
      <trkpt lat="47.17131" lon="3.18337">
        <ele>305.2578125</ele>
        <time>2016-02-15T08:35:00.000Z</time>
      </trkpt>
      <trkpt lat="47.17132" lon="3.18335">
        <ele>305.2578125</ele>
        <time>2016-02-15T08:35:04.000Z</time>
      </trkpt>
      <trkpt lat="47.17135" lon="3.18332">
        <ele>305.31402587891</ele>
        <time>2016-02-15T08:35:07.000Z</time>
      </trkpt>
      <trkpt lat="47.17135" lon="3.18332">
        <ele>305.31402587891</ele>
        <time>2016-02-15T08:35:27.000Z</time>
      </trkpt>
      <trkpt lat="47.17136" lon="3.18332">
        <ele>305.37493896484</ele>
        <time>2016-02-15T08:35:34.000Z</time>
      </trkpt>
      <trkpt lat="47.17138" lon="3.18333">
        <ele>305.44787597656</ele>
        <time>2016-02-15T08:35:36.000Z</time>
      </trkpt>
      <trkpt lat="47.17141" lon="3.18334">
        <ele>305.54943847656</ele>
        <time>2016-02-15T08:35:38.000Z</time>
      </trkpt>
      <trkpt lat="47.17146" lon="3.18335">
        <ele>305.67834472656</ele>
        <time>2016-02-15T08:35:41.000Z</time>
      </trkpt>
      <trkpt lat="47.17147" lon="3.18334">
        <ele>305.79400634766</ele>
        <time>2016-02-15T08:35:45.000Z</time>
      </trkpt>
      <trkpt lat="47.17148" lon="3.18333">
        <ele>305.90435791016</ele>
        <time>2016-02-15T08:35:51.000Z</time>
      </trkpt>
      <trkpt lat="47.17149" lon="3.18334">
        <ele>306.00329589844</ele>
        <time>2016-02-15T08:35:54.000Z</time>
      </trkpt>
      <trkpt lat="47.17149" lon="3.18334">
        <ele>306.00329589844</ele>
        <time>2016-02-15T08:36:14.000Z</time>
      </trkpt>
      <trkpt lat="47.17144" lon="3.18337">
        <ele>306.02673339844</ele>
        <time>2016-02-15T08:36:23.000Z</time>
      </trkpt>
      <trkpt lat="47.17139" lon="3.18336">
        <ele>305.96813964844</ele>
        <time>2016-02-15T08:36:30.000Z</time>
      </trkpt>
      <trkpt lat="47.17137" lon="3.18336">
        <ele>305.87048339844</ele>
        <time>2016-02-15T08:36:32.000Z</time>
      </trkpt>
      <trkpt lat="47.17134" lon="3.18336">
        <ele>305.73828125</ele>
        <time>2016-02-15T08:36:36.000Z</time>
      </trkpt>
      <trkpt lat="47.17132" lon="3.18335">
        <ele>305.58203125</ele>
        <time>2016-02-15T08:36:39.000Z</time>
      </trkpt>
      <trkpt lat="47.17131" lon="3.18342">
        <ele>305.4609375</ele>
        <time>2016-02-15T08:36:53.000Z</time>
      </trkpt>
      <trkpt lat="47.17131" lon="3.18354">
        <ele>305.375</ele>
        <time>2016-02-15T08:36:56.000Z</time>
      </trkpt>
      <trkpt lat="47.17131" lon="3.18356">
        <ele>305.3203125</ele>
        <time>2016-02-15T08:36:58.000Z</time>
      </trkpt>
      <trkpt lat="47.17128" lon="3.18362">
        <ele>305.26953125</ele>
        <time>2016-02-15T08:37:01.000Z</time>
      </trkpt>
      <trkpt lat="47.1713" lon="3.18366">
        <ele>305.24609375</ele>
        <time>2016-02-15T08:37:03.000Z</time>
      </trkpt>
      <trkpt lat="47.1713" lon="3.18371">
        <ele>305.23828125</ele>
        <time>2016-02-15T08:37:06.000Z</time>
      </trkpt>
      <trkpt lat="47.1713" lon="3.18373">
        <ele>305.234375</ele>
        <time>2016-02-15T08:37:08.000Z</time>
      </trkpt>
      <trkpt lat="47.1713" lon="3.18376">
        <ele>305.22265625</ele>
        <time>2016-02-15T08:37:15.000Z</time>
      </trkpt>
      <trkpt lat="47.1713" lon="3.18379">
        <ele>305.23828125</ele>
        <time>2016-02-15T08:37:17.000Z</time>
      </trkpt>
      <trkpt lat="47.17131" lon="3.18382">
        <ele>305.25390625</ele>
        <time>2016-02-15T08:37:19.000Z</time>
      </trkpt>
      <trkpt lat="47.17133" lon="3.18386">
        <ele>305.28125</ele>
        <time>2016-02-15T08:37:22.000Z</time>
      </trkpt>
      <trkpt lat="47.17136" lon="3.18392">
        <ele>305.33203125</ele>
        <time>2016-02-15T08:37:25.000Z</time>
      </trkpt>
      <trkpt lat="47.17137" lon="3.18397">
        <ele>305.40234375</ele>
        <time>2016-02-15T08:37:27.000Z</time>
      </trkpt>
      <trkpt lat="47.17136" lon="3.18403">
        <ele>305.4609375</ele>
        <time>2016-02-15T08:37:30.000Z</time>
      </trkpt>
      <trkpt lat="47.17135" lon="3.18405">
        <ele>305.5</ele>
        <time>2016-02-15T08:37:32.000Z</time>
      </trkpt>
      <trkpt lat="47.17134" lon="3.18407">
        <ele>305.515625</ele>
        <time>2016-02-15T08:37:34.000Z</time>
      </trkpt>
      <trkpt lat="47.17135" lon="3.18411">
        <ele>305.51171875</ele>
        <time>2016-02-15T08:37:37.000Z</time>
      </trkpt>
      <trkpt lat="47.17136" lon="3.18416">
        <ele>305.5</ele>
        <time>2016-02-15T08:37:40.000Z</time>
      </trkpt>
      <trkpt lat="47.17135" lon="3.18419">
        <ele>305.47970581055</ele>
        <time>2016-02-15T08:37:43.000Z</time>
      </trkpt>
      <trkpt lat="47.17135" lon="3.18422">
        <ele>305.45635986328</ele>
        <time>2016-02-15T08:37:45.000Z</time>
      </trkpt>
      <trkpt lat="47.17135" lon="3.18427">
        <ele>305.41387939453</ele>
        <time>2016-02-15T08:37:48.000Z</time>
      </trkpt>
      <trkpt lat="47.17135" lon="3.18435">
        <ele>305.32962036133</ele>
        <time>2016-02-15T08:37:51.000Z</time>
      </trkpt>
      <trkpt lat="47.17135" lon="3.18439">
        <ele>305.21618652344</ele>
        <time>2016-02-15T08:37:53.000Z</time>
      </trkpt>
      <trkpt lat="47.17137" lon="3.18446">
        <ele>305.09948730469</ele>
        <time>2016-02-15T08:37:56.000Z</time>
      </trkpt>
      <trkpt lat="47.17139" lon="3.18453">
        <ele>304.9853515625</ele>
        <time>2016-02-15T08:37:59.000Z</time>
      </trkpt>
      <trkpt lat="47.1714" lon="3.18455">
        <ele>304.8935546875</ele>
        <time>2016-02-15T08:38:01.000Z</time>
      </trkpt>
      <trkpt lat="47.1714" lon="3.18458">
        <ele>304.82897949219</ele>
        <time>2016-02-15T08:38:03.000Z</time>
      </trkpt>
      <trkpt lat="47.17141" lon="3.18462">
        <ele>304.77307128906</ele>
        <time>2016-02-15T08:38:05.000Z</time>
      </trkpt>
      <trkpt lat="47.17142" lon="3.18466">
        <ele>304.73010253906</ele>
        <time>2016-02-15T08:38:07.000Z</time>
      </trkpt>
      <trkpt lat="47.17144" lon="3.1847">
        <ele>304.689453125</ele>
        <time>2016-02-15T08:38:10.000Z</time>
      </trkpt>
      <trkpt lat="47.17145" lon="3.18473">
        <ele>304.65576171875</ele>
        <time>2016-02-15T08:38:12.000Z</time>
      </trkpt>
      <trkpt lat="47.17147" lon="3.18478">
        <ele>304.62561035156</ele>
        <time>2016-02-15T08:38:15.000Z</time>
      </trkpt>
      <trkpt lat="47.17147" lon="3.18482">
        <ele>304.59252929688</ele>
        <time>2016-02-15T08:38:18.000Z</time>
      </trkpt>
      <trkpt lat="47.17147" lon="3.18487">
        <ele>304.54541015625</ele>
        <time>2016-02-15T08:38:21.000Z</time>
      </trkpt>
      <trkpt lat="47.17147" lon="3.18493">
        <ele>304.46728515625</ele>
        <time>2016-02-15T08:38:24.000Z</time>
      </trkpt>
      <trkpt lat="47.17147" lon="3.18496">
        <ele>304.37243652344</ele>
        <time>2016-02-15T08:38:26.000Z</time>
      </trkpt>
      <trkpt lat="47.17147" lon="3.18502">
        <ele>304.25399780273</ele>
        <time>2016-02-15T08:38:29.000Z</time>
      </trkpt>
      <trkpt lat="47.17147" lon="3.18507">
        <ele>304.12515258789</ele>
        <time>2016-02-15T08:38:32.000Z</time>
      </trkpt>
      <trkpt lat="47.17148" lon="3.18512">
        <ele>303.98455810547</ele>
        <time>2016-02-15T08:38:35.000Z</time>
      </trkpt>
      <trkpt lat="47.17149" lon="3.18516">
        <ele>303.86102294922</ele>
        <time>2016-02-15T08:38:37.000Z</time>
      </trkpt>
      <trkpt lat="47.17148" lon="3.18519">
        <ele>303.72225952148</ele>
        <time>2016-02-15T08:38:40.000Z</time>
      </trkpt>
      <trkpt lat="47.17147" lon="3.18524">
        <ele>303.57437133789</ele>
        <time>2016-02-15T08:38:43.000Z</time>
      </trkpt>
      <trkpt lat="47.17147" lon="3.18528">
        <ele>303.42596435547</ele>
        <time>2016-02-15T08:38:46.000Z</time>
      </trkpt>
      <trkpt lat="47.17148" lon="3.18531">
        <ele>303.30010986328</ele>
        <time>2016-02-15T08:38:49.000Z</time>
      </trkpt>
      <trkpt lat="47.17147" lon="3.18538">
        <ele>303.13690185547</ele>
        <time>2016-02-15T08:38:55.000Z</time>
      </trkpt>
      <trkpt lat="47.17147" lon="3.18545">
        <ele>302.95910644531</ele>
        <time>2016-02-15T08:39:04.000Z</time>
      </trkpt>
      <trkpt lat="47.17148" lon="3.18555">
        <ele>302.76470947266</ele>
        <time>2016-02-15T08:39:07.000Z</time>
      </trkpt>
      <trkpt lat="47.17148" lon="3.1856">
        <ele>302.56103515625</ele>
        <time>2016-02-15T08:39:09.000Z</time>
      </trkpt>
      <trkpt lat="47.17149" lon="3.18563">
        <ele>302.35369873047</ele>
        <time>2016-02-15T08:39:12.000Z</time>
      </trkpt>
      <trkpt lat="47.1715" lon="3.18566">
        <ele>302.1926574707</ele>
        <time>2016-02-15T08:39:15.000Z</time>
      </trkpt>
      <trkpt lat="47.1715" lon="3.18572">
        <ele>302.04187011719</ele>
        <time>2016-02-15T08:39:18.000Z</time>
      </trkpt>
      <trkpt lat="47.17151" lon="3.18578">
        <ele>301.90878295898</ele>
        <time>2016-02-15T08:39:21.000Z</time>
      </trkpt>
      <trkpt lat="47.17152" lon="3.18583">
        <ele>301.78457641602</ele>
        <time>2016-02-15T08:39:23.000Z</time>
      </trkpt>
      <trkpt lat="47.17152" lon="3.18586">
        <ele>301.65533447266</ele>
        <time>2016-02-15T08:39:25.000Z</time>
      </trkpt>
      <trkpt lat="47.17153" lon="3.1859">
        <ele>301.51760864258</ele>
        <time>2016-02-15T08:39:27.000Z</time>
      </trkpt>
      <trkpt lat="47.17154" lon="3.18594">
        <ele>301.39492797852</ele>
        <time>2016-02-15T08:39:30.000Z</time>
      </trkpt>
      <trkpt lat="47.17155" lon="3.18596">
        <ele>301.29693603516</ele>
        <time>2016-02-15T08:39:32.000Z</time>
      </trkpt>
      <trkpt lat="47.17155" lon="3.18599">
        <ele>301.21063232422</ele>
        <time>2016-02-15T08:39:35.000Z</time>
      </trkpt>
      <trkpt lat="47.17156" lon="3.18603">
        <ele>301.11865234375</ele>
        <time>2016-02-15T08:39:38.000Z</time>
      </trkpt>
      <trkpt lat="47.17157" lon="3.18608">
        <ele>301.01937866211</ele>
        <time>2016-02-15T08:39:41.000Z</time>
      </trkpt>
      <trkpt lat="47.17155" lon="3.18611">
        <ele>300.90927124023</ele>
        <time>2016-02-15T08:39:43.000Z</time>
      </trkpt>
      <trkpt lat="47.17154" lon="3.18615">
        <ele>300.78009033203</ele>
        <time>2016-02-15T08:39:46.000Z</time>
      </trkpt>
      <trkpt lat="47.17152" lon="3.18618">
        <ele>300.6318359375</ele>
        <time>2016-02-15T08:39:49.000Z</time>
      </trkpt>
      <trkpt lat="47.17152" lon="3.18623">
        <ele>300.47232055664</ele>
        <time>2016-02-15T08:39:52.000Z</time>
      </trkpt>
      <trkpt lat="47.17153" lon="3.18628">
        <ele>300.31304931641</ele>
        <time>2016-02-15T08:39:55.000Z</time>
      </trkpt>
      <trkpt lat="47.17154" lon="3.18631">
        <ele>300.16537475586</ele>
        <time>2016-02-15T08:39:57.000Z</time>
      </trkpt>
      <trkpt lat="47.17155" lon="3.18635">
        <ele>300.02490234375</ele>
        <time>2016-02-15T08:39:59.000Z</time>
      </trkpt>
      <trkpt lat="47.17155" lon="3.1864">
        <ele>299.88995361328</ele>
        <time>2016-02-15T08:40:01.000Z</time>
      </trkpt>
      <trkpt lat="47.17157" lon="3.18645">
        <ele>299.76220703125</ele>
        <time>2016-02-15T08:40:04.000Z</time>
      </trkpt>
      <trkpt lat="47.17158" lon="3.18651">
        <ele>299.63150024414</ele>
        <time>2016-02-15T08:40:07.000Z</time>
      </trkpt>
      <trkpt lat="47.17159" lon="3.18655">
        <ele>299.49920654297</ele>
        <time>2016-02-15T08:40:10.000Z</time>
      </trkpt>
      <trkpt lat="47.1716" lon="3.1866">
        <ele>299.35784912109</ele>
        <time>2016-02-15T08:40:13.000Z</time>
      </trkpt>
      <trkpt lat="47.17159" lon="3.18661">
        <ele>299.23226928711</ele>
        <time>2016-02-15T08:40:15.000Z</time>
      </trkpt>
      <trkpt lat="47.17159" lon="3.18663">
        <ele>299.11907958984</ele>
        <time>2016-02-15T08:40:18.000Z</time>
      </trkpt>
      <trkpt lat="47.17157" lon="3.18666">
        <ele>299.01116943359</ele>
        <time>2016-02-15T08:40:21.000Z</time>
      </trkpt>
      <trkpt lat="47.17157" lon="3.18667">
        <ele>298.91812133789</ele>
        <time>2016-02-15T08:40:24.000Z</time>
      </trkpt>
      <trkpt lat="47.17157" lon="3.18667">
        <ele>298.91812133789</ele>
        <time>2016-02-15T08:40:44.000Z</time>
      </trkpt>
      <trkpt lat="47.17161" lon="3.18669">
        <ele>298.88873291016</ele>
        <time>2016-02-15T08:40:52.000Z</time>
      </trkpt>
      <trkpt lat="47.17158" lon="3.18673">
        <ele>298.87551879883</ele>
        <time>2016-02-15T08:40:55.000Z</time>
      </trkpt>
      <trkpt lat="47.17152" lon="3.18677">
        <ele>298.8639831543</ele>
        <time>2016-02-15T08:40:58.000Z</time>
      </trkpt>
      <trkpt lat="47.17146" lon="3.1868">
        <ele>298.84967041016</ele>
        <time>2016-02-15T08:41:01.000Z</time>
      </trkpt>
      <trkpt lat="47.17142" lon="3.18682">
        <ele>298.82885742188</ele>
        <time>2016-02-15T08:41:03.000Z</time>
      </trkpt>
      <trkpt lat="47.17137" lon="3.18681">
        <ele>298.74481201172</ele>
        <time>2016-02-15T08:41:07.000Z</time>
      </trkpt>
      <trkpt lat="47.17132" lon="3.18679">
        <ele>298.62652587891</ele>
        <time>2016-02-15T08:41:17.000Z</time>
      </trkpt>
      <trkpt lat="47.17127" lon="3.18679">
        <ele>298.49447631836</ele>
        <time>2016-02-15T08:41:19.000Z</time>
      </trkpt>
      <trkpt lat="47.17125" lon="3.18679">
        <ele>298.37408447266</ele>
        <time>2016-02-15T08:41:27.000Z</time>
      </trkpt>
      <trkpt lat="47.17121" lon="3.18678">
        <ele>298.24597167969</ele>
        <time>2016-02-15T08:41:28.000Z</time>
      </trkpt>
      <trkpt lat="47.17118" lon="3.1868">
        <ele>298.13452148438</ele>
        <time>2016-02-15T08:41:29.000Z</time>
      </trkpt>
      <trkpt lat="47.17115" lon="3.1868">
        <ele>298.04391479492</ele>
        <time>2016-02-15T08:41:29.000Z</time>
      </trkpt>
      <trkpt lat="47.17112" lon="3.1868">
        <ele>297.96273803711</ele>
        <time>2016-02-15T08:41:30.000Z</time>
      </trkpt>
      <trkpt lat="47.1711" lon="3.1868">
        <ele>297.88818359375</ele>
        <time>2016-02-15T08:41:30.000Z</time>
      </trkpt>
      <trkpt lat="47.17107" lon="3.1868">
        <ele>297.81396484375</ele>
        <time>2016-02-15T08:41:32.000Z</time>
      </trkpt>
      <trkpt lat="47.17104" lon="3.1868">
        <ele>297.74029541016</ele>
        <time>2016-02-15T08:41:46.000Z</time>
      </trkpt>
      <trkpt lat="47.17101" lon="3.18681">
        <ele>297.65936279297</ele>
        <time>2016-02-15T08:41:46.000Z</time>
      </trkpt>
      <trkpt lat="47.17097" lon="3.18681">
        <ele>297.57901000977</ele>
        <time>2016-02-15T08:41:47.000Z</time>
      </trkpt>
      <trkpt lat="47.17096" lon="3.18682">
        <ele>297.49633789062</ele>
        <time>2016-02-15T08:41:48.000Z</time>
      </trkpt>
      <trkpt lat="47.17094" lon="3.18682">
        <ele>297.42340087891</ele>
        <time>2016-02-15T08:41:49.000Z</time>
      </trkpt>
      <trkpt lat="47.17091" lon="3.18682">
        <ele>297.34921264648</ele>
        <time>2016-02-15T08:41:49.000Z</time>
      </trkpt>
      <trkpt lat="47.17085" lon="3.18682">
        <ele>297.26254272461</ele>
        <time>2016-02-15T08:41:50.000Z</time>
      </trkpt>
      <trkpt lat="47.1708" lon="3.18682">
        <ele>297.17193603516</ele>
        <time>2016-02-15T08:41:50.000Z</time>
      </trkpt>
      <trkpt lat="47.17076" lon="3.18683">
        <ele>297.08074951172</ele>
        <time>2016-02-15T08:41:50.000Z</time>
      </trkpt>
      <trkpt lat="47.17072" lon="3.18682">
        <ele>296.98699951172</ele>
        <time>2016-02-15T08:41:51.000Z</time>
      </trkpt>
      <trkpt lat="47.17068" lon="3.18681">
        <ele>296.90411376953</ele>
        <time>2016-02-15T08:41:53.000Z</time>
      </trkpt>
      <trkpt lat="47.17066" lon="3.18682">
        <ele>296.84307861328</ele>
        <time>2016-02-15T08:41:55.000Z</time>
      </trkpt>
      <trkpt lat="47.17061" lon="3.18682">
        <ele>296.79098510742</ele>
        <time>2016-02-15T08:41:58.000Z</time>
      </trkpt>
      <trkpt lat="47.17057" lon="3.18683">
        <ele>296.73696899414</ele>
        <time>2016-02-15T08:42:01.000Z</time>
      </trkpt>
      <trkpt lat="47.17051" lon="3.18685">
        <ele>296.67614746094</ele>
        <time>2016-02-15T08:42:04.000Z</time>
      </trkpt>
      <trkpt lat="47.17048" lon="3.18686">
        <ele>296.61312866211</ele>
        <time>2016-02-15T08:42:06.000Z</time>
      </trkpt>
      <trkpt lat="47.17044" lon="3.18687">
        <ele>296.54574584961</ele>
        <time>2016-02-15T08:42:09.000Z</time>
      </trkpt>
      <trkpt lat="47.17042" lon="3.18688">
        <ele>296.48406982422</ele>
        <time>2016-02-15T08:42:11.000Z</time>
      </trkpt>
      <trkpt lat="47.17039" lon="3.18691">
        <ele>296.42431640625</ele>
        <time>2016-02-15T08:42:14.000Z</time>
      </trkpt>
      <trkpt lat="47.17037" lon="3.18692">
        <ele>296.37469482422</ele>
        <time>2016-02-15T08:42:16.000Z</time>
      </trkpt>
      <trkpt lat="47.17033" lon="3.18694">
        <ele>296.31704711914</ele>
        <time>2016-02-15T08:42:19.000Z</time>
      </trkpt>
      <trkpt lat="47.17029" lon="3.18695">
        <ele>296.25933837891</ele>
        <time>2016-02-15T08:42:21.000Z</time>
      </trkpt>
      <trkpt lat="47.17024" lon="3.18695">
        <ele>296.19366455078</ele>
        <time>2016-02-15T08:42:24.000Z</time>
      </trkpt>
      <trkpt lat="47.17021" lon="3.18695">
        <ele>296.12753295898</ele>
        <time>2016-02-15T08:42:26.000Z</time>
      </trkpt>
      <trkpt lat="47.17016" lon="3.18695">
        <ele>296.05508422852</ele>
        <time>2016-02-15T08:42:29.000Z</time>
      </trkpt>
      <trkpt lat="47.17013" lon="3.18695">
        <ele>295.99224853516</ele>
        <time>2016-02-15T08:42:31.000Z</time>
      </trkpt>
      <trkpt lat="47.1701" lon="3.18695">
        <ele>295.93106079102</ele>
        <time>2016-02-15T08:42:34.000Z</time>
      </trkpt>
      <trkpt lat="47.17006" lon="3.18695">
        <ele>295.87149047852</ele>
        <time>2016-02-15T08:42:37.000Z</time>
      </trkpt>
      <trkpt lat="47.17002" lon="3.18695">
        <ele>295.81195068359</ele>
        <time>2016-02-15T08:42:39.000Z</time>
      </trkpt>
      <trkpt lat="47.16998" lon="3.18697">
        <ele>295.74444580078</ele>
        <time>2016-02-15T08:42:42.000Z</time>
      </trkpt>
      <trkpt lat="47.16995" lon="3.18697">
        <ele>295.67465209961</ele>
        <time>2016-02-15T08:42:45.000Z</time>
      </trkpt>
      <trkpt lat="47.16993" lon="3.18697">
        <ele>295.60601806641</ele>
        <time>2016-02-15T08:42:47.000Z</time>
      </trkpt>
      <trkpt lat="47.16987" lon="3.18699">
        <ele>295.52301025391</ele>
        <time>2016-02-15T08:42:50.000Z</time>
      </trkpt>
      <trkpt lat="47.16983" lon="3.18699">
        <ele>295.43438720703</ele>
        <time>2016-02-15T08:42:52.000Z</time>
      </trkpt>
      <trkpt lat="47.16978" lon="3.18699">
        <ele>295.35015869141</ele>
        <time>2016-02-15T08:42:54.000Z</time>
      </trkpt>
      <trkpt lat="47.16974" lon="3.18701">
        <ele>295.24893188477</ele>
        <time>2016-02-15T08:42:57.000Z</time>
      </trkpt>
      <trkpt lat="47.16971" lon="3.18703">
        <ele>295.13494873047</ele>
        <time>2016-02-15T08:43:00.000Z</time>
      </trkpt>
      <trkpt lat="47.16969" lon="3.18704">
        <ele>295.03509521484</ele>
        <time>2016-02-15T08:43:02.000Z</time>
      </trkpt>
      <trkpt lat="47.16965" lon="3.18706">
        <ele>294.92547607422</ele>
        <time>2016-02-15T08:43:05.000Z</time>
      </trkpt>
      <trkpt lat="47.16961" lon="3.18708">
        <ele>294.80642700195</ele>
        <time>2016-02-15T08:43:08.000Z</time>
      </trkpt>
      <trkpt lat="47.16956" lon="3.18708">
        <ele>294.69647216797</ele>
        <time>2016-02-15T08:43:11.000Z</time>
      </trkpt>
      <trkpt lat="47.16953" lon="3.18708">
        <ele>294.58880615234</ele>
        <time>2016-02-15T08:43:14.000Z</time>
      </trkpt>
      <trkpt lat="47.16949" lon="3.18708">
        <ele>294.48175048828</ele>
        <time>2016-02-15T08:43:17.000Z</time>
      </trkpt>
      <trkpt lat="47.16947" lon="3.18708">
        <ele>294.38500976562</ele>
        <time>2016-02-15T08:43:20.000Z</time>
      </trkpt>
      <trkpt lat="47.16944" lon="3.18709">
        <ele>294.29614257812</ele>
        <time>2016-02-15T08:43:23.000Z</time>
      </trkpt>
      <trkpt lat="47.16941" lon="3.1871">
        <ele>294.21002197266</ele>
        <time>2016-02-15T08:43:25.000Z</time>
      </trkpt>
      <trkpt lat="47.16936" lon="3.18711">
        <ele>294.115234375</ele>
        <time>2016-02-15T08:43:28.000Z</time>
      </trkpt>
      <trkpt lat="47.16932" lon="3.18712">
        <ele>294.00531005859</ele>
        <time>2016-02-15T08:43:31.000Z</time>
      </trkpt>
      <trkpt lat="47.16928" lon="3.18714">
        <ele>293.88101196289</ele>
        <time>2016-02-15T08:43:34.000Z</time>
      </trkpt>
      <trkpt lat="47.16926" lon="3.18715">
        <ele>293.75811767578</ele>
        <time>2016-02-15T08:43:36.000Z</time>
      </trkpt>
      <trkpt lat="47.16921" lon="3.18716">
        <ele>293.61410522461</ele>
        <time>2016-02-15T08:43:39.000Z</time>
      </trkpt>
      <trkpt lat="47.16917" lon="3.18718">
        <ele>293.46755981445</ele>
        <time>2016-02-15T08:43:41.000Z</time>
      </trkpt>
      <trkpt lat="47.16916" lon="3.18719">
        <ele>293.32891845703</ele>
        <time>2016-02-15T08:43:43.000Z</time>
      </trkpt>
      <trkpt lat="47.16912" lon="3.18719">
        <ele>293.16131591797</ele>
        <time>2016-02-15T08:43:46.000Z</time>
      </trkpt>
      <trkpt lat="47.16909" lon="3.18721">
        <ele>292.96942138672</ele>
        <time>2016-02-15T08:43:48.000Z</time>
      </trkpt>
      <trkpt lat="47.16904" lon="3.18723">
        <ele>292.72671508789</ele>
        <time>2016-02-15T08:43:51.000Z</time>
      </trkpt>
      <trkpt lat="47.16899" lon="3.18724">
        <ele>292.44140625</ele>
        <time>2016-02-15T08:43:54.000Z</time>
      </trkpt>
      <trkpt lat="47.16895" lon="3.18724">
        <ele>292.11309814453</ele>
        <time>2016-02-15T08:43:57.000Z</time>
      </trkpt>
      <trkpt lat="47.1689" lon="3.18725">
        <ele>291.77325439453</ele>
        <time>2016-02-15T08:44:00.000Z</time>
      </trkpt>
      <trkpt lat="47.16888" lon="3.18725">
        <ele>291.45147705078</ele>
        <time>2016-02-15T08:44:03.000Z</time>
      </trkpt>
      <trkpt lat="47.16885" lon="3.18726">
        <ele>291.17883300781</ele>
        <time>2016-02-15T08:44:05.000Z</time>
      </trkpt>
      <trkpt lat="47.16882" lon="3.18726">
        <ele>290.91983032227</ele>
        <time>2016-02-15T08:44:08.000Z</time>
      </trkpt>
      <trkpt lat="47.16878" lon="3.18726">
        <ele>290.67422485352</ele>
        <time>2016-02-15T08:44:11.000Z</time>
      </trkpt>
      <trkpt lat="47.16875" lon="3.18726">
        <ele>290.45611572266</ele>
        <time>2016-02-15T08:44:13.000Z</time>
      </trkpt>
      <trkpt lat="47.1687" lon="3.18726">
        <ele>290.20761108398</ele>
        <time>2016-02-15T08:44:16.000Z</time>
      </trkpt>
      <trkpt lat="47.16867" lon="3.18727">
        <ele>289.94403076172</ele>
        <time>2016-02-15T08:44:18.000Z</time>
      </trkpt>
      <trkpt lat="47.16864" lon="3.18729">
        <ele>289.67620849609</ele>
        <time>2016-02-15T08:44:21.000Z</time>
      </trkpt>
      <trkpt lat="47.16861" lon="3.18729">
        <ele>289.42251586914</ele>
        <time>2016-02-15T08:44:23.000Z</time>
      </trkpt>
      <trkpt lat="47.16857" lon="3.18728">
        <ele>289.16326904297</ele>
        <time>2016-02-15T08:44:26.000Z</time>
      </trkpt>
      <trkpt lat="47.16854" lon="3.18729">
        <ele>288.91693115234</ele>
        <time>2016-02-15T08:44:28.000Z</time>
      </trkpt>
      <trkpt lat="47.1685" lon="3.18729">
        <ele>288.65859985352</ele>
        <time>2016-02-15T08:44:31.000Z</time>
      </trkpt>
      <trkpt lat="47.16845" lon="3.18729">
        <ele>288.39672851562</ele>
        <time>2016-02-15T08:44:34.000Z</time>
      </trkpt>
      <trkpt lat="47.16842" lon="3.18729">
        <ele>288.13259887695</ele>
        <time>2016-02-15T08:44:36.000Z</time>
      </trkpt>
      <trkpt lat="47.16837" lon="3.18731">
        <ele>287.83422851562</ele>
        <time>2016-02-15T08:44:39.000Z</time>
      </trkpt>
      <trkpt lat="47.16834" lon="3.18732">
        <ele>287.52008056641</ele>
        <time>2016-02-15T08:44:41.000Z</time>
      </trkpt>
      <trkpt lat="47.16831" lon="3.18734">
        <ele>287.23226928711</ele>
        <time>2016-02-15T08:44:44.000Z</time>
      </trkpt>
      <trkpt lat="47.16828" lon="3.18736">
        <ele>286.98046875</ele>
        <time>2016-02-15T08:44:47.000Z</time>
      </trkpt>
      <trkpt lat="47.16825" lon="3.18737">
        <ele>286.7490234375</ele>
        <time>2016-02-15T08:44:49.000Z</time>
      </trkpt>
      <trkpt lat="47.16822" lon="3.18737">
        <ele>286.58233642578</ele>
        <time>2016-02-15T08:44:52.000Z</time>
      </trkpt>
      <trkpt lat="47.16821" lon="3.18737">
        <ele>286.46997070312</ele>
        <time>2016-02-15T08:44:56.000Z</time>
      </trkpt>
      <trkpt lat="47.16819" lon="3.18737">
        <ele>286.38208007812</ele>
        <time>2016-02-15T08:44:59.000Z</time>
      </trkpt>
      <trkpt lat="47.16811" lon="3.18739">
        <ele>286.2734375</ele>
        <time>2016-02-15T08:45:02.000Z</time>
      </trkpt>
      <trkpt lat="47.16805" lon="3.18739">
        <ele>286.15673828125</ele>
        <time>2016-02-15T08:45:05.000Z</time>
      </trkpt>
      <trkpt lat="47.16802" lon="3.1874">
        <ele>286.03637695312</ele>
        <time>2016-02-15T08:45:07.000Z</time>
      </trkpt>
      <trkpt lat="47.16801" lon="3.18739">
        <ele>285.91625976562</ele>
        <time>2016-02-15T08:45:10.000Z</time>
      </trkpt>
      <trkpt lat="47.16798" lon="3.18738">
        <ele>285.8046875</ele>
        <time>2016-02-15T08:45:13.000Z</time>
      </trkpt>
      <trkpt lat="47.1679" lon="3.18738">
        <ele>285.71020507812</ele>
        <time>2016-02-15T08:45:16.000Z</time>
      </trkpt>
      <trkpt lat="47.16787" lon="3.18738">
        <ele>285.62670898438</ele>
        <time>2016-02-15T08:45:18.000Z</time>
      </trkpt>
      <trkpt lat="47.16783" lon="3.18739">
        <ele>285.54272460938</ele>
        <time>2016-02-15T08:45:20.000Z</time>
      </trkpt>
      <trkpt lat="47.16781" lon="3.18739">
        <ele>285.4501953125</ele>
        <time>2016-02-15T08:45:22.000Z</time>
      </trkpt>
      <trkpt lat="47.16777" lon="3.1874">
        <ele>285.33911132812</ele>
        <time>2016-02-15T08:45:25.000Z</time>
      </trkpt>
      <trkpt lat="47.16776" lon="3.1874">
        <ele>285.25952148438</ele>
        <time>2016-02-15T08:45:29.000Z</time>
      </trkpt>
      <trkpt lat="47.16771" lon="3.1874">
        <ele>285.16479492188</ele>
        <time>2016-02-15T08:45:31.000Z</time>
      </trkpt>
      <trkpt lat="47.1677" lon="3.18741">
        <ele>285.08056640625</ele>
        <time>2016-02-15T08:45:33.000Z</time>
      </trkpt>
      <trkpt lat="47.16769" lon="3.18742">
        <ele>284.99389648438</ele>
        <time>2016-02-15T08:45:36.000Z</time>
      </trkpt>
      <trkpt lat="47.16763" lon="3.18742">
        <ele>284.90551757812</ele>
        <time>2016-02-15T08:45:39.000Z</time>
      </trkpt>
      <trkpt lat="47.16762" lon="3.18742">
        <ele>284.81298828125</ele>
        <time>2016-02-15T08:45:41.000Z</time>
      </trkpt>
      <trkpt lat="47.1676" lon="3.18742">
        <ele>284.74853515625</ele>
        <time>2016-02-15T08:45:44.000Z</time>
      </trkpt>
      <trkpt lat="47.16756" lon="3.18739">
        <ele>284.69653320312</ele>
        <time>2016-02-15T08:45:47.000Z</time>
      </trkpt>
      <trkpt lat="47.16747" lon="3.1874">
        <ele>284.65350341797</ele>
        <time>2016-02-15T08:45:50.000Z</time>
      </trkpt>
      <trkpt lat="47.16742" lon="3.1874">
        <ele>284.68072509766</ele>
        <time>2016-02-15T08:45:52.000Z</time>
      </trkpt>
      <trkpt lat="47.16735" lon="3.18737">
        <ele>284.79605102539</ele>
        <time>2016-02-15T08:45:56.000Z</time>
      </trkpt>
      <trkpt lat="47.16731" lon="3.18731">
        <ele>284.99285888672</ele>
        <time>2016-02-15T08:45:58.000Z</time>
      </trkpt>
      <trkpt lat="47.16727" lon="3.18725">
        <ele>285.25723266602</ele>
        <time>2016-02-15T08:46:00.000Z</time>
      </trkpt>
      <trkpt lat="47.16724" lon="3.1872">
        <ele>285.58563232422</ele>
        <time>2016-02-15T08:46:03.000Z</time>
      </trkpt>
      <trkpt lat="47.16722" lon="3.18714">
        <ele>285.91815185547</ele>
        <time>2016-02-15T08:46:06.000Z</time>
      </trkpt>
      <trkpt lat="47.16721" lon="3.18711">
        <ele>286.19421386719</ele>
        <time>2016-02-15T08:46:09.000Z</time>
      </trkpt>
      <trkpt lat="47.16721" lon="3.18707">
        <ele>286.41360473633</ele>
        <time>2016-02-15T08:46:12.000Z</time>
      </trkpt>
      <trkpt lat="47.16721" lon="3.18705">
        <ele>286.58032226562</ele>
        <time>2016-02-15T08:46:15.000Z</time>
      </trkpt>
      <trkpt lat="47.16719" lon="3.18704">
        <ele>286.7004699707</ele>
        <time>2016-02-15T08:46:17.000Z</time>
      </trkpt>
      <trkpt lat="47.16718" lon="3.18702">
        <ele>286.79214477539</ele>
        <time>2016-02-15T08:46:20.000Z</time>
      </trkpt>
      <trkpt lat="47.16718" lon="3.18702">
        <ele>286.79214477539</ele>
        <time>2016-02-15T08:46:40.000Z</time>
      </trkpt>
      <trkpt lat="47.16723" lon="3.18701">
        <ele>286.8503112793</ele>
        <time>2016-02-15T08:46:42.000Z</time>
      </trkpt>
      <trkpt lat="47.16722" lon="3.18696">
        <ele>286.91680908203</ele>
        <time>2016-02-15T08:46:45.000Z</time>
      </trkpt>
      <trkpt lat="47.16721" lon="3.1869">
        <ele>287.01333618164</ele>
        <time>2016-02-15T08:46:48.000Z</time>
      </trkpt>
      <trkpt lat="47.16719" lon="3.18685">
        <ele>287.12734985352</ele>
        <time>2016-02-15T08:46:50.000Z</time>
      </trkpt>
      <trkpt lat="47.16714" lon="3.1868">
        <ele>287.2610168457</ele>
        <time>2016-02-15T08:46:53.000Z</time>
      </trkpt>
      <trkpt lat="47.1671" lon="3.18676">
        <ele>287.43350219727</ele>
        <time>2016-02-15T08:46:56.000Z</time>
      </trkpt>
      <trkpt lat="47.16705" lon="3.18673">
        <ele>287.59436035156</ele>
        <time>2016-02-15T08:46:59.000Z</time>
      </trkpt>
      <trkpt lat="47.167" lon="3.18666">
        <ele>287.74151611328</ele>
        <time>2016-02-15T08:47:02.000Z</time>
      </trkpt>
      <trkpt lat="47.16696" lon="3.18661">
        <ele>287.88409423828</ele>
        <time>2016-02-15T08:47:05.000Z</time>
      </trkpt>
      <trkpt lat="47.16694" lon="3.18658">
        <ele>287.99819946289</ele>
        <time>2016-02-15T08:47:07.000Z</time>
      </trkpt>
      <trkpt lat="47.16691" lon="3.18654">
        <ele>288.10342407227</ele>
        <time>2016-02-15T08:47:10.000Z</time>
      </trkpt>
      <trkpt lat="47.16688" lon="3.18652">
        <ele>288.20153808594</ele>
        <time>2016-02-15T08:47:12.000Z</time>
      </trkpt>
      <trkpt lat="47.16684" lon="3.18646">
        <ele>288.2958984375</ele>
        <time>2016-02-15T08:47:15.000Z</time>
      </trkpt>
      <trkpt lat="47.16681" lon="3.18645">
        <ele>288.37268066406</ele>
        <time>2016-02-15T08:47:18.000Z</time>
      </trkpt>
      <trkpt lat="47.16679" lon="3.18641">
        <ele>288.45886230469</ele>
        <time>2016-02-15T08:47:21.000Z</time>
      </trkpt>
      <trkpt lat="47.16677" lon="3.18637">
        <ele>288.54113769531</ele>
        <time>2016-02-15T08:47:23.000Z</time>
      </trkpt>
      <trkpt lat="47.16674" lon="3.18632">
        <ele>288.634765625</ele>
        <time>2016-02-15T08:47:26.000Z</time>
      </trkpt>
      <trkpt lat="47.16673" lon="3.18628">
        <ele>288.72119140625</ele>
        <time>2016-02-15T08:47:29.000Z</time>
      </trkpt>
      <trkpt lat="47.16671" lon="3.18625">
        <ele>288.81640625</ele>
        <time>2016-02-15T08:47:31.000Z</time>
      </trkpt>
      <trkpt lat="47.16667" lon="3.18622">
        <ele>288.90625</ele>
        <time>2016-02-15T08:47:34.000Z</time>
      </trkpt>
      <trkpt lat="47.16663" lon="3.18616">
        <ele>288.99493408203</ele>
        <time>2016-02-15T08:47:37.000Z</time>
      </trkpt>
      <trkpt lat="47.16661" lon="3.18611">
        <ele>289.07797241211</ele>
        <time>2016-02-15T08:47:40.000Z</time>
      </trkpt>
      <trkpt lat="47.1666" lon="3.18609">
        <ele>289.14923095703</ele>
        <time>2016-02-15T08:47:42.000Z</time>
      </trkpt>
      <trkpt lat="47.16658" lon="3.18606">
        <ele>289.21014404297</ele>
        <time>2016-02-15T08:47:45.000Z</time>
      </trkpt>
      <trkpt lat="47.16655" lon="3.18602">
        <ele>289.25994873047</ele>
        <time>2016-02-15T08:47:48.000Z</time>
      </trkpt>
      <trkpt lat="47.16652" lon="3.18601">
        <ele>289.29281616211</ele>
        <time>2016-02-15T08:47:50.000Z</time>
      </trkpt>
      <trkpt lat="47.16651" lon="3.18599">
        <ele>289.30844116211</ele>
        <time>2016-02-15T08:47:52.000Z</time>
      </trkpt>
      <trkpt lat="47.16648" lon="3.18596">
        <ele>289.31488037109</ele>
        <time>2016-02-15T08:47:55.000Z</time>
      </trkpt>
      <trkpt lat="47.16645" lon="3.18594">
        <ele>289.3125</ele>
        <time>2016-02-15T08:47:57.000Z</time>
      </trkpt>
      <trkpt lat="47.16642" lon="3.18591">
        <ele>289.30151367188</ele>
        <time>2016-02-15T08:48:00.000Z</time>
      </trkpt>
      <trkpt lat="47.16639" lon="3.18588">
        <ele>289.29156494141</ele>
        <time>2016-02-15T08:48:02.000Z</time>
      </trkpt>
      <trkpt lat="47.16635" lon="3.18583">
        <ele>289.27874755859</ele>
        <time>2016-02-15T08:48:05.000Z</time>
      </trkpt>
      <trkpt lat="47.16628" lon="3.18576">
        <ele>289.265625</ele>
        <time>2016-02-15T08:48:08.000Z</time>
      </trkpt>
      <trkpt lat="47.16625" lon="3.18571">
        <ele>289.26239013672</ele>
        <time>2016-02-15T08:48:10.000Z</time>
      </trkpt>
      <trkpt lat="47.16624" lon="3.18567">
        <ele>289.28237915039</ele>
        <time>2016-02-15T08:48:13.000Z</time>
      </trkpt>
      <trkpt lat="47.16622" lon="3.18561">
        <ele>289.31771850586</ele>
        <time>2016-02-15T08:48:16.000Z</time>
      </trkpt>
      <trkpt lat="47.16618" lon="3.18556">
        <ele>289.35409545898</ele>
        <time>2016-02-15T08:48:19.000Z</time>
      </trkpt>
      <trkpt lat="47.16616" lon="3.18552">
        <ele>289.3991394043</ele>
        <time>2016-02-15T08:48:22.000Z</time>
      </trkpt>
      <trkpt lat="47.16615" lon="3.1855">
        <ele>289.43719482422</ele>
        <time>2016-02-15T08:48:24.000Z</time>
      </trkpt>
      <trkpt lat="47.16612" lon="3.18547">
        <ele>289.44555664062</ele>
        <time>2016-02-15T08:48:27.000Z</time>
      </trkpt>
      <trkpt lat="47.16609" lon="3.18543">
        <ele>289.43801879883</ele>
        <time>2016-02-15T08:48:30.000Z</time>
      </trkpt>
      <trkpt lat="47.16608" lon="3.18542">
        <ele>289.42950439453</ele>
        <time>2016-02-15T08:48:32.000Z</time>
      </trkpt>
      <trkpt lat="47.16607" lon="3.18539">
        <ele>289.41241455078</ele>
        <time>2016-02-15T08:48:35.000Z</time>
      </trkpt>
      <trkpt lat="47.16603" lon="3.18535">
        <ele>289.38629150391</ele>
        <time>2016-02-15T08:48:38.000Z</time>
      </trkpt>
      <trkpt lat="47.16601" lon="3.18532">
        <ele>289.36459350586</ele>
        <time>2016-02-15T08:48:41.000Z</time>
      </trkpt>
      <trkpt lat="47.16598" lon="3.18528">
        <ele>289.33511352539</ele>
        <time>2016-02-15T08:48:44.000Z</time>
      </trkpt>
      <trkpt lat="47.16595" lon="3.18525">
        <ele>289.29476928711</ele>
        <time>2016-02-15T08:48:46.000Z</time>
      </trkpt>
      <trkpt lat="47.16592" lon="3.18521">
        <ele>289.24420166016</ele>
        <time>2016-02-15T08:48:49.000Z</time>
      </trkpt>
      <trkpt lat="47.16592" lon="3.18519">
        <ele>289.20349121094</ele>
        <time>2016-02-15T08:48:52.000Z</time>
      </trkpt>
      <trkpt lat="47.1659" lon="3.18517">
        <ele>289.16567993164</ele>
        <time>2016-02-15T08:48:54.000Z</time>
      </trkpt>
      <trkpt lat="47.16589" lon="3.18515">
        <ele>289.13189697266</ele>
        <time>2016-02-15T08:48:56.000Z</time>
      </trkpt>
      <trkpt lat="47.16588" lon="3.18512">
        <ele>289.10498046875</ele>
        <time>2016-02-15T08:48:59.000Z</time>
      </trkpt>
      <trkpt lat="47.16585" lon="3.18509">
        <ele>289.07202148438</ele>
        <time>2016-02-15T08:49:02.000Z</time>
      </trkpt>
      <trkpt lat="47.1658" lon="3.18505">
        <ele>289.02606201172</ele>
        <time>2016-02-15T08:49:05.000Z</time>
      </trkpt>
      <trkpt lat="47.16577" lon="3.18502">
        <ele>288.98477172852</ele>
        <time>2016-02-15T08:49:08.000Z</time>
      </trkpt>
      <trkpt lat="47.16576" lon="3.185">
        <ele>288.95025634766</ele>
        <time>2016-02-15T08:49:10.000Z</time>
      </trkpt>
      <trkpt lat="47.16574" lon="3.18497">
        <ele>288.92953491211</ele>
        <time>2016-02-15T08:49:13.000Z</time>
      </trkpt>
      <trkpt lat="47.16572" lon="3.18495">
        <ele>288.93389892578</ele>
        <time>2016-02-15T08:49:15.000Z</time>
      </trkpt>
      <trkpt lat="47.16569" lon="3.18491">
        <ele>288.955078125</ele>
        <time>2016-02-15T08:49:18.000Z</time>
      </trkpt>
      <trkpt lat="47.16565" lon="3.18488">
        <ele>288.98031616211</ele>
        <time>2016-02-15T08:49:21.000Z</time>
      </trkpt>
      <trkpt lat="47.16562" lon="3.18485">
        <ele>289.00646972656</ele>
        <time>2016-02-15T08:49:23.000Z</time>
      </trkpt>
      <trkpt lat="47.16555" lon="3.18476">
        <ele>289.04620361328</ele>
        <time>2016-02-15T08:49:26.000Z</time>
      </trkpt>
      <trkpt lat="47.16553" lon="3.18471">
        <ele>289.09017944336</ele>
        <time>2016-02-15T08:49:28.000Z</time>
      </trkpt>
      <trkpt lat="47.16549" lon="3.18464">
        <ele>289.14208984375</ele>
        <time>2016-02-15T08:49:31.000Z</time>
      </trkpt>
      <trkpt lat="47.16546" lon="3.18459">
        <ele>289.19760131836</ele>
        <time>2016-02-15T08:49:33.000Z</time>
      </trkpt>
      <trkpt lat="47.16543" lon="3.18453">
        <ele>289.26309204102</ele>
        <time>2016-02-15T08:49:36.000Z</time>
      </trkpt>
      <trkpt lat="47.16542" lon="3.1845">
        <ele>289.31439208984</ele>
        <time>2016-02-15T08:49:38.000Z</time>
      </trkpt>
      <trkpt lat="47.16539" lon="3.18442">
        <ele>289.36785888672</ele>
        <time>2016-02-15T08:49:41.000Z</time>
      </trkpt>
      <trkpt lat="47.16537" lon="3.18438">
        <ele>289.41635131836</ele>
        <time>2016-02-15T08:49:43.000Z</time>
      </trkpt>
      <trkpt lat="47.16535" lon="3.18435">
        <ele>289.45956420898</ele>
        <time>2016-02-15T08:49:45.000Z</time>
      </trkpt>
      <trkpt lat="47.16533" lon="3.18432">
        <ele>289.49340820312</ele>
        <time>2016-02-15T08:49:47.000Z</time>
      </trkpt>
      <trkpt lat="47.16531" lon="3.1843">
        <ele>289.51654052734</ele>
        <time>2016-02-15T08:49:50.000Z</time>
      </trkpt>
      <trkpt lat="47.16529" lon="3.18429">
        <ele>289.52416992188</ele>
        <time>2016-02-15T08:49:52.000Z</time>
      </trkpt>
      <trkpt lat="47.16528" lon="3.18428">
        <ele>289.51840209961</ele>
        <time>2016-02-15T08:49:57.000Z</time>
      </trkpt>
      <trkpt lat="47.16525" lon="3.18426">
        <ele>289.50347900391</ele>
        <time>2016-02-15T08:50:00.000Z</time>
      </trkpt>
      <trkpt lat="47.16525" lon="3.18424">
        <ele>289.49151611328</ele>
        <time>2016-02-15T08:50:02.000Z</time>
      </trkpt>
      <trkpt lat="47.16525" lon="3.18419">
        <ele>289.49871826172</ele>
        <time>2016-02-15T08:50:04.000Z</time>
      </trkpt>
      <trkpt lat="47.16526" lon="3.18414">
        <ele>289.54815673828</ele>
        <time>2016-02-15T08:50:06.000Z</time>
      </trkpt>
      <trkpt lat="47.16528" lon="3.18408">
        <ele>289.66119384766</ele>
        <time>2016-02-15T08:50:09.000Z</time>
      </trkpt>
      <trkpt lat="47.16531" lon="3.18402">
        <ele>289.85140991211</ele>
        <time>2016-02-15T08:50:12.000Z</time>
      </trkpt>
      <trkpt lat="47.16533" lon="3.18397">
        <ele>290.07864379883</ele>
        <time>2016-02-15T08:50:14.000Z</time>
      </trkpt>
      <trkpt lat="47.16535" lon="3.18395">
        <ele>290.32122802734</ele>
        <time>2016-02-15T08:50:17.000Z</time>
      </trkpt>
      <trkpt lat="47.16537" lon="3.18393">
        <ele>290.55032348633</ele>
        <time>2016-02-15T08:50:19.000Z</time>
      </trkpt>
      <trkpt lat="47.1654" lon="3.18389">
        <ele>290.7668762207</ele>
        <time>2016-02-15T08:50:22.000Z</time>
      </trkpt>
      <trkpt lat="47.16542" lon="3.18384">
        <ele>290.95785522461</ele>
        <time>2016-02-15T08:50:24.000Z</time>
      </trkpt>
      <trkpt lat="47.16544" lon="3.1838">
        <ele>291.15170288086</ele>
        <time>2016-02-15T08:50:27.000Z</time>
      </trkpt>
      <trkpt lat="47.16547" lon="3.18375">
        <ele>291.36685180664</ele>
        <time>2016-02-15T08:50:30.000Z</time>
      </trkpt>
      <trkpt lat="47.16551" lon="3.18366">
        <ele>291.63842773438</ele>
        <time>2016-02-15T08:50:33.000Z</time>
      </trkpt>
      <trkpt lat="47.16552" lon="3.18364">
        <ele>291.88299560547</ele>
        <time>2016-02-15T08:50:35.000Z</time>
      </trkpt>
      <trkpt lat="47.16553" lon="3.18361">
        <ele>292.11798095703</ele>
        <time>2016-02-15T08:50:38.000Z</time>
      </trkpt>
      <trkpt lat="47.16555" lon="3.18358">
        <ele>292.33612060547</ele>
        <time>2016-02-15T08:50:40.000Z</time>
      </trkpt>
      <trkpt lat="47.16556" lon="3.18354">
        <ele>292.53729248047</ele>
        <time>2016-02-15T08:50:42.000Z</time>
      </trkpt>
      <trkpt lat="47.16557" lon="3.18349">
        <ele>292.69976806641</ele>
        <time>2016-02-15T08:50:45.000Z</time>
      </trkpt>
      <trkpt lat="47.16558" lon="3.18343">
        <ele>292.89208984375</ele>
        <time>2016-02-15T08:50:48.000Z</time>
      </trkpt>
      <trkpt lat="47.1656" lon="3.18341">
        <ele>293.07205200195</ele>
        <time>2016-02-15T08:50:51.000Z</time>
      </trkpt>
      <trkpt lat="47.16563" lon="3.18335">
        <ele>293.27001953125</ele>
        <time>2016-02-15T08:50:53.000Z</time>
      </trkpt>
      <trkpt lat="47.16565" lon="3.18325">
        <ele>293.51666259766</ele>
        <time>2016-02-15T08:50:56.000Z</time>
      </trkpt>
      <trkpt lat="47.16566" lon="3.18321">
        <ele>293.75317382812</ele>
        <time>2016-02-15T08:50:58.000Z</time>
      </trkpt>
      <trkpt lat="47.16568" lon="3.18315">
        <ele>293.99450683594</ele>
        <time>2016-02-15T08:51:01.000Z</time>
      </trkpt>
      <trkpt lat="47.16569" lon="3.18311">
        <ele>294.24639892578</ele>
        <time>2016-02-15T08:51:03.000Z</time>
      </trkpt>
      <trkpt lat="47.1657" lon="3.18307">
        <ele>294.47805786133</ele>
        <time>2016-02-15T08:51:06.000Z</time>
      </trkpt>
      <trkpt lat="47.16571" lon="3.18304">
        <ele>294.65545654297</ele>
        <time>2016-02-15T08:51:09.000Z</time>
      </trkpt>
      <trkpt lat="47.16573" lon="3.183">
        <ele>294.82553100586</ele>
        <time>2016-02-15T08:51:11.000Z</time>
      </trkpt>
      <trkpt lat="47.16575" lon="3.18296">
        <ele>294.98071289062</ele>
        <time>2016-02-15T08:51:14.000Z</time>
      </trkpt>
      <trkpt lat="47.16578" lon="3.18289">
        <ele>295.15496826172</ele>
        <time>2016-02-15T08:51:17.000Z</time>
      </trkpt>
      <trkpt lat="47.1658" lon="3.18283">
        <ele>295.34939575195</ele>
        <time>2016-02-15T08:51:20.000Z</time>
      </trkpt>
      <trkpt lat="47.16582" lon="3.1828">
        <ele>295.53533935547</ele>
        <time>2016-02-15T08:51:23.000Z</time>
      </trkpt>
      <trkpt lat="47.16585" lon="3.18275">
        <ele>295.74468994141</ele>
        <time>2016-02-15T08:51:26.000Z</time>
      </trkpt>
      <trkpt lat="47.16587" lon="3.18271">
        <ele>295.95080566406</ele>
        <time>2016-02-15T08:51:28.000Z</time>
      </trkpt>
      <trkpt lat="47.16588" lon="3.1827">
        <ele>296.11880493164</ele>
        <time>2016-02-15T08:51:30.000Z</time>
      </trkpt>
      <trkpt lat="47.16593" lon="3.18264">
        <ele>296.30645751953</ele>
        <time>2016-02-15T08:51:33.000Z</time>
      </trkpt>
      <trkpt lat="47.16594" lon="3.1826">
        <ele>296.50634765625</ele>
        <time>2016-02-15T08:51:36.000Z</time>
      </trkpt>
      <trkpt lat="47.16597" lon="3.18253">
        <ele>296.71966552734</ele>
        <time>2016-02-15T08:51:39.000Z</time>
      </trkpt>
      <trkpt lat="47.16599" lon="3.1825">
        <ele>296.92776489258</ele>
        <time>2016-02-15T08:51:41.000Z</time>
      </trkpt>
      <trkpt lat="47.166" lon="3.18249">
        <ele>297.12615966797</ele>
        <time>2016-02-15T08:51:43.000Z</time>
      </trkpt>
      <trkpt lat="47.16602" lon="3.18242">
        <ele>297.27313232422</ele>
        <time>2016-02-15T08:51:46.000Z</time>
      </trkpt>
      <trkpt lat="47.16601" lon="3.18234">
        <ele>297.38973999023</ele>
        <time>2016-02-15T08:51:50.000Z</time>
      </trkpt>
      <trkpt lat="47.16601" lon="3.1823">
        <ele>297.44775390625</ele>
        <time>2016-02-15T08:51:52.000Z</time>
      </trkpt>
      <trkpt lat="47.16602" lon="3.18228">
        <ele>297.48153686523</ele>
        <time>2016-02-15T08:51:55.000Z</time>
      </trkpt>
      <trkpt lat="47.16604" lon="3.18224">
        <ele>297.51870727539</ele>
        <time>2016-02-15T08:51:57.000Z</time>
      </trkpt>
      <trkpt lat="47.16605" lon="3.1822">
        <ele>297.54516601562</ele>
        <time>2016-02-15T08:52:00.000Z</time>
      </trkpt>
      <trkpt lat="47.16608" lon="3.1821">
        <ele>297.5764465332</ele>
        <time>2016-02-15T08:52:03.000Z</time>
      </trkpt>
      <trkpt lat="47.16609" lon="3.18204">
        <ele>297.6057434082</ele>
        <time>2016-02-15T08:52:08.000Z</time>
      </trkpt>
      <trkpt lat="47.1661" lon="3.18202">
        <ele>297.63043212891</ele>
        <time>2016-02-15T08:52:11.000Z</time>
      </trkpt>
      <trkpt lat="47.16613" lon="3.18194">
        <ele>297.64736938477</ele>
        <time>2016-02-15T08:52:14.000Z</time>
      </trkpt>
      <trkpt lat="47.16615" lon="3.18189">
        <ele>297.65838623047</ele>
        <time>2016-02-15T08:52:17.000Z</time>
      </trkpt>
      <trkpt lat="47.16619" lon="3.18184">
        <ele>297.6559753418</ele>
        <time>2016-02-15T08:52:19.000Z</time>
      </trkpt>
      <trkpt lat="47.16623" lon="3.18181">
        <ele>297.64419555664</ele>
        <time>2016-02-15T08:52:22.000Z</time>
      </trkpt>
      <trkpt lat="47.16627" lon="3.18178">
        <ele>297.62237548828</ele>
        <time>2016-02-15T08:52:24.000Z</time>
      </trkpt>
      <trkpt lat="47.1663" lon="3.18176">
        <ele>297.59310913086</ele>
        <time>2016-02-15T08:52:27.000Z</time>
      </trkpt>
      <trkpt lat="47.16631" lon="3.18175">
        <ele>297.56097412109</ele>
        <time>2016-02-15T08:52:30.000Z</time>
      </trkpt>
      <trkpt lat="47.16632" lon="3.18174">
        <ele>297.53091430664</ele>
        <time>2016-02-15T08:52:32.000Z</time>
      </trkpt>
      <trkpt lat="47.16632" lon="3.18172">
        <ele>297.50280761719</ele>
        <time>2016-02-15T08:52:34.000Z</time>
      </trkpt>
      <trkpt lat="47.16634" lon="3.18167">
        <ele>297.47030639648</ele>
        <time>2016-02-15T08:52:37.000Z</time>
      </trkpt>
      <trkpt lat="47.16636" lon="3.18163">
        <ele>297.42370605469</ele>
        <time>2016-02-15T08:52:40.000Z</time>
      </trkpt>
      <trkpt lat="47.16637" lon="3.18157">
        <ele>297.35003662109</ele>
        <time>2016-02-15T08:52:43.000Z</time>
      </trkpt>
      <trkpt lat="47.16637" lon="3.18152">
        <ele>297.2578125</ele>
        <time>2016-02-15T08:52:45.000Z</time>
      </trkpt>
      <trkpt lat="47.16638" lon="3.18146">
        <ele>297.13510131836</ele>
        <time>2016-02-15T08:52:48.000Z</time>
      </trkpt>
      <trkpt lat="47.16638" lon="3.18139">
        <ele>296.99426269531</ele>
        <time>2016-02-15T08:52:50.000Z</time>
      </trkpt>
      <trkpt lat="47.16639" lon="3.18136">
        <ele>296.857421875</ele>
        <time>2016-02-15T08:52:52.000Z</time>
      </trkpt>
      <trkpt lat="47.16639" lon="3.1813">
        <ele>296.72375488281</ele>
        <time>2016-02-15T08:52:55.000Z</time>
      </trkpt>
      <trkpt lat="47.16639" lon="3.18126">
        <ele>296.58874511719</ele>
        <time>2016-02-15T08:52:57.000Z</time>
      </trkpt>
      <trkpt lat="47.16639" lon="3.18123">
        <ele>296.47741699219</ele>
        <time>2016-02-15T08:52:59.000Z</time>
      </trkpt>
      <trkpt lat="47.1664" lon="3.18125">
        <ele>296.40087890625</ele>
        <time>2016-02-15T08:53:01.000Z</time>
      </trkpt>
      <trkpt lat="47.16641" lon="3.18129">
        <ele>296.35925292969</ele>
        <time>2016-02-15T08:53:06.000Z</time>
      </trkpt>
      <trkpt lat="47.16642" lon="3.1813">
        <ele>296.34924316406</ele>
        <time>2016-02-15T08:53:09.000Z</time>
      </trkpt>
      <trkpt lat="47.16645" lon="3.18126">
        <ele>296.33361816406</ele>
        <time>2016-02-15T08:53:11.000Z</time>
      </trkpt>
      <trkpt lat="47.16649" lon="3.18118">
        <ele>296.28723144531</ele>
        <time>2016-02-15T08:53:14.000Z</time>
      </trkpt>
      <trkpt lat="47.16653" lon="3.18109">
        <ele>296.18310546875</ele>
        <time>2016-02-15T08:53:17.000Z</time>
      </trkpt>
      <trkpt lat="47.16655" lon="3.18102">
        <ele>296.021484375</ele>
        <time>2016-02-15T08:53:20.000Z</time>
      </trkpt>
      <trkpt lat="47.16656" lon="3.18098">
        <ele>295.83581542969</ele>
        <time>2016-02-15T08:53:23.000Z</time>
      </trkpt>
      <trkpt lat="47.16656" lon="3.18095">
        <ele>295.66613769531</ele>
        <time>2016-02-15T08:53:25.000Z</time>
      </trkpt>
      <trkpt lat="47.16657" lon="3.1809">
        <ele>295.51123046875</ele>
        <time>2016-02-15T08:53:28.000Z</time>
      </trkpt>
      <trkpt lat="47.16658" lon="3.18087">
        <ele>295.39379882812</ele>
        <time>2016-02-15T08:53:31.000Z</time>
      </trkpt>
      <trkpt lat="47.1666" lon="3.18084">
        <ele>295.29516601562</ele>
        <time>2016-02-15T08:53:33.000Z</time>
      </trkpt>
      <trkpt lat="47.16661" lon="3.18079">
        <ele>295.1884765625</ele>
        <time>2016-02-15T08:53:36.000Z</time>
      </trkpt>
      <trkpt lat="47.16663" lon="3.18075">
        <ele>295.07299804688</ele>
        <time>2016-02-15T08:53:38.000Z</time>
      </trkpt>
      <trkpt lat="47.16664" lon="3.18072">
        <ele>294.96765136719</ele>
        <time>2016-02-15T08:53:40.000Z</time>
      </trkpt>
      <trkpt lat="47.16666" lon="3.18069">
        <ele>294.86096191406</ele>
        <time>2016-02-15T08:53:42.000Z</time>
      </trkpt>
      <trkpt lat="47.16669" lon="3.18063">
        <ele>294.7509765625</ele>
        <time>2016-02-15T08:53:45.000Z</time>
      </trkpt>
      <trkpt lat="47.16671" lon="3.18061">
        <ele>294.66198730469</ele>
        <time>2016-02-15T08:53:47.000Z</time>
      </trkpt>
      <trkpt lat="47.16673" lon="3.18057">
        <ele>294.58093261719</ele>
        <time>2016-02-15T08:53:49.000Z</time>
      </trkpt>
      <trkpt lat="47.16675" lon="3.18051">
        <ele>294.49243164062</ele>
        <time>2016-02-15T08:53:52.000Z</time>
      </trkpt>
      <trkpt lat="47.16676" lon="3.18045">
        <ele>294.3974609375</ele>
        <time>2016-02-15T08:53:55.000Z</time>
      </trkpt>
      <trkpt lat="47.16677" lon="3.18041">
        <ele>294.31091308594</ele>
        <time>2016-02-15T08:53:57.000Z</time>
      </trkpt>
      <trkpt lat="47.16679" lon="3.18035">
        <ele>294.20910644531</ele>
        <time>2016-02-15T08:54:00.000Z</time>
      </trkpt>
      <trkpt lat="47.16681" lon="3.18028">
        <ele>294.09313964844</ele>
        <time>2016-02-15T08:54:03.000Z</time>
      </trkpt>
      <trkpt lat="47.16682" lon="3.18022">
        <ele>293.97277832031</ele>
        <time>2016-02-15T08:54:06.000Z</time>
      </trkpt>
      <trkpt lat="47.16684" lon="3.18018">
        <ele>293.86010742188</ele>
        <time>2016-02-15T08:54:14.000Z</time>
      </trkpt>
      <trkpt lat="47.16686" lon="3.18012">
        <ele>293.74157714844</ele>
        <time>2016-02-15T08:54:15.000Z</time>
      </trkpt>
      <trkpt lat="47.16688" lon="3.18006">
        <ele>293.62243652344</ele>
        <time>2016-02-15T08:54:15.000Z</time>
      </trkpt>
      <trkpt lat="47.1669" lon="3.17999">
        <ele>293.50439453125</ele>
        <time>2016-02-15T08:54:18.000Z</time>
      </trkpt>
      <trkpt lat="47.16692" lon="3.17995">
        <ele>293.39770507812</ele>
        <time>2016-02-15T08:54:21.000Z</time>
      </trkpt>
      <trkpt lat="47.16693" lon="3.17991">
        <ele>293.29150390625</ele>
        <time>2016-02-15T08:54:24.000Z</time>
      </trkpt>
      <trkpt lat="47.16697" lon="3.17985">
        <ele>293.18713378906</ele>
        <time>2016-02-15T08:54:27.000Z</time>
      </trkpt>
      <trkpt lat="47.16698" lon="3.1798">
        <ele>293.087890625</ele>
        <time>2016-02-15T08:54:31.000Z</time>
      </trkpt>
      <trkpt lat="47.16699" lon="3.17975">
        <ele>292.99182128906</ele>
        <time>2016-02-15T08:54:33.000Z</time>
      </trkpt>
      <trkpt lat="47.167" lon="3.1797">
        <ele>292.89453125</ele>
        <time>2016-02-15T08:54:35.000Z</time>
      </trkpt>
      <trkpt lat="47.16701" lon="3.17964">
        <ele>292.78662109375</ele>
        <time>2016-02-15T08:54:38.000Z</time>
      </trkpt>
      <trkpt lat="47.16702" lon="3.17961">
        <ele>292.68615722656</ele>
        <time>2016-02-15T08:54:40.000Z</time>
      </trkpt>
      <trkpt lat="47.16704" lon="3.17957">
        <ele>292.5869140625</ele>
        <time>2016-02-15T08:54:43.000Z</time>
      </trkpt>
      <trkpt lat="47.16706" lon="3.17951">
        <ele>292.48681640625</ele>
        <time>2016-02-15T08:54:45.000Z</time>
      </trkpt>
      <trkpt lat="47.16708" lon="3.17944">
        <ele>292.38012695312</ele>
        <time>2016-02-15T08:54:47.000Z</time>
      </trkpt>
      <trkpt lat="47.16709" lon="3.17941">
        <ele>292.28625488281</ele>
        <time>2016-02-15T08:54:50.000Z</time>
      </trkpt>
      <trkpt lat="47.16711" lon="3.17937">
        <ele>292.1923828125</ele>
        <time>2016-02-15T08:54:53.000Z</time>
      </trkpt>
      <trkpt lat="47.16716" lon="3.1793">
        <ele>292.09252929688</ele>
        <time>2016-02-15T08:54:56.000Z</time>
      </trkpt>
      <trkpt lat="47.16719" lon="3.17924">
        <ele>291.99645996094</ele>
        <time>2016-02-15T08:54:58.000Z</time>
      </trkpt>
      <trkpt lat="47.16722" lon="3.17918">
        <ele>291.90319824219</ele>
        <time>2016-02-15T08:55:01.000Z</time>
      </trkpt>
      <trkpt lat="47.16724" lon="3.17913">
        <ele>291.76947021484</ele>
        <time>2016-02-15T08:55:04.000Z</time>
      </trkpt>
      <trkpt lat="47.16726" lon="3.1791">
        <ele>291.60931396484</ele>
        <time>2016-02-15T08:55:06.000Z</time>
      </trkpt>
      <trkpt lat="47.16728" lon="3.17905">
        <ele>291.41018676758</ele>
        <time>2016-02-15T08:55:09.000Z</time>
      </trkpt>
      <trkpt lat="47.16729" lon="3.17899">
        <ele>291.14587402344</ele>
        <time>2016-02-15T08:55:12.000Z</time>
      </trkpt>
      <trkpt lat="47.1673" lon="3.17893">
        <ele>290.82159423828</ele>
        <time>2016-02-15T08:55:14.000Z</time>
      </trkpt>
      <trkpt lat="47.16732" lon="3.1789">
        <ele>290.49578857422</ele>
        <time>2016-02-15T08:55:16.000Z</time>
      </trkpt>
      <trkpt lat="47.16735" lon="3.17883">
        <ele>290.11212158203</ele>
        <time>2016-02-15T08:55:19.000Z</time>
      </trkpt>
      <trkpt lat="47.16737" lon="3.17878">
        <ele>289.71286010742</ele>
        <time>2016-02-15T08:55:22.000Z</time>
      </trkpt>
      <trkpt lat="47.16737" lon="3.17874">
        <ele>289.32647705078</ele>
        <time>2016-02-15T08:55:24.000Z</time>
      </trkpt>
      <trkpt lat="47.16738" lon="3.17871">
        <ele>288.98477172852</ele>
        <time>2016-02-15T08:55:26.000Z</time>
      </trkpt>
      <trkpt lat="47.16738" lon="3.17869">
        <ele>288.66253662109</ele>
        <time>2016-02-15T08:55:32.000Z</time>
      </trkpt>
      <trkpt lat="47.16741" lon="3.17862">
        <ele>288.31945800781</ele>
        <time>2016-02-15T08:55:32.000Z</time>
      </trkpt>
      <trkpt lat="47.16742" lon="3.17858">
        <ele>287.98614501953</ele>
        <time>2016-02-15T08:55:33.000Z</time>
      </trkpt>
      <trkpt lat="47.16743" lon="3.17854">
        <ele>287.65203857422</ele>
        <time>2016-02-15T08:55:38.000Z</time>
      </trkpt>
      <trkpt lat="47.16747" lon="3.17847">
        <ele>287.23260498047</ele>
        <time>2016-02-15T08:55:39.000Z</time>
      </trkpt>
      <trkpt lat="47.16749" lon="3.17843">
        <ele>286.75942993164</ele>
        <time>2016-02-15T08:55:42.000Z</time>
      </trkpt>
      <trkpt lat="47.1675" lon="3.1784">
        <ele>286.35150146484</ele>
        <time>2016-02-15T08:55:44.000Z</time>
      </trkpt>
      <trkpt lat="47.1675" lon="3.17836">
        <ele>285.94659423828</ele>
        <time>2016-02-15T08:55:49.000Z</time>
      </trkpt>
      <trkpt lat="47.16751" lon="3.17831">
        <ele>285.56115722656</ele>
        <time>2016-02-15T08:55:49.000Z</time>
      </trkpt>
      <trkpt lat="47.16753" lon="3.17828">
        <ele>285.28240966797</ele>
        <time>2016-02-15T08:55:51.000Z</time>
      </trkpt>
      <trkpt lat="47.16754" lon="3.17822">
        <ele>285.06356811523</ele>
        <time>2016-02-15T08:55:54.000Z</time>
      </trkpt>
      <trkpt lat="47.16755" lon="3.17818">
        <ele>284.87640380859</ele>
        <time>2016-02-15T08:55:57.000Z</time>
      </trkpt>
      <trkpt lat="47.16756" lon="3.17816">
        <ele>284.74163818359</ele>
        <time>2016-02-15T08:55:59.000Z</time>
      </trkpt>
      <trkpt lat="47.16757" lon="3.17814">
        <ele>284.6506652832</ele>
        <time>2016-02-15T08:56:01.000Z</time>
      </trkpt>
      <trkpt lat="47.16759" lon="3.17809">
        <ele>284.54736328125</ele>
        <time>2016-02-15T08:56:03.000Z</time>
      </trkpt>
      <trkpt lat="47.16763" lon="3.17801">
        <ele>284.42559814453</ele>
        <time>2016-02-15T08:56:06.000Z</time>
      </trkpt>
      <trkpt lat="47.16766" lon="3.17792">
        <ele>284.26889038086</ele>
        <time>2016-02-15T08:56:09.000Z</time>
      </trkpt>
      <trkpt lat="47.16768" lon="3.17787">
        <ele>284.08840942383</ele>
        <time>2016-02-15T08:56:12.000Z</time>
      </trkpt>
      <trkpt lat="47.16769" lon="3.17785">
        <ele>283.90118408203</ele>
        <time>2016-02-15T08:56:14.000Z</time>
      </trkpt>
      <trkpt lat="47.1677" lon="3.17781">
        <ele>283.71673583984</ele>
        <time>2016-02-15T08:56:16.000Z</time>
      </trkpt>
      <trkpt lat="47.16772" lon="3.17778">
        <ele>283.56088256836</ele>
        <time>2016-02-15T08:56:19.000Z</time>
      </trkpt>
      <trkpt lat="47.16772" lon="3.17776">
        <ele>283.44671630859</ele>
        <time>2016-02-15T08:56:21.000Z</time>
      </trkpt>
      <trkpt lat="47.16774" lon="3.17773">
        <ele>283.34188842773</ele>
        <time>2016-02-15T08:56:23.000Z</time>
      </trkpt>
      <trkpt lat="47.16776" lon="3.17768">
        <ele>283.21844482422</ele>
        <time>2016-02-15T08:56:26.000Z</time>
      </trkpt>
      <trkpt lat="47.16779" lon="3.17763">
        <ele>283.08026123047</ele>
        <time>2016-02-15T08:56:29.000Z</time>
      </trkpt>
      <trkpt lat="47.1678" lon="3.17759">
        <ele>282.92425537109</ele>
        <time>2016-02-15T08:56:32.000Z</time>
      </trkpt>
      <trkpt lat="47.16782" lon="3.17755">
        <ele>282.75042724609</ele>
        <time>2016-02-15T08:56:33.000Z</time>
      </trkpt>
      <trkpt lat="47.16784" lon="3.17751">
        <ele>282.57061767578</ele>
        <time>2016-02-15T08:56:35.000Z</time>
      </trkpt>
      <trkpt lat="47.16786" lon="3.17746">
        <ele>282.40664672852</ele>
        <time>2016-02-15T08:56:38.000Z</time>
      </trkpt>
      <trkpt lat="47.16789" lon="3.17739">
        <ele>282.25946044922</ele>
        <time>2016-02-15T08:56:41.000Z</time>
      </trkpt>
      <trkpt lat="47.16792" lon="3.17735">
        <ele>282.13229370117</ele>
        <time>2016-02-15T08:56:43.000Z</time>
      </trkpt>
      <trkpt lat="47.16795" lon="3.17728">
        <ele>282.00433349609</ele>
        <time>2016-02-15T08:56:46.000Z</time>
      </trkpt>
      <trkpt lat="47.16796" lon="3.17722">
        <ele>281.89703369141</ele>
        <time>2016-02-15T08:56:49.000Z</time>
      </trkpt>
      <trkpt lat="47.16796" lon="3.17718">
        <ele>281.80352783203</ele>
        <time>2016-02-15T08:56:51.000Z</time>
      </trkpt>
      <trkpt lat="47.16798" lon="3.17712">
        <ele>281.70751953125</ele>
        <time>2016-02-15T08:56:54.000Z</time>
      </trkpt>
      <trkpt lat="47.168" lon="3.17704">
        <ele>281.59548950195</ele>
        <time>2016-02-15T08:56:57.000Z</time>
      </trkpt>
      <trkpt lat="47.168" lon="3.17702">
        <ele>281.51190185547</ele>
        <time>2016-02-15T08:56:59.000Z</time>
      </trkpt>
      <trkpt lat="47.16801" lon="3.17697">
        <ele>281.41970825195</ele>
        <time>2016-02-15T08:57:02.000Z</time>
      </trkpt>
      <trkpt lat="47.16803" lon="3.17691">
        <ele>281.30117797852</ele>
        <time>2016-02-15T08:57:05.000Z</time>
      </trkpt>
      <trkpt lat="47.16806" lon="3.17686">
        <ele>281.16812133789</ele>
        <time>2016-02-15T08:57:08.000Z</time>
      </trkpt>
      <trkpt lat="47.16808" lon="3.17681">
        <ele>281.0361328125</ele>
        <time>2016-02-15T08:57:11.000Z</time>
      </trkpt>
      <trkpt lat="47.1681" lon="3.17677">
        <ele>280.88052368164</ele>
        <time>2016-02-15T08:57:13.000Z</time>
      </trkpt>
      <trkpt lat="47.16811" lon="3.1767">
        <ele>280.70550537109</ele>
        <time>2016-02-15T08:57:16.000Z</time>
      </trkpt>
      <trkpt lat="47.16814" lon="3.17664">
        <ele>280.54034423828</ele>
        <time>2016-02-15T08:57:19.000Z</time>
      </trkpt>
      <trkpt lat="47.16816" lon="3.17661">
        <ele>280.40728759766</ele>
        <time>2016-02-15T08:57:21.000Z</time>
      </trkpt>
      <trkpt lat="47.16819" lon="3.17657">
        <ele>280.28860473633</ele>
        <time>2016-02-15T08:57:24.000Z</time>
      </trkpt>
      <trkpt lat="47.16821" lon="3.17653">
        <ele>280.18563842773</ele>
        <time>2016-02-15T08:57:27.000Z</time>
      </trkpt>
      <trkpt lat="47.16823" lon="3.17648">
        <ele>280.12512207031</ele>
        <time>2016-02-15T08:57:30.000Z</time>
      </trkpt>
      <trkpt lat="47.16824" lon="3.17643">
        <ele>280.09851074219</ele>
        <time>2016-02-15T08:57:32.000Z</time>
      </trkpt>
      <trkpt lat="47.16825" lon="3.17639">
        <ele>280.09228515625</ele>
        <time>2016-02-15T08:57:34.000Z</time>
      </trkpt>
      <trkpt lat="47.16827" lon="3.17634">
        <ele>280.10327148438</ele>
        <time>2016-02-15T08:57:37.000Z</time>
      </trkpt>
      <trkpt lat="47.16829" lon="3.17627">
        <ele>280.13610839844</ele>
        <time>2016-02-15T08:57:40.000Z</time>
      </trkpt>
      <trkpt lat="47.1683" lon="3.17621">
        <ele>280.18322753906</ele>
        <time>2016-02-15T08:57:43.000Z</time>
      </trkpt>
      <trkpt lat="47.16832" lon="3.17617">
        <ele>280.21850585938</ele>
        <time>2016-02-15T08:57:45.000Z</time>
      </trkpt>
      <trkpt lat="47.16834" lon="3.17614">
        <ele>280.23873901367</ele>
        <time>2016-02-15T08:57:48.000Z</time>
      </trkpt>
      <trkpt lat="47.16836" lon="3.17609">
        <ele>280.27850341797</ele>
        <time>2016-02-15T08:57:51.000Z</time>
      </trkpt>
      <trkpt lat="47.16838" lon="3.17605">
        <ele>280.32196044922</ele>
        <time>2016-02-15T08:57:53.000Z</time>
      </trkpt>
      <trkpt lat="47.1684" lon="3.176">
        <ele>280.3684387207</ele>
        <time>2016-02-15T08:57:56.000Z</time>
      </trkpt>
      <trkpt lat="47.16842" lon="3.17596">
        <ele>280.42919921875</ele>
        <time>2016-02-15T08:57:58.000Z</time>
      </trkpt>
      <trkpt lat="47.16843" lon="3.17592">
        <ele>280.51171875</ele>
        <time>2016-02-15T08:58:00.000Z</time>
      </trkpt>
      <trkpt lat="47.16844" lon="3.17589">
        <ele>280.5888671875</ele>
        <time>2016-02-15T08:58:02.000Z</time>
      </trkpt>
      <trkpt lat="47.16846" lon="3.17583">
        <ele>280.67443847656</ele>
        <time>2016-02-15T08:58:05.000Z</time>
      </trkpt>
      <trkpt lat="47.16849" lon="3.17579">
        <ele>280.75524902344</ele>
        <time>2016-02-15T08:58:08.000Z</time>
      </trkpt>
      <trkpt lat="47.16852" lon="3.17574">
        <ele>280.83520507812</ele>
        <time>2016-02-15T08:58:11.000Z</time>
      </trkpt>
      <trkpt lat="47.16854" lon="3.17571">
        <ele>280.90979003906</ele>
        <time>2016-02-15T08:58:14.000Z</time>
      </trkpt>
      <trkpt lat="47.16855" lon="3.17568">
        <ele>280.98291015625</ele>
        <time>2016-02-15T08:58:16.000Z</time>
      </trkpt>
      <trkpt lat="47.16856" lon="3.17565">
        <ele>281.046875</ele>
        <time>2016-02-15T08:58:18.000Z</time>
      </trkpt>
      <trkpt lat="47.16858" lon="3.17562">
        <ele>281.10705566406</ele>
        <time>2016-02-15T08:58:20.000Z</time>
      </trkpt>
      <trkpt lat="47.16859" lon="3.17556">
        <ele>281.177734375</ele>
        <time>2016-02-15T08:58:23.000Z</time>
      </trkpt>
      <trkpt lat="47.16861" lon="3.1755">
        <ele>281.26037597656</ele>
        <time>2016-02-15T08:58:26.000Z</time>
      </trkpt>
      <trkpt lat="47.16863" lon="3.17546">
        <ele>281.34826660156</ele>
        <time>2016-02-15T08:58:28.000Z</time>
      </trkpt>
      <trkpt lat="47.16864" lon="3.17541">
        <ele>281.4443359375</ele>
        <time>2016-02-15T08:58:31.000Z</time>
      </trkpt>
      <trkpt lat="47.16865" lon="3.17537">
        <ele>281.54455566406</ele>
        <time>2016-02-15T08:58:34.000Z</time>
      </trkpt>
      <trkpt lat="47.16868" lon="3.1753">
        <ele>281.65051269531</ele>
        <time>2016-02-15T08:58:37.000Z</time>
      </trkpt>
      <trkpt lat="47.1687" lon="3.17524">
        <ele>281.75402832031</ele>
        <time>2016-02-15T08:58:40.000Z</time>
      </trkpt>
      <trkpt lat="47.16871" lon="3.17516">
        <ele>281.87585449219</ele>
        <time>2016-02-15T08:58:43.000Z</time>
      </trkpt>
      <trkpt lat="47.16872" lon="3.17512">
        <ele>281.99426269531</ele>
        <time>2016-02-15T08:58:45.000Z</time>
      </trkpt>
      <trkpt lat="47.16874" lon="3.17509">
        <ele>282.111328125</ele>
        <time>2016-02-15T08:58:48.000Z</time>
      </trkpt>
      <trkpt lat="47.16875" lon="3.17506">
        <ele>282.20690917969</ele>
        <time>2016-02-15T08:58:50.000Z</time>
      </trkpt>
      <trkpt lat="47.16877" lon="3.17503">
        <ele>282.28894042969</ele>
        <time>2016-02-15T08:58:53.000Z</time>
      </trkpt>
      <trkpt lat="47.16879" lon="3.17499">
        <ele>282.35760498047</ele>
        <time>2016-02-15T08:58:55.000Z</time>
      </trkpt>
      <trkpt lat="47.1688" lon="3.17494">
        <ele>282.43154907227</ele>
        <time>2016-02-15T08:58:57.000Z</time>
      </trkpt>
      <trkpt lat="47.16883" lon="3.1749">
        <ele>282.51019287109</ele>
        <time>2016-02-15T08:58:59.000Z</time>
      </trkpt>
      <trkpt lat="47.16886" lon="3.17483">
        <ele>282.61010742188</ele>
        <time>2016-02-15T08:59:02.000Z</time>
      </trkpt>
      <trkpt lat="47.16888" lon="3.17476">
        <ele>282.73443603516</ele>
        <time>2016-02-15T08:59:05.000Z</time>
      </trkpt>
      <trkpt lat="47.1689" lon="3.17471">
        <ele>282.86157226562</ele>
        <time>2016-02-15T08:59:08.000Z</time>
      </trkpt>
      <trkpt lat="47.16891" lon="3.17466">
        <ele>282.98931884766</ele>
        <time>2016-02-15T08:59:11.000Z</time>
      </trkpt>
      <trkpt lat="47.16893" lon="3.17459">
        <ele>283.13153076172</ele>
        <time>2016-02-15T08:59:14.000Z</time>
      </trkpt>
      <trkpt lat="47.16893" lon="3.17456">
        <ele>283.26068115234</ele>
        <time>2016-02-15T08:59:16.000Z</time>
      </trkpt>
      <trkpt lat="47.16895" lon="3.1745">
        <ele>283.37811279297</ele>
        <time>2016-02-15T08:59:19.000Z</time>
      </trkpt>
      <trkpt lat="47.16896" lon="3.17447">
        <ele>283.48324584961</ele>
        <time>2016-02-15T08:59:21.000Z</time>
      </trkpt>
      <trkpt lat="47.16898" lon="3.17443">
        <ele>283.58392333984</ele>
        <time>2016-02-15T08:59:24.000Z</time>
      </trkpt>
      <trkpt lat="47.16899" lon="3.17438">
        <ele>283.67041015625</ele>
        <time>2016-02-15T08:59:26.000Z</time>
      </trkpt>
      <trkpt lat="47.169" lon="3.17432">
        <ele>283.76718139648</ele>
        <time>2016-02-15T08:59:29.000Z</time>
      </trkpt>
      <trkpt lat="47.16901" lon="3.17429">
        <ele>283.85711669922</ele>
        <time>2016-02-15T08:59:31.000Z</time>
      </trkpt>
      <trkpt lat="47.16903" lon="3.17426">
        <ele>283.94302368164</ele>
        <time>2016-02-15T08:59:34.000Z</time>
      </trkpt>
      <trkpt lat="47.16905" lon="3.17421">
        <ele>284.02911376953</ele>
        <time>2016-02-15T08:59:36.000Z</time>
      </trkpt>
      <trkpt lat="47.16908" lon="3.17411">
        <ele>284.11907958984</ele>
        <time>2016-02-15T08:59:39.000Z</time>
      </trkpt>
      <trkpt lat="47.16908" lon="3.17405">
        <ele>284.19390869141</ele>
        <time>2016-02-15T08:59:42.000Z</time>
      </trkpt>
      <trkpt lat="47.1691" lon="3.174">
        <ele>284.25869750977</ele>
        <time>2016-02-15T08:59:45.000Z</time>
      </trkpt>
      <trkpt lat="47.16912" lon="3.17395">
        <ele>284.31713867188</ele>
        <time>2016-02-15T08:59:48.000Z</time>
      </trkpt>
      <trkpt lat="47.16914" lon="3.1739">
        <ele>284.36059570312</ele>
        <time>2016-02-15T08:59:51.000Z</time>
      </trkpt>
      <trkpt lat="47.16916" lon="3.17386">
        <ele>284.38092041016</ele>
        <time>2016-02-15T08:59:54.000Z</time>
      </trkpt>
      <trkpt lat="47.16917" lon="3.17383">
        <ele>284.39236450195</ele>
        <time>2016-02-15T08:59:56.000Z</time>
      </trkpt>
      <trkpt lat="47.16919" lon="3.17379">
        <ele>284.4172668457</ele>
        <time>2016-02-15T08:59:59.000Z</time>
      </trkpt>
      <trkpt lat="47.16922" lon="3.17374">
        <ele>284.46438598633</ele>
        <time>2016-02-15T09:00:02.000Z</time>
      </trkpt>
      <trkpt lat="47.16924" lon="3.17368">
        <ele>284.53173828125</ele>
        <time>2016-02-15T09:00:05.000Z</time>
      </trkpt>
      <trkpt lat="47.16927" lon="3.17362">
        <ele>284.63354492188</ele>
        <time>2016-02-15T09:00:08.000Z</time>
      </trkpt>
      <trkpt lat="47.16928" lon="3.17358">
        <ele>284.74871826172</ele>
        <time>2016-02-15T09:00:10.000Z</time>
      </trkpt>
      <trkpt lat="47.1693" lon="3.17354">
        <ele>284.87014770508</ele>
        <time>2016-02-15T09:00:13.000Z</time>
      </trkpt>
      <trkpt lat="47.16932" lon="3.17348">
        <ele>285.00128173828</ele>
        <time>2016-02-15T09:00:15.000Z</time>
      </trkpt>
      <trkpt lat="47.16933" lon="3.17346">
        <ele>285.12139892578</ele>
        <time>2016-02-15T09:00:17.000Z</time>
      </trkpt>
      <trkpt lat="47.16936" lon="3.17339">
        <ele>285.25775146484</ele>
        <time>2016-02-15T09:00:20.000Z</time>
      </trkpt>
      <trkpt lat="47.16938" lon="3.17335">
        <ele>285.41079711914</ele>
        <time>2016-02-15T09:00:22.000Z</time>
      </trkpt>
      <trkpt lat="47.16943" lon="3.17329">
        <ele>285.60510253906</ele>
        <time>2016-02-15T09:00:25.000Z</time>
      </trkpt>
      <trkpt lat="47.16944" lon="3.17327">
        <ele>285.78533935547</ele>
        <time>2016-02-15T09:00:27.000Z</time>
      </trkpt>
      <trkpt lat="47.16946" lon="3.17321">
        <ele>285.99615478516</ele>
        <time>2016-02-15T09:00:30.000Z</time>
      </trkpt>
      <trkpt lat="47.16948" lon="3.17315">
        <ele>286.20425415039</ele>
        <time>2016-02-15T09:00:33.000Z</time>
      </trkpt>
      <trkpt lat="47.16949" lon="3.17313">
        <ele>286.39685058594</ele>
        <time>2016-02-15T09:00:35.000Z</time>
      </trkpt>
      <trkpt lat="47.16953" lon="3.17307">
        <ele>286.57720947266</ele>
        <time>2016-02-15T09:00:38.000Z</time>
      </trkpt>
      <trkpt lat="47.16955" lon="3.17302">
        <ele>286.7737121582</ele>
        <time>2016-02-15T09:00:41.000Z</time>
      </trkpt>
      <trkpt lat="47.16957" lon="3.17297">
        <ele>286.96817016602</ele>
        <time>2016-02-15T09:00:44.000Z</time>
      </trkpt>
      <trkpt lat="47.16959" lon="3.17292">
        <ele>287.14556884766</ele>
        <time>2016-02-15T09:00:46.000Z</time>
      </trkpt>
      <trkpt lat="47.16961" lon="3.17283">
        <ele>287.35711669922</ele>
        <time>2016-02-15T09:00:49.000Z</time>
      </trkpt>
      <trkpt lat="47.16962" lon="3.17278">
        <ele>287.5422668457</ele>
        <time>2016-02-15T09:00:51.000Z</time>
      </trkpt>
      <trkpt lat="47.16964" lon="3.17273">
        <ele>287.72427368164</ele>
        <time>2016-02-15T09:00:53.000Z</time>
      </trkpt>
      <trkpt lat="47.16965" lon="3.17268">
        <ele>287.88851928711</ele>
        <time>2016-02-15T09:00:55.000Z</time>
      </trkpt>
      <trkpt lat="47.16967" lon="3.17266">
        <ele>288.03497314453</ele>
        <time>2016-02-15T09:00:58.000Z</time>
      </trkpt>
      <trkpt lat="47.16971" lon="3.1726">
        <ele>288.16885375977</ele>
        <time>2016-02-15T09:01:00.000Z</time>
      </trkpt>
      <trkpt lat="47.16973" lon="3.17257">
        <ele>288.29565429688</ele>
        <time>2016-02-15T09:01:06.000Z</time>
      </trkpt>
      <trkpt lat="47.16975" lon="3.17251">
        <ele>288.41790771484</ele>
        <time>2016-02-15T09:01:08.000Z</time>
      </trkpt>
      <trkpt lat="47.16976" lon="3.17247">
        <ele>288.53610229492</ele>
        <time>2016-02-15T09:01:08.000Z</time>
      </trkpt>
      <trkpt lat="47.16977" lon="3.17244">
        <ele>288.6569519043</ele>
        <time>2016-02-15T09:01:09.000Z</time>
      </trkpt>
      <trkpt lat="47.16978" lon="3.17242">
        <ele>288.75033569336</ele>
        <time>2016-02-15T09:01:11.000Z</time>
      </trkpt>
      <trkpt lat="47.16979" lon="3.17238">
        <ele>288.84414672852</ele>
        <time>2016-02-15T09:01:14.000Z</time>
      </trkpt>
      <trkpt lat="47.1698" lon="3.17232">
        <ele>288.93481445312</ele>
        <time>2016-02-15T09:01:17.000Z</time>
      </trkpt>
      <trkpt lat="47.16978" lon="3.1724">
        <ele>288.97003173828</ele>
        <time>2016-02-15T09:01:29.000Z</time>
      </trkpt>
      <trkpt lat="47.1698" lon="3.1724">
        <ele>288.9912109375</ele>
        <time>2016-02-15T09:01:31.000Z</time>
      </trkpt>
      <trkpt lat="47.16983" lon="3.17229">
        <ele>289.04837036133</ele>
        <time>2016-02-15T09:01:34.000Z</time>
      </trkpt>
      <trkpt lat="47.16986" lon="3.17221">
        <ele>289.11895751953</ele>
        <time>2016-02-15T09:01:37.000Z</time>
      </trkpt>
      <trkpt lat="47.16986" lon="3.17215">
        <ele>289.18478393555</ele>
        <time>2016-02-15T09:01:39.000Z</time>
      </trkpt>
      <trkpt lat="47.16986" lon="3.1721">
        <ele>289.30422973633</ele>
        <time>2016-02-15T09:01:42.000Z</time>
      </trkpt>
      <trkpt lat="47.16986" lon="3.17207">
        <ele>289.43356323242</ele>
        <time>2016-02-15T09:01:44.000Z</time>
      </trkpt>
      <trkpt lat="47.16988" lon="3.17203">
        <ele>289.5276184082</ele>
        <time>2016-02-15T09:01:47.000Z</time>
      </trkpt>
      <trkpt lat="47.16991" lon="3.17197">
        <ele>289.60455322266</ele>
        <time>2016-02-15T09:01:50.000Z</time>
      </trkpt>
      <trkpt lat="47.16993" lon="3.17189">
        <ele>289.67846679688</ele>
        <time>2016-02-15T09:01:53.000Z</time>
      </trkpt>
      <trkpt lat="47.16994" lon="3.17184">
        <ele>289.74472045898</ele>
        <time>2016-02-15T09:01:55.000Z</time>
      </trkpt>
      <trkpt lat="47.16996" lon="3.17181">
        <ele>289.8037109375</ele>
        <time>2016-02-15T09:01:58.000Z</time>
      </trkpt>
      <trkpt lat="47.16999" lon="3.17175">
        <ele>289.85662841797</ele>
        <time>2016-02-15T09:02:01.000Z</time>
      </trkpt>
      <trkpt lat="47.17" lon="3.17172">
        <ele>289.89590454102</ele>
        <time>2016-02-15T09:02:04.000Z</time>
      </trkpt>
      <trkpt lat="47.17002" lon="3.17168">
        <ele>289.93939208984</ele>
        <time>2016-02-15T09:02:06.000Z</time>
      </trkpt>
      <trkpt lat="47.17005" lon="3.17163">
        <ele>289.97137451172</ele>
        <time>2016-02-15T09:02:09.000Z</time>
      </trkpt>
      <trkpt lat="47.17009" lon="3.17155">
        <ele>289.98104858398</ele>
        <time>2016-02-15T09:02:12.000Z</time>
      </trkpt>
      <trkpt lat="47.1701" lon="3.17152">
        <ele>289.97958374023</ele>
        <time>2016-02-15T09:02:14.000Z</time>
      </trkpt>
      <trkpt lat="47.17012" lon="3.17147">
        <ele>289.96453857422</ele>
        <time>2016-02-15T09:02:17.000Z</time>
      </trkpt>
      <trkpt lat="47.17013" lon="3.17143">
        <ele>289.923828125</ele>
        <time>2016-02-15T09:02:19.000Z</time>
      </trkpt>
      <trkpt lat="47.17015" lon="3.17139">
        <ele>289.87466430664</ele>
        <time>2016-02-15T09:02:21.000Z</time>
      </trkpt>
      <trkpt lat="47.17017" lon="3.17136">
        <ele>289.84594726562</ele>
        <time>2016-02-15T09:02:23.000Z</time>
      </trkpt>
      <trkpt lat="47.17018" lon="3.17132">
        <ele>289.81915283203</ele>
        <time>2016-02-15T09:02:25.000Z</time>
      </trkpt>
      <trkpt lat="47.17019" lon="3.17125">
        <ele>289.78179931641</ele>
        <time>2016-02-15T09:02:28.000Z</time>
      </trkpt>
      <trkpt lat="47.17019" lon="3.17123">
        <ele>289.74179077148</ele>
        <time>2016-02-15T09:02:30.000Z</time>
      </trkpt>
      <trkpt lat="47.1702" lon="3.1712">
        <ele>289.70620727539</ele>
        <time>2016-02-15T09:02:32.000Z</time>
      </trkpt>
      <trkpt lat="47.17022" lon="3.17116">
        <ele>289.67144775391</ele>
        <time>2016-02-15T09:02:34.000Z</time>
      </trkpt>
      <trkpt lat="47.17023" lon="3.17112">
        <ele>289.63629150391</ele>
        <time>2016-02-15T09:02:36.000Z</time>
      </trkpt>
      <trkpt lat="47.17024" lon="3.17105">
        <ele>289.60433959961</ele>
        <time>2016-02-15T09:02:39.000Z</time>
      </trkpt>
      <trkpt lat="47.17025" lon="3.17101">
        <ele>289.57427978516</ele>
        <time>2016-02-15T09:02:42.000Z</time>
      </trkpt>
      <trkpt lat="47.17025" lon="3.17097">
        <ele>289.53408813477</ele>
        <time>2016-02-15T09:02:46.000Z</time>
      </trkpt>
      <trkpt lat="47.17026" lon="3.17092">
        <ele>289.48129272461</ele>
        <time>2016-02-15T09:02:49.000Z</time>
      </trkpt>
      <trkpt lat="47.17028" lon="3.17085">
        <ele>289.4345703125</ele>
        <time>2016-02-15T09:02:52.000Z</time>
      </trkpt>
      <trkpt lat="47.1703" lon="3.17078">
        <ele>289.38473510742</ele>
        <time>2016-02-15T09:02:55.000Z</time>
      </trkpt>
      <trkpt lat="47.1703" lon="3.17072">
        <ele>289.31192016602</ele>
        <time>2016-02-15T09:02:57.000Z</time>
      </trkpt>
      <trkpt lat="47.17031" lon="3.17067">
        <ele>289.22793579102</ele>
        <time>2016-02-15T09:03:00.000Z</time>
      </trkpt>
      <trkpt lat="47.17032" lon="3.17064">
        <ele>289.14947509766</ele>
        <time>2016-02-15T09:03:02.000Z</time>
      </trkpt>
      <trkpt lat="47.17033" lon="3.17061">
        <ele>289.05645751953</ele>
        <time>2016-02-15T09:03:04.000Z</time>
      </trkpt>
      <trkpt lat="47.17035" lon="3.17057">
        <ele>288.98806762695</ele>
        <time>2016-02-15T09:03:07.000Z</time>
      </trkpt>
      <trkpt lat="47.17037" lon="3.17053">
        <ele>288.9609375</ele>
        <time>2016-02-15T09:03:09.000Z</time>
      </trkpt>
      <trkpt lat="47.1704" lon="3.1705">
        <ele>288.97494506836</ele>
        <time>2016-02-15T09:03:12.000Z</time>
      </trkpt>
      <trkpt lat="47.17041" lon="3.17047">
        <ele>289.00405883789</ele>
        <time>2016-02-15T09:03:14.000Z</time>
      </trkpt>
      <trkpt lat="47.17044" lon="3.17042">
        <ele>289.06256103516</ele>
        <time>2016-02-15T09:03:17.000Z</time>
      </trkpt>
      <trkpt lat="47.17046" lon="3.17039">
        <ele>289.12066650391</ele>
        <time>2016-02-15T09:03:19.000Z</time>
      </trkpt>
      <trkpt lat="47.17048" lon="3.17033">
        <ele>289.17193603516</ele>
        <time>2016-02-15T09:03:22.000Z</time>
      </trkpt>
      <trkpt lat="47.17049" lon="3.1703">
        <ele>289.21939086914</ele>
        <time>2016-02-15T09:03:24.000Z</time>
      </trkpt>
      <trkpt lat="47.1705" lon="3.17026">
        <ele>289.25375366211</ele>
        <time>2016-02-15T09:03:26.000Z</time>
      </trkpt>
      <trkpt lat="47.17052" lon="3.17021">
        <ele>289.27947998047</ele>
        <time>2016-02-15T09:03:28.000Z</time>
      </trkpt>
      <trkpt lat="47.17053" lon="3.17015">
        <ele>289.30883789062</ele>
        <time>2016-02-15T09:03:31.000Z</time>
      </trkpt>
      <trkpt lat="47.17054" lon="3.17012">
        <ele>289.34420776367</ele>
        <time>2016-02-15T09:03:33.000Z</time>
      </trkpt>
      <trkpt lat="47.17057" lon="3.17004">
        <ele>289.38070678711</ele>
        <time>2016-02-15T09:03:36.000Z</time>
      </trkpt>
      <trkpt lat="47.17058" lon="3.17001">
        <ele>289.4421081543</ele>
        <time>2016-02-15T09:03:38.000Z</time>
      </trkpt>
      <trkpt lat="47.17059" lon="3.16999">
        <ele>289.50308227539</ele>
        <time>2016-02-15T09:03:40.000Z</time>
      </trkpt>
      <trkpt lat="47.17062" lon="3.16992">
        <ele>289.59344482422</ele>
        <time>2016-02-15T09:03:43.000Z</time>
      </trkpt>
      <trkpt lat="47.17063" lon="3.16986">
        <ele>289.67602539062</ele>
        <time>2016-02-15T09:03:45.000Z</time>
      </trkpt>
      <trkpt lat="47.17064" lon="3.16983">
        <ele>289.75131225586</ele>
        <time>2016-02-15T09:03:47.000Z</time>
      </trkpt>
      <trkpt lat="47.17067" lon="3.16978">
        <ele>289.83850097656</ele>
        <time>2016-02-15T09:03:50.000Z</time>
      </trkpt>
      <trkpt lat="47.1707" lon="3.1697">
        <ele>289.94573974609</ele>
        <time>2016-02-15T09:03:53.000Z</time>
      </trkpt>
      <trkpt lat="47.17071" lon="3.16969">
        <ele>290.02401733398</ele>
        <time>2016-02-15T09:03:55.000Z</time>
      </trkpt>
      <trkpt lat="47.17072" lon="3.16966">
        <ele>290.10638427734</ele>
        <time>2016-02-15T09:03:57.000Z</time>
      </trkpt>
      <trkpt lat="47.17074" lon="3.16962">
        <ele>290.20034790039</ele>
        <time>2016-02-15T09:04:00.000Z</time>
      </trkpt>
      <trkpt lat="47.17076" lon="3.16955">
        <ele>290.26629638672</ele>
        <time>2016-02-15T09:04:03.000Z</time>
      </trkpt>
      <trkpt lat="47.17077" lon="3.16952">
        <ele>290.30215454102</ele>
        <time>2016-02-15T09:04:05.000Z</time>
      </trkpt>
      <trkpt lat="47.17079" lon="3.16947">
        <ele>290.33993530273</ele>
        <time>2016-02-15T09:04:08.000Z</time>
      </trkpt>
      <trkpt lat="47.17081" lon="3.16942">
        <ele>290.38302612305</ele>
        <time>2016-02-15T09:04:11.000Z</time>
      </trkpt>
      <trkpt lat="47.17083" lon="3.16935">
        <ele>290.39935302734</ele>
        <time>2016-02-15T09:04:14.000Z</time>
      </trkpt>
      <trkpt lat="47.17085" lon="3.16927">
        <ele>290.38027954102</ele>
        <time>2016-02-15T09:04:17.000Z</time>
      </trkpt>
      <trkpt lat="47.17088" lon="3.16923">
        <ele>290.34136962891</ele>
        <time>2016-02-15T09:04:19.000Z</time>
      </trkpt>
      <trkpt lat="47.17089" lon="3.1692">
        <ele>290.28048706055</ele>
        <time>2016-02-15T09:04:21.000Z</time>
      </trkpt>
      <trkpt lat="47.1709" lon="3.16918">
        <ele>290.19500732422</ele>
        <time>2016-02-15T09:04:24.000Z</time>
      </trkpt>
      <trkpt lat="47.17092" lon="3.16916">
        <ele>290.10934448242</ele>
        <time>2016-02-15T09:04:26.000Z</time>
      </trkpt>
      <trkpt lat="47.17095" lon="3.1691">
        <ele>290.02679443359</ele>
        <time>2016-02-15T09:04:29.000Z</time>
      </trkpt>
      <trkpt lat="47.17097" lon="3.16904">
        <ele>289.93951416016</ele>
        <time>2016-02-15T09:04:32.000Z</time>
      </trkpt>
      <trkpt lat="47.17098" lon="3.169">
        <ele>289.84982299805</ele>
        <time>2016-02-15T09:04:34.000Z</time>
      </trkpt>
      <trkpt lat="47.171" lon="3.16898">
        <ele>289.76052856445</ele>
        <time>2016-02-15T09:04:37.000Z</time>
      </trkpt>
      <trkpt lat="47.17102" lon="3.16895">
        <ele>289.6686706543</ele>
        <time>2016-02-15T09:04:39.000Z</time>
      </trkpt>
      <trkpt lat="47.17105" lon="3.16888">
        <ele>289.57974243164</ele>
        <time>2016-02-15T09:04:42.000Z</time>
      </trkpt>
      <trkpt lat="47.17106" lon="3.16884">
        <ele>289.49810791016</ele>
        <time>2016-02-15T09:04:45.000Z</time>
      </trkpt>
      <trkpt lat="47.17107" lon="3.16881">
        <ele>289.419921875</ele>
        <time>2016-02-15T09:04:47.000Z</time>
      </trkpt>
      <trkpt lat="47.17108" lon="3.16878">
        <ele>289.34130859375</ele>
        <time>2016-02-15T09:04:49.000Z</time>
      </trkpt>
      <trkpt lat="47.1711" lon="3.16876">
        <ele>289.27340698242</ele>
        <time>2016-02-15T09:04:51.000Z</time>
      </trkpt>
      <trkpt lat="47.17113" lon="3.16881">
        <ele>289.25094604492</ele>
        <time>2016-02-15T09:05:06.000Z</time>
      </trkpt>
      <trkpt lat="47.17115" lon="3.16884">
        <ele>289.26226806641</ele>
        <time>2016-02-15T09:05:08.000Z</time>
      </trkpt>
      <trkpt lat="47.17116" lon="3.16886">
        <ele>289.29461669922</ele>
        <time>2016-02-15T09:05:11.000Z</time>
      </trkpt>
      <trkpt lat="47.17116" lon="3.16891">
        <ele>289.35583496094</ele>
        <time>2016-02-15T09:05:19.000Z</time>
      </trkpt>
      <trkpt lat="47.17122" lon="3.16894">
        <ele>289.43417358398</ele>
        <time>2016-02-15T09:05:22.000Z</time>
      </trkpt>
      <trkpt lat="47.17128" lon="3.16899">
        <ele>289.51232910156</ele>
        <time>2016-02-15T09:05:25.000Z</time>
      </trkpt>
      <trkpt lat="47.17129" lon="3.16901">
        <ele>289.58432006836</ele>
        <time>2016-02-15T09:05:27.000Z</time>
      </trkpt>
      <trkpt lat="47.17129" lon="3.16903">
        <ele>289.65399169922</ele>
        <time>2016-02-15T09:05:29.000Z</time>
      </trkpt>
      <trkpt lat="47.17129" lon="3.16907">
        <ele>289.71875</ele>
        <time>2016-02-15T09:05:32.000Z</time>
      </trkpt>
      <trkpt lat="47.1713" lon="3.16909">
        <ele>289.77682495117</ele>
        <time>2016-02-15T09:05:34.000Z</time>
      </trkpt>
      <trkpt lat="47.17132" lon="3.16911">
        <ele>289.82110595703</ele>
        <time>2016-02-15T09:05:36.000Z</time>
      </trkpt>
      <trkpt lat="47.17134" lon="3.16914">
        <ele>289.86489868164</ele>
        <time>2016-02-15T09:05:39.000Z</time>
      </trkpt>
      <trkpt lat="47.17137" lon="3.16914">
        <ele>289.90435791016</ele>
        <time>2016-02-15T09:05:41.000Z</time>
      </trkpt>
      <trkpt lat="47.17141" lon="3.16917">
        <ele>289.94674682617</ele>
        <time>2016-02-15T09:05:44.000Z</time>
      </trkpt>
      <trkpt lat="47.17143" lon="3.16919">
        <ele>289.99346923828</ele>
        <time>2016-02-15T09:05:47.000Z</time>
      </trkpt>
      <trkpt lat="47.17146" lon="3.16921">
        <ele>290.06042480469</ele>
        <time>2016-02-15T09:05:49.000Z</time>
      </trkpt>
      <trkpt lat="47.17149" lon="3.16925">
        <ele>290.15524291992</ele>
        <time>2016-02-15T09:05:52.000Z</time>
      </trkpt>
      <trkpt lat="47.17149" lon="3.16927">
        <ele>290.27368164062</ele>
        <time>2016-02-15T09:05:55.000Z</time>
      </trkpt>
      <trkpt lat="47.17152" lon="3.16932">
        <ele>290.43209838867</ele>
        <time>2016-02-15T09:05:58.000Z</time>
      </trkpt>
      <trkpt lat="47.17155" lon="3.16934">
        <ele>290.60107421875</ele>
        <time>2016-02-15T09:06:00.000Z</time>
      </trkpt>
      <trkpt lat="47.17159" lon="3.16936">
        <ele>290.76824951172</ele>
        <time>2016-02-15T09:06:03.000Z</time>
      </trkpt>
      <trkpt lat="47.1716" lon="3.16937">
        <ele>290.91360473633</ele>
        <time>2016-02-15T09:06:05.000Z</time>
      </trkpt>
      <trkpt lat="47.17161" lon="3.16938">
        <ele>291.04644775391</ele>
        <time>2016-02-15T09:06:08.000Z</time>
      </trkpt>
      <trkpt lat="47.17165" lon="3.16937">
        <ele>291.11993408203</ele>
        <time>2016-02-15T09:06:11.000Z</time>
      </trkpt>
      <trkpt lat="47.17169" lon="3.16938">
        <ele>291.17645263672</ele>
        <time>2016-02-15T09:06:13.000Z</time>
      </trkpt>
      <trkpt lat="47.17174" lon="3.16943">
        <ele>291.23086547852</ele>
        <time>2016-02-15T09:06:16.000Z</time>
      </trkpt>
      <trkpt lat="47.17178" lon="3.16947">
        <ele>291.28680419922</ele>
        <time>2016-02-15T09:06:19.000Z</time>
      </trkpt>
      <trkpt lat="47.17179" lon="3.1695">
        <ele>291.35162353516</ele>
        <time>2016-02-15T09:06:21.000Z</time>
      </trkpt>
      <trkpt lat="47.1718" lon="3.16952">
        <ele>291.43344116211</ele>
        <time>2016-02-15T09:06:24.000Z</time>
      </trkpt>
      <trkpt lat="47.17182" lon="3.16955">
        <ele>291.52270507812</ele>
        <time>2016-02-15T09:06:27.000Z</time>
      </trkpt>
      <trkpt lat="47.17184" lon="3.16957">
        <ele>291.59466552734</ele>
        <time>2016-02-15T09:06:29.000Z</time>
      </trkpt>
      <trkpt lat="47.17187" lon="3.16959">
        <ele>291.65045166016</ele>
        <time>2016-02-15T09:06:32.000Z</time>
      </trkpt>
      <trkpt lat="47.1719" lon="3.16961">
        <ele>291.6667175293</ele>
        <time>2016-02-15T09:06:35.000Z</time>
      </trkpt>
      <trkpt lat="47.17192" lon="3.16962">
        <ele>291.66830444336</ele>
        <time>2016-02-15T09:06:37.000Z</time>
      </trkpt>
      <trkpt lat="47.17194" lon="3.16964">
        <ele>291.65994262695</ele>
        <time>2016-02-15T09:06:40.000Z</time>
      </trkpt>
      <trkpt lat="47.17197" lon="3.16965">
        <ele>291.63027954102</ele>
        <time>2016-02-15T09:06:43.000Z</time>
      </trkpt>
      <trkpt lat="47.172" lon="3.16968">
        <ele>291.59722900391</ele>
        <time>2016-02-15T09:06:46.000Z</time>
      </trkpt>
      <trkpt lat="47.17202" lon="3.1697">
        <ele>291.57809448242</ele>
        <time>2016-02-15T09:06:48.000Z</time>
      </trkpt>
      <trkpt lat="47.17204" lon="3.16971">
        <ele>291.55429077148</ele>
        <time>2016-02-15T09:06:51.000Z</time>
      </trkpt>
      <trkpt lat="47.17209" lon="3.16974">
        <ele>291.50555419922</ele>
        <time>2016-02-15T09:06:53.000Z</time>
      </trkpt>
      <trkpt lat="47.17211" lon="3.16976">
        <ele>291.46038818359</ele>
        <time>2016-02-15T09:06:55.000Z</time>
      </trkpt>
      <trkpt lat="47.17215" lon="3.16978">
        <ele>291.39642333984</ele>
        <time>2016-02-15T09:06:58.000Z</time>
      </trkpt>
      <trkpt lat="47.17219" lon="3.16979">
        <ele>291.30892944336</ele>
        <time>2016-02-15T09:07:00.000Z</time>
      </trkpt>
      <trkpt lat="47.17221" lon="3.1698">
        <ele>291.21090698242</ele>
        <time>2016-02-15T09:07:02.000Z</time>
      </trkpt>
      <trkpt lat="47.17223" lon="3.16981">
        <ele>291.12393188477</ele>
        <time>2016-02-15T09:07:05.000Z</time>
      </trkpt>
      <trkpt lat="47.17225" lon="3.16982">
        <ele>291.03131103516</ele>
        <time>2016-02-15T09:07:07.000Z</time>
      </trkpt>
      <trkpt lat="47.17227" lon="3.16983">
        <ele>290.94482421875</ele>
        <time>2016-02-15T09:07:09.000Z</time>
      </trkpt>
      <trkpt lat="47.17229" lon="3.16985">
        <ele>290.87753295898</ele>
        <time>2016-02-15T09:07:11.000Z</time>
      </trkpt>
      <trkpt lat="47.17233" lon="3.16987">
        <ele>290.79620361328</ele>
        <time>2016-02-15T09:07:14.000Z</time>
      </trkpt>
      <trkpt lat="47.17236" lon="3.16989">
        <ele>290.7109375</ele>
        <time>2016-02-15T09:07:16.000Z</time>
      </trkpt>
      <trkpt lat="47.17239" lon="3.16992">
        <ele>290.61245727539</ele>
        <time>2016-02-15T09:07:19.000Z</time>
      </trkpt>
      <trkpt lat="47.17242" lon="3.16992">
        <ele>290.50869750977</ele>
        <time>2016-02-15T09:07:21.000Z</time>
      </trkpt>
      <trkpt lat="47.17245" lon="3.16994">
        <ele>290.3828125</ele>
        <time>2016-02-15T09:07:24.000Z</time>
      </trkpt>
      <trkpt lat="47.17248" lon="3.16996">
        <ele>290.26885986328</ele>
        <time>2016-02-15T09:07:27.000Z</time>
      </trkpt>
      <trkpt lat="47.17251" lon="3.16999">
        <ele>290.14483642578</ele>
        <time>2016-02-15T09:07:29.000Z</time>
      </trkpt>
      <trkpt lat="47.17253" lon="3.17002">
        <ele>290.03753662109</ele>
        <time>2016-02-15T09:07:32.000Z</time>
      </trkpt>
      <trkpt lat="47.17254" lon="3.17004">
        <ele>289.95367431641</ele>
        <time>2016-02-15T09:07:37.000Z</time>
      </trkpt>
      <trkpt lat="47.17255" lon="3.17004">
        <ele>289.8903503418</ele>
        <time>2016-02-15T09:07:44.000Z</time>
      </trkpt>
      <trkpt lat="47.17256" lon="3.17004">
        <ele>289.82958984375</ele>
        <time>2016-02-15T09:07:46.000Z</time>
      </trkpt>
      <trkpt lat="47.17259" lon="3.17007">
        <ele>289.77581787109</ele>
        <time>2016-02-15T09:07:49.000Z</time>
      </trkpt>
      <trkpt lat="47.17261" lon="3.1701">
        <ele>289.71957397461</ele>
        <time>2016-02-15T09:07:51.000Z</time>
      </trkpt>
      <trkpt lat="47.17266" lon="3.17015">
        <ele>289.61456298828</ele>
        <time>2016-02-15T09:07:54.000Z</time>
      </trkpt>
      <trkpt lat="47.1727" lon="3.17017">
        <ele>289.48858642578</ele>
        <time>2016-02-15T09:07:57.000Z</time>
      </trkpt>
      <trkpt lat="47.17273" lon="3.17019">
        <ele>289.34780883789</ele>
        <time>2016-02-15T09:08:00.000Z</time>
      </trkpt>
      <trkpt lat="47.17275" lon="3.17021">
        <ele>289.20040893555</ele>
        <time>2016-02-15T09:08:03.000Z</time>
      </trkpt>
      <trkpt lat="47.17278" lon="3.17023">
        <ele>289.04986572266</ele>
        <time>2016-02-15T09:08:06.000Z</time>
      </trkpt>
      <trkpt lat="47.1728" lon="3.17024">
        <ele>288.92050170898</ele>
        <time>2016-02-15T09:08:08.000Z</time>
      </trkpt>
      <trkpt lat="47.17283" lon="3.17026">
        <ele>288.79275512695</ele>
        <time>2016-02-15T09:08:11.000Z</time>
      </trkpt>
      <trkpt lat="47.17286" lon="3.1703">
        <ele>288.66448974609</ele>
        <time>2016-02-15T09:08:14.000Z</time>
      </trkpt>
      <trkpt lat="47.17289" lon="3.17033">
        <ele>288.53762817383</ele>
        <time>2016-02-15T09:08:16.000Z</time>
      </trkpt>
      <trkpt lat="47.17291" lon="3.17036">
        <ele>288.41586303711</ele>
        <time>2016-02-15T09:08:19.000Z</time>
      </trkpt>
      <trkpt lat="47.17294" lon="3.17039">
        <ele>288.28768920898</ele>
        <time>2016-02-15T09:08:22.000Z</time>
      </trkpt>
      <trkpt lat="47.17299" lon="3.17042">
        <ele>288.13949584961</ele>
        <time>2016-02-15T09:08:25.000Z</time>
      </trkpt>
      <trkpt lat="47.17301" lon="3.17044">
        <ele>287.99887084961</ele>
        <time>2016-02-15T09:08:27.000Z</time>
      </trkpt>
      <trkpt lat="47.17304" lon="3.17046">
        <ele>287.84185791016</ele>
        <time>2016-02-15T09:08:30.000Z</time>
      </trkpt>
      <trkpt lat="47.17308" lon="3.17048">
        <ele>287.65673828125</ele>
        <time>2016-02-15T09:08:33.000Z</time>
      </trkpt>
      <trkpt lat="47.17312" lon="3.1705">
        <ele>287.45513916016</ele>
        <time>2016-02-15T09:08:36.000Z</time>
      </trkpt>
      <trkpt lat="47.17316" lon="3.17053">
        <ele>287.25714111328</ele>
        <time>2016-02-15T09:08:39.000Z</time>
      </trkpt>
      <trkpt lat="47.17319" lon="3.17056">
        <ele>287.05624389648</ele>
        <time>2016-02-15T09:08:41.000Z</time>
      </trkpt>
      <trkpt lat="47.17322" lon="3.1706">
        <ele>286.85498046875</ele>
        <time>2016-02-15T09:08:44.000Z</time>
      </trkpt>
      <trkpt lat="47.17324" lon="3.17061">
        <ele>286.66680908203</ele>
        <time>2016-02-15T09:08:46.000Z</time>
      </trkpt>
      <trkpt lat="47.17328" lon="3.17065">
        <ele>286.49111938477</ele>
        <time>2016-02-15T09:08:49.000Z</time>
      </trkpt>
      <trkpt lat="47.17331" lon="3.17067">
        <ele>286.32672119141</ele>
        <time>2016-02-15T09:08:51.000Z</time>
      </trkpt>
      <trkpt lat="47.17333" lon="3.17069">
        <ele>286.16494750977</ele>
        <time>2016-02-15T09:08:53.000Z</time>
      </trkpt>
      <trkpt lat="47.17336" lon="3.17071">
        <ele>285.99829101562</ele>
        <time>2016-02-15T09:08:56.000Z</time>
      </trkpt>
      <trkpt lat="47.1734" lon="3.17074">
        <ele>285.80938720703</ele>
        <time>2016-02-15T09:08:59.000Z</time>
      </trkpt>
      <trkpt lat="47.17342" lon="3.17076">
        <ele>285.62060546875</ele>
        <time>2016-02-15T09:09:02.000Z</time>
      </trkpt>
      <trkpt lat="47.17345" lon="3.17078">
        <ele>285.42156982422</ele>
        <time>2016-02-15T09:09:05.000Z</time>
      </trkpt>
      <trkpt lat="47.17348" lon="3.17079">
        <ele>285.20205688477</ele>
        <time>2016-02-15T09:09:07.000Z</time>
      </trkpt>
      <trkpt lat="47.1735" lon="3.17081">
        <ele>284.99392700195</ele>
        <time>2016-02-15T09:09:10.000Z</time>
      </trkpt>
      <trkpt lat="47.17353" lon="3.17083">
        <ele>284.78305053711</ele>
        <time>2016-02-15T09:09:12.000Z</time>
      </trkpt>
      <trkpt lat="47.17356" lon="3.17085">
        <ele>284.54681396484</ele>
        <time>2016-02-15T09:09:15.000Z</time>
      </trkpt>
      <trkpt lat="47.1736" lon="3.17088">
        <ele>284.28582763672</ele>
        <time>2016-02-15T09:09:18.000Z</time>
      </trkpt>
      <trkpt lat="47.17363" lon="3.17089">
        <ele>284.01190185547</ele>
        <time>2016-02-15T09:09:21.000Z</time>
      </trkpt>
      <trkpt lat="47.17366" lon="3.17091">
        <ele>283.72314453125</ele>
        <time>2016-02-15T09:09:23.000Z</time>
      </trkpt>
      <trkpt lat="47.17368" lon="3.17093">
        <ele>283.45001220703</ele>
        <time>2016-02-15T09:09:25.000Z</time>
      </trkpt>
      <trkpt lat="47.17372" lon="3.17096">
        <ele>283.16387939453</ele>
        <time>2016-02-15T09:09:28.000Z</time>
      </trkpt>
      <trkpt lat="47.17376" lon="3.171">
        <ele>282.87973022461</ele>
        <time>2016-02-15T09:09:31.000Z</time>
      </trkpt>
      <trkpt lat="47.17377" lon="3.171">
        <ele>282.61901855469</ele>
        <time>2016-02-15T09:09:33.000Z</time>
      </trkpt>
      <trkpt lat="47.17381" lon="3.17103">
        <ele>282.34246826172</ele>
        <time>2016-02-15T09:09:36.000Z</time>
      </trkpt>
      <trkpt lat="47.17384" lon="3.17107">
        <ele>282.05178833008</ele>
        <time>2016-02-15T09:09:39.000Z</time>
      </trkpt>
      <trkpt lat="47.17385" lon="3.17109">
        <ele>281.80780029297</ele>
        <time>2016-02-15T09:09:41.000Z</time>
      </trkpt>
      <trkpt lat="47.17387" lon="3.17111">
        <ele>281.60174560547</ele>
        <time>2016-02-15T09:09:43.000Z</time>
      </trkpt>
      <trkpt lat="47.17391" lon="3.17114">
        <ele>281.36340332031</ele>
        <time>2016-02-15T09:09:46.000Z</time>
      </trkpt>
      <trkpt lat="47.17394" lon="3.17117">
        <ele>281.14685058594</ele>
        <time>2016-02-15T09:09:49.000Z</time>
      </trkpt>
      <trkpt lat="47.17395" lon="3.17119">
        <ele>280.96276855469</ele>
        <time>2016-02-15T09:09:51.000Z</time>
      </trkpt>
      <trkpt lat="47.17399" lon="3.1712">
        <ele>280.75106811523</ele>
        <time>2016-02-15T09:09:54.000Z</time>
      </trkpt>
      <trkpt lat="47.17401" lon="3.17121">
        <ele>280.53726196289</ele>
        <time>2016-02-15T09:09:56.000Z</time>
      </trkpt>
      <trkpt lat="47.17403" lon="3.17124">
        <ele>280.34606933594</ele>
        <time>2016-02-15T09:09:59.000Z</time>
      </trkpt>
      <trkpt lat="47.17407" lon="3.17126">
        <ele>280.14810180664</ele>
        <time>2016-02-15T09:10:01.000Z</time>
      </trkpt>
      <trkpt lat="47.17409" lon="3.17128">
        <ele>279.93957519531</ele>
        <time>2016-02-15T09:10:03.000Z</time>
      </trkpt>
      <trkpt lat="47.17413" lon="3.17132">
        <ele>279.72222900391</ele>
        <time>2016-02-15T09:10:06.000Z</time>
      </trkpt>
      <trkpt lat="47.17418" lon="3.17135">
        <ele>279.48706054688</ele>
        <time>2016-02-15T09:10:09.000Z</time>
      </trkpt>
      <trkpt lat="47.1742" lon="3.17138">
        <ele>279.28887939453</ele>
        <time>2016-02-15T09:10:11.000Z</time>
      </trkpt>
      <trkpt lat="47.17423" lon="3.1714">
        <ele>279.13311767578</ele>
        <time>2016-02-15T09:10:14.000Z</time>
      </trkpt>
      <trkpt lat="47.17425" lon="3.17141">
        <ele>279.00161743164</ele>
        <time>2016-02-15T09:10:16.000Z</time>
      </trkpt>
      <trkpt lat="47.17428" lon="3.17143">
        <ele>278.9267578125</ele>
        <time>2016-02-15T09:10:19.000Z</time>
      </trkpt>
      <trkpt lat="47.17432" lon="3.17145">
        <ele>278.890625</ele>
        <time>2016-02-15T09:10:22.000Z</time>
      </trkpt>
      <trkpt lat="47.17434" lon="3.17147">
        <ele>278.8564453125</ele>
        <time>2016-02-15T09:10:24.000Z</time>
      </trkpt>
      <trkpt lat="47.17438" lon="3.1715">
        <ele>278.8203125</ele>
        <time>2016-02-15T09:10:27.000Z</time>
      </trkpt>
      <trkpt lat="47.17442" lon="3.17152">
        <ele>278.78125</ele>
        <time>2016-02-15T09:10:30.000Z</time>
      </trkpt>
      <trkpt lat="47.17445" lon="3.17155">
        <ele>278.7412109375</ele>
        <time>2016-02-15T09:10:33.000Z</time>
      </trkpt>
      <trkpt lat="47.17447" lon="3.17156">
        <ele>278.7060546875</ele>
        <time>2016-02-15T09:10:35.000Z</time>
      </trkpt>
      <trkpt lat="47.17449" lon="3.17158">
        <ele>278.6708984375</ele>
        <time>2016-02-15T09:10:37.000Z</time>
      </trkpt>
      <trkpt lat="47.17453" lon="3.17159">
        <ele>278.634765625</ele>
        <time>2016-02-15T09:10:40.000Z</time>
      </trkpt>
      <trkpt lat="47.17456" lon="3.17162">
        <ele>278.599609375</ele>
        <time>2016-02-15T09:10:43.000Z</time>
      </trkpt>
      <trkpt lat="47.17458" lon="3.17164">
        <ele>278.568359375</ele>
        <time>2016-02-15T09:10:46.000Z</time>
      </trkpt>
      <trkpt lat="47.1746" lon="3.17167">
        <ele>278.537109375</ele>
        <time>2016-02-15T09:10:49.000Z</time>
      </trkpt>
      <trkpt lat="47.17465" lon="3.17171">
        <ele>278.48797607422</ele>
        <time>2016-02-15T09:10:52.000Z</time>
      </trkpt>
      <trkpt lat="47.17467" lon="3.17173">
        <ele>278.43496704102</ele>
        <time>2016-02-15T09:10:54.000Z</time>
      </trkpt>
      <trkpt lat="47.1747" lon="3.17176">
        <ele>278.37420654297</ele>
        <time>2016-02-15T09:10:56.000Z</time>
      </trkpt>
      <trkpt lat="47.17473" lon="3.17178">
        <ele>278.30249023438</ele>
        <time>2016-02-15T09:10:59.000Z</time>
      </trkpt>
      <trkpt lat="47.17477" lon="3.17182">
        <ele>278.20825195312</ele>
        <time>2016-02-15T09:11:02.000Z</time>
      </trkpt>
      <trkpt lat="47.17481" lon="3.17185">
        <ele>278.11383056641</ele>
        <time>2016-02-15T09:11:06.000Z</time>
      </trkpt>
      <trkpt lat="47.17483" lon="3.17187">
        <ele>278.01596069336</ele>
        <time>2016-02-15T09:11:07.000Z</time>
      </trkpt>
      <trkpt lat="47.17485" lon="3.1719">
        <ele>277.9140625</ele>
        <time>2016-02-15T09:11:10.000Z</time>
      </trkpt>
      <trkpt lat="47.17487" lon="3.17192">
        <ele>277.81298828125</ele>
        <time>2016-02-15T09:11:12.000Z</time>
      </trkpt>
      <trkpt lat="47.17488" lon="3.17194">
        <ele>277.72589111328</ele>
        <time>2016-02-15T09:11:14.000Z</time>
      </trkpt>
      <trkpt lat="47.17491" lon="3.17194">
        <ele>277.65264892578</ele>
        <time>2016-02-15T09:11:16.000Z</time>
      </trkpt>
      <trkpt lat="47.17495" lon="3.17191">
        <ele>277.59393310547</ele>
        <time>2016-02-15T09:11:19.000Z</time>
      </trkpt>
      <trkpt lat="47.17497" lon="3.17187">
        <ele>277.56414794922</ele>
        <time>2016-02-15T09:11:21.000Z</time>
      </trkpt>
      <trkpt lat="47.17498" lon="3.1718">
        <ele>277.57629394531</ele>
        <time>2016-02-15T09:11:25.000Z</time>
      </trkpt>
      <trkpt lat="47.175" lon="3.17175">
        <ele>277.625</ele>
        <time>2016-02-15T09:11:26.000Z</time>
      </trkpt>
      <trkpt lat="47.175" lon="3.17172">
        <ele>277.69708251953</ele>
        <time>2016-02-15T09:11:28.000Z</time>
      </trkpt>
      <trkpt lat="47.17501" lon="3.1717">
        <ele>277.78451538086</ele>
        <time>2016-02-15T09:11:30.000Z</time>
      </trkpt>
      <trkpt lat="47.17501" lon="3.17167">
        <ele>277.88397216797</ele>
        <time>2016-02-15T09:11:33.000Z</time>
      </trkpt>
      <trkpt lat="47.17502" lon="3.17163">
        <ele>277.96438598633</ele>
        <time>2016-02-15T09:11:35.000Z</time>
      </trkpt>
      <trkpt lat="47.17504" lon="3.17156">
        <ele>278.04092407227</ele>
        <time>2016-02-15T09:11:38.000Z</time>
      </trkpt>
      <trkpt lat="47.17505" lon="3.17151">
        <ele>278.12368774414</ele>
        <time>2016-02-15T09:11:40.000Z</time>
      </trkpt>
      <trkpt lat="47.17507" lon="3.17146">
        <ele>278.22064208984</ele>
        <time>2016-02-15T09:11:43.000Z</time>
      </trkpt>
      <trkpt lat="47.17508" lon="3.17144">
        <ele>278.30786132812</ele>
        <time>2016-02-15T09:11:45.000Z</time>
      </trkpt>
      <trkpt lat="47.17509" lon="3.17141">
        <ele>278.40020751953</ele>
        <time>2016-02-15T09:11:48.000Z</time>
      </trkpt>
      <trkpt lat="47.1751" lon="3.17138">
        <ele>278.48690795898</ele>
        <time>2016-02-15T09:11:51.000Z</time>
      </trkpt>
      <trkpt lat="47.17512" lon="3.17133">
        <ele>278.59164428711</ele>
        <time>2016-02-15T09:11:53.000Z</time>
      </trkpt>
      <trkpt lat="47.17514" lon="3.17129">
        <ele>278.69708251953</ele>
        <time>2016-02-15T09:11:55.000Z</time>
      </trkpt>
      <trkpt lat="47.17516" lon="3.17126">
        <ele>278.82485961914</ele>
        <time>2016-02-15T09:11:58.000Z</time>
      </trkpt>
      <trkpt lat="47.17517" lon="3.17122">
        <ele>278.96405029297</ele>
        <time>2016-02-15T09:12:00.000Z</time>
      </trkpt>
      <trkpt lat="47.1752" lon="3.17118">
        <ele>279.14178466797</ele>
        <time>2016-02-15T09:12:03.000Z</time>
      </trkpt>
      <trkpt lat="47.17524" lon="3.17113">
        <ele>279.34887695312</ele>
        <time>2016-02-15T09:12:06.000Z</time>
      </trkpt>
      <trkpt lat="47.17527" lon="3.17109">
        <ele>279.59930419922</ele>
        <time>2016-02-15T09:12:09.000Z</time>
      </trkpt>
      <trkpt lat="47.1753" lon="3.17106">
        <ele>279.86557006836</ele>
        <time>2016-02-15T09:12:11.000Z</time>
      </trkpt>
      <trkpt lat="47.17531" lon="3.17102">
        <ele>280.14776611328</ele>
        <time>2016-02-15T09:12:13.000Z</time>
      </trkpt>
      <trkpt lat="47.17534" lon="3.17097">
        <ele>280.44073486328</ele>
        <time>2016-02-15T09:12:16.000Z</time>
      </trkpt>
      <trkpt lat="47.17537" lon="3.17091">
        <ele>280.7385559082</ele>
        <time>2016-02-15T09:12:19.000Z</time>
      </trkpt>
      <trkpt lat="47.17538" lon="3.17088">
        <ele>281.00799560547</ele>
        <time>2016-02-15T09:12:21.000Z</time>
      </trkpt>
      <trkpt lat="47.17541" lon="3.17083">
        <ele>281.29595947266</ele>
        <time>2016-02-15T09:12:24.000Z</time>
      </trkpt>
      <trkpt lat="47.17542" lon="3.17077">
        <ele>281.59643554688</ele>
        <time>2016-02-15T09:12:27.000Z</time>
      </trkpt>
      <trkpt lat="47.17543" lon="3.17076">
        <ele>281.85433959961</ele>
        <time>2016-02-15T09:12:28.000Z</time>
      </trkpt>
      <trkpt lat="47.17545" lon="3.17072">
        <ele>282.08224487305</ele>
        <time>2016-02-15T09:12:31.000Z</time>
      </trkpt>
      <trkpt lat="47.17547" lon="3.1707">
        <ele>282.31311035156</ele>
        <time>2016-02-15T09:12:34.000Z</time>
      </trkpt>
      <trkpt lat="47.17548" lon="3.17064">
        <ele>282.51998901367</ele>
        <time>2016-02-15T09:12:37.000Z</time>
      </trkpt>
      <trkpt lat="47.17549" lon="3.17061">
        <ele>282.69729614258</ele>
        <time>2016-02-15T09:12:40.000Z</time>
      </trkpt>
      <trkpt lat="47.1755" lon="3.17057">
        <ele>282.8987121582</ele>
        <time>2016-02-15T09:12:42.000Z</time>
      </trkpt>
      <trkpt lat="47.17552" lon="3.17053">
        <ele>283.10079956055</ele>
        <time>2016-02-15T09:12:45.000Z</time>
      </trkpt>
      <trkpt lat="47.17554" lon="3.17048">
        <ele>283.30328369141</ele>
        <time>2016-02-15T09:12:48.000Z</time>
      </trkpt>
      <trkpt lat="47.17558" lon="3.1704">
        <ele>283.5524597168</ele>
        <time>2016-02-15T09:12:51.000Z</time>
      </trkpt>
      <trkpt lat="47.17561" lon="3.17034">
        <ele>283.85424804688</ele>
        <time>2016-02-15T09:12:54.000Z</time>
      </trkpt>
      <trkpt lat="47.17564" lon="3.17029">
        <ele>284.17666625977</ele>
        <time>2016-02-15T09:12:56.000Z</time>
      </trkpt>
      <trkpt lat="47.17566" lon="3.17025">
        <ele>284.51028442383</ele>
        <time>2016-02-15T09:12:58.000Z</time>
      </trkpt>
      <trkpt lat="47.17568" lon="3.17021">
        <ele>284.85125732422</ele>
        <time>2016-02-15T09:13:01.000Z</time>
      </trkpt>
      <trkpt lat="47.17571" lon="3.17017">
        <ele>285.15579223633</ele>
        <time>2016-02-15T09:13:04.000Z</time>
      </trkpt>
      <trkpt lat="47.17572" lon="3.17014">
        <ele>285.41293334961</ele>
        <time>2016-02-15T09:13:06.000Z</time>
      </trkpt>
      <trkpt lat="47.17573" lon="3.17012">
        <ele>285.63116455078</ele>
        <time>2016-02-15T09:13:09.000Z</time>
      </trkpt>
      <trkpt lat="47.17576" lon="3.17006">
        <ele>285.85223388672</ele>
        <time>2016-02-15T09:13:11.000Z</time>
      </trkpt>
      <trkpt lat="47.17575" lon="3.17001">
        <ele>286.02618408203</ele>
        <time>2016-02-15T09:13:14.000Z</time>
      </trkpt>
      <trkpt lat="47.17575" lon="3.16996">
        <ele>286.12396240234</ele>
        <time>2016-02-15T09:13:17.000Z</time>
      </trkpt>
      <trkpt lat="47.17575" lon="3.16992">
        <ele>286.18466186523</ele>
        <time>2016-02-15T09:13:19.000Z</time>
      </trkpt>
      <trkpt lat="47.17576" lon="3.1699">
        <ele>286.21752929688</ele>
        <time>2016-02-15T09:13:21.000Z</time>
      </trkpt>
      <trkpt lat="47.17577" lon="3.16987">
        <ele>286.20083618164</ele>
        <time>2016-02-15T09:13:23.000Z</time>
      </trkpt>
      <trkpt lat="47.17578" lon="3.16984">
        <ele>286.17669677734</ele>
        <time>2016-02-15T09:13:26.000Z</time>
      </trkpt>
      <trkpt lat="47.1758" lon="3.16979">
        <ele>286.19290161133</ele>
        <time>2016-02-15T09:13:30.000Z</time>
      </trkpt>
      <trkpt lat="47.17582" lon="3.16975">
        <ele>286.21728515625</ele>
        <time>2016-02-15T09:13:32.000Z</time>
      </trkpt>
      <trkpt lat="47.17584" lon="3.16967">
        <ele>286.23620605469</ele>
        <time>2016-02-15T09:13:35.000Z</time>
      </trkpt>
      <trkpt lat="47.17588" lon="3.16958">
        <ele>286.23873901367</ele>
        <time>2016-02-15T09:13:38.000Z</time>
      </trkpt>
      <trkpt lat="47.1759" lon="3.16956">
        <ele>286.2561340332</ele>
        <time>2016-02-15T09:13:41.000Z</time>
      </trkpt>
      <trkpt lat="47.17592" lon="3.16952">
        <ele>286.25390625</ele>
        <time>2016-02-15T09:13:44.000Z</time>
      </trkpt>
      <trkpt lat="47.17594" lon="3.16947">
        <ele>286.24978637695</ele>
        <time>2016-02-15T09:13:46.000Z</time>
      </trkpt>
      <trkpt lat="47.17594" lon="3.16942">
        <ele>286.23077392578</ele>
        <time>2016-02-15T09:13:49.000Z</time>
      </trkpt>
      <trkpt lat="47.17595" lon="3.16938">
        <ele>286.21737670898</ele>
        <time>2016-02-15T09:13:52.000Z</time>
      </trkpt>
      <trkpt lat="47.17596" lon="3.16936">
        <ele>286.19287109375</ele>
        <time>2016-02-15T09:13:55.000Z</time>
      </trkpt>
      <trkpt lat="47.17598" lon="3.1693">
        <ele>286.16186523438</ele>
        <time>2016-02-15T09:13:57.000Z</time>
      </trkpt>
      <trkpt lat="47.17601" lon="3.16925">
        <ele>286.14953613281</ele>
        <time>2016-02-15T09:14:00.000Z</time>
      </trkpt>
      <trkpt lat="47.17604" lon="3.16922">
        <ele>286.1848449707</ele>
        <time>2016-02-15T09:14:03.000Z</time>
      </trkpt>
      <trkpt lat="47.17606" lon="3.16918">
        <ele>286.23559570312</ele>
        <time>2016-02-15T09:14:06.000Z</time>
      </trkpt>
      <trkpt lat="47.17609" lon="3.16911">
        <ele>286.26232910156</ele>
        <time>2016-02-15T09:14:09.000Z</time>
      </trkpt>
      <trkpt lat="47.1761" lon="3.16908">
        <ele>286.28424072266</ele>
        <time>2016-02-15T09:14:12.000Z</time>
      </trkpt>
      <trkpt lat="47.17611" lon="3.16906">
        <ele>286.27737426758</ele>
        <time>2016-02-15T09:14:14.000Z</time>
      </trkpt>
      <trkpt lat="47.17611" lon="3.16901">
        <ele>286.20602416992</ele>
        <time>2016-02-15T09:14:16.000Z</time>
      </trkpt>
      <trkpt lat="47.17612" lon="3.16898">
        <ele>286.09796142578</ele>
        <time>2016-02-15T09:14:18.000Z</time>
      </trkpt>
      <trkpt lat="47.17614" lon="3.1689">
        <ele>285.96380615234</ele>
        <time>2016-02-15T09:14:20.000Z</time>
      </trkpt>
      <trkpt lat="47.17617" lon="3.16885">
        <ele>285.82135009766</ele>
        <time>2016-02-15T09:14:23.000Z</time>
      </trkpt>
      <trkpt lat="47.17619" lon="3.16882">
        <ele>285.66979980469</ele>
        <time>2016-02-15T09:14:26.000Z</time>
      </trkpt>
      <trkpt lat="47.17622" lon="3.16875">
        <ele>285.5065612793</ele>
        <time>2016-02-15T09:14:29.000Z</time>
      </trkpt>
      <trkpt lat="47.17622" lon="3.16871">
        <ele>285.33493041992</ele>
        <time>2016-02-15T09:14:31.000Z</time>
      </trkpt>
      <trkpt lat="47.17622" lon="3.16868">
        <ele>285.17739868164</ele>
        <time>2016-02-15T09:14:33.000Z</time>
      </trkpt>
      <trkpt lat="47.17622" lon="3.16864">
        <ele>284.99981689453</ele>
        <time>2016-02-15T09:14:36.000Z</time>
      </trkpt>
      <trkpt lat="47.17623" lon="3.16862">
        <ele>284.81869506836</ele>
        <time>2016-02-15T09:14:38.000Z</time>
      </trkpt>
      <trkpt lat="47.17626" lon="3.16856">
        <ele>284.63482666016</ele>
        <time>2016-02-15T09:14:41.000Z</time>
      </trkpt>
      <trkpt lat="47.17629" lon="3.16848">
        <ele>284.4052734375</ele>
        <time>2016-02-15T09:14:44.000Z</time>
      </trkpt>
      <trkpt lat="47.1763" lon="3.16845">
        <ele>284.17462158203</ele>
        <time>2016-02-15T09:14:46.000Z</time>
      </trkpt>
      <trkpt lat="47.17632" lon="3.1684">
        <ele>283.92684936523</ele>
        <time>2016-02-15T09:14:49.000Z</time>
      </trkpt>
      <trkpt lat="47.17634" lon="3.16837">
        <ele>283.67504882812</ele>
        <time>2016-02-15T09:14:51.000Z</time>
      </trkpt>
      <trkpt lat="47.17635" lon="3.16835">
        <ele>283.44439697266</ele>
        <time>2016-02-15T09:14:54.000Z</time>
      </trkpt>
      <trkpt lat="47.17636" lon="3.16831">
        <ele>283.26992797852</ele>
        <time>2016-02-15T09:14:56.000Z</time>
      </trkpt>
      <trkpt lat="47.17638" lon="3.16825">
        <ele>283.1159362793</ele>
        <time>2016-02-15T09:14:59.000Z</time>
      </trkpt>
      <trkpt lat="47.1764" lon="3.16822">
        <ele>283.01187133789</ele>
        <time>2016-02-15T09:15:01.000Z</time>
      </trkpt>
      <trkpt lat="47.17642" lon="3.16815">
        <ele>282.91961669922</ele>
        <time>2016-02-15T09:15:04.000Z</time>
      </trkpt>
      <trkpt lat="47.17644" lon="3.16809">
        <ele>282.84423828125</ele>
        <time>2016-02-15T09:15:06.000Z</time>
      </trkpt>
      <trkpt lat="47.17645" lon="3.16802">
        <ele>282.77484130859</ele>
        <time>2016-02-15T09:15:09.000Z</time>
      </trkpt>
      <trkpt lat="47.17647" lon="3.16798">
        <ele>282.70892333984</ele>
        <time>2016-02-15T09:15:12.000Z</time>
      </trkpt>
      <trkpt lat="47.17648" lon="3.16795">
        <ele>282.64312744141</ele>
        <time>2016-02-15T09:15:17.000Z</time>
      </trkpt>
      <trkpt lat="47.17651" lon="3.16786">
        <ele>282.57373046875</ele>
        <time>2016-02-15T09:15:23.000Z</time>
      </trkpt>
      <trkpt lat="47.17653" lon="3.16783">
        <ele>282.51260375977</ele>
        <time>2016-02-15T09:15:25.000Z</time>
      </trkpt>
      <trkpt lat="47.17654" lon="3.16782">
        <ele>282.46545410156</ele>
        <time>2016-02-15T09:15:27.000Z</time>
      </trkpt>
      <trkpt lat="47.17658" lon="3.16777">
        <ele>282.41552734375</ele>
        <time>2016-02-15T09:15:30.000Z</time>
      </trkpt>
      <trkpt lat="47.17659" lon="3.16774">
        <ele>282.36651611328</ele>
        <time>2016-02-15T09:15:32.000Z</time>
      </trkpt>
      <trkpt lat="47.17662" lon="3.16769">
        <ele>282.32476806641</ele>
        <time>2016-02-15T09:15:34.000Z</time>
      </trkpt>
      <trkpt lat="47.17664" lon="3.16764">
        <ele>282.27984619141</ele>
        <time>2016-02-15T09:15:37.000Z</time>
      </trkpt>
      <trkpt lat="47.17666" lon="3.16763">
        <ele>282.23266601562</ele>
        <time>2016-02-15T09:15:39.000Z</time>
      </trkpt>
      <trkpt lat="47.17668" lon="3.16759">
        <ele>282.20181274414</ele>
        <time>2016-02-15T09:15:42.000Z</time>
      </trkpt>
      <trkpt lat="47.17669" lon="3.16756">
        <ele>282.19464111328</ele>
        <time>2016-02-15T09:15:44.000Z</time>
      </trkpt>
      <trkpt lat="47.17671" lon="3.16751">
        <ele>282.21371459961</ele>
        <time>2016-02-15T09:15:47.000Z</time>
      </trkpt>
      <trkpt lat="47.17672" lon="3.16745">
        <ele>282.22521972656</ele>
        <time>2016-02-15T09:15:50.000Z</time>
      </trkpt>
      <trkpt lat="47.17672" lon="3.16741">
        <ele>282.23645019531</ele>
        <time>2016-02-15T09:15:52.000Z</time>
      </trkpt>
      <trkpt lat="47.17675" lon="3.16735">
        <ele>282.24407958984</ele>
        <time>2016-02-15T09:15:55.000Z</time>
      </trkpt>
      <trkpt lat="47.17676" lon="3.16732">
        <ele>282.23986816406</ele>
        <time>2016-02-15T09:15:58.000Z</time>
      </trkpt>
      <trkpt lat="47.17678" lon="3.16728">
        <ele>282.22900390625</ele>
        <time>2016-02-15T09:16:01.000Z</time>
      </trkpt>
      <trkpt lat="47.17679" lon="3.16726">
        <ele>282.23565673828</ele>
        <time>2016-02-15T09:16:03.000Z</time>
      </trkpt>
      <trkpt lat="47.17682" lon="3.1672">
        <ele>282.25189208984</ele>
        <time>2016-02-15T09:16:06.000Z</time>
      </trkpt>
      <trkpt lat="47.17683" lon="3.16717">
        <ele>282.26556396484</ele>
        <time>2016-02-15T09:16:09.000Z</time>
      </trkpt>
      <trkpt lat="47.17685" lon="3.16708">
        <ele>282.26000976562</ele>
        <time>2016-02-15T09:16:12.000Z</time>
      </trkpt>
      <trkpt lat="47.17686" lon="3.16705">
        <ele>282.24313354492</ele>
        <time>2016-02-15T09:16:14.000Z</time>
      </trkpt>
      <trkpt lat="47.17687" lon="3.16701">
        <ele>282.21905517578</ele>
        <time>2016-02-15T09:16:18.000Z</time>
      </trkpt>
      <trkpt lat="47.17688" lon="3.167">
        <ele>282.20025634766</ele>
        <time>2016-02-15T09:16:20.000Z</time>
      </trkpt>
      <trkpt lat="47.17691" lon="3.16692">
        <ele>282.17883300781</ele>
        <time>2016-02-15T09:16:23.000Z</time>
      </trkpt>
      <trkpt lat="47.17694" lon="3.16686">
        <ele>282.17346191406</ele>
        <time>2016-02-15T09:16:26.000Z</time>
      </trkpt>
      <trkpt lat="47.17696" lon="3.16682">
        <ele>282.18392944336</ele>
        <time>2016-02-15T09:16:29.000Z</time>
      </trkpt>
      <trkpt lat="47.17698" lon="3.1668">
        <ele>282.19711303711</ele>
        <time>2016-02-15T09:16:31.000Z</time>
      </trkpt>
      <trkpt lat="47.17698" lon="3.16676">
        <ele>282.18655395508</ele>
        <time>2016-02-15T09:16:33.000Z</time>
      </trkpt>
      <trkpt lat="47.17699" lon="3.16673">
        <ele>282.16979980469</ele>
        <time>2016-02-15T09:16:35.000Z</time>
      </trkpt>
      <trkpt lat="47.177" lon="3.16667">
        <ele>282.13659667969</ele>
        <time>2016-02-15T09:16:38.000Z</time>
      </trkpt>
      <trkpt lat="47.17701" lon="3.16662">
        <ele>282.08135986328</ele>
        <time>2016-02-15T09:16:40.000Z</time>
      </trkpt>
      <trkpt lat="47.17704" lon="3.16656">
        <ele>282.04272460938</ele>
        <time>2016-02-15T09:16:43.000Z</time>
      </trkpt>
      <trkpt lat="47.17706" lon="3.16653">
        <ele>282.04052734375</ele>
        <time>2016-02-15T09:16:45.000Z</time>
      </trkpt>
      <trkpt lat="47.17708" lon="3.16648">
        <ele>282.05645751953</ele>
        <time>2016-02-15T09:16:47.000Z</time>
      </trkpt>
      <trkpt lat="47.17709" lon="3.16646">
        <ele>282.08898925781</ele>
        <time>2016-02-15T09:16:50.000Z</time>
      </trkpt>
      <trkpt lat="47.17709" lon="3.16642">
        <ele>282.1164855957</ele>
        <time>2016-02-15T09:16:53.000Z</time>
      </trkpt>
      <trkpt lat="47.1771" lon="3.16637">
        <ele>282.12612915039</ele>
        <time>2016-02-15T09:16:55.000Z</time>
      </trkpt>
      <trkpt lat="47.17711" lon="3.16634">
        <ele>282.11206054688</ele>
        <time>2016-02-15T09:16:58.000Z</time>
      </trkpt>
      <trkpt lat="47.17713" lon="3.16629">
        <ele>282.09454345703</ele>
        <time>2016-02-15T09:17:00.000Z</time>
      </trkpt>
      <trkpt lat="47.17716" lon="3.1662">
        <ele>282.06893920898</ele>
        <time>2016-02-15T09:17:03.000Z</time>
      </trkpt>
      <trkpt lat="47.17718" lon="3.16616">
        <ele>282.06777954102</ele>
        <time>2016-02-15T09:17:05.000Z</time>
      </trkpt>
      <trkpt lat="47.1772" lon="3.1661">
        <ele>282.07327270508</ele>
        <time>2016-02-15T09:17:08.000Z</time>
      </trkpt>
      <trkpt lat="47.17722" lon="3.16605">
        <ele>282.07666015625</ele>
        <time>2016-02-15T09:17:10.000Z</time>
      </trkpt>
      <trkpt lat="47.17723" lon="3.16602">
        <ele>282.07510375977</ele>
        <time>2016-02-15T09:17:12.000Z</time>
      </trkpt>
      <trkpt lat="47.17725" lon="3.16597">
        <ele>282.08087158203</ele>
        <time>2016-02-15T09:17:15.000Z</time>
      </trkpt>
      <trkpt lat="47.17727" lon="3.1659">
        <ele>282.07171630859</ele>
        <time>2016-02-15T09:17:18.000Z</time>
      </trkpt>
      <trkpt lat="47.17727" lon="3.16588">
        <ele>282.05535888672</ele>
        <time>2016-02-15T09:17:23.000Z</time>
      </trkpt>
      <trkpt lat="47.17728" lon="3.16589">
        <ele>282.05230712891</ele>
        <time>2016-02-15T09:17:26.000Z</time>
      </trkpt>
      <trkpt lat="47.17729" lon="3.16583">
        <ele>282.03637695312</ele>
        <time>2016-02-15T09:17:29.000Z</time>
      </trkpt>
      <trkpt lat="47.17732" lon="3.16577">
        <ele>282.04315185547</ele>
        <time>2016-02-15T09:17:32.000Z</time>
      </trkpt>
      <trkpt lat="47.17733" lon="3.16573">
        <ele>282.06192016602</ele>
        <time>2016-02-15T09:17:34.000Z</time>
      </trkpt>
      <trkpt lat="47.17734" lon="3.16566">
        <ele>282.08023071289</ele>
        <time>2016-02-15T09:17:37.000Z</time>
      </trkpt>
      <trkpt lat="47.17735" lon="3.16562">
        <ele>282.08557128906</ele>
        <time>2016-02-15T09:17:40.000Z</time>
      </trkpt>
      <trkpt lat="47.17736" lon="3.16557">
        <ele>282.11071777344</ele>
        <time>2016-02-15T09:17:42.000Z</time>
      </trkpt>
      <trkpt lat="47.17738" lon="3.16552">
        <ele>282.12393188477</ele>
        <time>2016-02-15T09:17:45.000Z</time>
      </trkpt>
      <trkpt lat="47.17742" lon="3.16547">
        <ele>282.14743041992</ele>
        <time>2016-02-15T09:17:48.000Z</time>
      </trkpt>
      <trkpt lat="47.17744" lon="3.16541">
        <ele>282.18276977539</ele>
        <time>2016-02-15T09:17:51.000Z</time>
      </trkpt>
      <trkpt lat="47.17745" lon="3.16539">
        <ele>282.22344970703</ele>
        <time>2016-02-15T09:17:54.000Z</time>
      </trkpt>
      <trkpt lat="47.17747" lon="3.16535">
        <ele>282.26336669922</ele>
        <time>2016-02-15T09:17:56.000Z</time>
      </trkpt>
      <trkpt lat="47.17749" lon="3.16531">
        <ele>282.29925537109</ele>
        <time>2016-02-15T09:17:59.000Z</time>
      </trkpt>
      <trkpt lat="47.17751" lon="3.16528">
        <ele>282.32693481445</ele>
        <time>2016-02-15T09:18:02.000Z</time>
      </trkpt>
      <trkpt lat="47.17752" lon="3.16526">
        <ele>282.35317993164</ele>
        <time>2016-02-15T09:18:05.000Z</time>
      </trkpt>
      <trkpt lat="47.17752" lon="3.16521">
        <ele>282.37045288086</ele>
        <time>2016-02-15T09:18:08.000Z</time>
      </trkpt>
      <trkpt lat="47.17753" lon="3.16518">
        <ele>282.38006591797</ele>
        <time>2016-02-15T09:18:10.000Z</time>
      </trkpt>
      <trkpt lat="47.17754" lon="3.16514">
        <ele>282.38208007812</ele>
        <time>2016-02-15T09:18:13.000Z</time>
      </trkpt>
      <trkpt lat="47.17754" lon="3.16511">
        <ele>282.38012695312</ele>
        <time>2016-02-15T09:18:15.000Z</time>
      </trkpt>
      <trkpt lat="47.17755" lon="3.16508">
        <ele>282.37265014648</ele>
        <time>2016-02-15T09:18:18.000Z</time>
      </trkpt>
      <trkpt lat="47.17755" lon="3.16502">
        <ele>282.35821533203</ele>
        <time>2016-02-15T09:18:21.000Z</time>
      </trkpt>
      <trkpt lat="47.17756" lon="3.16497">
        <ele>282.34332275391</ele>
        <time>2016-02-15T09:18:24.000Z</time>
      </trkpt>
      <trkpt lat="47.1776" lon="3.16489">
        <ele>282.33734130859</ele>
        <time>2016-02-15T09:18:26.000Z</time>
      </trkpt>
      <trkpt lat="47.17764" lon="3.16478">
        <ele>282.34710693359</ele>
        <time>2016-02-15T09:18:29.000Z</time>
      </trkpt>
      <trkpt lat="47.17765" lon="3.16475">
        <ele>282.35858154297</ele>
        <time>2016-02-15T09:18:32.000Z</time>
      </trkpt>
      <trkpt lat="47.17767" lon="3.16473">
        <ele>282.40161132812</ele>
        <time>2016-02-15T09:18:35.000Z</time>
      </trkpt>
      <trkpt lat="47.17769" lon="3.16469">
        <ele>282.45538330078</ele>
        <time>2016-02-15T09:18:38.000Z</time>
      </trkpt>
      <trkpt lat="47.17768" lon="3.16466">
        <ele>282.48468017578</ele>
        <time>2016-02-15T09:18:40.000Z</time>
      </trkpt>
      <trkpt lat="47.17768" lon="3.16466">
        <ele>282.48468017578</ele>
        <time>2016-02-15T09:19:00.000Z</time>
      </trkpt>
      <trkpt lat="47.17765" lon="3.1646">
        <ele>282.42413330078</ele>
        <time>2016-02-15T09:19:17.000Z</time>
      </trkpt>
      <trkpt lat="47.17765" lon="3.16453">
        <ele>282.33792114258</ele>
        <time>2016-02-15T09:19:24.000Z</time>
      </trkpt>
      <trkpt lat="47.1777" lon="3.16444">
        <ele>282.2646484375</ele>
        <time>2016-02-15T09:19:27.000Z</time>
      </trkpt>
      <trkpt lat="47.17775" lon="3.16435">
        <ele>282.23004150391</ele>
        <time>2016-02-15T09:19:30.000Z</time>
      </trkpt>
      <trkpt lat="47.17776" lon="3.16433">
        <ele>282.23550415039</ele>
        <time>2016-02-15T09:19:32.000Z</time>
      </trkpt>
      <trkpt lat="47.1778" lon="3.16431">
        <ele>282.35083007812</ele>
        <time>2016-02-15T09:19:35.000Z</time>
      </trkpt>
      <trkpt lat="47.1778" lon="3.16432">
        <ele>282.50881958008</ele>
        <time>2016-02-15T09:19:37.000Z</time>
      </trkpt>
      <trkpt lat="47.17783" lon="3.16432">
        <ele>282.6796875</ele>
        <time>2016-02-15T09:19:40.000Z</time>
      </trkpt>
      <trkpt lat="47.17784" lon="3.16435">
        <ele>282.82525634766</ele>
        <time>2016-02-15T09:19:43.000Z</time>
      </trkpt>
      <trkpt lat="47.17788" lon="3.16432">
        <ele>282.99627685547</ele>
        <time>2016-02-15T09:19:46.000Z</time>
      </trkpt>
      <trkpt lat="47.17789" lon="3.1643">
        <ele>283.14361572266</ele>
        <time>2016-02-15T09:19:49.000Z</time>
      </trkpt>
      <trkpt lat="47.17794" lon="3.16422">
        <ele>283.33422851562</ele>
        <time>2016-02-15T09:19:52.000Z</time>
      </trkpt>
      <trkpt lat="47.17794" lon="3.16417">
        <ele>283.48245239258</ele>
        <time>2016-02-15T09:19:55.000Z</time>
      </trkpt>
      <trkpt lat="47.17796" lon="3.16413">
        <ele>283.61773681641</ele>
        <time>2016-02-15T09:19:58.000Z</time>
      </trkpt>
      <trkpt lat="47.17796" lon="3.16411">
        <ele>283.71389770508</ele>
        <time>2016-02-15T09:20:00.000Z</time>
      </trkpt>
      <trkpt lat="47.17797" lon="3.16408">
        <ele>283.80435180664</ele>
        <time>2016-02-15T09:20:02.000Z</time>
      </trkpt>
      <trkpt lat="47.17797" lon="3.16406">
        <ele>283.83142089844</ele>
        <time>2016-02-15T09:20:05.000Z</time>
      </trkpt>
      <trkpt lat="47.17797" lon="3.16401">
        <ele>283.84301757812</ele>
        <time>2016-02-15T09:20:07.000Z</time>
      </trkpt>
      <trkpt lat="47.17798" lon="3.16395">
        <ele>283.85882568359</ele>
        <time>2016-02-15T09:20:10.000Z</time>
      </trkpt>
      <trkpt lat="47.178" lon="3.16391">
        <ele>283.89086914062</ele>
        <time>2016-02-15T09:20:12.000Z</time>
      </trkpt>
      <trkpt lat="47.17802" lon="3.16389">
        <ele>283.93585205078</ele>
        <time>2016-02-15T09:20:15.000Z</time>
      </trkpt>
      <trkpt lat="47.17803" lon="3.16383">
        <ele>283.99566650391</ele>
        <time>2016-02-15T09:20:20.000Z</time>
      </trkpt>
      <trkpt lat="47.17805" lon="3.16377">
        <ele>284.09774780273</ele>
        <time>2016-02-15T09:20:22.000Z</time>
      </trkpt>
      <trkpt lat="47.17807" lon="3.16371">
        <ele>284.21008300781</ele>
        <time>2016-02-15T09:20:24.000Z</time>
      </trkpt>
      <trkpt lat="47.17808" lon="3.16369">
        <ele>284.30459594727</ele>
        <time>2016-02-15T09:20:27.000Z</time>
      </trkpt>
      <trkpt lat="47.1781" lon="3.16364">
        <ele>284.39886474609</ele>
        <time>2016-02-15T09:20:30.000Z</time>
      </trkpt>
      <trkpt lat="47.17813" lon="3.16359">
        <ele>284.52185058594</ele>
        <time>2016-02-15T09:20:33.000Z</time>
      </trkpt>
      <trkpt lat="47.17814" lon="3.16357">
        <ele>284.62612915039</ele>
        <time>2016-02-15T09:20:36.000Z</time>
      </trkpt>
      <trkpt lat="47.17818" lon="3.1635">
        <ele>284.74801635742</ele>
        <time>2016-02-15T09:20:39.000Z</time>
      </trkpt>
      <trkpt lat="47.17817" lon="3.16345">
        <ele>284.84564208984</ele>
        <time>2016-02-15T09:20:42.000Z</time>
      </trkpt>
      <trkpt lat="47.17819" lon="3.16341">
        <ele>284.93630981445</ele>
        <time>2016-02-15T09:20:45.000Z</time>
      </trkpt>
      <trkpt lat="47.17821" lon="3.16333">
        <ele>284.99545288086</ele>
        <time>2016-02-15T09:20:48.000Z</time>
      </trkpt>
      <trkpt lat="47.17823" lon="3.16329">
        <ele>285.07797241211</ele>
        <time>2016-02-15T09:20:51.000Z</time>
      </trkpt>
      <trkpt lat="47.17825" lon="3.16325">
        <ele>285.15753173828</ele>
        <time>2016-02-15T09:20:57.000Z</time>
      </trkpt>
      <trkpt lat="47.17826" lon="3.16316">
        <ele>285.26858520508</ele>
        <time>2016-02-15T09:21:00.000Z</time>
      </trkpt>
      <trkpt lat="47.17829" lon="3.16306">
        <ele>285.40502929688</ele>
        <time>2016-02-15T09:21:02.000Z</time>
      </trkpt>
      <trkpt lat="47.17832" lon="3.16302">
        <ele>285.56784057617</ele>
        <time>2016-02-15T09:21:05.000Z</time>
      </trkpt>
      <trkpt lat="47.17834" lon="3.16301">
        <ele>285.73306274414</ele>
        <time>2016-02-15T09:21:08.000Z</time>
      </trkpt>
      <trkpt lat="47.17838" lon="3.16299">
        <ele>285.90679931641</ele>
        <time>2016-02-15T09:21:11.000Z</time>
      </trkpt>
      <trkpt lat="47.17841" lon="3.16291">
        <ele>286.10693359375</ele>
        <time>2016-02-15T09:21:14.000Z</time>
      </trkpt>
      <trkpt lat="47.17841" lon="3.16288">
        <ele>286.26748657227</ele>
        <time>2016-02-15T09:21:16.000Z</time>
      </trkpt>
      <trkpt lat="47.17841" lon="3.16284">
        <ele>286.40692138672</ele>
        <time>2016-02-15T09:21:19.000Z</time>
      </trkpt>
      <trkpt lat="47.17844" lon="3.16278">
        <ele>286.55062866211</ele>
        <time>2016-02-15T09:21:21.000Z</time>
      </trkpt>
      <trkpt lat="47.17846" lon="3.16277">
        <ele>286.68023681641</ele>
        <time>2016-02-15T09:21:24.000Z</time>
      </trkpt>
      <trkpt lat="47.17847" lon="3.16273">
        <ele>286.78857421875</ele>
        <time>2016-02-15T09:21:27.000Z</time>
      </trkpt>
      <trkpt lat="47.17848" lon="3.16271">
        <ele>286.91607666016</ele>
        <time>2016-02-15T09:21:30.000Z</time>
      </trkpt>
      <trkpt lat="47.17849" lon="3.16269">
        <ele>287.04418945312</ele>
        <time>2016-02-15T09:21:33.000Z</time>
      </trkpt>
      <trkpt lat="47.17852" lon="3.16262">
        <ele>287.18447875977</ele>
        <time>2016-02-15T09:21:36.000Z</time>
      </trkpt>
      <trkpt lat="47.17854" lon="3.16254">
        <ele>287.34201049805</ele>
        <time>2016-02-15T09:21:39.000Z</time>
      </trkpt>
      <trkpt lat="47.17855" lon="3.16251">
        <ele>287.48941040039</ele>
        <time>2016-02-15T09:21:41.000Z</time>
      </trkpt>
      <trkpt lat="47.17857" lon="3.16246">
        <ele>287.71771240234</ele>
        <time>2016-02-15T09:21:45.000Z</time>
      </trkpt>
      <trkpt lat="47.17858" lon="3.16244">
        <ele>287.97186279297</ele>
        <time>2016-02-15T09:21:47.000Z</time>
      </trkpt>
      <trkpt lat="47.17859" lon="3.16242">
        <ele>288.23272705078</ele>
        <time>2016-02-15T09:21:49.000Z</time>
      </trkpt>
      <trkpt lat="47.1786" lon="3.16241">
        <ele>288.47164916992</ele>
        <time>2016-02-15T09:21:51.000Z</time>
      </trkpt>
      <trkpt lat="47.1786" lon="3.1624">
        <ele>288.73480224609</ele>
        <time>2016-02-15T09:21:54.000Z</time>
      </trkpt>
      <trkpt lat="47.17862" lon="3.16238">
        <ele>288.93853759766</ele>
        <time>2016-02-15T09:21:56.000Z</time>
      </trkpt>
      <trkpt lat="47.17863" lon="3.16232">
        <ele>289.21752929688</ele>
        <time>2016-02-15T09:21:59.000Z</time>
      </trkpt>
      <trkpt lat="47.17864" lon="3.16223">
        <ele>289.59805297852</ele>
        <time>2016-02-15T09:22:02.000Z</time>
      </trkpt>
      <trkpt lat="47.17865" lon="3.16221">
        <ele>289.99203491211</ele>
        <time>2016-02-15T09:22:05.000Z</time>
      </trkpt>
      <trkpt lat="47.17868" lon="3.16211">
        <ele>290.54656982422</ele>
        <time>2016-02-15T09:22:07.000Z</time>
      </trkpt>
      <trkpt lat="47.1787" lon="3.16204">
        <ele>291.177734375</ele>
        <time>2016-02-15T09:22:10.000Z</time>
      </trkpt>
      <trkpt lat="47.17871" lon="3.16203">
        <ele>291.73150634766</ele>
        <time>2016-02-15T09:22:12.000Z</time>
      </trkpt>
      <trkpt lat="47.17872" lon="3.16199">
        <ele>292.20199584961</ele>
        <time>2016-02-15T09:22:15.000Z</time>
      </trkpt>
      <trkpt lat="47.17873" lon="3.16197">
        <ele>292.65795898438</ele>
        <time>2016-02-15T09:22:18.000Z</time>
      </trkpt>
      <trkpt lat="47.17877" lon="3.16188">
        <ele>293.08978271484</ele>
        <time>2016-02-15T09:22:21.000Z</time>
      </trkpt>
      <trkpt lat="47.17879" lon="3.16185">
        <ele>293.46801757812</ele>
        <time>2016-02-15T09:22:23.000Z</time>
      </trkpt>
      <trkpt lat="47.1788" lon="3.1618">
        <ele>293.88116455078</ele>
        <time>2016-02-15T09:22:25.000Z</time>
      </trkpt>
      <trkpt lat="47.17881" lon="3.16177">
        <ele>294.27014160156</ele>
        <time>2016-02-15T09:22:28.000Z</time>
      </trkpt>
      <trkpt lat="47.17883" lon="3.1617">
        <ele>294.74691772461</ele>
        <time>2016-02-15T09:22:32.000Z</time>
      </trkpt>
      <trkpt lat="47.17885" lon="3.16168">
        <ele>295.08944702148</ele>
        <time>2016-02-15T09:22:38.000Z</time>
      </trkpt>
      <trkpt lat="47.17886" lon="3.1616">
        <ele>295.42633056641</ele>
        <time>2016-02-15T09:22:43.000Z</time>
      </trkpt>
      <trkpt lat="47.17886" lon="3.16158">
        <ele>295.69964599609</ele>
        <time>2016-02-15T09:22:45.000Z</time>
      </trkpt>
      <trkpt lat="47.17892" lon="3.16144">
        <ele>296.01654052734</ele>
        <time>2016-02-15T09:22:48.000Z</time>
      </trkpt>
      <trkpt lat="47.17894" lon="3.16138">
        <ele>296.25323486328</ele>
        <time>2016-02-15T09:22:54.000Z</time>
      </trkpt>
      <trkpt lat="47.17896" lon="3.16131">
        <ele>296.47817993164</ele>
        <time>2016-02-15T09:22:57.000Z</time>
      </trkpt>
      <trkpt lat="47.17899" lon="3.16127">
        <ele>296.66143798828</ele>
        <time>2016-02-15T09:22:59.000Z</time>
      </trkpt>
      <trkpt lat="47.17901" lon="3.16124">
        <ele>296.84271240234</ele>
        <time>2016-02-15T09:23:01.000Z</time>
      </trkpt>
      <trkpt lat="47.17901" lon="3.16122">
        <ele>296.93402099609</ele>
        <time>2016-02-15T09:23:04.000Z</time>
      </trkpt>
      <trkpt lat="47.17902" lon="3.16118">
        <ele>296.99951171875</ele>
        <time>2016-02-15T09:23:07.000Z</time>
      </trkpt>
      <trkpt lat="47.17904" lon="3.16116">
        <ele>297.04266357422</ele>
        <time>2016-02-15T09:23:09.000Z</time>
      </trkpt>
      <trkpt lat="47.17904" lon="3.16116">
        <ele>297.06674194336</ele>
        <time>2016-02-15T09:23:13.000Z</time>
      </trkpt>
      <trkpt lat="47.17905" lon="3.16114">
        <ele>297.08721923828</ele>
        <time>2016-02-15T09:23:15.000Z</time>
      </trkpt>
      <trkpt lat="47.17909" lon="3.16106">
        <ele>297.10391235352</ele>
        <time>2016-02-15T09:23:18.000Z</time>
      </trkpt>
      <trkpt lat="47.1791" lon="3.16103">
        <ele>297.11178588867</ele>
        <time>2016-02-15T09:23:20.000Z</time>
      </trkpt>
      <trkpt lat="47.17912" lon="3.161">
        <ele>297.11450195312</ele>
        <time>2016-02-15T09:23:22.000Z</time>
      </trkpt>
      <trkpt lat="47.17913" lon="3.16096">
        <ele>297.11636352539</ele>
        <time>2016-02-15T09:23:24.000Z</time>
      </trkpt>
      <trkpt lat="47.17914" lon="3.16089">
        <ele>297.11117553711</ele>
        <time>2016-02-15T09:23:27.000Z</time>
      </trkpt>
      <trkpt lat="47.17915" lon="3.16085">
        <ele>297.09970092773</ele>
        <time>2016-02-15T09:23:29.000Z</time>
      </trkpt>
      <trkpt lat="47.17916" lon="3.16079">
        <ele>297.07196044922</ele>
        <time>2016-02-15T09:23:32.000Z</time>
      </trkpt>
      <trkpt lat="47.17916" lon="3.16075">
        <ele>297.02822875977</ele>
        <time>2016-02-15T09:23:35.000Z</time>
      </trkpt>
      <trkpt lat="47.17918" lon="3.16072">
        <ele>296.97601318359</ele>
        <time>2016-02-15T09:23:37.000Z</time>
      </trkpt>
      <trkpt lat="47.17919" lon="3.16067">
        <ele>296.90899658203</ele>
        <time>2016-02-15T09:23:40.000Z</time>
      </trkpt>
      <trkpt lat="47.17919" lon="3.16064">
        <ele>296.83578491211</ele>
        <time>2016-02-15T09:23:43.000Z</time>
      </trkpt>
      <trkpt lat="47.1792" lon="3.16051">
        <ele>296.74755859375</ele>
        <time>2016-02-15T09:23:46.000Z</time>
      </trkpt>
      <trkpt lat="47.17921" lon="3.16047">
        <ele>296.66168212891</ele>
        <time>2016-02-15T09:23:48.000Z</time>
      </trkpt>
      <trkpt lat="47.17923" lon="3.16043">
        <ele>296.56744384766</ele>
        <time>2016-02-15T09:23:51.000Z</time>
      </trkpt>
      <trkpt lat="47.17924" lon="3.16041">
        <ele>296.48315429688</ele>
        <time>2016-02-15T09:23:53.000Z</time>
      </trkpt>
      <trkpt lat="47.17924" lon="3.16033">
        <ele>296.38647460938</ele>
        <time>2016-02-15T09:23:55.000Z</time>
      </trkpt>
      <trkpt lat="47.17928" lon="3.16028">
        <ele>296.29254150391</ele>
        <time>2016-02-15T09:23:58.000Z</time>
      </trkpt>
      <trkpt lat="47.17929" lon="3.16024">
        <ele>296.1962890625</ele>
        <time>2016-02-15T09:24:00.000Z</time>
      </trkpt>
      <trkpt lat="47.17932" lon="3.1602">
        <ele>296.09790039062</ele>
        <time>2016-02-15T09:24:03.000Z</time>
      </trkpt>
      <trkpt lat="47.17935" lon="3.1602">
        <ele>295.99127197266</ele>
        <time>2016-02-15T09:24:06.000Z</time>
      </trkpt>
      <trkpt lat="47.17936" lon="3.16019">
        <ele>295.90112304688</ele>
        <time>2016-02-15T09:24:10.000Z</time>
      </trkpt>
      <trkpt lat="47.17936" lon="3.16019">
        <ele>295.90112304688</ele>
        <time>2016-02-15T09:24:30.000Z</time>
      </trkpt>
      <trkpt lat="47.17941" lon="3.16031">
        <ele>295.84429931641</ele>
        <time>2016-02-15T09:24:48.000Z</time>
      </trkpt>
      <trkpt lat="47.17941" lon="3.16031">
        <ele>295.84429931641</ele>
        <time>2016-02-15T09:25:08.000Z</time>
      </trkpt>
      <trkpt lat="47.17941" lon="3.16025">
        <ele>295.78973388672</ele>
        <time>2016-02-15T09:25:29.000Z</time>
      </trkpt>
      <trkpt lat="47.17943" lon="3.16017">
        <ele>295.72940063477</ele>
        <time>2016-02-15T09:25:33.000Z</time>
      </trkpt>
      <trkpt lat="47.17945" lon="3.16007">
        <ele>295.65240478516</ele>
        <time>2016-02-15T09:25:36.000Z</time>
      </trkpt>
      <trkpt lat="47.17947" lon="3.15999">
        <ele>295.54995727539</ele>
        <time>2016-02-15T09:25:39.000Z</time>
      </trkpt>
      <trkpt lat="47.17949" lon="3.15998">
        <ele>295.43988037109</ele>
        <time>2016-02-15T09:25:41.000Z</time>
      </trkpt>
      <trkpt lat="47.17951" lon="3.15993">
        <ele>295.33123779297</ele>
        <time>2016-02-15T09:25:44.000Z</time>
      </trkpt>
      <trkpt lat="47.17953" lon="3.15987">
        <ele>295.24008178711</ele>
        <time>2016-02-15T09:25:47.000Z</time>
      </trkpt>
      <trkpt lat="47.17955" lon="3.15984">
        <ele>295.171875</ele>
        <time>2016-02-15T09:25:49.000Z</time>
      </trkpt>
      <trkpt lat="47.17958" lon="3.15979">
        <ele>295.119140625</ele>
        <time>2016-02-15T09:25:52.000Z</time>
      </trkpt>
      <trkpt lat="47.1796" lon="3.15974">
        <ele>295.064453125</ele>
        <time>2016-02-15T09:25:57.000Z</time>
      </trkpt>
      <trkpt lat="47.17962" lon="3.1597">
        <ele>295.01171875</ele>
        <time>2016-02-15T09:26:00.000Z</time>
      </trkpt>
      <trkpt lat="47.17964" lon="3.15969">
        <ele>294.9609375</ele>
        <time>2016-02-15T09:26:02.000Z</time>
      </trkpt>
      <trkpt lat="47.17966" lon="3.15967">
        <ele>294.908203125</ele>
        <time>2016-02-15T09:26:05.000Z</time>
      </trkpt>
      <trkpt lat="47.17969" lon="3.15961">
        <ele>294.857421875</ele>
        <time>2016-02-15T09:26:08.000Z</time>
      </trkpt>
      <trkpt lat="47.1797" lon="3.15954">
        <ele>294.80859375</ele>
        <time>2016-02-15T09:26:12.000Z</time>
      </trkpt>
      <trkpt lat="47.17972" lon="3.15949">
        <ele>294.76171875</ele>
        <time>2016-02-15T09:26:15.000Z</time>
      </trkpt>
      <trkpt lat="47.17973" lon="3.15947">
        <ele>294.71875</ele>
        <time>2016-02-15T09:26:17.000Z</time>
      </trkpt>
      <trkpt lat="47.17976" lon="3.15944">
        <ele>294.673828125</ele>
        <time>2016-02-15T09:26:20.000Z</time>
      </trkpt>
      <trkpt lat="47.17977" lon="3.15942">
        <ele>294.634765625</ele>
        <time>2016-02-15T09:26:22.000Z</time>
      </trkpt>
      <trkpt lat="47.1798" lon="3.15939">
        <ele>294.587890625</ele>
        <time>2016-02-15T09:26:25.000Z</time>
      </trkpt>
      <trkpt lat="47.17981" lon="3.15936">
        <ele>294.544921875</ele>
        <time>2016-02-15T09:26:27.000Z</time>
      </trkpt>
      <trkpt lat="47.17982" lon="3.15931">
        <ele>294.498046875</ele>
        <time>2016-02-15T09:26:30.000Z</time>
      </trkpt>
      <trkpt lat="47.17983" lon="3.15929">
        <ele>294.462890625</ele>
        <time>2016-02-15T09:26:33.000Z</time>
      </trkpt>
      <trkpt lat="47.17983" lon="3.15922">
        <ele>294.435546875</ele>
        <time>2016-02-15T09:26:37.000Z</time>
      </trkpt>
      <trkpt lat="47.17986" lon="3.15912">
        <ele>294.37014770508</ele>
        <time>2016-02-15T09:26:40.000Z</time>
      </trkpt>
      <trkpt lat="47.17987" lon="3.15909">
        <ele>294.27255249023</ele>
        <time>2016-02-15T09:26:42.000Z</time>
      </trkpt>
      <trkpt lat="47.17989" lon="3.15903">
        <ele>294.12359619141</ele>
        <time>2016-02-15T09:26:45.000Z</time>
      </trkpt>
      <trkpt lat="47.17991" lon="3.15897">
        <ele>293.90753173828</ele>
        <time>2016-02-15T09:26:47.000Z</time>
      </trkpt>
      <trkpt lat="47.17992" lon="3.15895">
        <ele>293.66519165039</ele>
        <time>2016-02-15T09:26:51.000Z</time>
      </trkpt>
      <trkpt lat="47.17994" lon="3.15889">
        <ele>293.40267944336</ele>
        <time>2016-02-15T09:26:53.000Z</time>
      </trkpt>
      <trkpt lat="47.17997" lon="3.15885">
        <ele>293.12942504883</ele>
        <time>2016-02-15T09:26:56.000Z</time>
      </trkpt>
      <trkpt lat="47.17998" lon="3.15883">
        <ele>292.88433837891</ele>
        <time>2016-02-15T09:26:58.000Z</time>
      </trkpt>
      <trkpt lat="47.17999" lon="3.15881">
        <ele>292.68560791016</ele>
        <time>2016-02-15T09:27:01.000Z</time>
      </trkpt>
      <trkpt lat="47.17999" lon="3.15878">
        <ele>292.48828125</ele>
        <time>2016-02-15T09:27:04.000Z</time>
      </trkpt>
      <trkpt lat="47.17998" lon="3.15876">
        <ele>292.34204101562</ele>
        <time>2016-02-15T09:27:06.000Z</time>
      </trkpt>
      <trkpt lat="47.17997" lon="3.15872">
        <ele>292.21395874023</ele>
        <time>2016-02-15T09:27:09.000Z</time>
      </trkpt>
      <trkpt lat="47.17996" lon="3.15869">
        <ele>292.09008789062</ele>
        <time>2016-02-15T09:27:12.000Z</time>
      </trkpt>
      <trkpt lat="47.17996" lon="3.15866">
        <ele>291.97113037109</ele>
        <time>2016-02-15T09:27:15.000Z</time>
      </trkpt>
      <trkpt lat="47.17996" lon="3.15864">
        <ele>291.85195922852</ele>
        <time>2016-02-15T09:27:17.000Z</time>
      </trkpt>
      <trkpt lat="47.17996" lon="3.15861">
        <ele>291.72207641602</ele>
        <time>2016-02-15T09:27:20.000Z</time>
      </trkpt>
      <trkpt lat="47.17996" lon="3.15856">
        <ele>291.5768737793</ele>
        <time>2016-02-15T09:27:23.000Z</time>
      </trkpt>
      <trkpt lat="47.17997" lon="3.15851">
        <ele>291.40374755859</ele>
        <time>2016-02-15T09:27:26.000Z</time>
      </trkpt>
      <trkpt lat="47.17998" lon="3.15846">
        <ele>291.19769287109</ele>
        <time>2016-02-15T09:27:29.000Z</time>
      </trkpt>
      <trkpt lat="47.18" lon="3.15844">
        <ele>290.98013305664</ele>
        <time>2016-02-15T09:27:31.000Z</time>
      </trkpt>
      <trkpt lat="47.18" lon="3.15843">
        <ele>290.77767944336</ele>
        <time>2016-02-15T09:27:34.000Z</time>
      </trkpt>
      <trkpt lat="47.18002" lon="3.15835">
        <ele>290.51751708984</ele>
        <time>2016-02-15T09:27:37.000Z</time>
      </trkpt>
      <trkpt lat="47.18005" lon="3.15827">
        <ele>290.22189331055</ele>
        <time>2016-02-15T09:27:43.000Z</time>
      </trkpt>
      <trkpt lat="47.18008" lon="3.15821">
        <ele>289.89801025391</ele>
        <time>2016-02-15T09:27:45.000Z</time>
      </trkpt>
      <trkpt lat="47.1801" lon="3.15817">
        <ele>289.56768798828</ele>
        <time>2016-02-15T09:27:48.000Z</time>
      </trkpt>
      <trkpt lat="47.18011" lon="3.15813">
        <ele>289.20880126953</ele>
        <time>2016-02-15T09:27:51.000Z</time>
      </trkpt>
      <trkpt lat="47.18012" lon="3.1581">
        <ele>288.92034912109</ele>
        <time>2016-02-15T09:27:53.000Z</time>
      </trkpt>
      <trkpt lat="47.18013" lon="3.15807">
        <ele>288.693359375</ele>
        <time>2016-02-15T09:27:55.000Z</time>
      </trkpt>
      <trkpt lat="47.18013" lon="3.15803">
        <ele>288.52410888672</ele>
        <time>2016-02-15T09:27:58.000Z</time>
      </trkpt>
      <trkpt lat="47.18013" lon="3.15798">
        <ele>288.36480712891</ele>
        <time>2016-02-15T09:28:00.000Z</time>
      </trkpt>
      <trkpt lat="47.18015" lon="3.15793">
        <ele>288.20367431641</ele>
        <time>2016-02-15T09:28:03.000Z</time>
      </trkpt>
      <trkpt lat="47.18018" lon="3.15789">
        <ele>288.01568603516</ele>
        <time>2016-02-15T09:28:06.000Z</time>
      </trkpt>
      <trkpt lat="47.1802" lon="3.15789">
        <ele>287.83367919922</ele>
        <time>2016-02-15T09:28:17.000Z</time>
      </trkpt>
      <trkpt lat="47.18024" lon="3.1579">
        <ele>287.64892578125</ele>
        <time>2016-02-15T09:28:20.000Z</time>
      </trkpt>
      <trkpt lat="47.18028" lon="3.15792">
        <ele>287.46704101562</ele>
        <time>2016-02-15T09:28:22.000Z</time>
      </trkpt>
      <trkpt lat="47.18029" lon="3.15794">
        <ele>287.32824707031</ele>
        <time>2016-02-15T09:28:25.000Z</time>
      </trkpt>
      <trkpt lat="47.1803" lon="3.15796">
        <ele>287.25296020508</ele>
        <time>2016-02-15T09:28:27.000Z</time>
      </trkpt>
      <trkpt lat="47.18031" lon="3.15799">
        <ele>287.20910644531</ele>
        <time>2016-02-15T09:28:32.000Z</time>
      </trkpt>
      <trkpt lat="47.18033" lon="3.15804">
        <ele>287.19253540039</ele>
        <time>2016-02-15T09:28:35.000Z</time>
      </trkpt>
      <trkpt lat="47.18035" lon="3.15806">
        <ele>287.19830322266</ele>
        <time>2016-02-15T09:28:37.000Z</time>
      </trkpt>
      <trkpt lat="47.18037" lon="3.15809">
        <ele>287.19964599609</ele>
        <time>2016-02-15T09:28:39.000Z</time>
      </trkpt>
      <trkpt lat="47.18039" lon="3.15813">
        <ele>287.19314575195</ele>
        <time>2016-02-15T09:28:42.000Z</time>
      </trkpt>
      <trkpt lat="47.18044" lon="3.15818">
        <ele>287.14312744141</ele>
        <time>2016-02-15T09:28:45.000Z</time>
      </trkpt>
      <trkpt lat="47.18048" lon="3.15822">
        <ele>287.06463623047</ele>
        <time>2016-02-15T09:28:48.000Z</time>
      </trkpt>
      <trkpt lat="47.18052" lon="3.15828">
        <ele>286.97711181641</ele>
        <time>2016-02-15T09:28:51.000Z</time>
      </trkpt>
      <trkpt lat="47.18053" lon="3.15829">
        <ele>286.88439941406</ele>
        <time>2016-02-15T09:28:53.000Z</time>
      </trkpt>
      <trkpt lat="47.18055" lon="3.15829">
        <ele>286.77520751953</ele>
        <time>2016-02-15T09:28:56.000Z</time>
      </trkpt>
      <trkpt lat="47.1806" lon="3.15833">
        <ele>286.66586303711</ele>
        <time>2016-02-15T09:28:58.000Z</time>
      </trkpt>
      <trkpt lat="47.18062" lon="3.15838">
        <ele>286.59786987305</ele>
        <time>2016-02-15T09:29:01.000Z</time>
      </trkpt>
      <trkpt lat="47.18064" lon="3.15842">
        <ele>286.55551147461</ele>
        <time>2016-02-15T09:29:04.000Z</time>
      </trkpt>
      <trkpt lat="47.18065" lon="3.15844">
        <ele>286.53952026367</ele>
        <time>2016-02-15T09:29:06.000Z</time>
      </trkpt>
      <trkpt lat="47.18066" lon="3.15847">
        <ele>286.55514526367</ele>
        <time>2016-02-15T09:29:09.000Z</time>
      </trkpt>
      <trkpt lat="47.18068" lon="3.15848">
        <ele>286.59106445312</ele>
        <time>2016-02-15T09:29:12.000Z</time>
      </trkpt>
      <trkpt lat="47.18071" lon="3.15852">
        <ele>286.6240234375</ele>
        <time>2016-02-15T09:29:14.000Z</time>
      </trkpt>
      <trkpt lat="47.18073" lon="3.15855">
        <ele>286.64575195312</ele>
        <time>2016-02-15T09:29:17.000Z</time>
      </trkpt>
      <trkpt lat="47.18076" lon="3.15857">
        <ele>286.64282226562</ele>
        <time>2016-02-15T09:29:20.000Z</time>
      </trkpt>
      <trkpt lat="47.18078" lon="3.1586">
        <ele>286.62890625</ele>
        <time>2016-02-15T09:29:23.000Z</time>
      </trkpt>
      <trkpt lat="47.1808" lon="3.15862">
        <ele>286.61596679688</ele>
        <time>2016-02-15T09:29:26.000Z</time>
      </trkpt>
      <trkpt lat="47.18083" lon="3.15863">
        <ele>286.57177734375</ele>
        <time>2016-02-15T09:29:32.000Z</time>
      </trkpt>
      <trkpt lat="47.18085" lon="3.15864">
        <ele>286.51327514648</ele>
        <time>2016-02-15T09:29:32.000Z</time>
      </trkpt>
      <trkpt lat="47.18086" lon="3.15864">
        <ele>286.45770263672</ele>
        <time>2016-02-15T09:29:34.000Z</time>
      </trkpt>
      <trkpt lat="47.18092" lon="3.15865">
        <ele>286.37399291992</ele>
        <time>2016-02-15T09:29:37.000Z</time>
      </trkpt>
      <trkpt lat="47.18096" lon="3.15868">
        <ele>286.29583740234</ele>
        <time>2016-02-15T09:29:40.000Z</time>
      </trkpt>
      <trkpt lat="47.181" lon="3.1587">
        <ele>286.21893310547</ele>
        <time>2016-02-15T09:29:43.000Z</time>
      </trkpt>
      <trkpt lat="47.18104" lon="3.15875">
        <ele>286.1728515625</ele>
        <time>2016-02-15T09:29:46.000Z</time>
      </trkpt>
      <trkpt lat="47.18109" lon="3.1588">
        <ele>286.13726806641</ele>
        <time>2016-02-15T09:29:49.000Z</time>
      </trkpt>
      <trkpt lat="47.18112" lon="3.15884">
        <ele>286.14108276367</ele>
        <time>2016-02-15T09:29:55.000Z</time>
      </trkpt>
      <trkpt lat="47.18113" lon="3.15886">
        <ele>286.15374755859</ele>
        <time>2016-02-15T09:30:03.000Z</time>
      </trkpt>
      <trkpt lat="47.18115" lon="3.15887">
        <ele>286.17904663086</ele>
        <time>2016-02-15T09:30:05.000Z</time>
      </trkpt>
      <trkpt lat="47.18116" lon="3.15888">
        <ele>286.18481445312</ele>
        <time>2016-02-15T09:30:10.000Z</time>
      </trkpt>
      <trkpt lat="47.18118" lon="3.15889">
        <ele>286.18511962891</ele>
        <time>2016-02-15T09:30:12.000Z</time>
      </trkpt>
      <trkpt lat="47.18129" lon="3.15897">
        <ele>286.13568115234</ele>
        <time>2016-02-15T09:30:15.000Z</time>
      </trkpt>
      <trkpt lat="47.18133" lon="3.15902">
        <ele>286.10040283203</ele>
        <time>2016-02-15T09:30:18.000Z</time>
      </trkpt>
      <trkpt lat="47.18137" lon="3.15906">
        <ele>286.06259155273</ele>
        <time>2016-02-15T09:30:23.000Z</time>
      </trkpt>
      <trkpt lat="47.18142" lon="3.1591">
        <ele>286.01400756836</ele>
        <time>2016-02-15T09:30:26.000Z</time>
      </trkpt>
      <trkpt lat="47.18144" lon="3.15911">
        <ele>285.9616394043</ele>
        <time>2016-02-15T09:30:29.000Z</time>
      </trkpt>
      <trkpt lat="47.18147" lon="3.15914">
        <ele>285.93975830078</ele>
        <time>2016-02-15T09:30:31.000Z</time>
      </trkpt>
      <trkpt lat="47.18153" lon="3.15918">
        <ele>285.87075805664</ele>
        <time>2016-02-15T09:30:34.000Z</time>
      </trkpt>
      <trkpt lat="47.18156" lon="3.15921">
        <ele>285.78646850586</ele>
        <time>2016-02-15T09:30:37.000Z</time>
      </trkpt>
      <trkpt lat="47.18158" lon="3.15922">
        <ele>285.70596313477</ele>
        <time>2016-02-15T09:30:40.000Z</time>
      </trkpt>
      <trkpt lat="47.1816" lon="3.15926">
        <ele>285.61221313477</ele>
        <time>2016-02-15T09:30:43.000Z</time>
      </trkpt>
      <trkpt lat="47.18163" lon="3.1593">
        <ele>285.51699829102</ele>
        <time>2016-02-15T09:30:45.000Z</time>
      </trkpt>
      <trkpt lat="47.18164" lon="3.15933">
        <ele>285.44525146484</ele>
        <time>2016-02-15T09:30:48.000Z</time>
      </trkpt>
      <trkpt lat="47.18167" lon="3.15937">
        <ele>285.37512207031</ele>
        <time>2016-02-15T09:30:51.000Z</time>
      </trkpt>
      <trkpt lat="47.1817" lon="3.15939">
        <ele>285.31097412109</ele>
        <time>2016-02-15T09:30:53.000Z</time>
      </trkpt>
      <trkpt lat="47.18173" lon="3.15941">
        <ele>285.25430297852</ele>
        <time>2016-02-15T09:30:56.000Z</time>
      </trkpt>
      <trkpt lat="47.18174" lon="3.15943">
        <ele>285.20635986328</ele>
        <time>2016-02-15T09:30:58.000Z</time>
      </trkpt>
      <trkpt lat="47.18176" lon="3.15944">
        <ele>285.16448974609</ele>
        <time>2016-02-15T09:31:01.000Z</time>
      </trkpt>
      <trkpt lat="47.18178" lon="3.15949">
        <ele>285.14096069336</ele>
        <time>2016-02-15T09:31:04.000Z</time>
      </trkpt>
      <trkpt lat="47.18182" lon="3.15953">
        <ele>285.11767578125</ele>
        <time>2016-02-15T09:31:07.000Z</time>
      </trkpt>
      <trkpt lat="47.18184" lon="3.15956">
        <ele>285.10125732422</ele>
        <time>2016-02-15T09:31:09.000Z</time>
      </trkpt>
      <trkpt lat="47.18186" lon="3.15959">
        <ele>285.08312988281</ele>
        <time>2016-02-15T09:31:11.000Z</time>
      </trkpt>
      <trkpt lat="47.18189" lon="3.15962">
        <ele>285.05966186523</ele>
        <time>2016-02-15T09:31:14.000Z</time>
      </trkpt>
      <trkpt lat="47.18192" lon="3.15964">
        <ele>285.03100585938</ele>
        <time>2016-02-15T09:31:18.000Z</time>
      </trkpt>
      <trkpt lat="47.18195" lon="3.15967">
        <ele>284.99731445312</ele>
        <time>2016-02-15T09:31:21.000Z</time>
      </trkpt>
      <trkpt lat="47.18199" lon="3.15968">
        <ele>284.95550537109</ele>
        <time>2016-02-15T09:31:23.000Z</time>
      </trkpt>
      <trkpt lat="47.18202" lon="3.15969">
        <ele>284.90325927734</ele>
        <time>2016-02-15T09:31:26.000Z</time>
      </trkpt>
      <trkpt lat="47.18203" lon="3.15969">
        <ele>284.85162353516</ele>
        <time>2016-02-15T09:31:28.000Z</time>
      </trkpt>
      <trkpt lat="47.18206" lon="3.15972">
        <ele>284.80035400391</ele>
        <time>2016-02-15T09:31:31.000Z</time>
      </trkpt>
      <trkpt lat="47.18209" lon="3.15973">
        <ele>284.75033569336</ele>
        <time>2016-02-15T09:31:33.000Z</time>
      </trkpt>
      <trkpt lat="47.18212" lon="3.15974">
        <ele>284.70001220703</ele>
        <time>2016-02-15T09:31:36.000Z</time>
      </trkpt>
      <trkpt lat="47.18217" lon="3.15976">
        <ele>284.64190673828</ele>
        <time>2016-02-15T09:31:39.000Z</time>
      </trkpt>
      <trkpt lat="47.18221" lon="3.15978">
        <ele>284.57995605469</ele>
        <time>2016-02-15T09:31:42.000Z</time>
      </trkpt>
      <trkpt lat="47.18222" lon="3.15979">
        <ele>284.521484375</ele>
        <time>2016-02-15T09:31:44.000Z</time>
      </trkpt>
      <trkpt lat="47.18226" lon="3.15983">
        <ele>284.46478271484</ele>
        <time>2016-02-15T09:31:47.000Z</time>
      </trkpt>
      <trkpt lat="47.18228" lon="3.15986">
        <ele>284.41488647461</ele>
        <time>2016-02-15T09:31:50.000Z</time>
      </trkpt>
      <trkpt lat="47.18232" lon="3.15989">
        <ele>284.37573242188</ele>
        <time>2016-02-15T09:31:53.000Z</time>
      </trkpt>
      <trkpt lat="47.18235" lon="3.15991">
        <ele>284.33764648438</ele>
        <time>2016-02-15T09:31:56.000Z</time>
      </trkpt>
      <trkpt lat="47.1824" lon="3.15996">
        <ele>284.28875732422</ele>
        <time>2016-02-15T09:31:59.000Z</time>
      </trkpt>
      <trkpt lat="47.18242" lon="3.15998">
        <ele>284.24737548828</ele>
        <time>2016-02-15T09:32:01.000Z</time>
      </trkpt>
      <trkpt lat="47.18246" lon="3.16002">
        <ele>284.20208740234</ele>
        <time>2016-02-15T09:32:04.000Z</time>
      </trkpt>
      <trkpt lat="47.18248" lon="3.16004">
        <ele>284.15985107422</ele>
        <time>2016-02-15T09:32:06.000Z</time>
      </trkpt>
      <trkpt lat="47.18251" lon="3.16005">
        <ele>284.12109375</ele>
        <time>2016-02-15T09:32:08.000Z</time>
      </trkpt>
      <trkpt lat="47.18256" lon="3.16008">
        <ele>284.09185791016</ele>
        <time>2016-02-15T09:32:11.000Z</time>
      </trkpt>
      <trkpt lat="47.18258" lon="3.16009">
        <ele>284.06024169922</ele>
        <time>2016-02-15T09:32:13.000Z</time>
      </trkpt>
      <trkpt lat="47.1826" lon="3.1601">
        <ele>284.03506469727</ele>
        <time>2016-02-15T09:32:15.000Z</time>
      </trkpt>
      <trkpt lat="47.18263" lon="3.16011">
        <ele>284.01336669922</ele>
        <time>2016-02-15T09:32:18.000Z</time>
      </trkpt>
      <trkpt lat="47.18266" lon="3.16011">
        <ele>283.99291992188</ele>
        <time>2016-02-15T09:32:20.000Z</time>
      </trkpt>
      <trkpt lat="47.18269" lon="3.16013">
        <ele>283.97241210938</ele>
        <time>2016-02-15T09:32:23.000Z</time>
      </trkpt>
      <trkpt lat="47.18271" lon="3.16014">
        <ele>283.95422363281</ele>
        <time>2016-02-15T09:32:25.000Z</time>
      </trkpt>
      <trkpt lat="47.18273" lon="3.16015">
        <ele>283.93734741211</ele>
        <time>2016-02-15T09:32:28.000Z</time>
      </trkpt>
      <trkpt lat="47.18274" lon="3.16017">
        <ele>283.92388916016</ele>
        <time>2016-02-15T09:32:30.000Z</time>
      </trkpt>
      <trkpt lat="47.18276" lon="3.16018">
        <ele>283.91497802734</ele>
        <time>2016-02-15T09:32:33.000Z</time>
      </trkpt>
      <trkpt lat="47.18277" lon="3.16019">
        <ele>283.91119384766</ele>
        <time>2016-02-15T09:32:35.000Z</time>
      </trkpt>
      <trkpt lat="47.18279" lon="3.16021">
        <ele>283.90991210938</ele>
        <time>2016-02-15T09:32:37.000Z</time>
      </trkpt>
      <trkpt lat="47.18281" lon="3.16025">
        <ele>283.91186523438</ele>
        <time>2016-02-15T09:32:40.000Z</time>
      </trkpt>
      <trkpt lat="47.18284" lon="3.16028">
        <ele>283.91567993164</ele>
        <time>2016-02-15T09:32:43.000Z</time>
      </trkpt>
      <trkpt lat="47.18286" lon="3.16029">
        <ele>283.91937255859</ele>
        <time>2016-02-15T09:32:45.000Z</time>
      </trkpt>
      <trkpt lat="47.18288" lon="3.16032">
        <ele>283.92218017578</ele>
        <time>2016-02-15T09:32:47.000Z</time>
      </trkpt>
      <trkpt lat="47.1829" lon="3.16034">
        <ele>283.92510986328</ele>
        <time>2016-02-15T09:32:49.000Z</time>
      </trkpt>
      <trkpt lat="47.18292" lon="3.16037">
        <ele>283.92828369141</ele>
        <time>2016-02-15T09:32:51.000Z</time>
      </trkpt>
      <trkpt lat="47.18295" lon="3.16039">
        <ele>283.92858886719</ele>
        <time>2016-02-15T09:32:54.000Z</time>
      </trkpt>
      <trkpt lat="47.18298" lon="3.16041">
        <ele>283.92810058594</ele>
        <time>2016-02-15T09:32:57.000Z</time>
      </trkpt>
      <trkpt lat="47.183" lon="3.16044">
        <ele>283.92852783203</ele>
        <time>2016-02-15T09:32:59.000Z</time>
      </trkpt>
      <trkpt lat="47.18303" lon="3.16046">
        <ele>283.92541503906</ele>
        <time>2016-02-15T09:33:02.000Z</time>
      </trkpt>
      <trkpt lat="47.18305" lon="3.16047">
        <ele>283.91900634766</ele>
        <time>2016-02-15T09:33:04.000Z</time>
      </trkpt>
      <trkpt lat="47.18307" lon="3.16051">
        <ele>283.91851806641</ele>
        <time>2016-02-15T09:33:07.000Z</time>
      </trkpt>
      <trkpt lat="47.18309" lon="3.16052">
        <ele>283.91845703125</ele>
        <time>2016-02-15T09:33:09.000Z</time>
      </trkpt>
      <trkpt lat="47.18311" lon="3.16053">
        <ele>283.91650390625</ele>
        <time>2016-02-15T09:33:11.000Z</time>
      </trkpt>
      <trkpt lat="47.18313" lon="3.16056">
        <ele>283.91497802734</ele>
        <time>2016-02-15T09:33:14.000Z</time>
      </trkpt>
      <trkpt lat="47.18316" lon="3.16058">
        <ele>283.91448974609</ele>
        <time>2016-02-15T09:33:16.000Z</time>
      </trkpt>
      <trkpt lat="47.1832" lon="3.16062">
        <ele>283.91180419922</ele>
        <time>2016-02-15T09:33:19.000Z</time>
      </trkpt>
      <trkpt lat="47.18324" lon="3.16067">
        <ele>283.91021728516</ele>
        <time>2016-02-15T09:33:22.000Z</time>
      </trkpt>
      <trkpt lat="47.18326" lon="3.1607">
        <ele>283.91247558594</ele>
        <time>2016-02-15T09:33:24.000Z</time>
      </trkpt>
      <trkpt lat="47.18328" lon="3.16072">
        <ele>283.91870117188</ele>
        <time>2016-02-15T09:33:26.000Z</time>
      </trkpt>
      <trkpt lat="47.1833" lon="3.16077">
        <ele>283.9296875</ele>
        <time>2016-02-15T09:33:29.000Z</time>
      </trkpt>
      <trkpt lat="47.18332" lon="3.16079">
        <ele>283.94091796875</ele>
        <time>2016-02-15T09:33:31.000Z</time>
      </trkpt>
      <trkpt lat="47.18335" lon="3.16081">
        <ele>283.9416809082</ele>
        <time>2016-02-15T09:33:34.000Z</time>
      </trkpt>
      <trkpt lat="47.18339" lon="3.16085">
        <ele>283.90896606445</ele>
        <time>2016-02-15T09:33:37.000Z</time>
      </trkpt>
      <trkpt lat="47.18341" lon="3.16088">
        <ele>283.82992553711</ele>
        <time>2016-02-15T09:33:40.000Z</time>
      </trkpt>
      <trkpt lat="47.18342" lon="3.1609">
        <ele>283.72372436523</ele>
        <time>2016-02-15T09:33:42.000Z</time>
      </trkpt>
      <trkpt lat="47.18345" lon="3.16092">
        <ele>283.58154296875</ele>
        <time>2016-02-15T09:33:45.000Z</time>
      </trkpt>
      <trkpt lat="47.18348" lon="3.16092">
        <ele>283.43011474609</ele>
        <time>2016-02-15T09:33:48.000Z</time>
      </trkpt>
      <trkpt lat="47.18351" lon="3.16093">
        <ele>283.27954101562</ele>
        <time>2016-02-15T09:33:51.000Z</time>
      </trkpt>
      <trkpt lat="47.18354" lon="3.16095">
        <ele>283.13381958008</ele>
        <time>2016-02-15T09:33:54.000Z</time>
      </trkpt>
      <trkpt lat="47.18356" lon="3.16096">
        <ele>282.98477172852</ele>
        <time>2016-02-15T09:33:57.000Z</time>
      </trkpt>
      <trkpt lat="47.18358" lon="3.16098">
        <ele>282.83959960938</ele>
        <time>2016-02-15T09:33:59.000Z</time>
      </trkpt>
      <trkpt lat="47.18362" lon="3.16101">
        <ele>282.65832519531</ele>
        <time>2016-02-15T09:34:02.000Z</time>
      </trkpt>
      <trkpt lat="47.18365" lon="3.16102">
        <ele>282.47906494141</ele>
        <time>2016-02-15T09:34:04.000Z</time>
      </trkpt>
      <trkpt lat="47.18369" lon="3.16105">
        <ele>282.28778076172</ele>
        <time>2016-02-15T09:34:07.000Z</time>
      </trkpt>
      <trkpt lat="47.18371" lon="3.16106">
        <ele>282.08703613281</ele>
        <time>2016-02-15T09:34:09.000Z</time>
      </trkpt>
      <trkpt lat="47.18374" lon="3.1611">
        <ele>281.86434936523</ele>
        <time>2016-02-15T09:34:12.000Z</time>
      </trkpt>
      <trkpt lat="47.18377" lon="3.16112">
        <ele>281.66342163086</ele>
        <time>2016-02-15T09:34:14.000Z</time>
      </trkpt>
      <trkpt lat="47.18378" lon="3.16113">
        <ele>281.46295166016</ele>
        <time>2016-02-15T09:34:16.000Z</time>
      </trkpt>
      <trkpt lat="47.1838" lon="3.16115">
        <ele>281.28393554688</ele>
        <time>2016-02-15T09:34:18.000Z</time>
      </trkpt>
      <trkpt lat="47.18383" lon="3.16117">
        <ele>281.09716796875</ele>
        <time>2016-02-15T09:34:21.000Z</time>
      </trkpt>
      <trkpt lat="47.18386" lon="3.16122">
        <ele>280.89678955078</ele>
        <time>2016-02-15T09:34:24.000Z</time>
      </trkpt>
      <trkpt lat="47.18387" lon="3.16125">
        <ele>280.69653320312</ele>
        <time>2016-02-15T09:34:26.000Z</time>
      </trkpt>
      <trkpt lat="47.18388" lon="3.1613">
        <ele>280.46966552734</ele>
        <time>2016-02-15T09:34:29.000Z</time>
      </trkpt>
      <trkpt lat="47.18389" lon="3.16134">
        <ele>280.22866821289</ele>
        <time>2016-02-15T09:34:31.000Z</time>
      </trkpt>
      <trkpt lat="47.1839" lon="3.16138">
        <ele>279.98956298828</ele>
        <time>2016-02-15T09:34:34.000Z</time>
      </trkpt>
      <trkpt lat="47.18391" lon="3.16139">
        <ele>279.7932434082</ele>
        <time>2016-02-15T09:34:36.000Z</time>
      </trkpt>
      <trkpt lat="47.18396" lon="3.1614">
        <ele>279.58633422852</ele>
        <time>2016-02-15T09:34:39.000Z</time>
      </trkpt>
      <trkpt lat="47.18399" lon="3.1614">
        <ele>279.39907836914</ele>
        <time>2016-02-15T09:34:41.000Z</time>
      </trkpt>
      <trkpt lat="47.18402" lon="3.1614">
        <ele>279.22955322266</ele>
        <time>2016-02-15T09:34:44.000Z</time>
      </trkpt>
      <trkpt lat="47.18403" lon="3.16138">
        <ele>279.10797119141</ele>
        <time>2016-02-15T09:34:46.000Z</time>
      </trkpt>
      <trkpt lat="47.18405" lon="3.16138">
        <ele>279.00323486328</ele>
        <time>2016-02-15T09:34:48.000Z</time>
      </trkpt>
      <trkpt lat="47.18409" lon="3.1614">
        <ele>278.88323974609</ele>
        <time>2016-02-15T09:34:51.000Z</time>
      </trkpt>
      <trkpt lat="47.18411" lon="3.16144">
        <ele>278.73736572266</ele>
        <time>2016-02-15T09:34:54.000Z</time>
      </trkpt>
      <trkpt lat="47.18414" lon="3.16148">
        <ele>278.56307983398</ele>
        <time>2016-02-15T09:34:57.000Z</time>
      </trkpt>
      <trkpt lat="47.18415" lon="3.16149">
        <ele>278.36001586914</ele>
        <time>2016-02-15T09:34:59.000Z</time>
      </trkpt>
      <trkpt lat="47.18418" lon="3.16153">
        <ele>278.111328125</ele>
        <time>2016-02-15T09:35:02.000Z</time>
      </trkpt>
      <trkpt lat="47.18422" lon="3.16155">
        <ele>277.90362548828</ele>
        <time>2016-02-15T09:35:04.000Z</time>
      </trkpt>
      <trkpt lat="47.18423" lon="3.16156">
        <ele>277.7463684082</ele>
        <time>2016-02-15T09:35:06.000Z</time>
      </trkpt>
      <trkpt lat="47.18429" lon="3.1616">
        <ele>277.60025024414</ele>
        <time>2016-02-15T09:35:09.000Z</time>
      </trkpt>
      <trkpt lat="47.1843" lon="3.16161">
        <ele>277.46655273438</ele>
        <time>2016-02-15T09:35:11.000Z</time>
      </trkpt>
      <trkpt lat="47.18434" lon="3.16165">
        <ele>277.34497070312</ele>
        <time>2016-02-15T09:35:14.000Z</time>
      </trkpt>
      <trkpt lat="47.18435" lon="3.16167">
        <ele>277.22314453125</ele>
        <time>2016-02-15T09:35:17.000Z</time>
      </trkpt>
      <trkpt lat="47.18438" lon="3.1617">
        <ele>277.08584594727</ele>
        <time>2016-02-15T09:35:20.000Z</time>
      </trkpt>
      <trkpt lat="47.18441" lon="3.16172">
        <ele>276.95892333984</ele>
        <time>2016-02-15T09:35:22.000Z</time>
      </trkpt>
      <trkpt lat="47.18444" lon="3.16175">
        <ele>276.80938720703</ele>
        <time>2016-02-15T09:35:25.000Z</time>
      </trkpt>
      <trkpt lat="47.18448" lon="3.16179">
        <ele>276.65032958984</ele>
        <time>2016-02-15T09:35:28.000Z</time>
      </trkpt>
      <trkpt lat="47.18451" lon="3.1618">
        <ele>276.48864746094</ele>
        <time>2016-02-15T09:35:30.000Z</time>
      </trkpt>
      <trkpt lat="47.18453" lon="3.16182">
        <ele>276.32235717773</ele>
        <time>2016-02-15T09:35:32.000Z</time>
      </trkpt>
      <trkpt lat="47.18455" lon="3.16184">
        <ele>276.16290283203</ele>
        <time>2016-02-15T09:35:34.000Z</time>
      </trkpt>
      <trkpt lat="47.18459" lon="3.16187">
        <ele>275.98822021484</ele>
        <time>2016-02-15T09:35:37.000Z</time>
      </trkpt>
      <trkpt lat="47.18461" lon="3.16189">
        <ele>275.83782958984</ele>
        <time>2016-02-15T09:35:39.000Z</time>
      </trkpt>
      <trkpt lat="47.18465" lon="3.16193">
        <ele>275.64068603516</ele>
        <time>2016-02-15T09:35:42.000Z</time>
      </trkpt>
      <trkpt lat="47.1847" lon="3.16198">
        <ele>275.39605712891</ele>
        <time>2016-02-15T09:35:46.000Z</time>
      </trkpt>
      <trkpt lat="47.18475" lon="3.162">
        <ele>275.12744140625</ele>
        <time>2016-02-15T09:35:49.000Z</time>
      </trkpt>
      <trkpt lat="47.1848" lon="3.16203">
        <ele>274.8544921875</ele>
        <time>2016-02-15T09:35:52.000Z</time>
      </trkpt>
      <trkpt lat="47.18482" lon="3.16205">
        <ele>274.57299804688</ele>
        <time>2016-02-15T09:35:54.000Z</time>
      </trkpt>
      <trkpt lat="47.18482" lon="3.16207">
        <ele>274.32135009766</ele>
        <time>2016-02-15T09:35:57.000Z</time>
      </trkpt>
      <trkpt lat="47.18486" lon="3.16211">
        <ele>274.07879638672</ele>
        <time>2016-02-15T09:36:00.000Z</time>
      </trkpt>
      <trkpt lat="47.18489" lon="3.16214">
        <ele>273.82879638672</ele>
        <time>2016-02-15T09:36:03.000Z</time>
      </trkpt>
      <trkpt lat="47.18493" lon="3.16216">
        <ele>273.58303833008</ele>
        <time>2016-02-15T09:36:06.000Z</time>
      </trkpt>
      <trkpt lat="47.18494" lon="3.16217">
        <ele>273.33407592773</ele>
        <time>2016-02-15T09:36:09.000Z</time>
      </trkpt>
      <trkpt lat="47.18496" lon="3.16218">
        <ele>273.10015869141</ele>
        <time>2016-02-15T09:36:11.000Z</time>
      </trkpt>
      <trkpt lat="47.18498" lon="3.1622">
        <ele>272.90460205078</ele>
        <time>2016-02-15T09:36:13.000Z</time>
      </trkpt>
      <trkpt lat="47.18501" lon="3.16222">
        <ele>272.72430419922</ele>
        <time>2016-02-15T09:36:16.000Z</time>
      </trkpt>
      <trkpt lat="47.18503" lon="3.16223">
        <ele>272.5849609375</ele>
        <time>2016-02-15T09:36:18.000Z</time>
      </trkpt>
      <trkpt lat="47.18507" lon="3.16223">
        <ele>272.51065063477</ele>
        <time>2016-02-15T09:36:20.000Z</time>
      </trkpt>
      <trkpt lat="47.1851" lon="3.16223">
        <ele>272.46832275391</ele>
        <time>2016-02-15T09:36:23.000Z</time>
      </trkpt>
      <trkpt lat="47.18514" lon="3.16225">
        <ele>272.45617675781</ele>
        <time>2016-02-15T09:36:26.000Z</time>
      </trkpt>
      <trkpt lat="47.18517" lon="3.16226">
        <ele>272.48040771484</ele>
        <time>2016-02-15T09:36:29.000Z</time>
      </trkpt>
      <trkpt lat="47.18521" lon="3.16228">
        <ele>272.50625610352</ele>
        <time>2016-02-15T09:36:32.000Z</time>
      </trkpt>
      <trkpt lat="47.18524" lon="3.16229">
        <ele>272.50546264648</ele>
        <time>2016-02-15T09:36:35.000Z</time>
      </trkpt>
      <trkpt lat="47.18527" lon="3.16231">
        <ele>272.48852539062</ele>
        <time>2016-02-15T09:36:38.000Z</time>
      </trkpt>
      <trkpt lat="47.18531" lon="3.16235">
        <ele>272.43365478516</ele>
        <time>2016-02-15T09:36:41.000Z</time>
      </trkpt>
      <trkpt lat="47.18533" lon="3.16239">
        <ele>272.33563232422</ele>
        <time>2016-02-15T09:36:43.000Z</time>
      </trkpt>
      <trkpt lat="47.18534" lon="3.16244">
        <ele>272.17694091797</ele>
        <time>2016-02-15T09:36:46.000Z</time>
      </trkpt>
      <trkpt lat="47.18538" lon="3.16249">
        <ele>271.97003173828</ele>
        <time>2016-02-15T09:36:49.000Z</time>
      </trkpt>
      <trkpt lat="47.18541" lon="3.16253">
        <ele>271.76235961914</ele>
        <time>2016-02-15T09:36:52.000Z</time>
      </trkpt>
      <trkpt lat="47.18543" lon="3.16255">
        <ele>271.60382080078</ele>
        <time>2016-02-15T09:36:54.000Z</time>
      </trkpt>
      <trkpt lat="47.18546" lon="3.16258">
        <ele>271.49926757812</ele>
        <time>2016-02-15T09:36:57.000Z</time>
      </trkpt>
      <trkpt lat="47.18549" lon="3.16262">
        <ele>271.46624755859</ele>
        <time>2016-02-15T09:37:00.000Z</time>
      </trkpt>
      <trkpt lat="47.18551" lon="3.16264">
        <ele>271.48956298828</ele>
        <time>2016-02-15T09:37:02.000Z</time>
      </trkpt>
      <trkpt lat="47.18554" lon="3.16264">
        <ele>271.53961181641</ele>
        <time>2016-02-15T09:37:05.000Z</time>
      </trkpt>
      <trkpt lat="47.18557" lon="3.16265">
        <ele>271.59710693359</ele>
        <time>2016-02-15T09:37:08.000Z</time>
      </trkpt>
      <trkpt lat="47.18561" lon="3.16266">
        <ele>271.67071533203</ele>
        <time>2016-02-15T09:37:11.000Z</time>
      </trkpt>
      <trkpt lat="47.18564" lon="3.16268">
        <ele>271.75045776367</ele>
        <time>2016-02-15T09:37:14.000Z</time>
      </trkpt>
      <trkpt lat="47.18566" lon="3.1627">
        <ele>271.82702636719</ele>
        <time>2016-02-15T09:37:16.000Z</time>
      </trkpt>
      <trkpt lat="47.18568" lon="3.16272">
        <ele>271.89123535156</ele>
        <time>2016-02-15T09:37:18.000Z</time>
      </trkpt>
      <trkpt lat="47.18571" lon="3.16274">
        <ele>271.94412231445</ele>
        <time>2016-02-15T09:37:21.000Z</time>
      </trkpt>
      <trkpt lat="47.18574" lon="3.16276">
        <ele>271.98550415039</ele>
        <time>2016-02-15T09:37:24.000Z</time>
      </trkpt>
      <trkpt lat="47.18575" lon="3.16277">
        <ele>272.01995849609</ele>
        <time>2016-02-15T09:37:26.000Z</time>
      </trkpt>
      <trkpt lat="47.18579" lon="3.1628">
        <ele>272.06265258789</ele>
        <time>2016-02-15T09:37:29.000Z</time>
      </trkpt>
      <trkpt lat="47.18583" lon="3.16283">
        <ele>272.10571289062</ele>
        <time>2016-02-15T09:37:31.000Z</time>
      </trkpt>
      <trkpt lat="47.18586" lon="3.16287">
        <ele>272.12896728516</ele>
        <time>2016-02-15T09:37:34.000Z</time>
      </trkpt>
      <trkpt lat="47.18587" lon="3.16289">
        <ele>272.13299560547</ele>
        <time>2016-02-15T09:37:36.000Z</time>
      </trkpt>
      <trkpt lat="47.18589" lon="3.16292">
        <ele>272.12103271484</ele>
        <time>2016-02-15T09:37:38.000Z</time>
      </trkpt>
      <trkpt lat="47.18592" lon="3.16295">
        <ele>272.0791015625</ele>
        <time>2016-02-15T09:37:41.000Z</time>
      </trkpt>
      <trkpt lat="47.18596" lon="3.16297">
        <ele>272.02426147461</ele>
        <time>2016-02-15T09:37:44.000Z</time>
      </trkpt>
      <trkpt lat="47.18599" lon="3.16299">
        <ele>271.97399902344</ele>
        <time>2016-02-15T09:37:47.000Z</time>
      </trkpt>
      <trkpt lat="47.186" lon="3.16299">
        <ele>271.93151855469</ele>
        <time>2016-02-15T09:37:50.000Z</time>
      </trkpt>
      <trkpt lat="47.18603" lon="3.16301">
        <ele>271.89141845703</ele>
        <time>2016-02-15T09:37:53.000Z</time>
      </trkpt>
      <trkpt lat="47.18605" lon="3.16303">
        <ele>271.84860229492</ele>
        <time>2016-02-15T09:37:56.000Z</time>
      </trkpt>
      <trkpt lat="47.18608" lon="3.16306">
        <ele>271.79693603516</ele>
        <time>2016-02-15T09:37:58.000Z</time>
      </trkpt>
      <trkpt lat="47.18612" lon="3.16308">
        <ele>271.73553466797</ele>
        <time>2016-02-15T09:38:00.000Z</time>
      </trkpt>
      <trkpt lat="47.18617" lon="3.16312">
        <ele>271.64828491211</ele>
        <time>2016-02-15T09:38:03.000Z</time>
      </trkpt>
      <trkpt lat="47.1862" lon="3.16314">
        <ele>271.55187988281</ele>
        <time>2016-02-15T09:38:05.000Z</time>
      </trkpt>
      <trkpt lat="47.18622" lon="3.16317">
        <ele>271.44567871094</ele>
        <time>2016-02-15T09:38:07.000Z</time>
      </trkpt>
      <trkpt lat="47.18623" lon="3.16319">
        <ele>271.33563232422</ele>
        <time>2016-02-15T09:38:10.000Z</time>
      </trkpt>
      <trkpt lat="47.18626" lon="3.1632">
        <ele>271.23178100586</ele>
        <time>2016-02-15T09:38:12.000Z</time>
      </trkpt>
      <trkpt lat="47.18629" lon="3.16323">
        <ele>271.12213134766</ele>
        <time>2016-02-15T09:38:15.000Z</time>
      </trkpt>
      <trkpt lat="47.18632" lon="3.16326">
        <ele>271.00341796875</ele>
        <time>2016-02-15T09:38:18.000Z</time>
      </trkpt>
      <trkpt lat="47.18634" lon="3.16328">
        <ele>270.888671875</ele>
        <time>2016-02-15T09:38:20.000Z</time>
      </trkpt>
      <trkpt lat="47.18634" lon="3.1633">
        <ele>270.77325439453</ele>
        <time>2016-02-15T09:38:22.000Z</time>
      </trkpt>
      <trkpt lat="47.18636" lon="3.16333">
        <ele>270.63696289062</ele>
        <time>2016-02-15T09:38:25.000Z</time>
      </trkpt>
      <trkpt lat="47.18641" lon="3.16339">
        <ele>270.50277709961</ele>
        <time>2016-02-15T09:38:29.000Z</time>
      </trkpt>
      <trkpt lat="47.18645" lon="3.16343">
        <ele>270.37579345703</ele>
        <time>2016-02-15T09:38:31.000Z</time>
      </trkpt>
      <trkpt lat="47.18646" lon="3.16344">
        <ele>270.26596069336</ele>
        <time>2016-02-15T09:38:34.000Z</time>
      </trkpt>
      <trkpt lat="47.18647" lon="3.16346">
        <ele>270.16876220703</ele>
        <time>2016-02-15T09:38:37.000Z</time>
      </trkpt>
      <trkpt lat="47.18649" lon="3.16347">
        <ele>270.09664916992</ele>
        <time>2016-02-15T09:38:42.000Z</time>
      </trkpt>
      <trkpt lat="47.18651" lon="3.16349">
        <ele>270.04803466797</ele>
        <time>2016-02-15T09:38:45.000Z</time>
      </trkpt>
      <trkpt lat="47.18652" lon="3.16349">
        <ele>270.01544189453</ele>
        <time>2016-02-15T09:38:52.000Z</time>
      </trkpt>
      <trkpt lat="47.18653" lon="3.16349">
        <ele>269.98687744141</ele>
        <time>2016-02-15T09:38:55.000Z</time>
      </trkpt>
      <trkpt lat="47.18656" lon="3.16349">
        <ele>269.96047973633</ele>
        <time>2016-02-15T09:38:58.000Z</time>
      </trkpt>
      <trkpt lat="47.18657" lon="3.16349">
        <ele>269.9384765625</ele>
        <time>2016-02-15T09:39:00.000Z</time>
      </trkpt>
      <trkpt lat="47.18659" lon="3.1635">
        <ele>269.91705322266</ele>
        <time>2016-02-15T09:39:03.000Z</time>
      </trkpt>
      <trkpt lat="47.18661" lon="3.16352">
        <ele>269.89288330078</ele>
        <time>2016-02-15T09:39:05.000Z</time>
      </trkpt>
      <trkpt lat="47.18662" lon="3.16354">
        <ele>269.86248779297</ele>
        <time>2016-02-15T09:39:07.000Z</time>
      </trkpt>
      <trkpt lat="47.18664" lon="3.16356">
        <ele>269.83032226562</ele>
        <time>2016-02-15T09:39:09.000Z</time>
      </trkpt>
      <trkpt lat="47.18666" lon="3.16358">
        <ele>269.79016113281</ele>
        <time>2016-02-15T09:39:12.000Z</time>
      </trkpt>
      <trkpt lat="47.1867" lon="3.16361">
        <ele>269.74481201172</ele>
        <time>2016-02-15T09:39:15.000Z</time>
      </trkpt>
      <trkpt lat="47.18673" lon="3.16363">
        <ele>269.69696044922</ele>
        <time>2016-02-15T09:39:18.000Z</time>
      </trkpt>
      <trkpt lat="47.18676" lon="3.16366">
        <ele>269.64730834961</ele>
        <time>2016-02-15T09:39:21.000Z</time>
      </trkpt>
      <trkpt lat="47.18677" lon="3.16369">
        <ele>269.59686279297</ele>
        <time>2016-02-15T09:39:23.000Z</time>
      </trkpt>
      <trkpt lat="47.18678" lon="3.1637">
        <ele>269.55303955078</ele>
        <time>2016-02-15T09:39:29.000Z</time>
      </trkpt>
      <trkpt lat="47.18681" lon="3.16376">
        <ele>269.505859375</ele>
        <time>2016-02-15T09:39:32.000Z</time>
      </trkpt>
      <trkpt lat="47.18684" lon="3.1638">
        <ele>269.45751953125</ele>
        <time>2016-02-15T09:39:35.000Z</time>
      </trkpt>
      <trkpt lat="47.1869" lon="3.16383">
        <ele>269.40628051758</ele>
        <time>2016-02-15T09:39:37.000Z</time>
      </trkpt>
      <trkpt lat="47.18691" lon="3.16385">
        <ele>269.35943603516</ele>
        <time>2016-02-15T09:39:40.000Z</time>
      </trkpt>
      <trkpt lat="47.18693" lon="3.16386">
        <ele>269.31262207031</ele>
        <time>2016-02-15T09:39:42.000Z</time>
      </trkpt>
      <trkpt lat="47.18695" lon="3.16391">
        <ele>269.27185058594</ele>
        <time>2016-02-15T09:39:45.000Z</time>
      </trkpt>
      <trkpt lat="47.18697" lon="3.16391">
        <ele>269.24032592773</ele>
        <time>2016-02-15T09:39:48.000Z</time>
      </trkpt>
      <trkpt lat="47.187" lon="3.16392">
        <ele>269.21868896484</ele>
        <time>2016-02-15T09:39:50.000Z</time>
      </trkpt>
      <trkpt lat="47.18703" lon="3.16392">
        <ele>269.19708251953</ele>
        <time>2016-02-15T09:39:52.000Z</time>
      </trkpt>
      <trkpt lat="47.18707" lon="3.16393">
        <ele>269.17666625977</ele>
        <time>2016-02-15T09:39:54.000Z</time>
      </trkpt>
      <trkpt lat="47.18714" lon="3.16396">
        <ele>269.15802001953</ele>
        <time>2016-02-15T09:39:57.000Z</time>
      </trkpt>
      <trkpt lat="47.18716" lon="3.16398">
        <ele>269.13702392578</ele>
        <time>2016-02-15T09:39:59.000Z</time>
      </trkpt>
      <trkpt lat="47.18719" lon="3.16399">
        <ele>269.1171875</ele>
        <time>2016-02-15T09:40:02.000Z</time>
      </trkpt>
      <trkpt lat="47.1872" lon="3.16399">
        <ele>269.10003662109</ele>
        <time>2016-02-15T09:40:05.000Z</time>
      </trkpt>
      <trkpt lat="47.18722" lon="3.164">
        <ele>269.08432006836</ele>
        <time>2016-02-15T09:40:07.000Z</time>
      </trkpt>
      <trkpt lat="47.18723" lon="3.16402">
        <ele>269.07434082031</ele>
        <time>2016-02-15T09:40:10.000Z</time>
      </trkpt>
      <trkpt lat="47.18726" lon="3.16406">
        <ele>269.06362915039</ele>
        <time>2016-02-15T09:40:13.000Z</time>
      </trkpt>
      <trkpt lat="47.18729" lon="3.16408">
        <ele>269.05264282227</ele>
        <time>2016-02-15T09:40:15.000Z</time>
      </trkpt>
      <trkpt lat="47.18732" lon="3.16409">
        <ele>269.04150390625</ele>
        <time>2016-02-15T09:40:18.000Z</time>
      </trkpt>
      <trkpt lat="47.18735" lon="3.1641">
        <ele>269.03073120117</ele>
        <time>2016-02-15T09:40:21.000Z</time>
      </trkpt>
      <trkpt lat="47.18738" lon="3.16414">
        <ele>269.02041625977</ele>
        <time>2016-02-15T09:40:24.000Z</time>
      </trkpt>
      <trkpt lat="47.18741" lon="3.16415">
        <ele>269.01373291016</ele>
        <time>2016-02-15T09:40:26.000Z</time>
      </trkpt>
      <trkpt lat="47.18744" lon="3.16417">
        <ele>269.01116943359</ele>
        <time>2016-02-15T09:40:29.000Z</time>
      </trkpt>
      <trkpt lat="47.18746" lon="3.1642">
        <ele>269.02304077148</ele>
        <time>2016-02-15T09:40:31.000Z</time>
      </trkpt>
      <trkpt lat="47.18748" lon="3.16422">
        <ele>269.04623413086</ele>
        <time>2016-02-15T09:40:33.000Z</time>
      </trkpt>
      <trkpt lat="47.18751" lon="3.16425">
        <ele>269.08819580078</ele>
        <time>2016-02-15T09:40:36.000Z</time>
      </trkpt>
      <trkpt lat="47.18753" lon="3.16426">
        <ele>269.13619995117</ele>
        <time>2016-02-15T09:40:39.000Z</time>
      </trkpt>
      <trkpt lat="47.18759" lon="3.16426">
        <ele>269.18316650391</ele>
        <time>2016-02-15T09:40:42.000Z</time>
      </trkpt>
      <trkpt lat="47.18764" lon="3.16429">
        <ele>269.24243164062</ele>
        <time>2016-02-15T09:40:45.000Z</time>
      </trkpt>
      <trkpt lat="47.18767" lon="3.16433">
        <ele>269.32046508789</ele>
        <time>2016-02-15T09:40:48.000Z</time>
      </trkpt>
      <trkpt lat="47.18769" lon="3.16435">
        <ele>269.39715576172</ele>
        <time>2016-02-15T09:40:50.000Z</time>
      </trkpt>
      <trkpt lat="47.18772" lon="3.16437">
        <ele>269.4850769043</ele>
        <time>2016-02-15T09:40:53.000Z</time>
      </trkpt>
      <trkpt lat="47.18774" lon="3.16438">
        <ele>269.58636474609</ele>
        <time>2016-02-15T09:40:55.000Z</time>
      </trkpt>
      <trkpt lat="47.18776" lon="3.16441">
        <ele>269.68063354492</ele>
        <time>2016-02-15T09:40:58.000Z</time>
      </trkpt>
      <trkpt lat="47.18777" lon="3.16442">
        <ele>269.75726318359</ele>
        <time>2016-02-15T09:41:00.000Z</time>
      </trkpt>
      <trkpt lat="47.18778" lon="3.16444">
        <ele>269.83294677734</ele>
        <time>2016-02-15T09:41:02.000Z</time>
      </trkpt>
      <trkpt lat="47.18779" lon="3.16446">
        <ele>269.90902709961</ele>
        <time>2016-02-15T09:41:04.000Z</time>
      </trkpt>
      <trkpt lat="47.18781" lon="3.16448">
        <ele>269.99258422852</ele>
        <time>2016-02-15T09:41:06.000Z</time>
      </trkpt>
      <trkpt lat="47.18784" lon="3.16451">
        <ele>270.09078979492</ele>
        <time>2016-02-15T09:41:09.000Z</time>
      </trkpt>
      <trkpt lat="47.18786" lon="3.16453">
        <ele>270.19897460938</ele>
        <time>2016-02-15T09:41:11.000Z</time>
      </trkpt>
      <trkpt lat="47.18789" lon="3.16457">
        <ele>270.3317565918</ele>
        <time>2016-02-15T09:41:14.000Z</time>
      </trkpt>
      <trkpt lat="47.18793" lon="3.16462">
        <ele>270.50494384766</ele>
        <time>2016-02-15T09:41:17.000Z</time>
      </trkpt>
      <trkpt lat="47.18796" lon="3.16465">
        <ele>270.68862915039</ele>
        <time>2016-02-15T09:41:19.000Z</time>
      </trkpt>
      <trkpt lat="47.18797" lon="3.16467">
        <ele>270.86553955078</ele>
        <time>2016-02-15T09:41:22.000Z</time>
      </trkpt>
      <trkpt lat="47.18798" lon="3.16467">
        <ele>271.03109741211</ele>
        <time>2016-02-15T09:41:25.000Z</time>
      </trkpt>
      <trkpt lat="47.18801" lon="3.16469">
        <ele>271.18771362305</ele>
        <time>2016-02-15T09:41:28.000Z</time>
      </trkpt>
      <trkpt lat="47.18805" lon="3.16471">
        <ele>271.32290649414</ele>
        <time>2016-02-15T09:41:30.000Z</time>
      </trkpt>
      <trkpt lat="47.18811" lon="3.16473">
        <ele>271.47088623047</ele>
        <time>2016-02-15T09:41:33.000Z</time>
      </trkpt>
      <trkpt lat="47.18811" lon="3.16475">
        <ele>271.60980224609</ele>
        <time>2016-02-15T09:41:36.000Z</time>
      </trkpt>
      <trkpt lat="47.18813" lon="3.16476">
        <ele>271.76605224609</ele>
        <time>2016-02-15T09:41:39.000Z</time>
      </trkpt>
      <trkpt lat="47.18815" lon="3.16476">
        <ele>271.89337158203</ele>
        <time>2016-02-15T09:41:42.000Z</time>
      </trkpt>
      <trkpt lat="47.18821" lon="3.1648">
        <ele>272.06478881836</ele>
        <time>2016-02-15T09:41:46.000Z</time>
      </trkpt>
      <trkpt lat="47.18824" lon="3.16485">
        <ele>272.25958251953</ele>
        <time>2016-02-15T09:41:50.000Z</time>
      </trkpt>
      <trkpt lat="47.18826" lon="3.16488">
        <ele>272.48803710938</ele>
        <time>2016-02-15T09:41:52.000Z</time>
      </trkpt>
      <trkpt lat="47.18828" lon="3.16497">
        <ele>272.79891967773</ele>
        <time>2016-02-15T09:42:05.000Z</time>
      </trkpt>
      <trkpt lat="47.18828" lon="3.16504">
        <ele>273.16958618164</ele>
        <time>2016-02-15T09:42:08.000Z</time>
      </trkpt>
      <trkpt lat="47.1883" lon="3.16511">
        <ele>273.50497436523</ele>
        <time>2016-02-15T09:42:12.000Z</time>
      </trkpt>
      <trkpt lat="47.18831" lon="3.16513">
        <ele>273.79110717773</ele>
        <time>2016-02-15T09:42:16.000Z</time>
      </trkpt>
      <trkpt lat="47.18832" lon="3.16517">
        <ele>274.05151367188</ele>
        <time>2016-02-15T09:42:18.000Z</time>
      </trkpt>
      <trkpt lat="47.18832" lon="3.16522">
        <ele>274.22814941406</ele>
        <time>2016-02-15T09:42:20.000Z</time>
      </trkpt>
      <trkpt lat="47.18833" lon="3.16527">
        <ele>274.37390136719</ele>
        <time>2016-02-15T09:42:23.000Z</time>
      </trkpt>
      <trkpt lat="47.18833" lon="3.16529">
        <ele>274.48474121094</ele>
        <time>2016-02-15T09:42:25.000Z</time>
      </trkpt>
      <trkpt lat="47.18834" lon="3.16531">
        <ele>274.58843994141</ele>
        <time>2016-02-15T09:42:27.000Z</time>
      </trkpt>
      <trkpt lat="47.18834" lon="3.16534">
        <ele>274.6813659668</ele>
        <time>2016-02-15T09:42:30.000Z</time>
      </trkpt>
      <trkpt lat="47.18836" lon="3.16538">
        <ele>274.77993774414</ele>
        <time>2016-02-15T09:42:33.000Z</time>
      </trkpt>
      <trkpt lat="47.18839" lon="3.16541">
        <ele>274.87371826172</ele>
        <time>2016-02-15T09:42:36.000Z</time>
      </trkpt>
      <trkpt lat="47.1884" lon="3.16544">
        <ele>274.97717285156</ele>
        <time>2016-02-15T09:42:38.000Z</time>
      </trkpt>
      <trkpt lat="47.18842" lon="3.16547">
        <ele>275.09375</ele>
        <time>2016-02-15T09:42:41.000Z</time>
      </trkpt>
      <trkpt lat="47.18843" lon="3.1655">
        <ele>275.21508789062</ele>
        <time>2016-02-15T09:42:45.000Z</time>
      </trkpt>
      <trkpt lat="47.18843" lon="3.16552">
        <ele>275.3193359375</ele>
        <time>2016-02-15T09:42:46.000Z</time>
      </trkpt>
      <trkpt lat="47.18844" lon="3.16555">
        <ele>275.41357421875</ele>
        <time>2016-02-15T09:42:48.000Z</time>
      </trkpt>
      <trkpt lat="47.18846" lon="3.16559">
        <ele>275.51440429688</ele>
        <time>2016-02-15T09:42:51.000Z</time>
      </trkpt>
      <trkpt lat="47.18846" lon="3.16563">
        <ele>275.6064453125</ele>
        <time>2016-02-15T09:42:54.000Z</time>
      </trkpt>
      <trkpt lat="47.18847" lon="3.16568">
        <ele>275.70666503906</ele>
        <time>2016-02-15T09:42:56.000Z</time>
      </trkpt>
      <trkpt lat="47.18848" lon="3.16574">
        <ele>275.83142089844</ele>
        <time>2016-02-15T09:42:59.000Z</time>
      </trkpt>
      <trkpt lat="47.18848" lon="3.16579">
        <ele>275.96252441406</ele>
        <time>2016-02-15T09:43:01.000Z</time>
      </trkpt>
      <trkpt lat="47.18848" lon="3.16581">
        <ele>276.07849121094</ele>
        <time>2016-02-15T09:43:03.000Z</time>
      </trkpt>
      <trkpt lat="47.18849" lon="3.16583">
        <ele>276.19226074219</ele>
        <time>2016-02-15T09:43:05.000Z</time>
      </trkpt>
      <trkpt lat="47.18849" lon="3.16585">
        <ele>276.28546142578</ele>
        <time>2016-02-15T09:43:08.000Z</time>
      </trkpt>
      <trkpt lat="47.1885" lon="3.16589">
        <ele>276.35336303711</ele>
        <time>2016-02-15T09:43:11.000Z</time>
      </trkpt>
      <trkpt lat="47.18851" lon="3.16597">
        <ele>276.42254638672</ele>
        <time>2016-02-15T09:43:14.000Z</time>
      </trkpt>
      <trkpt lat="47.18851" lon="3.16612">
        <ele>276.51849365234</ele>
        <time>2016-02-15T09:43:17.000Z</time>
      </trkpt>
      <trkpt lat="47.18852" lon="3.16619">
        <ele>276.62188720703</ele>
        <time>2016-02-15T09:43:20.000Z</time>
      </trkpt>
      <trkpt lat="47.18853" lon="3.16622">
        <ele>276.72760009766</ele>
        <time>2016-02-15T09:43:22.000Z</time>
      </trkpt>
      <trkpt lat="47.18853" lon="3.16623">
        <ele>276.82604980469</ele>
        <time>2016-02-15T09:43:25.000Z</time>
      </trkpt>
      <trkpt lat="47.18853" lon="3.16625">
        <ele>276.90545654297</ele>
        <time>2016-02-15T09:43:27.000Z</time>
      </trkpt>
      <trkpt lat="47.18853" lon="3.16627">
        <ele>276.94946289062</ele>
        <time>2016-02-15T09:43:30.000Z</time>
      </trkpt>
      <trkpt lat="47.18853" lon="3.16628">
        <ele>276.97299194336</ele>
        <time>2016-02-15T09:43:33.000Z</time>
      </trkpt>
      <trkpt lat="47.18851" lon="3.1663">
        <ele>276.98266601562</ele>
        <time>2016-02-15T09:43:35.000Z</time>
      </trkpt>
      <trkpt lat="47.18852" lon="3.16631">
        <ele>276.99530029297</ele>
        <time>2016-02-15T09:43:38.000Z</time>
      </trkpt>
      <trkpt lat="47.18854" lon="3.16632">
        <ele>277.0146484375</ele>
        <time>2016-02-15T09:43:40.000Z</time>
      </trkpt>
      <trkpt lat="47.18858" lon="3.16632">
        <ele>277.04888916016</ele>
        <time>2016-02-15T09:43:43.000Z</time>
      </trkpt>
      <trkpt lat="47.1886" lon="3.16634">
        <ele>277.09936523438</ele>
        <time>2016-02-15T09:43:45.000Z</time>
      </trkpt>
      <trkpt lat="47.18863" lon="3.16635">
        <ele>277.17126464844</ele>
        <time>2016-02-15T09:43:47.000Z</time>
      </trkpt>
      <trkpt lat="47.18866" lon="3.16639">
        <ele>277.25790405273</ele>
        <time>2016-02-15T09:43:50.000Z</time>
      </trkpt>
      <trkpt lat="47.1887" lon="3.16643">
        <ele>277.35919189453</ele>
        <time>2016-02-15T09:43:53.000Z</time>
      </trkpt>
      <trkpt lat="47.18872" lon="3.16646">
        <ele>277.46337890625</ele>
        <time>2016-02-15T09:43:55.000Z</time>
      </trkpt>
      <trkpt lat="47.18873" lon="3.16649">
        <ele>277.56256103516</ele>
        <time>2016-02-15T09:43:57.000Z</time>
      </trkpt>
      <trkpt lat="47.18874" lon="3.16653">
        <ele>277.65875244141</ele>
        <time>2016-02-15T09:44:00.000Z</time>
      </trkpt>
      <trkpt lat="47.18876" lon="3.1666">
        <ele>277.75738525391</ele>
        <time>2016-02-15T09:44:11.000Z</time>
      </trkpt>
      <trkpt lat="47.18879" lon="3.16678">
        <ele>277.89593505859</ele>
        <time>2016-02-15T09:44:14.000Z</time>
      </trkpt>
      <trkpt lat="47.18879" lon="3.16682">
        <ele>278.02938842773</ele>
        <time>2016-02-15T09:44:17.000Z</time>
      </trkpt>
      <trkpt lat="47.1888" lon="3.16688">
        <ele>278.17669677734</ele>
        <time>2016-02-15T09:44:20.000Z</time>
      </trkpt>
      <trkpt lat="47.18881" lon="3.16693">
        <ele>278.33331298828</ele>
        <time>2016-02-15T09:44:22.000Z</time>
      </trkpt>
      <trkpt lat="47.18883" lon="3.16699">
        <ele>278.49078369141</ele>
        <time>2016-02-15T09:44:25.000Z</time>
      </trkpt>
      <trkpt lat="47.18883" lon="3.16708">
        <ele>278.61260986328</ele>
        <time>2016-02-15T09:44:28.000Z</time>
      </trkpt>
      <trkpt lat="47.18885" lon="3.16716">
        <ele>278.75390625</ele>
        <time>2016-02-15T09:44:31.000Z</time>
      </trkpt>
      <trkpt lat="47.18887" lon="3.16723">
        <ele>278.89984130859</ele>
        <time>2016-02-15T09:44:35.000Z</time>
      </trkpt>
      <trkpt lat="47.18888" lon="3.16728">
        <ele>279.04122924805</ele>
        <time>2016-02-15T09:44:38.000Z</time>
      </trkpt>
      <trkpt lat="47.18889" lon="3.16731">
        <ele>279.16723632812</ele>
        <time>2016-02-15T09:44:40.000Z</time>
      </trkpt>
      <trkpt lat="47.1889" lon="3.16735">
        <ele>279.27786254883</ele>
        <time>2016-02-15T09:44:43.000Z</time>
      </trkpt>
      <trkpt lat="47.18891" lon="3.16741">
        <ele>279.37591552734</ele>
        <time>2016-02-15T09:44:45.000Z</time>
      </trkpt>
      <trkpt lat="47.18892" lon="3.16744">
        <ele>279.45443725586</ele>
        <time>2016-02-15T09:44:48.000Z</time>
      </trkpt>
      <trkpt lat="47.18893" lon="3.16749">
        <ele>279.53295898438</ele>
        <time>2016-02-15T09:44:53.000Z</time>
      </trkpt>
      <trkpt lat="47.18896" lon="3.16755">
        <ele>279.59164428711</ele>
        <time>2016-02-15T09:44:56.000Z</time>
      </trkpt>
      <trkpt lat="47.18896" lon="3.16756">
        <ele>279.63031005859</ele>
        <time>2016-02-15T09:44:58.000Z</time>
      </trkpt>
      <trkpt lat="47.18897" lon="3.16762">
        <ele>279.63052368164</ele>
        <time>2016-02-15T09:45:01.000Z</time>
      </trkpt>
      <trkpt lat="47.18899" lon="3.16766">
        <ele>279.60491943359</ele>
        <time>2016-02-15T09:45:04.000Z</time>
      </trkpt>
      <trkpt lat="47.18901" lon="3.16772">
        <ele>279.54217529297</ele>
        <time>2016-02-15T09:45:07.000Z</time>
      </trkpt>
      <trkpt lat="47.18903" lon="3.16775">
        <ele>279.47479248047</ele>
        <time>2016-02-15T09:45:10.000Z</time>
      </trkpt>
      <trkpt lat="47.18904" lon="3.16777">
        <ele>279.40728759766</ele>
        <time>2016-02-15T09:45:12.000Z</time>
      </trkpt>
      <trkpt lat="47.18906" lon="3.1678">
        <ele>279.34780883789</ele>
        <time>2016-02-15T09:45:15.000Z</time>
      </trkpt>
      <trkpt lat="47.18907" lon="3.16782">
        <ele>279.29153442383</ele>
        <time>2016-02-15T09:45:18.000Z</time>
      </trkpt>
      <trkpt lat="47.18909" lon="3.16787">
        <ele>279.23348999023</ele>
        <time>2016-02-15T09:45:21.000Z</time>
      </trkpt>
      <trkpt lat="47.18911" lon="3.16791">
        <ele>279.17163085938</ele>
        <time>2016-02-15T09:45:23.000Z</time>
      </trkpt>
      <trkpt lat="47.18913" lon="3.16795">
        <ele>279.09936523438</ele>
        <time>2016-02-15T09:45:25.000Z</time>
      </trkpt>
      <trkpt lat="47.18914" lon="3.168">
        <ele>279.00939941406</ele>
        <time>2016-02-15T09:45:28.000Z</time>
      </trkpt>
      <trkpt lat="47.18917" lon="3.16808">
        <ele>278.89474487305</ele>
        <time>2016-02-15T09:45:30.000Z</time>
      </trkpt>
      <trkpt lat="47.18919" lon="3.16815">
        <ele>278.77618408203</ele>
        <time>2016-02-15T09:45:33.000Z</time>
      </trkpt>
      <trkpt lat="47.1892" lon="3.16822">
        <ele>278.64892578125</ele>
        <time>2016-02-15T09:45:38.000Z</time>
      </trkpt>
      <trkpt lat="47.18921" lon="3.16827">
        <ele>278.52227783203</ele>
        <time>2016-02-15T09:45:42.000Z</time>
      </trkpt>
      <trkpt lat="47.18921" lon="3.16829">
        <ele>278.41290283203</ele>
        <time>2016-02-15T09:45:45.000Z</time>
      </trkpt>
      <trkpt lat="47.18921" lon="3.16831">
        <ele>278.33160400391</ele>
        <time>2016-02-15T09:45:47.000Z</time>
      </trkpt>
      <trkpt lat="47.18922" lon="3.16835">
        <ele>278.26681518555</ele>
        <time>2016-02-15T09:45:50.000Z</time>
      </trkpt>
      <trkpt lat="47.18922" lon="3.16836">
        <ele>278.22979736328</ele>
        <time>2016-02-15T09:45:52.000Z</time>
      </trkpt>
      <trkpt lat="47.18923" lon="3.16842">
        <ele>278.21618652344</ele>
        <time>2016-02-15T09:45:55.000Z</time>
      </trkpt>
      <trkpt lat="47.18925" lon="3.16847">
        <ele>278.21844482422</ele>
        <time>2016-02-15T09:45:57.000Z</time>
      </trkpt>
      <trkpt lat="47.18928" lon="3.16857">
        <ele>278.25030517578</ele>
        <time>2016-02-15T09:46:00.000Z</time>
      </trkpt>
      <trkpt lat="47.1893" lon="3.16861">
        <ele>278.29876708984</ele>
        <time>2016-02-15T09:46:02.000Z</time>
      </trkpt>
      <trkpt lat="47.1893" lon="3.16863">
        <ele>278.34634399414</ele>
        <time>2016-02-15T09:46:04.000Z</time>
      </trkpt>
      <trkpt lat="47.18932" lon="3.16866">
        <ele>278.39764404297</ele>
        <time>2016-02-15T09:46:07.000Z</time>
      </trkpt>
      <trkpt lat="47.18934" lon="3.1687">
        <ele>278.45257568359</ele>
        <time>2016-02-15T09:46:10.000Z</time>
      </trkpt>
      <trkpt lat="47.18935" lon="3.16873">
        <ele>278.49172973633</ele>
        <time>2016-02-15T09:46:12.000Z</time>
      </trkpt>
      <trkpt lat="47.18935" lon="3.16878">
        <ele>278.51861572266</ele>
        <time>2016-02-15T09:46:19.000Z</time>
      </trkpt>
      <trkpt lat="47.18937" lon="3.16886">
        <ele>278.54672241211</ele>
        <time>2016-02-15T09:46:22.000Z</time>
      </trkpt>
      <trkpt lat="47.18941" lon="3.16894">
        <ele>278.58087158203</ele>
        <time>2016-02-15T09:46:24.000Z</time>
      </trkpt>
      <trkpt lat="47.18942" lon="3.16903">
        <ele>278.60443115234</ele>
        <time>2016-02-15T09:46:27.000Z</time>
      </trkpt>
      <trkpt lat="47.18941" lon="3.16905">
        <ele>278.61804199219</ele>
        <time>2016-02-15T09:46:30.000Z</time>
      </trkpt>
      <trkpt lat="47.18943" lon="3.1692">
        <ele>278.62127685547</ele>
        <time>2016-02-15T09:46:33.000Z</time>
      </trkpt>
      <trkpt lat="47.18944" lon="3.16922">
        <ele>278.61410522461</ele>
        <time>2016-02-15T09:46:36.000Z</time>
      </trkpt>
      <trkpt lat="47.18946" lon="3.16928">
        <ele>278.57626342773</ele>
        <time>2016-02-15T09:46:39.000Z</time>
      </trkpt>
      <trkpt lat="47.18947" lon="3.16932">
        <ele>278.52624511719</ele>
        <time>2016-02-15T09:46:42.000Z</time>
      </trkpt>
      <trkpt lat="47.18948" lon="3.16934">
        <ele>278.47549438477</ele>
        <time>2016-02-15T09:46:44.000Z</time>
      </trkpt>
      <trkpt lat="47.18948" lon="3.16935">
        <ele>278.43301391602</ele>
        <time>2016-02-15T09:46:47.000Z</time>
      </trkpt>
      <trkpt lat="47.1895" lon="3.16937">
        <ele>278.39575195312</ele>
        <time>2016-02-15T09:46:50.000Z</time>
      </trkpt>
      <trkpt lat="47.18952" lon="3.16942">
        <ele>278.36041259766</ele>
        <time>2016-02-15T09:46:53.000Z</time>
      </trkpt>
      <trkpt lat="47.18953" lon="3.16946">
        <ele>278.3229675293</ele>
        <time>2016-02-15T09:46:56.000Z</time>
      </trkpt>
      <trkpt lat="47.18953" lon="3.16949">
        <ele>278.27523803711</ele>
        <time>2016-02-15T09:46:58.000Z</time>
      </trkpt>
      <trkpt lat="47.18954" lon="3.16954">
        <ele>278.21215820312</ele>
        <time>2016-02-15T09:47:03.000Z</time>
      </trkpt>
      <trkpt lat="47.18956" lon="3.16962">
        <ele>278.11807250977</ele>
        <time>2016-02-15T09:47:06.000Z</time>
      </trkpt>
      <trkpt lat="47.18958" lon="3.16968">
        <ele>278.01263427734</ele>
        <time>2016-02-15T09:47:10.000Z</time>
      </trkpt>
      <trkpt lat="47.18958" lon="3.1697">
        <ele>277.91070556641</ele>
        <time>2016-02-15T09:47:13.000Z</time>
      </trkpt>
      <trkpt lat="47.18959" lon="3.16979">
        <ele>277.78305053711</ele>
        <time>2016-02-15T09:47:15.000Z</time>
      </trkpt>
      <trkpt lat="47.18958" lon="3.16984">
        <ele>277.65267944336</ele>
        <time>2016-02-15T09:47:18.000Z</time>
      </trkpt>
      <trkpt lat="47.1896" lon="3.16989">
        <ele>277.52969360352</ele>
        <time>2016-02-15T09:47:22.000Z</time>
      </trkpt>
      <trkpt lat="47.18961" lon="3.16991">
        <ele>277.41925048828</ele>
        <time>2016-02-15T09:47:24.000Z</time>
      </trkpt>
      <trkpt lat="47.18962" lon="3.16994">
        <ele>277.30648803711</ele>
        <time>2016-02-15T09:47:26.000Z</time>
      </trkpt>
      <trkpt lat="47.18964" lon="3.16999">
        <ele>277.21136474609</ele>
        <time>2016-02-15T09:47:29.000Z</time>
      </trkpt>
      <trkpt lat="47.18964" lon="3.17002">
        <ele>277.11499023438</ele>
        <time>2016-02-15T09:47:31.000Z</time>
      </trkpt>
      <trkpt lat="47.18965" lon="3.17005">
        <ele>277.01647949219</ele>
        <time>2016-02-15T09:47:33.000Z</time>
      </trkpt>
      <trkpt lat="47.18966" lon="3.1701">
        <ele>276.88790893555</ele>
        <time>2016-02-15T09:47:35.000Z</time>
      </trkpt>
      <trkpt lat="47.18968" lon="3.17015">
        <ele>276.73010253906</ele>
        <time>2016-02-15T09:47:38.000Z</time>
      </trkpt>
      <trkpt lat="47.1897" lon="3.17019">
        <ele>276.56137084961</ele>
        <time>2016-02-15T09:47:41.000Z</time>
      </trkpt>
      <trkpt lat="47.18972" lon="3.17022">
        <ele>276.38687133789</ele>
        <time>2016-02-15T09:47:44.000Z</time>
      </trkpt>
      <trkpt lat="47.18973" lon="3.17025">
        <ele>276.20816040039</ele>
        <time>2016-02-15T09:47:46.000Z</time>
      </trkpt>
      <trkpt lat="47.18974" lon="3.1703">
        <ele>276.02801513672</ele>
        <time>2016-02-15T09:47:49.000Z</time>
      </trkpt>
      <trkpt lat="47.18976" lon="3.17034">
        <ele>275.85607910156</ele>
        <time>2016-02-15T09:47:52.000Z</time>
      </trkpt>
      <trkpt lat="47.18976" lon="3.17036">
        <ele>275.70025634766</ele>
        <time>2016-02-15T09:47:54.000Z</time>
      </trkpt>
      <trkpt lat="47.18977" lon="3.1704">
        <ele>275.53842163086</ele>
        <time>2016-02-15T09:47:57.000Z</time>
      </trkpt>
      <trkpt lat="47.18978" lon="3.17042">
        <ele>275.38418579102</ele>
        <time>2016-02-15T09:47:59.000Z</time>
      </trkpt>
      <trkpt lat="47.1898" lon="3.17047">
        <ele>275.22637939453</ele>
        <time>2016-02-15T09:48:02.000Z</time>
      </trkpt>
      <trkpt lat="47.18982" lon="3.17049">
        <ele>275.07705688477</ele>
        <time>2016-02-15T09:48:04.000Z</time>
      </trkpt>
      <trkpt lat="47.18984" lon="3.17054">
        <ele>274.89947509766</ele>
        <time>2016-02-15T09:48:07.000Z</time>
      </trkpt>
      <trkpt lat="47.18985" lon="3.17058">
        <ele>274.72012329102</ele>
        <time>2016-02-15T09:48:09.000Z</time>
      </trkpt>
      <trkpt lat="47.18987" lon="3.17063">
        <ele>274.52142333984</ele>
        <time>2016-02-15T09:48:12.000Z</time>
      </trkpt>
      <trkpt lat="47.18988" lon="3.17066">
        <ele>274.33380126953</ele>
        <time>2016-02-15T09:48:15.000Z</time>
      </trkpt>
      <trkpt lat="47.18988" lon="3.17068">
        <ele>274.15069580078</ele>
        <time>2016-02-15T09:48:17.000Z</time>
      </trkpt>
      <trkpt lat="47.18989" lon="3.17072">
        <ele>273.97705078125</ele>
        <time>2016-02-15T09:48:20.000Z</time>
      </trkpt>
      <trkpt lat="47.18991" lon="3.17076">
        <ele>273.80389404297</ele>
        <time>2016-02-15T09:48:22.000Z</time>
      </trkpt>
      <trkpt lat="47.18992" lon="3.17082">
        <ele>273.61297607422</ele>
        <time>2016-02-15T09:48:25.000Z</time>
      </trkpt>
      <trkpt lat="47.18993" lon="3.17087">
        <ele>273.40744018555</ele>
        <time>2016-02-15T09:48:27.000Z</time>
      </trkpt>
      <trkpt lat="47.18993" lon="3.17093">
        <ele>273.16607666016</ele>
        <time>2016-02-15T09:48:29.000Z</time>
      </trkpt>
      <trkpt lat="47.18993" lon="3.17104">
        <ele>272.86337280273</ele>
        <time>2016-02-15T09:48:32.000Z</time>
      </trkpt>
      <trkpt lat="47.18993" lon="3.17107">
        <ele>272.56240844727</ele>
        <time>2016-02-15T09:48:34.000Z</time>
      </trkpt>
      <trkpt lat="47.18993" lon="3.17117">
        <ele>272.23358154297</ele>
        <time>2016-02-15T09:48:37.000Z</time>
      </trkpt>
      <trkpt lat="47.18994" lon="3.17123">
        <ele>271.89068603516</ele>
        <time>2016-02-15T09:48:40.000Z</time>
      </trkpt>
      <trkpt lat="47.18995" lon="3.17126">
        <ele>271.57196044922</ele>
        <time>2016-02-15T09:48:43.000Z</time>
      </trkpt>
      <trkpt lat="47.18996" lon="3.1713">
        <ele>271.31060791016</ele>
        <time>2016-02-15T09:48:46.000Z</time>
      </trkpt>
      <trkpt lat="47.18997" lon="3.17133">
        <ele>271.04849243164</ele>
        <time>2016-02-15T09:48:48.000Z</time>
      </trkpt>
      <trkpt lat="47.18999" lon="3.17139">
        <ele>270.81616210938</ele>
        <time>2016-02-15T09:48:51.000Z</time>
      </trkpt>
      <trkpt lat="47.19001" lon="3.17143">
        <ele>270.60125732422</ele>
        <time>2016-02-15T09:48:54.000Z</time>
      </trkpt>
      <trkpt lat="47.19004" lon="3.17148">
        <ele>270.36135864258</ele>
        <time>2016-02-15T09:48:57.000Z</time>
      </trkpt>
      <trkpt lat="47.19006" lon="3.17153">
        <ele>270.11419677734</ele>
        <time>2016-02-15T09:48:59.000Z</time>
      </trkpt>
      <trkpt lat="47.19007" lon="3.17159">
        <ele>269.84091186523</ele>
        <time>2016-02-15T09:49:02.000Z</time>
      </trkpt>
      <trkpt lat="47.19007" lon="3.17161">
        <ele>269.60693359375</ele>
        <time>2016-02-15T09:49:05.000Z</time>
      </trkpt>
      <trkpt lat="47.19009" lon="3.17164">
        <ele>269.3896484375</ele>
        <time>2016-02-15T09:49:08.000Z</time>
      </trkpt>
      <trkpt lat="47.1901" lon="3.17166">
        <ele>269.208984375</ele>
        <time>2016-02-15T09:49:10.000Z</time>
      </trkpt>
      <trkpt lat="47.19011" lon="3.17168">
        <ele>269.05023193359</ele>
        <time>2016-02-15T09:49:13.000Z</time>
      </trkpt>
      <trkpt lat="47.19012" lon="3.17171">
        <ele>268.92593383789</ele>
        <time>2016-02-15T09:49:15.000Z</time>
      </trkpt>
      <trkpt lat="47.19014" lon="3.17175">
        <ele>268.77813720703</ele>
        <time>2016-02-15T09:49:18.000Z</time>
      </trkpt>
      <trkpt lat="47.19016" lon="3.1718">
        <ele>268.61297607422</ele>
        <time>2016-02-15T09:49:21.000Z</time>
      </trkpt>
      <trkpt lat="47.19017" lon="3.17183">
        <ele>268.43634033203</ele>
        <time>2016-02-15T09:49:23.000Z</time>
      </trkpt>
      <trkpt lat="47.1902" lon="3.17188">
        <ele>268.23538208008</ele>
        <time>2016-02-15T09:49:26.000Z</time>
      </trkpt>
      <trkpt lat="47.19022" lon="3.17192">
        <ele>268.01895141602</ele>
        <time>2016-02-15T09:49:29.000Z</time>
      </trkpt>
      <trkpt lat="47.19023" lon="3.17197">
        <ele>267.8037109375</ele>
        <time>2016-02-15T09:49:31.000Z</time>
      </trkpt>
      <trkpt lat="47.19024" lon="3.172">
        <ele>267.60919189453</ele>
        <time>2016-02-15T09:49:34.000Z</time>
      </trkpt>
      <trkpt lat="47.19025" lon="3.17203">
        <ele>267.41827392578</ele>
        <time>2016-02-15T09:49:37.000Z</time>
      </trkpt>
      <trkpt lat="47.19027" lon="3.17205">
        <ele>267.25970458984</ele>
        <time>2016-02-15T09:49:39.000Z</time>
      </trkpt>
      <trkpt lat="47.19029" lon="3.17208">
        <ele>267.10791015625</ele>
        <time>2016-02-15T09:49:42.000Z</time>
      </trkpt>
      <trkpt lat="47.19031" lon="3.17212">
        <ele>266.96185302734</ele>
        <time>2016-02-15T09:49:44.000Z</time>
      </trkpt>
      <trkpt lat="47.19032" lon="3.17218">
        <ele>266.79385375977</ele>
        <time>2016-02-15T09:49:47.000Z</time>
      </trkpt>
      <trkpt lat="47.19033" lon="3.17222">
        <ele>266.61474609375</ele>
        <time>2016-02-15T09:49:49.000Z</time>
      </trkpt>
      <trkpt lat="47.19035" lon="3.17227">
        <ele>266.40814208984</ele>
        <time>2016-02-15T09:49:57.000Z</time>
      </trkpt>
      <trkpt lat="47.19036" lon="3.17237">
        <ele>266.15872192383</ele>
        <time>2016-02-15T09:50:00.000Z</time>
      </trkpt>
      <trkpt lat="47.19036" lon="3.17246">
        <ele>265.86419677734</ele>
        <time>2016-02-15T09:50:04.000Z</time>
      </trkpt>
      <trkpt lat="47.19037" lon="3.17256">
        <ele>265.54248046875</ele>
        <time>2016-02-15T09:50:07.000Z</time>
      </trkpt>
      <trkpt lat="47.19037" lon="3.17261">
        <ele>265.22509765625</ele>
        <time>2016-02-15T09:50:09.000Z</time>
      </trkpt>
      <trkpt lat="47.19039" lon="3.17265">
        <ele>264.92025756836</ele>
        <time>2016-02-15T09:50:12.000Z</time>
      </trkpt>
      <trkpt lat="47.19041" lon="3.17271">
        <ele>264.65219116211</ele>
        <time>2016-02-15T09:50:15.000Z</time>
      </trkpt>
      <trkpt lat="47.19043" lon="3.17275">
        <ele>264.44061279297</ele>
        <time>2016-02-15T09:50:17.000Z</time>
      </trkpt>
      <trkpt lat="47.19045" lon="3.17279">
        <ele>264.27398681641</ele>
        <time>2016-02-15T09:50:20.000Z</time>
      </trkpt>
      <trkpt lat="47.19046" lon="3.17282">
        <ele>264.12347412109</ele>
        <time>2016-02-15T09:50:23.000Z</time>
      </trkpt>
      <trkpt lat="47.19048" lon="3.17285">
        <ele>263.98321533203</ele>
        <time>2016-02-15T09:50:26.000Z</time>
      </trkpt>
      <trkpt lat="47.19049" lon="3.17287">
        <ele>263.86602783203</ele>
        <time>2016-02-15T09:50:28.000Z</time>
      </trkpt>
      <trkpt lat="47.19053" lon="3.17292">
        <ele>263.74334716797</ele>
        <time>2016-02-15T09:50:31.000Z</time>
      </trkpt>
      <trkpt lat="47.19053" lon="3.17294">
        <ele>263.63110351562</ele>
        <time>2016-02-15T09:50:34.000Z</time>
      </trkpt>
      <trkpt lat="47.19053" lon="3.17297">
        <ele>263.51959228516</ele>
        <time>2016-02-15T09:50:37.000Z</time>
      </trkpt>
      <trkpt lat="47.19053" lon="3.17299">
        <ele>263.41467285156</ele>
        <time>2016-02-15T09:50:40.000Z</time>
      </trkpt>
      <trkpt lat="47.19052" lon="3.17303">
        <ele>263.30224609375</ele>
        <time>2016-02-15T09:50:43.000Z</time>
      </trkpt>
      <trkpt lat="47.19051" lon="3.17307">
        <ele>263.19146728516</ele>
        <time>2016-02-15T09:50:45.000Z</time>
      </trkpt>
      <trkpt lat="47.1905" lon="3.17312">
        <ele>263.06805419922</ele>
        <time>2016-02-15T09:50:48.000Z</time>
      </trkpt>
      <trkpt lat="47.1905" lon="3.17315">
        <ele>262.94006347656</ele>
        <time>2016-02-15T09:50:50.000Z</time>
      </trkpt>
      <trkpt lat="47.19052" lon="3.17317">
        <ele>262.8115234375</ele>
        <time>2016-02-15T09:50:55.000Z</time>
      </trkpt>
      <trkpt lat="47.19054" lon="3.17323">
        <ele>262.66943359375</ele>
        <time>2016-02-15T09:50:58.000Z</time>
      </trkpt>
      <trkpt lat="47.19057" lon="3.17327">
        <ele>262.52862548828</ele>
        <time>2016-02-15T09:51:00.000Z</time>
      </trkpt>
      <trkpt lat="47.1906" lon="3.17333">
        <ele>262.37164306641</ele>
        <time>2016-02-15T09:51:03.000Z</time>
      </trkpt>
      <trkpt lat="47.19065" lon="3.17345">
        <ele>262.17181396484</ele>
        <time>2016-02-15T09:51:06.000Z</time>
      </trkpt>
      <trkpt lat="47.19066" lon="3.17348">
        <ele>261.9716796875</ele>
        <time>2016-02-15T09:51:08.000Z</time>
      </trkpt>
      <trkpt lat="47.19066" lon="3.1735">
        <ele>261.80114746094</ele>
        <time>2016-02-15T09:51:10.000Z</time>
      </trkpt>
      <trkpt lat="47.19068" lon="3.17352">
        <ele>261.64553833008</ele>
        <time>2016-02-15T09:51:13.000Z</time>
      </trkpt>
      <trkpt lat="47.1907" lon="3.17356">
        <ele>261.52285766602</ele>
        <time>2016-02-15T09:51:16.000Z</time>
      </trkpt>
      <trkpt lat="47.19072" lon="3.17358">
        <ele>261.45428466797</ele>
        <time>2016-02-15T09:51:18.000Z</time>
      </trkpt>
      <trkpt lat="47.19074" lon="3.17363">
        <ele>261.380859375</ele>
        <time>2016-02-15T09:51:21.000Z</time>
      </trkpt>
      <trkpt lat="47.19075" lon="3.17366">
        <ele>261.30694580078</ele>
        <time>2016-02-15T09:51:23.000Z</time>
      </trkpt>
      <trkpt lat="47.19075" lon="3.17372">
        <ele>261.21142578125</ele>
        <time>2016-02-15T09:51:25.000Z</time>
      </trkpt>
      <trkpt lat="47.19073" lon="3.17379">
        <ele>261.09027099609</ele>
        <time>2016-02-15T09:51:28.000Z</time>
      </trkpt>
      <trkpt lat="47.19071" lon="3.17386">
        <ele>260.93743896484</ele>
        <time>2016-02-15T09:51:35.000Z</time>
      </trkpt>
      <trkpt lat="47.1907" lon="3.17393">
        <ele>260.76495361328</ele>
        <time>2016-02-15T09:51:40.000Z</time>
      </trkpt>
      <trkpt lat="47.19067" lon="3.17399">
        <ele>260.55752563477</ele>
        <time>2016-02-15T09:51:49.000Z</time>
      </trkpt>
      <trkpt lat="47.19061" lon="3.17407">
        <ele>260.31146240234</ele>
        <time>2016-02-15T09:51:52.000Z</time>
      </trkpt>
      <trkpt lat="47.19055" lon="3.17412">
        <ele>260.04849243164</ele>
        <time>2016-02-15T09:51:55.000Z</time>
      </trkpt>
      <trkpt lat="47.19051" lon="3.17417">
        <ele>259.78469848633</ele>
        <time>2016-02-15T09:51:58.000Z</time>
      </trkpt>
      <trkpt lat="47.19046" lon="3.1742">
        <ele>259.52499389648</ele>
        <time>2016-02-15T09:52:01.000Z</time>
      </trkpt>
      <trkpt lat="47.19042" lon="3.1742">
        <ele>259.28823852539</ele>
        <time>2016-02-15T09:52:04.000Z</time>
      </trkpt>
      <trkpt lat="47.1904" lon="3.17421">
        <ele>259.11312866211</ele>
        <time>2016-02-15T09:52:06.000Z</time>
      </trkpt>
      <trkpt lat="47.19037" lon="3.17422">
        <ele>258.97982788086</ele>
        <time>2016-02-15T09:52:09.000Z</time>
      </trkpt>
      <trkpt lat="47.19035" lon="3.17423">
        <ele>258.87814331055</ele>
        <time>2016-02-15T09:52:12.000Z</time>
      </trkpt>
      <trkpt lat="47.19031" lon="3.17425">
        <ele>258.78686523438</ele>
        <time>2016-02-15T09:52:15.000Z</time>
      </trkpt>
      <trkpt lat="47.1903" lon="3.17427">
        <ele>258.71115112305</ele>
        <time>2016-02-15T09:52:17.000Z</time>
      </trkpt>
      <trkpt lat="47.19028" lon="3.17431">
        <ele>258.62393188477</ele>
        <time>2016-02-15T09:52:28.000Z</time>
      </trkpt>
      <trkpt lat="47.19025" lon="3.17433">
        <ele>258.53698730469</ele>
        <time>2016-02-15T09:52:32.000Z</time>
      </trkpt>
      <trkpt lat="47.19024" lon="3.17433">
        <ele>258.45562744141</ele>
        <time>2016-02-15T09:52:33.000Z</time>
      </trkpt>
      <trkpt lat="47.1902" lon="3.17438">
        <ele>258.37216186523</ele>
        <time>2016-02-15T09:52:33.000Z</time>
      </trkpt>
      <trkpt lat="47.19018" lon="3.17441">
        <ele>258.275390625</ele>
        <time>2016-02-15T09:52:34.000Z</time>
      </trkpt>
      <trkpt lat="47.19014" lon="3.17444">
        <ele>258.17816162109</ele>
        <time>2016-02-15T09:52:46.000Z</time>
      </trkpt>
      <trkpt lat="47.19011" lon="3.17446">
        <ele>258.0810546875</ele>
        <time>2016-02-15T09:52:48.000Z</time>
      </trkpt>
      <trkpt lat="47.19009" lon="3.17448">
        <ele>257.97622680664</ele>
        <time>2016-02-15T09:52:49.000Z</time>
      </trkpt>
      <trkpt lat="47.19004" lon="3.17452">
        <ele>257.87271118164</ele>
        <time>2016-02-15T09:52:50.000Z</time>
      </trkpt>
      <trkpt lat="47.19" lon="3.17454">
        <ele>257.76943969727</ele>
        <time>2016-02-15T09:52:51.000Z</time>
      </trkpt>
      <trkpt lat="47.18998" lon="3.17455">
        <ele>257.67105102539</ele>
        <time>2016-02-15T09:52:51.000Z</time>
      </trkpt>
      <trkpt lat="47.18995" lon="3.17457">
        <ele>257.56665039062</ele>
        <time>2016-02-15T09:52:54.000Z</time>
      </trkpt>
      <trkpt lat="47.18992" lon="3.17459">
        <ele>257.4485168457</ele>
        <time>2016-02-15T09:52:55.000Z</time>
      </trkpt>
      <trkpt lat="47.18992" lon="3.17459">
        <ele>257.4485168457</ele>
        <time>2016-02-15T09:53:20.000Z</time>
      </trkpt>
      <trkpt lat="47.1899" lon="3.17461">
        <ele>257.3366394043</ele>
        <time>2016-02-15T09:53:20.000Z</time>
      </trkpt>
      <trkpt lat="47.18989" lon="3.17462">
        <ele>257.23281860352</ele>
        <time>2016-02-15T09:53:24.000Z</time>
      </trkpt>
      <trkpt lat="47.18983" lon="3.17465">
        <ele>257.09918212891</ele>
        <time>2016-02-15T09:53:24.000Z</time>
      </trkpt>
      <trkpt lat="47.18983" lon="3.17466">
        <ele>256.97650146484</ele>
        <time>2016-02-15T09:53:25.000Z</time>
      </trkpt>
      <trkpt lat="47.18982" lon="3.17468">
        <ele>256.87353515625</ele>
        <time>2016-02-15T09:53:26.000Z</time>
      </trkpt>
      <trkpt lat="47.18981" lon="3.17469">
        <ele>256.78048706055</ele>
        <time>2016-02-15T09:53:26.000Z</time>
      </trkpt>
      <trkpt lat="47.1898" lon="3.17469">
        <ele>256.69122314453</ele>
        <time>2016-02-15T09:53:27.000Z</time>
      </trkpt>
      <trkpt lat="47.18977" lon="3.17468">
        <ele>256.63229370117</ele>
        <time>2016-02-15T09:53:27.000Z</time>
      </trkpt>
      <trkpt lat="47.18976" lon="3.17469">
        <ele>256.56988525391</ele>
        <time>2016-02-15T09:53:28.000Z</time>
      </trkpt>
      <trkpt lat="47.18973" lon="3.17473">
        <ele>256.47982788086</ele>
        <time>2016-02-15T09:53:28.000Z</time>
      </trkpt>
      <trkpt lat="47.18971" lon="3.17474">
        <ele>256.38140869141</ele>
        <time>2016-02-15T09:53:28.000Z</time>
      </trkpt>
      <trkpt lat="47.18969" lon="3.17476">
        <ele>256.26895141602</ele>
        <time>2016-02-15T09:53:29.000Z</time>
      </trkpt>
      <trkpt lat="47.18968" lon="3.17477">
        <ele>256.16107177734</ele>
        <time>2016-02-15T09:53:31.000Z</time>
      </trkpt>
      <trkpt lat="47.18965" lon="3.1748">
        <ele>256.02871704102</ele>
        <time>2016-02-15T09:53:34.000Z</time>
      </trkpt>
      <trkpt lat="47.18961" lon="3.17493">
        <ele>255.83503723145</ele>
        <time>2016-02-15T09:53:53.000Z</time>
      </trkpt>
      <trkpt lat="47.18955" lon="3.17501">
        <ele>255.57153320312</ele>
        <time>2016-02-15T09:53:56.000Z</time>
      </trkpt>
      <trkpt lat="47.18953" lon="3.17502">
        <ele>255.30990600586</ele>
        <time>2016-02-15T09:53:58.000Z</time>
      </trkpt>
      <trkpt lat="47.18949" lon="3.17502">
        <ele>255.01460266113</ele>
        <time>2016-02-15T09:54:01.000Z</time>
      </trkpt>
      <trkpt lat="47.18946" lon="3.17503">
        <ele>254.72261047363</ele>
        <time>2016-02-15T09:54:03.000Z</time>
      </trkpt>
      <trkpt lat="47.18943" lon="3.17505">
        <ele>254.49768066406</ele>
        <time>2016-02-15T09:54:05.000Z</time>
      </trkpt>
      <trkpt lat="47.18941" lon="3.17504">
        <ele>254.34475708008</ele>
        <time>2016-02-15T09:54:08.000Z</time>
      </trkpt>
      <trkpt lat="47.18937" lon="3.17508">
        <ele>254.14558410645</ele>
        <time>2016-02-15T09:54:11.000Z</time>
      </trkpt>
      <trkpt lat="47.18932" lon="3.17511">
        <ele>253.94245910645</ele>
        <time>2016-02-15T09:54:14.000Z</time>
      </trkpt>
      <trkpt lat="47.1893" lon="3.17513">
        <ele>253.74015808105</ele>
        <time>2016-02-15T09:54:17.000Z</time>
      </trkpt>
      <trkpt lat="47.18927" lon="3.17517">
        <ele>253.52473449707</ele>
        <time>2016-02-15T09:54:20.000Z</time>
      </trkpt>
      <trkpt lat="47.18925" lon="3.17519">
        <ele>253.29470825195</ele>
        <time>2016-02-15T09:54:22.000Z</time>
      </trkpt>
      <trkpt lat="47.18924" lon="3.17522">
        <ele>253.10954284668</ele>
        <time>2016-02-15T09:54:24.000Z</time>
      </trkpt>
      <trkpt lat="47.18922" lon="3.17524">
        <ele>252.95088195801</ele>
        <time>2016-02-15T09:54:27.000Z</time>
      </trkpt>
      <trkpt lat="47.18919" lon="3.1753">
        <ele>252.7661895752</ele>
        <time>2016-02-15T09:54:30.000Z</time>
      </trkpt>
      <trkpt lat="47.18919" lon="3.17532">
        <ele>252.61332702637</ele>
        <time>2016-02-15T09:54:32.000Z</time>
      </trkpt>
      <trkpt lat="47.18917" lon="3.17537">
        <ele>252.45718383789</ele>
        <time>2016-02-15T09:54:35.000Z</time>
      </trkpt>
      <trkpt lat="47.18916" lon="3.17545">
        <ele>252.29135131836</ele>
        <time>2016-02-15T09:54:38.000Z</time>
      </trkpt>
      <trkpt lat="47.18912" lon="3.17553">
        <ele>252.14326477051</ele>
        <time>2016-02-15T09:54:41.000Z</time>
      </trkpt>
      <trkpt lat="47.18911" lon="3.17555">
        <ele>252.0537109375</ele>
        <time>2016-02-15T09:54:43.000Z</time>
      </trkpt>
      <trkpt lat="47.18909" lon="3.17558">
        <ele>251.98391723633</ele>
        <time>2016-02-15T09:54:46.000Z</time>
      </trkpt>
      <trkpt lat="47.18908" lon="3.17561">
        <ele>251.95010375977</ele>
        <time>2016-02-15T09:54:49.000Z</time>
      </trkpt>
      <trkpt lat="47.18907" lon="3.17564">
        <ele>251.94668579102</ele>
        <time>2016-02-15T09:54:51.000Z</time>
      </trkpt>
      <trkpt lat="47.18903" lon="3.17569">
        <ele>251.96664428711</ele>
        <time>2016-02-15T09:54:54.000Z</time>
      </trkpt>
      <trkpt lat="47.189" lon="3.17573">
        <ele>252.009765625</ele>
        <time>2016-02-15T09:54:57.000Z</time>
      </trkpt>
      <trkpt lat="47.18898" lon="3.17577">
        <ele>252.05233764648</ele>
        <time>2016-02-15T09:55:00.000Z</time>
      </trkpt>
      <trkpt lat="47.18897" lon="3.17583">
        <ele>252.09342956543</ele>
        <time>2016-02-15T09:55:03.000Z</time>
      </trkpt>
      <trkpt lat="47.18896" lon="3.17585">
        <ele>252.15092468262</ele>
        <time>2016-02-15T09:55:05.000Z</time>
      </trkpt>
      <trkpt lat="47.18896" lon="3.17589">
        <ele>252.21212768555</ele>
        <time>2016-02-15T09:55:08.000Z</time>
      </trkpt>
      <trkpt lat="47.18896" lon="3.17593">
        <ele>252.26712036133</ele>
        <time>2016-02-15T09:55:11.000Z</time>
      </trkpt>
      <trkpt lat="47.18897" lon="3.17596">
        <ele>252.31311035156</ele>
        <time>2016-02-15T09:55:13.000Z</time>
      </trkpt>
      <trkpt lat="47.18898" lon="3.17601">
        <ele>252.36457824707</ele>
        <time>2016-02-15T09:55:16.000Z</time>
      </trkpt>
      <trkpt lat="47.18898" lon="3.17606">
        <ele>252.41943359375</ele>
        <time>2016-02-15T09:55:19.000Z</time>
      </trkpt>
      <trkpt lat="47.18897" lon="3.17611">
        <ele>252.48287963867</ele>
        <time>2016-02-15T09:55:22.000Z</time>
      </trkpt>
      <trkpt lat="47.18895" lon="3.17617">
        <ele>252.58134460449</ele>
        <time>2016-02-15T09:55:27.000Z</time>
      </trkpt>
      <trkpt lat="47.18894" lon="3.1762">
        <ele>252.71435546875</ele>
        <time>2016-02-15T09:55:30.000Z</time>
      </trkpt>
      <trkpt lat="47.18891" lon="3.17626">
        <ele>252.92192077637</ele>
        <time>2016-02-15T09:55:34.000Z</time>
      </trkpt>
      <trkpt lat="47.18888" lon="3.17631">
        <ele>253.19213867188</ele>
        <time>2016-02-15T09:55:41.000Z</time>
      </trkpt>
      <trkpt lat="47.18886" lon="3.17638">
        <ele>253.52285766602</ele>
        <time>2016-02-15T09:55:49.000Z</time>
      </trkpt>
      <trkpt lat="47.18885" lon="3.1764">
        <ele>253.83102416992</ele>
        <time>2016-02-15T09:55:49.000Z</time>
      </trkpt>
      <trkpt lat="47.18883" lon="3.17644">
        <ele>254.18142700195</ele>
        <time>2016-02-15T09:55:50.000Z</time>
      </trkpt>
      <trkpt lat="47.18879" lon="3.17649">
        <ele>254.5795135498</ele>
        <time>2016-02-15T09:55:52.000Z</time>
      </trkpt>
      <trkpt lat="47.18876" lon="3.17651">
        <ele>254.97966003418</ele>
        <time>2016-02-15T09:55:55.000Z</time>
      </trkpt>
      <trkpt lat="47.18874" lon="3.17653">
        <ele>255.33377075195</ele>
        <time>2016-02-15T09:55:58.000Z</time>
      </trkpt>
      <trkpt lat="47.18871" lon="3.1766">
        <ele>255.80961608887</ele>
        <time>2016-02-15T09:56:04.000Z</time>
      </trkpt>
      <trkpt lat="47.18867" lon="3.17668">
        <ele>256.37442016602</ele>
        <time>2016-02-15T09:56:13.000Z</time>
      </trkpt>
      <trkpt lat="47.18864" lon="3.17674">
        <ele>256.94869995117</ele>
        <time>2016-02-15T09:56:23.000Z</time>
      </trkpt>
      <trkpt lat="47.18863" lon="3.17677">
        <ele>257.47280883789</ele>
        <time>2016-02-15T09:56:27.000Z</time>
      </trkpt>
      <trkpt lat="47.18861" lon="3.17683">
        <ele>258.04354858398</ele>
        <time>2016-02-15T09:56:30.000Z</time>
      </trkpt>
      <trkpt lat="47.1886" lon="3.17687">
        <ele>258.52813720703</ele>
        <time>2016-02-15T09:56:35.000Z</time>
      </trkpt>
      <trkpt lat="47.18859" lon="3.17694">
        <ele>258.93490600586</ele>
        <time>2016-02-15T09:56:38.000Z</time>
      </trkpt>
      <trkpt lat="47.18857" lon="3.17716">
        <ele>259.42144775391</ele>
        <time>2016-02-15T09:56:41.000Z</time>
      </trkpt>
      <trkpt lat="47.18857" lon="3.17718">
        <ele>259.88696289062</ele>
        <time>2016-02-15T09:56:47.000Z</time>
      </trkpt>
      <trkpt lat="47.18858" lon="3.1772">
        <ele>260.26840209961</ele>
        <time>2016-02-15T09:56:49.000Z</time>
      </trkpt>
      <trkpt lat="47.18856" lon="3.17728">
        <ele>260.66882324219</ele>
        <time>2016-02-15T09:56:53.000Z</time>
      </trkpt>
      <trkpt lat="47.18855" lon="3.17735">
        <ele>261.05926513672</ele>
        <time>2016-02-15T09:56:59.000Z</time>
      </trkpt>
      <trkpt lat="47.18855" lon="3.17743">
        <ele>261.29833984375</ele>
        <time>2016-02-15T09:57:03.000Z</time>
      </trkpt>
      <trkpt lat="47.18855" lon="3.1775">
        <ele>261.58126831055</ele>
        <time>2016-02-15T09:57:08.000Z</time>
      </trkpt>
      <trkpt lat="47.18856" lon="3.17757">
        <ele>261.93405151367</ele>
        <time>2016-02-15T09:57:12.000Z</time>
      </trkpt>
      <trkpt lat="47.18857" lon="3.17763">
        <ele>262.27679443359</ele>
        <time>2016-02-15T09:57:14.000Z</time>
      </trkpt>
      <trkpt lat="47.18858" lon="3.17769">
        <ele>262.61145019531</ele>
        <time>2016-02-15T09:57:16.000Z</time>
      </trkpt>
      <trkpt lat="47.18858" lon="3.17772">
        <ele>262.9211730957</ele>
        <time>2016-02-15T09:57:18.000Z</time>
      </trkpt>
      <trkpt lat="47.18859" lon="3.17778">
        <ele>263.23513793945</ele>
        <time>2016-02-15T09:57:21.000Z</time>
      </trkpt>
      <trkpt lat="47.1886" lon="3.17784">
        <ele>263.55853271484</ele>
        <time>2016-02-15T09:57:23.000Z</time>
      </trkpt>
      <trkpt lat="47.18862" lon="3.17789">
        <ele>263.85577392578</ele>
        <time>2016-02-15T09:57:26.000Z</time>
      </trkpt>
      <trkpt lat="47.18864" lon="3.17796">
        <ele>264.14987182617</ele>
        <time>2016-02-15T09:57:29.000Z</time>
      </trkpt>
      <trkpt lat="47.18865" lon="3.178">
        <ele>264.44555664062</ele>
        <time>2016-02-15T09:57:31.000Z</time>
      </trkpt>
      <trkpt lat="47.18866" lon="3.17801">
        <ele>264.69647216797</ele>
        <time>2016-02-15T09:57:35.000Z</time>
      </trkpt>
      <trkpt lat="47.18866" lon="3.17802">
        <ele>264.88003540039</ele>
        <time>2016-02-15T09:57:37.000Z</time>
      </trkpt>
      <trkpt lat="47.18868" lon="3.17805">
        <ele>265.03018188477</ele>
        <time>2016-02-15T09:57:40.000Z</time>
      </trkpt>
      <trkpt lat="47.18869" lon="3.17808">
        <ele>265.15591430664</ele>
        <time>2016-02-15T09:57:43.000Z</time>
      </trkpt>
      <trkpt lat="47.1887" lon="3.17814">
        <ele>265.31704711914</ele>
        <time>2016-02-15T09:57:46.000Z</time>
      </trkpt>
      <trkpt lat="47.18871" lon="3.17817">
        <ele>265.5078125</ele>
        <time>2016-02-15T09:57:48.000Z</time>
      </trkpt>
      <trkpt lat="47.18871" lon="3.17822">
        <ele>265.73968505859</ele>
        <time>2016-02-15T09:57:51.000Z</time>
      </trkpt>
      <trkpt lat="47.18872" lon="3.17829">
        <ele>266.06317138672</ele>
        <time>2016-02-15T09:57:54.000Z</time>
      </trkpt>
      <trkpt lat="47.18874" lon="3.17836">
        <ele>266.42587280273</ele>
        <time>2016-02-15T09:57:57.000Z</time>
      </trkpt>
      <trkpt lat="47.18875" lon="3.17841">
        <ele>266.76651000977</ele>
        <time>2016-02-15T09:57:59.000Z</time>
      </trkpt>
      <trkpt lat="47.18874" lon="3.17845">
        <ele>267.11270141602</ele>
        <time>2016-02-15T09:58:01.000Z</time>
      </trkpt>
      <trkpt lat="47.18874" lon="3.17848">
        <ele>267.44152832031</ele>
        <time>2016-02-15T09:58:03.000Z</time>
      </trkpt>
      <trkpt lat="47.18875" lon="3.17853">
        <ele>267.71112060547</ele>
        <time>2016-02-15T09:58:06.000Z</time>
      </trkpt>
      <trkpt lat="47.18875" lon="3.17862">
        <ele>268.00402832031</ele>
        <time>2016-02-15T09:58:10.000Z</time>
      </trkpt>
      <trkpt lat="47.18876" lon="3.17869">
        <ele>268.32797241211</ele>
        <time>2016-02-15T09:58:13.000Z</time>
      </trkpt>
      <trkpt lat="47.18877" lon="3.17877">
        <ele>268.69262695312</ele>
        <time>2016-02-15T09:58:16.000Z</time>
      </trkpt>
      <trkpt lat="47.18879" lon="3.17884">
        <ele>269.07894897461</ele>
        <time>2016-02-15T09:58:21.000Z</time>
      </trkpt>
      <trkpt lat="47.1888" lon="3.17885">
        <ele>269.42938232422</ele>
        <time>2016-02-15T09:58:23.000Z</time>
      </trkpt>
      <trkpt lat="47.18882" lon="3.17893">
        <ele>269.76449584961</ele>
        <time>2016-02-15T09:58:30.000Z</time>
      </trkpt>
      <trkpt lat="47.18884" lon="3.17899">
        <ele>270.07867431641</ele>
        <time>2016-02-15T09:58:35.000Z</time>
      </trkpt>
      <trkpt lat="47.18886" lon="3.17905">
        <ele>270.36846923828</ele>
        <time>2016-02-15T09:58:40.000Z</time>
      </trkpt>
      <trkpt lat="47.18887" lon="3.17908">
        <ele>270.62112426758</ele>
        <time>2016-02-15T09:58:42.000Z</time>
      </trkpt>
      <trkpt lat="47.18888" lon="3.17915">
        <ele>270.95571899414</ele>
        <time>2016-02-15T09:58:44.000Z</time>
      </trkpt>
      <trkpt lat="47.18889" lon="3.17921">
        <ele>271.24438476562</ele>
        <time>2016-02-15T09:58:48.000Z</time>
      </trkpt>
      <trkpt lat="47.18889" lon="3.17921">
        <ele>271.24438476562</ele>
        <time>2016-02-15T09:59:08.000Z</time>
      </trkpt>
      <trkpt lat="47.1889" lon="3.17923">
        <ele>271.47473144531</ele>
        <time>2016-02-15T09:59:09.000Z</time>
      </trkpt>
      <trkpt lat="47.18888" lon="3.17924">
        <ele>271.65863037109</ele>
        <time>2016-02-15T09:59:24.000Z</time>
      </trkpt>
      <trkpt lat="47.18893" lon="3.17921">
        <ele>271.77239990234</ele>
        <time>2016-02-15T09:59:34.000Z</time>
      </trkpt>
      <trkpt lat="47.18889" lon="3.17914">
        <ele>271.75665283203</ele>
        <time>2016-02-15T09:59:49.000Z</time>
      </trkpt>
      <trkpt lat="47.18886" lon="3.17911">
        <ele>271.67150878906</ele>
        <time>2016-02-15T09:59:51.000Z</time>
      </trkpt>
      <trkpt lat="47.18886" lon="3.17911">
        <ele>271.67150878906</ele>
        <time>2016-02-15T10:00:11.000Z</time>
      </trkpt>
      <trkpt lat="47.18886" lon="3.17914">
        <ele>271.61727905273</ele>
        <time>2016-02-15T10:00:41.000Z</time>
      </trkpt>
      <trkpt lat="47.18888" lon="3.17918">
        <ele>271.57632446289</ele>
        <time>2016-02-15T10:00:44.000Z</time>
      </trkpt>
      <trkpt lat="47.18891" lon="3.17929">
        <ele>271.63934326172</ele>
        <time>2016-02-15T10:00:48.000Z</time>
      </trkpt>
      <trkpt lat="47.18894" lon="3.17938">
        <ele>271.78451538086</ele>
        <time>2016-02-15T10:00:50.000Z</time>
      </trkpt>
      <trkpt lat="47.18895" lon="3.17945">
        <ele>271.99731445312</ele>
        <time>2016-02-15T10:00:53.000Z</time>
      </trkpt>
      <trkpt lat="47.18896" lon="3.17951">
        <ele>272.21264648438</ele>
        <time>2016-02-15T10:00:55.000Z</time>
      </trkpt>
      <trkpt lat="47.18895" lon="3.17954">
        <ele>272.41815185547</ele>
        <time>2016-02-15T10:00:57.000Z</time>
      </trkpt>
      <trkpt lat="47.18895" lon="3.17961">
        <ele>272.60678100586</ele>
        <time>2016-02-15T10:01:00.000Z</time>
      </trkpt>
      <trkpt lat="47.18896" lon="3.17973">
        <ele>272.82757568359</ele>
        <time>2016-02-15T10:01:03.000Z</time>
      </trkpt>
      <trkpt lat="47.18899" lon="3.17979">
        <ele>273.04333496094</ele>
        <time>2016-02-15T10:01:06.000Z</time>
      </trkpt>
      <trkpt lat="47.189" lon="3.17983">
        <ele>273.23989868164</ele>
        <time>2016-02-15T10:01:08.000Z</time>
      </trkpt>
      <trkpt lat="47.18901" lon="3.17986">
        <ele>273.43099975586</ele>
        <time>2016-02-15T10:01:11.000Z</time>
      </trkpt>
      <trkpt lat="47.18903" lon="3.1799">
        <ele>273.60342407227</ele>
        <time>2016-02-15T10:01:14.000Z</time>
      </trkpt>
      <trkpt lat="47.18904" lon="3.17993">
        <ele>273.71594238281</ele>
        <time>2016-02-15T10:01:16.000Z</time>
      </trkpt>
      <trkpt lat="47.18906" lon="3.17997">
        <ele>273.81829833984</ele>
        <time>2016-02-15T10:01:19.000Z</time>
      </trkpt>
      <trkpt lat="47.18907" lon="3.18">
        <ele>273.91946411133</ele>
        <time>2016-02-15T10:01:22.000Z</time>
      </trkpt>
      <trkpt lat="47.18908" lon="3.18004">
        <ele>274.02267456055</ele>
        <time>2016-02-15T10:01:25.000Z</time>
      </trkpt>
      <trkpt lat="47.18909" lon="3.18007">
        <ele>274.11346435547</ele>
        <time>2016-02-15T10:01:27.000Z</time>
      </trkpt>
      <trkpt lat="47.18909" lon="3.18011">
        <ele>274.21008300781</ele>
        <time>2016-02-15T10:01:30.000Z</time>
      </trkpt>
      <trkpt lat="47.1891" lon="3.18016">
        <ele>274.30386352539</ele>
        <time>2016-02-15T10:01:33.000Z</time>
      </trkpt>
      <trkpt lat="47.18911" lon="3.18019">
        <ele>274.39422607422</ele>
        <time>2016-02-15T10:01:36.000Z</time>
      </trkpt>
      <trkpt lat="47.18913" lon="3.18022">
        <ele>274.47427368164</ele>
        <time>2016-02-15T10:01:39.000Z</time>
      </trkpt>
      <trkpt lat="47.18915" lon="3.18032">
        <ele>274.57849121094</ele>
        <time>2016-02-15T10:01:42.000Z</time>
      </trkpt>
      <trkpt lat="47.18916" lon="3.18037">
        <ele>274.68167114258</ele>
        <time>2016-02-15T10:01:45.000Z</time>
      </trkpt>
      <trkpt lat="47.18916" lon="3.18042">
        <ele>274.78692626953</ele>
        <time>2016-02-15T10:01:48.000Z</time>
      </trkpt>
      <trkpt lat="47.18916" lon="3.18049">
        <ele>274.91137695312</ele>
        <time>2016-02-15T10:01:53.000Z</time>
      </trkpt>
      <trkpt lat="47.18916" lon="3.18051">
        <ele>275.03472900391</ele>
        <time>2016-02-15T10:01:57.000Z</time>
      </trkpt>
      <trkpt lat="47.18919" lon="3.18066">
        <ele>275.1741027832</ele>
        <time>2016-02-15T10:02:00.000Z</time>
      </trkpt>
      <trkpt lat="47.1892" lon="3.18075">
        <ele>275.33432006836</ele>
        <time>2016-02-15T10:02:03.000Z</time>
      </trkpt>
      <trkpt lat="47.18921" lon="3.18077">
        <ele>275.47808837891</ele>
        <time>2016-02-15T10:02:06.000Z</time>
      </trkpt>
      <trkpt lat="47.18924" lon="3.18081">
        <ele>275.59408569336</ele>
        <time>2016-02-15T10:02:09.000Z</time>
      </trkpt>
      <trkpt lat="47.18924" lon="3.18085">
        <ele>275.7301940918</ele>
        <time>2016-02-15T10:02:13.000Z</time>
      </trkpt>
      <trkpt lat="47.18925" lon="3.18093">
        <ele>275.88168334961</ele>
        <time>2016-02-15T10:02:17.000Z</time>
      </trkpt>
      <trkpt lat="47.18925" lon="3.18097">
        <ele>276.03036499023</ele>
        <time>2016-02-15T10:02:18.000Z</time>
      </trkpt>
      <trkpt lat="47.18925" lon="3.18099">
        <ele>276.18472290039</ele>
        <time>2016-02-15T10:02:21.000Z</time>
      </trkpt>
      <trkpt lat="47.18927" lon="3.18106">
        <ele>276.38739013672</ele>
        <time>2016-02-15T10:02:23.000Z</time>
      </trkpt>
      <trkpt lat="47.18928" lon="3.18109">
        <ele>276.59112548828</ele>
        <time>2016-02-15T10:02:25.000Z</time>
      </trkpt>
      <trkpt lat="47.18929" lon="3.18114">
        <ele>276.76544189453</ele>
        <time>2016-02-15T10:02:28.000Z</time>
      </trkpt>
      <trkpt lat="47.18931" lon="3.18117">
        <ele>276.92077636719</ele>
        <time>2016-02-15T10:02:30.000Z</time>
      </trkpt>
      <trkpt lat="47.18932" lon="3.18122">
        <ele>277.09231567383</ele>
        <time>2016-02-15T10:02:33.000Z</time>
      </trkpt>
      <trkpt lat="47.18933" lon="3.18125">
        <ele>277.23489379883</ele>
        <time>2016-02-15T10:02:36.000Z</time>
      </trkpt>
      <trkpt lat="47.18933" lon="3.18126">
        <ele>277.35809326172</ele>
        <time>2016-02-15T10:02:38.000Z</time>
      </trkpt>
      <trkpt lat="47.18934" lon="3.18129">
        <ele>277.46301269531</ele>
        <time>2016-02-15T10:02:41.000Z</time>
      </trkpt>
      <trkpt lat="47.18935" lon="3.18134">
        <ele>277.58428955078</ele>
        <time>2016-02-15T10:02:44.000Z</time>
      </trkpt>
      <trkpt lat="47.18937" lon="3.18138">
        <ele>277.70370483398</ele>
        <time>2016-02-15T10:02:47.000Z</time>
      </trkpt>
      <trkpt lat="47.1894" lon="3.18146">
        <ele>277.85116577148</ele>
        <time>2016-02-15T10:02:50.000Z</time>
      </trkpt>
      <trkpt lat="47.1894" lon="3.18149">
        <ele>278.01754760742</ele>
        <time>2016-02-15T10:02:52.000Z</time>
      </trkpt>
      <trkpt lat="47.1894" lon="3.18157">
        <ele>278.22552490234</ele>
        <time>2016-02-15T10:02:55.000Z</time>
      </trkpt>
      <trkpt lat="47.18941" lon="3.1816">
        <ele>278.42132568359</ele>
        <time>2016-02-15T10:02:57.000Z</time>
      </trkpt>
      <trkpt lat="47.18943" lon="3.18164">
        <ele>278.61428833008</ele>
        <time>2016-02-15T10:03:00.000Z</time>
      </trkpt>
      <trkpt lat="47.18945" lon="3.18167">
        <ele>278.76522827148</ele>
        <time>2016-02-15T10:03:02.000Z</time>
      </trkpt>
      <trkpt lat="47.18945" lon="3.18168">
        <ele>278.88800048828</ele>
        <time>2016-02-15T10:03:05.000Z</time>
      </trkpt>
      <trkpt lat="47.18945" lon="3.18173">
        <ele>278.95874023438</ele>
        <time>2016-02-15T10:03:08.000Z</time>
      </trkpt>
      <trkpt lat="47.18949" lon="3.1818">
        <ele>278.99423217773</ele>
        <time>2016-02-15T10:03:11.000Z</time>
      </trkpt>
      <trkpt lat="47.1895" lon="3.18181">
        <ele>279.00018310547</ele>
        <time>2016-02-15T10:03:16.000Z</time>
      </trkpt>
      <trkpt lat="47.18954" lon="3.18186">
        <ele>278.96401977539</ele>
        <time>2016-02-15T10:03:19.000Z</time>
      </trkpt>
      <trkpt lat="47.18958" lon="3.18192">
        <ele>278.89779663086</ele>
        <time>2016-02-15T10:03:22.000Z</time>
      </trkpt>
      <trkpt lat="47.18962" lon="3.18194">
        <ele>278.78631591797</ele>
        <time>2016-02-15T10:03:25.000Z</time>
      </trkpt>
      <trkpt lat="47.18962" lon="3.18194">
        <ele>278.78631591797</ele>
        <time>2016-02-15T10:03:45.000Z</time>
      </trkpt>
      <trkpt lat="47.18964" lon="3.18192">
        <ele>278.66915893555</ele>
        <time>2016-02-15T10:03:51.000Z</time>
      </trkpt>
      <trkpt lat="47.18969" lon="3.18193">
        <ele>278.51135253906</ele>
        <time>2016-02-15T10:03:55.000Z</time>
      </trkpt>
      <trkpt lat="47.18975" lon="3.18194">
        <ele>278.32507324219</ele>
        <time>2016-02-15T10:03:58.000Z</time>
      </trkpt>
      <trkpt lat="47.1898" lon="3.18192">
        <ele>278.11483764648</ele>
        <time>2016-02-15T10:04:04.000Z</time>
      </trkpt>
      <trkpt lat="47.18989" lon="3.18188">
        <ele>277.86346435547</ele>
        <time>2016-02-15T10:04:07.000Z</time>
      </trkpt>
      <trkpt lat="47.1899" lon="3.18187">
        <ele>277.61978149414</ele>
        <time>2016-02-15T10:04:09.000Z</time>
      </trkpt>
      <trkpt lat="47.18993" lon="3.18185">
        <ele>277.40707397461</ele>
        <time>2016-02-15T10:04:12.000Z</time>
      </trkpt>
      <trkpt lat="47.18996" lon="3.18183">
        <ele>277.22406005859</ele>
        <time>2016-02-15T10:04:14.000Z</time>
      </trkpt>
      <trkpt lat="47.19" lon="3.18182">
        <ele>277.05905151367</ele>
        <time>2016-02-15T10:04:17.000Z</time>
      </trkpt>
      <trkpt lat="47.19002" lon="3.18182">
        <ele>276.93399047852</ele>
        <time>2016-02-15T10:04:19.000Z</time>
      </trkpt>
      <trkpt lat="47.19005" lon="3.18182">
        <ele>276.77432250977</ele>
        <time>2016-02-15T10:04:22.000Z</time>
      </trkpt>
      <trkpt lat="47.19008" lon="3.1818">
        <ele>276.56597900391</ele>
        <time>2016-02-15T10:04:24.000Z</time>
      </trkpt>
      <trkpt lat="47.19011" lon="3.18178">
        <ele>276.33599853516</ele>
        <time>2016-02-15T10:04:27.000Z</time>
      </trkpt>
      <trkpt lat="47.19013" lon="3.18178">
        <ele>276.11141967773</ele>
        <time>2016-02-15T10:04:29.000Z</time>
      </trkpt>
      <trkpt lat="47.19015" lon="3.18178">
        <ele>275.88687133789</ele>
        <time>2016-02-15T10:04:31.000Z</time>
      </trkpt>
      <trkpt lat="47.19018" lon="3.18176">
        <ele>275.64834594727</ele>
        <time>2016-02-15T10:04:34.000Z</time>
      </trkpt>
      <trkpt lat="47.19022" lon="3.18174">
        <ele>275.3994140625</ele>
        <time>2016-02-15T10:04:37.000Z</time>
      </trkpt>
      <trkpt lat="47.19025" lon="3.18173">
        <ele>275.1555480957</ele>
        <time>2016-02-15T10:04:39.000Z</time>
      </trkpt>
      <trkpt lat="47.19027" lon="3.18173">
        <ele>274.89581298828</ele>
        <time>2016-02-15T10:04:41.000Z</time>
      </trkpt>
      <trkpt lat="47.1903" lon="3.18171">
        <ele>274.62899780273</ele>
        <time>2016-02-15T10:04:44.000Z</time>
      </trkpt>
      <trkpt lat="47.19033" lon="3.1817">
        <ele>274.35113525391</ele>
        <time>2016-02-15T10:04:46.000Z</time>
      </trkpt>
      <trkpt lat="47.19036" lon="3.18169">
        <ele>274.09286499023</ele>
        <time>2016-02-15T10:04:48.000Z</time>
      </trkpt>
      <trkpt lat="47.19038" lon="3.18169">
        <ele>273.83306884766</ele>
        <time>2016-02-15T10:04:50.000Z</time>
      </trkpt>
      <trkpt lat="47.1904" lon="3.18168">
        <ele>273.58798217773</ele>
        <time>2016-02-15T10:04:52.000Z</time>
      </trkpt>
      <trkpt lat="47.19043" lon="3.18168">
        <ele>273.32525634766</ele>
        <time>2016-02-15T10:04:55.000Z</time>
      </trkpt>
      <trkpt lat="47.19046" lon="3.18167">
        <ele>273.07684326172</ele>
        <time>2016-02-15T10:04:57.000Z</time>
      </trkpt>
      <trkpt lat="47.1905" lon="3.18165">
        <ele>272.7907409668</ele>
        <time>2016-02-15T10:05:00.000Z</time>
      </trkpt>
      <trkpt lat="47.19052" lon="3.18164">
        <ele>272.5080871582</ele>
        <time>2016-02-15T10:05:02.000Z</time>
      </trkpt>
      <trkpt lat="47.19057" lon="3.18164">
        <ele>272.15609741211</ele>
        <time>2016-02-15T10:05:05.000Z</time>
      </trkpt>
      <trkpt lat="47.19059" lon="3.18164">
        <ele>271.82229614258</ele>
        <time>2016-02-15T10:05:07.000Z</time>
      </trkpt>
      <trkpt lat="47.19062" lon="3.18165">
        <ele>271.48934936523</ele>
        <time>2016-02-15T10:05:10.000Z</time>
      </trkpt>
      <trkpt lat="47.19065" lon="3.18167">
        <ele>271.21401977539</ele>
        <time>2016-02-15T10:05:13.000Z</time>
      </trkpt>
      <trkpt lat="47.19067" lon="3.18168">
        <ele>270.94427490234</ele>
        <time>2016-02-15T10:05:15.000Z</time>
      </trkpt>
      <trkpt lat="47.19071" lon="3.18167">
        <ele>270.71160888672</ele>
        <time>2016-02-15T10:05:18.000Z</time>
      </trkpt>
      <trkpt lat="47.19073" lon="3.18167">
        <ele>270.48324584961</ele>
        <time>2016-02-15T10:05:20.000Z</time>
      </trkpt>
      <trkpt lat="47.19075" lon="3.18167">
        <ele>270.2526550293</ele>
        <time>2016-02-15T10:05:22.000Z</time>
      </trkpt>
      <trkpt lat="47.19078" lon="3.18166">
        <ele>270.00158691406</ele>
        <time>2016-02-15T10:05:25.000Z</time>
      </trkpt>
      <trkpt lat="47.1908" lon="3.18165">
        <ele>269.73965454102</ele>
        <time>2016-02-15T10:05:27.000Z</time>
      </trkpt>
      <trkpt lat="47.19084" lon="3.18164">
        <ele>269.45986938477</ele>
        <time>2016-02-15T10:05:30.000Z</time>
      </trkpt>
      <trkpt lat="47.19086" lon="3.18165">
        <ele>269.18267822266</ele>
        <time>2016-02-15T10:05:33.000Z</time>
      </trkpt>
      <trkpt lat="47.19087" lon="3.18164">
        <ele>268.94769287109</ele>
        <time>2016-02-15T10:05:36.000Z</time>
      </trkpt>
      <trkpt lat="47.19089" lon="3.18163">
        <ele>268.71246337891</ele>
        <time>2016-02-15T10:05:39.000Z</time>
      </trkpt>
      <trkpt lat="47.19091" lon="3.18161">
        <ele>268.46704101562</ele>
        <time>2016-02-15T10:05:42.000Z</time>
      </trkpt>
      <trkpt lat="47.19094" lon="3.1816">
        <ele>268.24160766602</ele>
        <time>2016-02-15T10:05:45.000Z</time>
      </trkpt>
      <trkpt lat="47.19106" lon="3.18158">
        <ele>267.83950805664</ele>
        <time>2016-02-15T10:05:48.000Z</time>
      </trkpt>
      <trkpt lat="47.19116" lon="3.18157">
        <ele>267.26956176758</ele>
        <time>2016-02-15T10:05:57.000Z</time>
      </trkpt>
      <trkpt lat="47.19117" lon="3.18156">
        <ele>266.72253417969</ele>
        <time>2016-02-15T10:06:00.000Z</time>
      </trkpt>
      <trkpt lat="47.19121" lon="3.18156">
        <ele>266.18075561523</ele>
        <time>2016-02-15T10:06:03.000Z</time>
      </trkpt>
      <trkpt lat="47.19125" lon="3.18157">
        <ele>265.63031005859</ele>
        <time>2016-02-15T10:06:06.000Z</time>
      </trkpt>
      <trkpt lat="47.19128" lon="3.18156">
        <ele>265.23046875</ele>
        <time>2016-02-15T10:06:09.000Z</time>
      </trkpt>
      <trkpt lat="47.19132" lon="3.18156">
        <ele>264.96118164062</ele>
        <time>2016-02-15T10:06:12.000Z</time>
      </trkpt>
      <trkpt lat="47.19133" lon="3.18156">
        <ele>264.69583129883</ele>
        <time>2016-02-15T10:06:15.000Z</time>
      </trkpt>
      <trkpt lat="47.19138" lon="3.18156">
        <ele>264.42001342773</ele>
        <time>2016-02-15T10:06:18.000Z</time>
      </trkpt>
      <trkpt lat="47.1914" lon="3.18156">
        <ele>264.16217041016</ele>
        <time>2016-02-15T10:06:20.000Z</time>
      </trkpt>
      <trkpt lat="47.19143" lon="3.18156">
        <ele>263.91973876953</ele>
        <time>2016-02-15T10:06:23.000Z</time>
      </trkpt>
      <trkpt lat="47.19148" lon="3.18155">
        <ele>263.64227294922</ele>
        <time>2016-02-15T10:06:26.000Z</time>
      </trkpt>
      <trkpt lat="47.19152" lon="3.18156">
        <ele>263.34338378906</ele>
        <time>2016-02-15T10:06:29.000Z</time>
      </trkpt>
      <trkpt lat="47.19157" lon="3.18156">
        <ele>263.00939941406</ele>
        <time>2016-02-15T10:06:32.000Z</time>
      </trkpt>
      <trkpt lat="47.19159" lon="3.18155">
        <ele>262.69012451172</ele>
        <time>2016-02-15T10:06:34.000Z</time>
      </trkpt>
      <trkpt lat="47.19161" lon="3.18154">
        <ele>262.37704467773</ele>
        <time>2016-02-15T10:06:37.000Z</time>
      </trkpt>
      <trkpt lat="47.19162" lon="3.18153">
        <ele>262.13265991211</ele>
        <time>2016-02-15T10:06:40.000Z</time>
      </trkpt>
      <trkpt lat="47.19164" lon="3.18154">
        <ele>261.91278076172</ele>
        <time>2016-02-15T10:06:43.000Z</time>
      </trkpt>
      <trkpt lat="47.19172" lon="3.18156">
        <ele>261.74697875977</ele>
        <time>2016-02-15T10:06:46.000Z</time>
      </trkpt>
      <trkpt lat="47.19178" lon="3.18158">
        <ele>261.61358642578</ele>
        <time>2016-02-15T10:06:49.000Z</time>
      </trkpt>
      <trkpt lat="47.19182" lon="3.1816">
        <ele>261.53286743164</ele>
        <time>2016-02-15T10:06:52.000Z</time>
      </trkpt>
      <trkpt lat="47.19186" lon="3.18163">
        <ele>261.49649047852</ele>
        <time>2016-02-15T10:06:55.000Z</time>
      </trkpt>
      <trkpt lat="47.19189" lon="3.18166">
        <ele>261.50543212891</ele>
        <time>2016-02-15T10:06:57.000Z</time>
      </trkpt>
      <trkpt lat="47.19194" lon="3.18168">
        <ele>261.56695556641</ele>
        <time>2016-02-15T10:07:00.000Z</time>
      </trkpt>
      <trkpt lat="47.19198" lon="3.18169">
        <ele>261.62911987305</ele>
        <time>2016-02-15T10:07:03.000Z</time>
      </trkpt>
      <trkpt lat="47.19199" lon="3.18168">
        <ele>261.67205810547</ele>
        <time>2016-02-15T10:07:05.000Z</time>
      </trkpt>
      <trkpt lat="47.19204" lon="3.18169">
        <ele>261.68325805664</ele>
        <time>2016-02-15T10:07:08.000Z</time>
      </trkpt>
      <trkpt lat="47.19206" lon="3.18169">
        <ele>261.66900634766</ele>
        <time>2016-02-15T10:07:10.000Z</time>
      </trkpt>
      <trkpt lat="47.1921" lon="3.18169">
        <ele>261.64282226562</ele>
        <time>2016-02-15T10:07:13.000Z</time>
      </trkpt>
      <trkpt lat="47.19213" lon="3.18169">
        <ele>261.61734008789</ele>
        <time>2016-02-15T10:07:15.000Z</time>
      </trkpt>
      <trkpt lat="47.19218" lon="3.1817">
        <ele>261.60314941406</ele>
        <time>2016-02-15T10:07:18.000Z</time>
      </trkpt>
      <trkpt lat="47.1922" lon="3.1817">
        <ele>261.58697509766</ele>
        <time>2016-02-15T10:07:20.000Z</time>
      </trkpt>
      <trkpt lat="47.19223" lon="3.1817">
        <ele>261.5637512207</ele>
        <time>2016-02-15T10:07:23.000Z</time>
      </trkpt>
      <trkpt lat="47.19226" lon="3.1817">
        <ele>261.53729248047</ele>
        <time>2016-02-15T10:07:25.000Z</time>
      </trkpt>
      <trkpt lat="47.19231" lon="3.18168">
        <ele>261.48294067383</ele>
        <time>2016-02-15T10:07:28.000Z</time>
      </trkpt>
      <trkpt lat="47.19234" lon="3.18167">
        <ele>261.39984130859</ele>
        <time>2016-02-15T10:07:30.000Z</time>
      </trkpt>
      <trkpt lat="47.19237" lon="3.18166">
        <ele>261.31405639648</ele>
        <time>2016-02-15T10:07:32.000Z</time>
      </trkpt>
      <trkpt lat="47.19241" lon="3.18166">
        <ele>261.22894287109</ele>
        <time>2016-02-15T10:07:35.000Z</time>
      </trkpt>
      <trkpt lat="47.19244" lon="3.18166">
        <ele>261.14157104492</ele>
        <time>2016-02-15T10:07:37.000Z</time>
      </trkpt>
      <trkpt lat="47.19246" lon="3.18166">
        <ele>261.08026123047</ele>
        <time>2016-02-15T10:07:39.000Z</time>
      </trkpt>
      <trkpt lat="47.1925" lon="3.18166">
        <ele>261.03704833984</ele>
        <time>2016-02-15T10:07:42.000Z</time>
      </trkpt>
      <trkpt lat="47.19252" lon="3.18166">
        <ele>260.98257446289</ele>
        <time>2016-02-15T10:07:44.000Z</time>
      </trkpt>
      <trkpt lat="47.19256" lon="3.18165">
        <ele>260.89950561523</ele>
        <time>2016-02-15T10:07:47.000Z</time>
      </trkpt>
      <trkpt lat="47.19259" lon="3.18165">
        <ele>260.80081176758</ele>
        <time>2016-02-15T10:07:49.000Z</time>
      </trkpt>
      <trkpt lat="47.19261" lon="3.18165">
        <ele>260.69250488281</ele>
        <time>2016-02-15T10:07:52.000Z</time>
      </trkpt>
      <trkpt lat="47.19263" lon="3.18165">
        <ele>260.58486938477</ele>
        <time>2016-02-15T10:07:54.000Z</time>
      </trkpt>
      <trkpt lat="47.19266" lon="3.18166">
        <ele>260.49252319336</ele>
        <time>2016-02-15T10:07:57.000Z</time>
      </trkpt>
      <trkpt lat="47.19268" lon="3.18167">
        <ele>260.43966674805</ele>
        <time>2016-02-15T10:07:59.000Z</time>
      </trkpt>
      <trkpt lat="47.19271" lon="3.18169">
        <ele>260.41674804688</ele>
        <time>2016-02-15T10:08:02.000Z</time>
      </trkpt>
      <trkpt lat="47.19274" lon="3.1817">
        <ele>260.41528320312</ele>
        <time>2016-02-15T10:08:05.000Z</time>
      </trkpt>
      <trkpt lat="47.19278" lon="3.18172">
        <ele>260.43130493164</ele>
        <time>2016-02-15T10:08:07.000Z</time>
      </trkpt>
      <trkpt lat="47.19281" lon="3.18175">
        <ele>260.47671508789</ele>
        <time>2016-02-15T10:08:10.000Z</time>
      </trkpt>
      <trkpt lat="47.19284" lon="3.18176">
        <ele>260.53567504883</ele>
        <time>2016-02-15T10:08:13.000Z</time>
      </trkpt>
      <trkpt lat="47.19287" lon="3.18177">
        <ele>260.58349609375</ele>
        <time>2016-02-15T10:08:15.000Z</time>
      </trkpt>
      <trkpt lat="47.19292" lon="3.18176">
        <ele>260.58303833008</ele>
        <time>2016-02-15T10:08:18.000Z</time>
      </trkpt>
      <trkpt lat="47.19294" lon="3.18176">
        <ele>260.55377197266</ele>
        <time>2016-02-15T10:08:20.000Z</time>
      </trkpt>
      <trkpt lat="47.19299" lon="3.18178">
        <ele>260.51611328125</ele>
        <time>2016-02-15T10:08:23.000Z</time>
      </trkpt>
      <trkpt lat="47.193" lon="3.18178">
        <ele>260.46426391602</ele>
        <time>2016-02-15T10:08:25.000Z</time>
      </trkpt>
      <trkpt lat="47.19304" lon="3.18181">
        <ele>260.46038818359</ele>
        <time>2016-02-15T10:08:28.000Z</time>
      </trkpt>
      <trkpt lat="47.19306" lon="3.18181">
        <ele>260.49853515625</ele>
        <time>2016-02-15T10:08:30.000Z</time>
      </trkpt>
      <trkpt lat="47.19309" lon="3.18183">
        <ele>260.56707763672</ele>
        <time>2016-02-15T10:08:32.000Z</time>
      </trkpt>
      <trkpt lat="47.19312" lon="3.18183">
        <ele>260.61508178711</ele>
        <time>2016-02-15T10:08:35.000Z</time>
      </trkpt>
      <trkpt lat="47.19315" lon="3.18183">
        <ele>260.65502929688</ele>
        <time>2016-02-15T10:08:38.000Z</time>
      </trkpt>
      <trkpt lat="47.19318" lon="3.18183">
        <ele>260.63500976562</ele>
        <time>2016-02-15T10:08:41.000Z</time>
      </trkpt>
      <trkpt lat="47.19323" lon="3.18185">
        <ele>260.64053344727</ele>
        <time>2016-02-15T10:08:44.000Z</time>
      </trkpt>
      <trkpt lat="47.19326" lon="3.18186">
        <ele>260.63836669922</ele>
        <time>2016-02-15T10:08:47.000Z</time>
      </trkpt>
      <trkpt lat="47.1933" lon="3.18186">
        <ele>260.62152099609</ele>
        <time>2016-02-15T10:08:49.000Z</time>
      </trkpt>
      <trkpt lat="47.19332" lon="3.18187">
        <ele>260.63330078125</ele>
        <time>2016-02-15T10:08:52.000Z</time>
      </trkpt>
      <trkpt lat="47.19336" lon="3.18188">
        <ele>260.63973999023</ele>
        <time>2016-02-15T10:08:55.000Z</time>
      </trkpt>
      <trkpt lat="47.19348" lon="3.18189">
        <ele>260.45974731445</ele>
        <time>2016-02-15T10:08:58.000Z</time>
      </trkpt>
      <trkpt lat="47.19351" lon="3.18189">
        <ele>260.22888183594</ele>
        <time>2016-02-15T10:09:00.000Z</time>
      </trkpt>
      <trkpt lat="47.19355" lon="3.1819">
        <ele>259.99551391602</ele>
        <time>2016-02-15T10:09:03.000Z</time>
      </trkpt>
      <trkpt lat="47.19357" lon="3.1819">
        <ele>259.70428466797</ele>
        <time>2016-02-15T10:09:05.000Z</time>
      </trkpt>
      <trkpt lat="47.19359" lon="3.1819">
        <ele>259.40515136719</ele>
        <time>2016-02-15T10:09:08.000Z</time>
      </trkpt>
      <trkpt lat="47.19361" lon="3.1819">
        <ele>259.23419189453</ele>
        <time>2016-02-15T10:09:11.000Z</time>
      </trkpt>
      <trkpt lat="47.19368" lon="3.1819">
        <ele>259.00094604492</ele>
        <time>2016-02-15T10:09:14.000Z</time>
      </trkpt>
      <trkpt lat="47.19371" lon="3.1819">
        <ele>258.73956298828</ele>
        <time>2016-02-15T10:09:17.000Z</time>
      </trkpt>
      <trkpt lat="47.19373" lon="3.1819">
        <ele>258.48187255859</ele>
        <time>2016-02-15T10:09:23.000Z</time>
      </trkpt>
      <trkpt lat="47.19375" lon="3.18191">
        <ele>258.24716186523</ele>
        <time>2016-02-15T10:09:23.000Z</time>
      </trkpt>
      <trkpt lat="47.19377" lon="3.18191">
        <ele>258.02682495117</ele>
        <time>2016-02-15T10:09:24.000Z</time>
      </trkpt>
      <trkpt lat="47.19379" lon="3.18192">
        <ele>257.90301513672</ele>
        <time>2016-02-15T10:09:26.000Z</time>
      </trkpt>
      <trkpt lat="47.19383" lon="3.18194">
        <ele>257.83966064453</ele>
        <time>2016-02-15T10:09:29.000Z</time>
      </trkpt>
      <trkpt lat="47.19386" lon="3.18195">
        <ele>257.82434082031</ele>
        <time>2016-02-15T10:09:31.000Z</time>
      </trkpt>
      <trkpt lat="47.19387" lon="3.18197">
        <ele>257.83560180664</ele>
        <time>2016-02-15T10:09:33.000Z</time>
      </trkpt>
      <trkpt lat="47.1939" lon="3.18199">
        <ele>257.89837646484</ele>
        <time>2016-02-15T10:09:36.000Z</time>
      </trkpt>
      <trkpt lat="47.19393" lon="3.18202">
        <ele>258.04623413086</ele>
        <time>2016-02-15T10:09:40.000Z</time>
      </trkpt>
      <trkpt lat="47.19396" lon="3.18205">
        <ele>258.23681640625</ele>
        <time>2016-02-15T10:09:42.000Z</time>
      </trkpt>
      <trkpt lat="47.19399" lon="3.18206">
        <ele>258.40484619141</ele>
        <time>2016-02-15T10:09:53.000Z</time>
      </trkpt>
      <trkpt lat="47.19401" lon="3.18208">
        <ele>258.58972167969</ele>
        <time>2016-02-15T10:09:55.000Z</time>
      </trkpt>
      <trkpt lat="47.19404" lon="3.18211">
        <ele>258.83340454102</ele>
        <time>2016-02-15T10:09:55.000Z</time>
      </trkpt>
      <trkpt lat="47.19409" lon="3.18215">
        <ele>259.09759521484</ele>
        <time>2016-02-15T10:09:55.000Z</time>
      </trkpt>
      <trkpt lat="47.19411" lon="3.18218">
        <ele>259.39373779297</ele>
        <time>2016-02-15T10:09:56.000Z</time>
      </trkpt>
      <trkpt lat="47.19415" lon="3.18221">
        <ele>259.74761962891</ele>
        <time>2016-02-15T10:10:00.000Z</time>
      </trkpt>
      <trkpt lat="47.19416" lon="3.18223">
        <ele>260.13012695312</ele>
        <time>2016-02-15T10:10:01.000Z</time>
      </trkpt>
      <trkpt lat="47.19418" lon="3.18225">
        <ele>260.47326660156</ele>
        <time>2016-02-15T10:10:03.000Z</time>
      </trkpt>
      <trkpt lat="47.1942" lon="3.18227">
        <ele>260.73028564453</ele>
        <time>2016-02-15T10:10:06.000Z</time>
      </trkpt>
      <trkpt lat="47.19421" lon="3.18228">
        <ele>260.92291259766</ele>
        <time>2016-02-15T10:10:09.000Z</time>
      </trkpt>
      <trkpt lat="47.19424" lon="3.1823">
        <ele>261.08306884766</ele>
        <time>2016-02-15T10:10:11.000Z</time>
      </trkpt>
      <trkpt lat="47.19427" lon="3.18234">
        <ele>261.26309204102</ele>
        <time>2016-02-15T10:10:14.000Z</time>
      </trkpt>
      <trkpt lat="47.1943" lon="3.18239">
        <ele>261.49417114258</ele>
        <time>2016-02-15T10:10:17.000Z</time>
      </trkpt>
      <trkpt lat="47.19431" lon="3.1824">
        <ele>261.73843383789</ele>
        <time>2016-02-15T10:10:20.000Z</time>
      </trkpt>
      <trkpt lat="47.19432" lon="3.18242">
        <ele>262.01422119141</ele>
        <time>2016-02-15T10:10:22.000Z</time>
      </trkpt>
      <trkpt lat="47.19438" lon="3.18247">
        <ele>262.32788085938</ele>
        <time>2016-02-15T10:10:24.000Z</time>
      </trkpt>
      <trkpt lat="47.19441" lon="3.18247">
        <ele>262.48672485352</ele>
        <time>2016-02-15T10:10:27.000Z</time>
      </trkpt>
      <trkpt lat="47.19444" lon="3.18247">
        <ele>262.49975585938</ele>
        <time>2016-02-15T10:10:29.000Z</time>
      </trkpt>
      <trkpt lat="47.19447" lon="3.18248">
        <ele>262.41491699219</ele>
        <time>2016-02-15T10:10:32.000Z</time>
      </trkpt>
      <trkpt lat="47.1945" lon="3.18249">
        <ele>262.26147460938</ele>
        <time>2016-02-15T10:10:34.000Z</time>
      </trkpt>
      <trkpt lat="47.19455" lon="3.18254">
        <ele>262.04083251953</ele>
        <time>2016-02-15T10:10:37.000Z</time>
      </trkpt>
      <trkpt lat="47.19459" lon="3.18257">
        <ele>261.8415222168</ele>
        <time>2016-02-15T10:10:40.000Z</time>
      </trkpt>
      <trkpt lat="47.19461" lon="3.18259">
        <ele>261.67910766602</ele>
        <time>2016-02-15T10:10:42.000Z</time>
      </trkpt>
      <trkpt lat="47.19464" lon="3.18264">
        <ele>261.63088989258</ele>
        <time>2016-02-15T10:10:45.000Z</time>
      </trkpt>
      <trkpt lat="47.19466" lon="3.18266">
        <ele>261.59225463867</ele>
        <time>2016-02-15T10:10:47.000Z</time>
      </trkpt>
      <trkpt lat="47.19469" lon="3.18268">
        <ele>261.56784057617</ele>
        <time>2016-02-15T10:10:49.000Z</time>
      </trkpt>
      <trkpt lat="47.19473" lon="3.1827">
        <ele>261.55023193359</ele>
        <time>2016-02-15T10:10:52.000Z</time>
      </trkpt>
      <trkpt lat="47.19476" lon="3.18272">
        <ele>261.50897216797</ele>
        <time>2016-02-15T10:10:55.000Z</time>
      </trkpt>
      <trkpt lat="47.19478" lon="3.18274">
        <ele>261.42669677734</ele>
        <time>2016-02-15T10:10:57.000Z</time>
      </trkpt>
      <trkpt lat="47.19481" lon="3.18275">
        <ele>261.33532714844</ele>
        <time>2016-02-15T10:11:00.000Z</time>
      </trkpt>
      <trkpt lat="47.19484" lon="3.18276">
        <ele>261.20971679688</ele>
        <time>2016-02-15T10:11:14.000Z</time>
      </trkpt>
      <trkpt lat="47.19485" lon="3.18278">
        <ele>261.12274169922</ele>
        <time>2016-02-15T10:11:19.000Z</time>
      </trkpt>
      <trkpt lat="47.19487" lon="3.18279">
        <ele>261.07772827148</ele>
        <time>2016-02-15T10:11:20.000Z</time>
      </trkpt>
      <trkpt lat="47.19492" lon="3.18284">
        <ele>261.06323242188</ele>
        <time>2016-02-15T10:11:21.000Z</time>
      </trkpt>
      <trkpt lat="47.19495" lon="3.18287">
        <ele>261.10125732422</ele>
        <time>2016-02-15T10:11:29.000Z</time>
      </trkpt>
      <trkpt lat="47.19498" lon="3.18292">
        <ele>261.24557495117</ele>
        <time>2016-02-15T10:11:30.000Z</time>
      </trkpt>
      <trkpt lat="47.19501" lon="3.18295">
        <ele>261.42370605469</ele>
        <time>2016-02-15T10:11:30.000Z</time>
      </trkpt>
      <trkpt lat="47.19505" lon="3.18298">
        <ele>261.57992553711</ele>
        <time>2016-02-15T10:11:31.000Z</time>
      </trkpt>
      <trkpt lat="47.19508" lon="3.18298">
        <ele>261.64935302734</ele>
        <time>2016-02-15T10:11:31.000Z</time>
      </trkpt>
      <trkpt lat="47.19511" lon="3.183">
        <ele>261.64492797852</ele>
        <time>2016-02-15T10:11:32.000Z</time>
      </trkpt>
      <trkpt lat="47.19515" lon="3.18302">
        <ele>261.54302978516</ele>
        <time>2016-02-15T10:11:32.000Z</time>
      </trkpt>
      <trkpt lat="47.19518" lon="3.18304">
        <ele>261.40341186523</ele>
        <time>2016-02-15T10:11:33.000Z</time>
      </trkpt>
      <trkpt lat="47.1952" lon="3.18306">
        <ele>261.27825927734</ele>
        <time>2016-02-15T10:11:36.000Z</time>
      </trkpt>
      <trkpt lat="47.19522" lon="3.18306">
        <ele>261.18145751953</ele>
        <time>2016-02-15T10:11:38.000Z</time>
      </trkpt>
      <trkpt lat="47.19526" lon="3.18309">
        <ele>261.13165283203</ele>
        <time>2016-02-15T10:11:41.000Z</time>
      </trkpt>
      <trkpt lat="47.19528" lon="3.18311">
        <ele>261.10556030273</ele>
        <time>2016-02-15T10:11:43.000Z</time>
      </trkpt>
      <trkpt lat="47.19533" lon="3.18314">
        <ele>261.03961181641</ele>
        <time>2016-02-15T10:11:46.000Z</time>
      </trkpt>
      <trkpt lat="47.19535" lon="3.18315">
        <ele>260.96209716797</ele>
        <time>2016-02-15T10:11:48.000Z</time>
      </trkpt>
      <trkpt lat="47.19538" lon="3.18317">
        <ele>260.89996337891</ele>
        <time>2016-02-15T10:11:50.000Z</time>
      </trkpt>
      <trkpt lat="47.1954" lon="3.18319">
        <ele>260.82928466797</ele>
        <time>2016-02-15T10:11:52.000Z</time>
      </trkpt>
      <trkpt lat="47.19547" lon="3.18322">
        <ele>260.70294189453</ele>
        <time>2016-02-15T10:11:55.000Z</time>
      </trkpt>
      <trkpt lat="47.1955" lon="3.18322">
        <ele>260.56268310547</ele>
        <time>2016-02-15T10:11:58.000Z</time>
      </trkpt>
      <trkpt lat="47.19554" lon="3.18324">
        <ele>260.39007568359</ele>
        <time>2016-02-15T10:12:01.000Z</time>
      </trkpt>
      <trkpt lat="47.19556" lon="3.18325">
        <ele>260.22430419922</ele>
        <time>2016-02-15T10:12:03.000Z</time>
      </trkpt>
      <trkpt lat="47.19556" lon="3.18326">
        <ele>260.07415771484</ele>
        <time>2016-02-15T10:12:06.000Z</time>
      </trkpt>
      <trkpt lat="47.19558" lon="3.18327">
        <ele>259.96295166016</ele>
        <time>2016-02-15T10:12:08.000Z</time>
      </trkpt>
      <trkpt lat="47.19566" lon="3.18333">
        <ele>259.89282226562</ele>
        <time>2016-02-15T10:12:11.000Z</time>
      </trkpt>
      <trkpt lat="47.19568" lon="3.18335">
        <ele>259.84896850586</ele>
        <time>2016-02-15T10:12:13.000Z</time>
      </trkpt>
      <trkpt lat="47.19571" lon="3.18338">
        <ele>259.77310180664</ele>
        <time>2016-02-15T10:12:16.000Z</time>
      </trkpt>
      <trkpt lat="47.19574" lon="3.18339">
        <ele>259.63180541992</ele>
        <time>2016-02-15T10:12:18.000Z</time>
      </trkpt>
      <trkpt lat="47.1958" lon="3.18341">
        <ele>259.38681030273</ele>
        <time>2016-02-15T10:12:21.000Z</time>
      </trkpt>
      <trkpt lat="47.19583" lon="3.18343">
        <ele>259.13314819336</ele>
        <time>2016-02-15T10:12:24.000Z</time>
      </trkpt>
      <trkpt lat="47.19586" lon="3.18347">
        <ele>258.80615234375</ele>
        <time>2016-02-15T10:12:27.000Z</time>
      </trkpt>
      <trkpt lat="47.19588" lon="3.18348">
        <ele>258.47003173828</ele>
        <time>2016-02-15T10:12:30.000Z</time>
      </trkpt>
      <trkpt lat="47.1959" lon="3.18351">
        <ele>258.12307739258</ele>
        <time>2016-02-15T10:12:32.000Z</time>
      </trkpt>
      <trkpt lat="47.19593" lon="3.18357">
        <ele>257.83319091797</ele>
        <time>2016-02-15T10:12:35.000Z</time>
      </trkpt>
      <trkpt lat="47.19596" lon="3.18359">
        <ele>257.52767944336</ele>
        <time>2016-02-15T10:12:37.000Z</time>
      </trkpt>
      <trkpt lat="47.19599" lon="3.18362">
        <ele>257.21823120117</ele>
        <time>2016-02-15T10:12:40.000Z</time>
      </trkpt>
      <trkpt lat="47.19602" lon="3.18365">
        <ele>256.89617919922</ele>
        <time>2016-02-15T10:12:43.000Z</time>
      </trkpt>
      <trkpt lat="47.19607" lon="3.18372">
        <ele>256.5295715332</ele>
        <time>2016-02-15T10:12:45.000Z</time>
      </trkpt>
      <trkpt lat="47.19611" lon="3.18378">
        <ele>256.18017578125</ele>
        <time>2016-02-15T10:12:48.000Z</time>
      </trkpt>
      <trkpt lat="47.19615" lon="3.18381">
        <ele>255.78247070312</ele>
        <time>2016-02-15T10:12:51.000Z</time>
      </trkpt>
      <trkpt lat="47.19618" lon="3.18383">
        <ele>255.39433288574</ele>
        <time>2016-02-15T10:12:54.000Z</time>
      </trkpt>
      <trkpt lat="47.19621" lon="3.18386">
        <ele>255.00593566895</ele>
        <time>2016-02-15T10:12:57.000Z</time>
      </trkpt>
      <trkpt lat="47.19625" lon="3.18389">
        <ele>254.62673950195</ele>
        <time>2016-02-15T10:13:00.000Z</time>
      </trkpt>
      <trkpt lat="47.19627" lon="3.1839">
        <ele>254.2515411377</ele>
        <time>2016-02-15T10:13:02.000Z</time>
      </trkpt>
      <trkpt lat="47.19629" lon="3.1839">
        <ele>253.89164733887</ele>
        <time>2016-02-15T10:13:04.000Z</time>
      </trkpt>
      <trkpt lat="47.19633" lon="3.18392">
        <ele>253.52145385742</ele>
        <time>2016-02-15T10:13:07.000Z</time>
      </trkpt>
      <trkpt lat="47.19635" lon="3.18393">
        <ele>253.17277526855</ele>
        <time>2016-02-15T10:13:09.000Z</time>
      </trkpt>
      <trkpt lat="47.19637" lon="3.18395">
        <ele>252.87911987305</ele>
        <time>2016-02-15T10:13:17.000Z</time>
      </trkpt>
      <trkpt lat="47.1964" lon="3.18397">
        <ele>252.58573913574</ele>
        <time>2016-02-15T10:13:17.000Z</time>
      </trkpt>
      <trkpt lat="47.19642" lon="3.18399">
        <ele>252.3365020752</ele>
        <time>2016-02-15T10:13:18.000Z</time>
      </trkpt>
      <trkpt lat="47.19645" lon="3.18402">
        <ele>252.14169311523</ele>
        <time>2016-02-15T10:13:21.000Z</time>
      </trkpt>
      <trkpt lat="47.19648" lon="3.18406">
        <ele>251.98706054688</ele>
        <time>2016-02-15T10:13:23.000Z</time>
      </trkpt>
      <trkpt lat="47.1965" lon="3.18409">
        <ele>251.8557434082</ele>
        <time>2016-02-15T10:13:26.000Z</time>
      </trkpt>
      <trkpt lat="47.19652" lon="3.18413">
        <ele>251.78332519531</ele>
        <time>2016-02-15T10:13:28.000Z</time>
      </trkpt>
      <trkpt lat="47.19655" lon="3.18418">
        <ele>251.75228881836</ele>
        <time>2016-02-15T10:13:31.000Z</time>
      </trkpt>
      <trkpt lat="47.19658" lon="3.1842">
        <ele>251.74697875977</ele>
        <time>2016-02-15T10:13:33.000Z</time>
      </trkpt>
      <trkpt lat="47.1966" lon="3.18422">
        <ele>251.69897460938</ele>
        <time>2016-02-15T10:13:35.000Z</time>
      </trkpt>
      <trkpt lat="47.19664" lon="3.18425">
        <ele>251.62821960449</ele>
        <time>2016-02-15T10:13:38.000Z</time>
      </trkpt>
      <trkpt lat="47.19667" lon="3.18426">
        <ele>251.50473022461</ele>
        <time>2016-02-15T10:13:40.000Z</time>
      </trkpt>
      <trkpt lat="47.1967" lon="3.18429">
        <ele>251.34878540039</ele>
        <time>2016-02-15T10:13:44.000Z</time>
      </trkpt>
      <trkpt lat="47.19673" lon="3.1843">
        <ele>251.17073059082</ele>
        <time>2016-02-15T10:13:45.000Z</time>
      </trkpt>
      <trkpt lat="47.19676" lon="3.18433">
        <ele>251.03837585449</ele>
        <time>2016-02-15T10:13:50.000Z</time>
      </trkpt>
      <trkpt lat="47.19679" lon="3.18436">
        <ele>250.93045043945</ele>
        <time>2016-02-15T10:13:51.000Z</time>
      </trkpt>
      <trkpt lat="47.19682" lon="3.18439">
        <ele>250.8469543457</ele>
        <time>2016-02-15T10:13:54.000Z</time>
      </trkpt>
      <trkpt lat="47.19685" lon="3.18442">
        <ele>250.77810668945</ele>
        <time>2016-02-15T10:13:57.000Z</time>
      </trkpt>
      <trkpt lat="47.19687" lon="3.18444">
        <ele>250.74324035645</ele>
        <time>2016-02-15T10:13:59.000Z</time>
      </trkpt>
      <trkpt lat="47.19688" lon="3.18446">
        <ele>250.72128295898</ele>
        <time>2016-02-15T10:14:01.000Z</time>
      </trkpt>
      <trkpt lat="47.19691" lon="3.18449">
        <ele>250.70610046387</ele>
        <time>2016-02-15T10:14:04.000Z</time>
      </trkpt>
      <trkpt lat="47.19694" lon="3.18452">
        <ele>250.70307922363</ele>
        <time>2016-02-15T10:14:07.000Z</time>
      </trkpt>
      <trkpt lat="47.19696" lon="3.18455">
        <ele>250.72705078125</ele>
        <time>2016-02-15T10:14:09.000Z</time>
      </trkpt>
      <trkpt lat="47.19697" lon="3.18458">
        <ele>250.7666015625</ele>
        <time>2016-02-15T10:14:11.000Z</time>
      </trkpt>
      <trkpt lat="47.197" lon="3.18461">
        <ele>250.78280639648</ele>
        <time>2016-02-15T10:14:14.000Z</time>
      </trkpt>
      <trkpt lat="47.19704" lon="3.18463">
        <ele>250.7640838623</ele>
        <time>2016-02-15T10:14:17.000Z</time>
      </trkpt>
      <trkpt lat="47.19707" lon="3.18466">
        <ele>250.7307434082</ele>
        <time>2016-02-15T10:14:19.000Z</time>
      </trkpt>
      <trkpt lat="47.1971" lon="3.1847">
        <ele>250.6796875</ele>
        <time>2016-02-15T10:14:22.000Z</time>
      </trkpt>
      <trkpt lat="47.19713" lon="3.18472">
        <ele>250.56889343262</ele>
        <time>2016-02-15T10:14:24.000Z</time>
      </trkpt>
      <trkpt lat="47.19716" lon="3.18473">
        <ele>250.40425109863</ele>
        <time>2016-02-15T10:14:27.000Z</time>
      </trkpt>
      <trkpt lat="47.1972" lon="3.18476">
        <ele>250.23251342773</ele>
        <time>2016-02-15T10:14:30.000Z</time>
      </trkpt>
      <trkpt lat="47.19723" lon="3.1848">
        <ele>250.07986450195</ele>
        <time>2016-02-15T10:14:32.000Z</time>
      </trkpt>
      <trkpt lat="47.19726" lon="3.18482">
        <ele>249.88948059082</ele>
        <time>2016-02-15T10:14:35.000Z</time>
      </trkpt>
      <trkpt lat="47.19729" lon="3.18486">
        <ele>249.73934936523</ele>
        <time>2016-02-15T10:14:38.000Z</time>
      </trkpt>
      <trkpt lat="47.19733" lon="3.18489">
        <ele>249.62448120117</ele>
        <time>2016-02-15T10:14:40.000Z</time>
      </trkpt>
      <trkpt lat="47.19734" lon="3.18491">
        <ele>249.56289672852</ele>
        <time>2016-02-15T10:14:42.000Z</time>
      </trkpt>
      <trkpt lat="47.19735" lon="3.18493">
        <ele>249.48840332031</ele>
        <time>2016-02-15T10:14:44.000Z</time>
      </trkpt>
      <trkpt lat="47.19736" lon="3.18494">
        <ele>249.45443725586</ele>
        <time>2016-02-15T10:14:46.000Z</time>
      </trkpt>
      <trkpt lat="47.19741" lon="3.18498">
        <ele>249.36508178711</ele>
        <time>2016-02-15T10:14:49.000Z</time>
      </trkpt>
      <trkpt lat="47.19745" lon="3.18503">
        <ele>249.25744628906</ele>
        <time>2016-02-15T10:14:52.000Z</time>
      </trkpt>
      <trkpt lat="47.19748" lon="3.18507">
        <ele>249.0885925293</ele>
        <time>2016-02-15T10:14:55.000Z</time>
      </trkpt>
      <trkpt lat="47.19751" lon="3.18508">
        <ele>248.86343383789</ele>
        <time>2016-02-15T10:14:57.000Z</time>
      </trkpt>
      <trkpt lat="47.19756" lon="3.18512">
        <ele>248.60488891602</ele>
        <time>2016-02-15T10:15:00.000Z</time>
      </trkpt>
      <trkpt lat="47.1976" lon="3.18515">
        <ele>248.37533569336</ele>
        <time>2016-02-15T10:15:03.000Z</time>
      </trkpt>
      <trkpt lat="47.19765" lon="3.18517">
        <ele>248.14071655273</ele>
        <time>2016-02-15T10:15:06.000Z</time>
      </trkpt>
      <trkpt lat="47.19769" lon="3.18521">
        <ele>247.95710754395</ele>
        <time>2016-02-15T10:15:10.000Z</time>
      </trkpt>
      <trkpt lat="47.19772" lon="3.18524">
        <ele>247.8166809082</ele>
        <time>2016-02-15T10:15:12.000Z</time>
      </trkpt>
      <trkpt lat="47.19776" lon="3.18526">
        <ele>247.6809387207</ele>
        <time>2016-02-15T10:15:15.000Z</time>
      </trkpt>
      <trkpt lat="47.19778" lon="3.18528">
        <ele>247.56838989258</ele>
        <time>2016-02-15T10:15:17.000Z</time>
      </trkpt>
      <trkpt lat="47.19782" lon="3.1853">
        <ele>247.49185180664</ele>
        <time>2016-02-15T10:15:20.000Z</time>
      </trkpt>
      <trkpt lat="47.19786" lon="3.18533">
        <ele>247.40673828125</ele>
        <time>2016-02-15T10:15:23.000Z</time>
      </trkpt>
      <trkpt lat="47.1979" lon="3.18536">
        <ele>247.3402557373</ele>
        <time>2016-02-15T10:15:26.000Z</time>
      </trkpt>
      <trkpt lat="47.19792" lon="3.18538">
        <ele>247.3059387207</ele>
        <time>2016-02-15T10:15:28.000Z</time>
      </trkpt>
      <trkpt lat="47.19795" lon="3.18543">
        <ele>247.30386352539</ele>
        <time>2016-02-15T10:15:31.000Z</time>
      </trkpt>
      <trkpt lat="47.19797" lon="3.18546">
        <ele>247.33349609375</ele>
        <time>2016-02-15T10:15:33.000Z</time>
      </trkpt>
      <trkpt lat="47.198" lon="3.18549">
        <ele>247.39498901367</ele>
        <time>2016-02-15T10:15:36.000Z</time>
      </trkpt>
      <trkpt lat="47.19802" lon="3.18551">
        <ele>247.46670532227</ele>
        <time>2016-02-15T10:15:38.000Z</time>
      </trkpt>
      <trkpt lat="47.19806" lon="3.18554">
        <ele>247.53735351562</ele>
        <time>2016-02-15T10:15:41.000Z</time>
      </trkpt>
      <trkpt lat="47.19808" lon="3.18555">
        <ele>247.57748413086</ele>
        <time>2016-02-15T10:15:43.000Z</time>
      </trkpt>
      <trkpt lat="47.19813" lon="3.18556">
        <ele>247.5751953125</ele>
        <time>2016-02-15T10:15:46.000Z</time>
      </trkpt>
      <trkpt lat="47.19816" lon="3.18558">
        <ele>247.54402160645</ele>
        <time>2016-02-15T10:15:48.000Z</time>
      </trkpt>
      <trkpt lat="47.1982" lon="3.18559">
        <ele>247.48489379883</ele>
        <time>2016-02-15T10:15:51.000Z</time>
      </trkpt>
      <trkpt lat="47.19823" lon="3.1856">
        <ele>247.42733764648</ele>
        <time>2016-02-15T10:15:53.000Z</time>
      </trkpt>
      <trkpt lat="47.19824" lon="3.18562">
        <ele>247.39028930664</ele>
        <time>2016-02-15T10:15:55.000Z</time>
      </trkpt>
      <trkpt lat="47.19827" lon="3.18564">
        <ele>247.38655090332</ele>
        <time>2016-02-15T10:15:57.000Z</time>
      </trkpt>
      <trkpt lat="47.19831" lon="3.18567">
        <ele>247.41764831543</ele>
        <time>2016-02-15T10:16:00.000Z</time>
      </trkpt>
      <trkpt lat="47.19834" lon="3.1857">
        <ele>247.49076843262</ele>
        <time>2016-02-15T10:16:02.000Z</time>
      </trkpt>
      <trkpt lat="47.19836" lon="3.18572">
        <ele>247.5569152832</ele>
        <time>2016-02-15T10:16:04.000Z</time>
      </trkpt>
      <trkpt lat="47.19838" lon="3.18574">
        <ele>247.59286499023</ele>
        <time>2016-02-15T10:16:06.000Z</time>
      </trkpt>
      <trkpt lat="47.19841" lon="3.18576">
        <ele>247.60395812988</ele>
        <time>2016-02-15T10:16:09.000Z</time>
      </trkpt>
      <trkpt lat="47.19843" lon="3.18579">
        <ele>247.59956359863</ele>
        <time>2016-02-15T10:16:11.000Z</time>
      </trkpt>
      <trkpt lat="47.19847" lon="3.18582">
        <ele>247.5390625</ele>
        <time>2016-02-15T10:16:14.000Z</time>
      </trkpt>
      <trkpt lat="47.19851" lon="3.18586">
        <ele>247.4291229248</ele>
        <time>2016-02-15T10:16:17.000Z</time>
      </trkpt>
      <trkpt lat="47.19853" lon="3.18588">
        <ele>247.30310058594</ele>
        <time>2016-02-15T10:16:19.000Z</time>
      </trkpt>
      <trkpt lat="47.19855" lon="3.1859">
        <ele>247.1595916748</ele>
        <time>2016-02-15T10:16:21.000Z</time>
      </trkpt>
      <trkpt lat="47.19857" lon="3.18594">
        <ele>246.9638671875</ele>
        <time>2016-02-15T10:16:24.000Z</time>
      </trkpt>
      <trkpt lat="47.19859" lon="3.18596">
        <ele>246.79348754883</ele>
        <time>2016-02-15T10:16:26.000Z</time>
      </trkpt>
      <trkpt lat="47.1986" lon="3.18598">
        <ele>246.64123535156</ele>
        <time>2016-02-15T10:16:28.000Z</time>
      </trkpt>
      <trkpt lat="47.19863" lon="3.18599">
        <ele>246.466796875</ele>
        <time>2016-02-15T10:16:30.000Z</time>
      </trkpt>
      <trkpt lat="47.19867" lon="3.18603">
        <ele>246.28244018555</ele>
        <time>2016-02-15T10:16:33.000Z</time>
      </trkpt>
      <trkpt lat="47.1987" lon="3.18606">
        <ele>246.10055541992</ele>
        <time>2016-02-15T10:16:36.000Z</time>
      </trkpt>
      <trkpt lat="47.19873" lon="3.1861">
        <ele>245.88980102539</ele>
        <time>2016-02-15T10:16:39.000Z</time>
      </trkpt>
      <trkpt lat="47.19876" lon="3.18613">
        <ele>245.67642211914</ele>
        <time>2016-02-15T10:16:42.000Z</time>
      </trkpt>
      <trkpt lat="47.19879" lon="3.18615">
        <ele>245.48397827148</ele>
        <time>2016-02-15T10:16:44.000Z</time>
      </trkpt>
      <trkpt lat="47.19882" lon="3.18617">
        <ele>245.29281616211</ele>
        <time>2016-02-15T10:16:47.000Z</time>
      </trkpt>
      <trkpt lat="47.19885" lon="3.18618">
        <ele>245.10729980469</ele>
        <time>2016-02-15T10:16:49.000Z</time>
      </trkpt>
      <trkpt lat="47.19888" lon="3.18621">
        <ele>244.93521118164</ele>
        <time>2016-02-15T10:16:52.000Z</time>
      </trkpt>
      <trkpt lat="47.19889" lon="3.18622">
        <ele>244.78747558594</ele>
        <time>2016-02-15T10:16:54.000Z</time>
      </trkpt>
      <trkpt lat="47.19892" lon="3.18624">
        <ele>244.640625</ele>
        <time>2016-02-15T10:16:57.000Z</time>
      </trkpt>
      <trkpt lat="47.19894" lon="3.18627">
        <ele>244.53059387207</ele>
        <time>2016-02-15T10:16:59.000Z</time>
      </trkpt>
      <trkpt lat="47.19896" lon="3.18632">
        <ele>244.48062133789</ele>
        <time>2016-02-15T10:17:02.000Z</time>
      </trkpt>
      <trkpt lat="47.19898" lon="3.18637">
        <ele>244.4631652832</ele>
        <time>2016-02-15T10:17:05.000Z</time>
      </trkpt>
      <trkpt lat="47.19899" lon="3.18638">
        <ele>244.44662475586</ele>
        <time>2016-02-15T10:17:07.000Z</time>
      </trkpt>
      <trkpt lat="47.19899" lon="3.18638">
        <ele>244.44662475586</ele>
        <time>2016-02-15T10:17:27.000Z</time>
      </trkpt>
      <trkpt lat="47.19898" lon="3.18636">
        <ele>244.46000671387</ele>
        <time>2016-02-15T10:17:35.000Z</time>
      </trkpt>
      <trkpt lat="47.19899" lon="3.18637">
        <ele>244.46455383301</ele>
        <time>2016-02-15T10:17:51.000Z</time>
      </trkpt>
      <trkpt lat="47.19903" lon="3.18639">
        <ele>244.4211730957</ele>
        <time>2016-02-15T10:17:53.000Z</time>
      </trkpt>
      <trkpt lat="47.19906" lon="3.18641">
        <ele>244.34077453613</ele>
        <time>2016-02-15T10:17:57.000Z</time>
      </trkpt>
      <trkpt lat="47.19909" lon="3.18642">
        <ele>244.25863647461</ele>
        <time>2016-02-15T10:17:58.000Z</time>
      </trkpt>
      <trkpt lat="47.19912" lon="3.18646">
        <ele>244.18179321289</ele>
        <time>2016-02-15T10:18:01.000Z</time>
      </trkpt>
      <trkpt lat="47.19914" lon="3.18649">
        <ele>244.12536621094</ele>
        <time>2016-02-15T10:18:04.000Z</time>
      </trkpt>
      <trkpt lat="47.19918" lon="3.18652">
        <ele>244.07731628418</ele>
        <time>2016-02-15T10:18:06.000Z</time>
      </trkpt>
      <trkpt lat="47.19922" lon="3.18654">
        <ele>244.03193664551</ele>
        <time>2016-02-15T10:18:09.000Z</time>
      </trkpt>
      <trkpt lat="47.19926" lon="3.18656">
        <ele>243.97177124023</ele>
        <time>2016-02-15T10:18:12.000Z</time>
      </trkpt>
      <trkpt lat="47.1993" lon="3.18659">
        <ele>243.87153625488</ele>
        <time>2016-02-15T10:18:15.000Z</time>
      </trkpt>
      <trkpt lat="47.19933" lon="3.18662">
        <ele>243.76049804688</ele>
        <time>2016-02-15T10:18:18.000Z</time>
      </trkpt>
      <trkpt lat="47.19936" lon="3.18665">
        <ele>243.65621948242</ele>
        <time>2016-02-15T10:18:21.000Z</time>
      </trkpt>
      <trkpt lat="47.19938" lon="3.18666">
        <ele>243.55996704102</ele>
        <time>2016-02-15T10:18:24.000Z</time>
      </trkpt>
      <trkpt lat="47.1994" lon="3.18666">
        <ele>243.46537780762</ele>
        <time>2016-02-15T10:18:26.000Z</time>
      </trkpt>
      <trkpt lat="47.19943" lon="3.18667">
        <ele>243.36904907227</ele>
        <time>2016-02-15T10:18:29.000Z</time>
      </trkpt>
      <trkpt lat="47.19946" lon="3.18668">
        <ele>243.24465942383</ele>
        <time>2016-02-15T10:18:32.000Z</time>
      </trkpt>
      <trkpt lat="47.19949" lon="3.18668">
        <ele>243.08483886719</ele>
        <time>2016-02-15T10:18:35.000Z</time>
      </trkpt>
      <trkpt lat="47.19952" lon="3.18669">
        <ele>242.89205932617</ele>
        <time>2016-02-15T10:18:37.000Z</time>
      </trkpt>
      <trkpt lat="47.19955" lon="3.18669">
        <ele>242.68521118164</ele>
        <time>2016-02-15T10:18:39.000Z</time>
      </trkpt>
      <trkpt lat="47.19957" lon="3.18669">
        <ele>242.49678039551</ele>
        <time>2016-02-15T10:18:41.000Z</time>
      </trkpt>
      <trkpt lat="47.19962" lon="3.18668">
        <ele>242.26486206055</ele>
        <time>2016-02-15T10:18:44.000Z</time>
      </trkpt>
      <trkpt lat="47.19967" lon="3.18667">
        <ele>241.9948425293</ele>
        <time>2016-02-15T10:18:47.000Z</time>
      </trkpt>
      <trkpt lat="47.19971" lon="3.18667">
        <ele>241.71505737305</ele>
        <time>2016-02-15T10:18:50.000Z</time>
      </trkpt>
      <trkpt lat="47.19975" lon="3.18667">
        <ele>241.42626953125</ele>
        <time>2016-02-15T10:18:53.000Z</time>
      </trkpt>
      <trkpt lat="47.19977" lon="3.18667">
        <ele>241.125</ele>
        <time>2016-02-15T10:18:55.000Z</time>
      </trkpt>
      <trkpt lat="47.1998" lon="3.18667">
        <ele>240.85766601562</ele>
        <time>2016-02-15T10:18:58.000Z</time>
      </trkpt>
      <trkpt lat="47.19983" lon="3.18666">
        <ele>240.62631225586</ele>
        <time>2016-02-15T10:19:01.000Z</time>
      </trkpt>
      <trkpt lat="47.19986" lon="3.18663">
        <ele>240.38439941406</ele>
        <time>2016-02-15T10:19:04.000Z</time>
      </trkpt>
      <trkpt lat="47.19987" lon="3.18659">
        <ele>240.13203430176</ele>
        <time>2016-02-15T10:19:06.000Z</time>
      </trkpt>
      <trkpt lat="47.1999" lon="3.18652">
        <ele>239.7926940918</ele>
        <time>2016-02-15T10:19:09.000Z</time>
      </trkpt>
      <trkpt lat="47.19991" lon="3.18646">
        <ele>239.42556762695</ele>
        <time>2016-02-15T10:19:12.000Z</time>
      </trkpt>
      <trkpt lat="47.19992" lon="3.18642">
        <ele>239.0546875</ele>
        <time>2016-02-15T10:19:15.000Z</time>
      </trkpt>
      <trkpt lat="47.19993" lon="3.18639">
        <ele>238.71780395508</ele>
        <time>2016-02-15T10:19:17.000Z</time>
      </trkpt>
      <trkpt lat="47.19994" lon="3.18634">
        <ele>238.37504577637</ele>
        <time>2016-02-15T10:19:20.000Z</time>
      </trkpt>
      <trkpt lat="47.19997" lon="3.18628">
        <ele>238.04403686523</ele>
        <time>2016-02-15T10:19:24.000Z</time>
      </trkpt>
      <trkpt lat="47.2" lon="3.18624">
        <ele>237.72343444824</ele>
        <time>2016-02-15T10:19:26.000Z</time>
      </trkpt>
      <trkpt lat="47.20002" lon="3.18621">
        <ele>237.42182922363</ele>
        <time>2016-02-15T10:19:28.000Z</time>
      </trkpt>
      <trkpt lat="47.20003" lon="3.18618">
        <ele>237.13403320312</ele>
        <time>2016-02-15T10:19:30.000Z</time>
      </trkpt>
      <trkpt lat="47.20005" lon="3.18613">
        <ele>236.87886047363</ele>
        <time>2016-02-15T10:19:33.000Z</time>
      </trkpt>
      <trkpt lat="47.20005" lon="3.1861">
        <ele>236.69946289062</ele>
        <time>2016-02-15T10:19:35.000Z</time>
      </trkpt>
      <trkpt lat="47.20007" lon="3.18606">
        <ele>236.54809570312</ele>
        <time>2016-02-15T10:19:40.000Z</time>
      </trkpt>
      <trkpt lat="47.20008" lon="3.18601">
        <ele>236.39672851562</ele>
        <time>2016-02-15T10:19:41.000Z</time>
      </trkpt>
      <trkpt lat="47.2001" lon="3.18598">
        <ele>236.244140625</ele>
        <time>2016-02-15T10:19:42.000Z</time>
      </trkpt>
      <trkpt lat="47.20011" lon="3.18594">
        <ele>236.08471679688</ele>
        <time>2016-02-15T10:19:45.000Z</time>
      </trkpt>
      <trkpt lat="47.20012" lon="3.1859">
        <ele>235.92260742188</ele>
        <time>2016-02-15T10:19:48.000Z</time>
      </trkpt>
      <trkpt lat="47.20012" lon="3.18588">
        <ele>235.77709960938</ele>
        <time>2016-02-15T10:19:50.000Z</time>
      </trkpt>
      <trkpt lat="47.20012" lon="3.1858">
        <ele>235.61018371582</ele>
        <time>2016-02-15T10:19:53.000Z</time>
      </trkpt>
      <trkpt lat="47.20012" lon="3.18577">
        <ele>235.45840454102</ele>
        <time>2016-02-15T10:19:55.000Z</time>
      </trkpt>
      <trkpt lat="47.20013" lon="3.18572">
        <ele>235.33100891113</ele>
        <time>2016-02-15T10:19:58.000Z</time>
      </trkpt>
      <trkpt lat="47.20012" lon="3.18567">
        <ele>235.21928405762</ele>
        <time>2016-02-15T10:20:01.000Z</time>
      </trkpt>
      <trkpt lat="47.20013" lon="3.18562">
        <ele>235.1135559082</ele>
        <time>2016-02-15T10:20:04.000Z</time>
      </trkpt>
      <trkpt lat="47.20015" lon="3.18556">
        <ele>235.05087280273</ele>
        <time>2016-02-15T10:20:07.000Z</time>
      </trkpt>
      <trkpt lat="47.20017" lon="3.18552">
        <ele>234.98739624023</ele>
        <time>2016-02-15T10:20:09.000Z</time>
      </trkpt>
      <trkpt lat="47.20019" lon="3.18547">
        <ele>234.92756652832</ele>
        <time>2016-02-15T10:20:12.000Z</time>
      </trkpt>
      <trkpt lat="47.2002" lon="3.18542">
        <ele>234.87055969238</ele>
        <time>2016-02-15T10:20:14.000Z</time>
      </trkpt>
      <trkpt lat="47.20022" lon="3.18538">
        <ele>234.81416320801</ele>
        <time>2016-02-15T10:20:17.000Z</time>
      </trkpt>
      <trkpt lat="47.20023" lon="3.18534">
        <ele>234.7534942627</ele>
        <time>2016-02-15T10:20:20.000Z</time>
      </trkpt>
      <trkpt lat="47.20025" lon="3.1853">
        <ele>234.69290161133</ele>
        <time>2016-02-15T10:20:23.000Z</time>
      </trkpt>
      <trkpt lat="47.20026" lon="3.18527">
        <ele>234.63569641113</ele>
        <time>2016-02-15T10:20:25.000Z</time>
      </trkpt>
      <trkpt lat="47.20029" lon="3.18521">
        <ele>234.57174682617</ele>
        <time>2016-02-15T10:20:28.000Z</time>
      </trkpt>
      <trkpt lat="47.20031" lon="3.18517">
        <ele>234.50338745117</ele>
        <time>2016-02-15T10:20:30.000Z</time>
      </trkpt>
      <trkpt lat="47.20034" lon="3.18511">
        <ele>234.42764282227</ele>
        <time>2016-02-15T10:20:33.000Z</time>
      </trkpt>
      <trkpt lat="47.20036" lon="3.18505">
        <ele>234.33547973633</ele>
        <time>2016-02-15T10:20:36.000Z</time>
      </trkpt>
      <trkpt lat="47.20039" lon="3.185">
        <ele>234.22836303711</ele>
        <time>2016-02-15T10:20:39.000Z</time>
      </trkpt>
      <trkpt lat="47.20041" lon="3.18495">
        <ele>234.10241699219</ele>
        <time>2016-02-15T10:20:42.000Z</time>
      </trkpt>
      <trkpt lat="47.20043" lon="3.18492">
        <ele>233.96057128906</ele>
        <time>2016-02-15T10:20:44.000Z</time>
      </trkpt>
      <trkpt lat="47.20045" lon="3.18487">
        <ele>233.80522155762</ele>
        <time>2016-02-15T10:20:47.000Z</time>
      </trkpt>
      <trkpt lat="47.2005" lon="3.18481">
        <ele>233.62173461914</ele>
        <time>2016-02-15T10:20:50.000Z</time>
      </trkpt>
      <trkpt lat="47.20052" lon="3.18476">
        <ele>233.41593933105</ele>
        <time>2016-02-15T10:20:53.000Z</time>
      </trkpt>
      <trkpt lat="47.20055" lon="3.18471">
        <ele>233.19914245605</ele>
        <time>2016-02-15T10:20:56.000Z</time>
      </trkpt>
      <trkpt lat="47.20057" lon="3.18466">
        <ele>232.97200012207</ele>
        <time>2016-02-15T10:20:58.000Z</time>
      </trkpt>
      <trkpt lat="47.2006" lon="3.18462">
        <ele>232.74221801758</ele>
        <time>2016-02-15T10:21:01.000Z</time>
      </trkpt>
      <trkpt lat="47.20063" lon="3.18458">
        <ele>232.52651977539</ele>
        <time>2016-02-15T10:21:04.000Z</time>
      </trkpt>
      <trkpt lat="47.20066" lon="3.18454">
        <ele>232.31811523438</ele>
        <time>2016-02-15T10:21:06.000Z</time>
      </trkpt>
      <trkpt lat="47.2007" lon="3.18448">
        <ele>232.09078979492</ele>
        <time>2016-02-15T10:21:09.000Z</time>
      </trkpt>
      <trkpt lat="47.20072" lon="3.18445">
        <ele>231.87704467773</ele>
        <time>2016-02-15T10:21:11.000Z</time>
      </trkpt>
      <trkpt lat="47.20076" lon="3.18442">
        <ele>231.66801452637</ele>
        <time>2016-02-15T10:21:14.000Z</time>
      </trkpt>
      <trkpt lat="47.20078" lon="3.18439">
        <ele>231.4665222168</ele>
        <time>2016-02-15T10:21:16.000Z</time>
      </trkpt>
      <trkpt lat="47.20082" lon="3.18433">
        <ele>231.24296569824</ele>
        <time>2016-02-15T10:21:19.000Z</time>
      </trkpt>
      <trkpt lat="47.20086" lon="3.18429">
        <ele>231.05854797363</ele>
        <time>2016-02-15T10:21:22.000Z</time>
      </trkpt>
      <trkpt lat="47.20088" lon="3.18427">
        <ele>230.88989257812</ele>
        <time>2016-02-15T10:21:24.000Z</time>
      </trkpt>
      <trkpt lat="47.20092" lon="3.18423">
        <ele>230.73612976074</ele>
        <time>2016-02-15T10:21:31.000Z</time>
      </trkpt>
      <trkpt lat="47.20097" lon="3.18417">
        <ele>230.58471679688</ele>
        <time>2016-02-15T10:21:32.000Z</time>
      </trkpt>
      <trkpt lat="47.20098" lon="3.18416">
        <ele>230.48977661133</ele>
        <time>2016-02-15T10:21:34.000Z</time>
      </trkpt>
      <trkpt lat="47.20102" lon="3.18412">
        <ele>230.42065429688</ele>
        <time>2016-02-15T10:21:42.000Z</time>
      </trkpt>
      <trkpt lat="47.20105" lon="3.1841">
        <ele>230.36604309082</ele>
        <time>2016-02-15T10:21:46.000Z</time>
      </trkpt>
      <trkpt lat="47.20108" lon="3.18408">
        <ele>230.33117675781</ele>
        <time>2016-02-15T10:21:46.000Z</time>
      </trkpt>
      <trkpt lat="47.20111" lon="3.18406">
        <ele>230.32588195801</ele>
        <time>2016-02-15T10:21:47.000Z</time>
      </trkpt>
      <trkpt lat="47.20114" lon="3.18404">
        <ele>230.32406616211</ele>
        <time>2016-02-15T10:21:47.000Z</time>
      </trkpt>
      <trkpt lat="47.20117" lon="3.18402">
        <ele>230.32466125488</ele>
        <time>2016-02-15T10:21:49.000Z</time>
      </trkpt>
      <trkpt lat="47.20121" lon="3.184">
        <ele>230.32131958008</ele>
        <time>2016-02-15T10:21:52.000Z</time>
      </trkpt>
      <trkpt lat="47.20123" lon="3.18398">
        <ele>230.31587219238</ele>
        <time>2016-02-15T10:21:54.000Z</time>
      </trkpt>
      <trkpt lat="47.20127" lon="3.18395">
        <ele>230.30337524414</ele>
        <time>2016-02-15T10:21:57.000Z</time>
      </trkpt>
      <trkpt lat="47.2013" lon="3.18393">
        <ele>230.28950500488</ele>
        <time>2016-02-15T10:21:59.000Z</time>
      </trkpt>
      <trkpt lat="47.20134" lon="3.18391">
        <ele>230.27416992188</ele>
        <time>2016-02-15T10:22:02.000Z</time>
      </trkpt>
      <trkpt lat="47.20137" lon="3.18389">
        <ele>230.25521850586</ele>
        <time>2016-02-15T10:22:04.000Z</time>
      </trkpt>
      <trkpt lat="47.2014" lon="3.18388">
        <ele>230.23474121094</ele>
        <time>2016-02-15T10:22:06.000Z</time>
      </trkpt>
      <trkpt lat="47.20144" lon="3.18385">
        <ele>230.21682739258</ele>
        <time>2016-02-15T10:22:09.000Z</time>
      </trkpt>
      <trkpt lat="47.20147" lon="3.18384">
        <ele>230.1962890625</ele>
        <time>2016-02-15T10:22:11.000Z</time>
      </trkpt>
      <trkpt lat="47.2015" lon="3.18382">
        <ele>230.1734161377</ele>
        <time>2016-02-15T10:22:14.000Z</time>
      </trkpt>
      <trkpt lat="47.20155" lon="3.1838">
        <ele>230.1501159668</ele>
        <time>2016-02-15T10:22:17.000Z</time>
      </trkpt>
      <trkpt lat="47.2016" lon="3.18378">
        <ele>230.12619018555</ele>
        <time>2016-02-15T10:22:20.000Z</time>
      </trkpt>
      <trkpt lat="47.20165" lon="3.18376">
        <ele>230.09896850586</ele>
        <time>2016-02-15T10:22:23.000Z</time>
      </trkpt>
      <trkpt lat="47.20169" lon="3.18374">
        <ele>230.06513977051</ele>
        <time>2016-02-15T10:22:26.000Z</time>
      </trkpt>
      <trkpt lat="47.20173" lon="3.18373">
        <ele>230.02487182617</ele>
        <time>2016-02-15T10:22:29.000Z</time>
      </trkpt>
      <trkpt lat="47.20177" lon="3.18371">
        <ele>229.97665405273</ele>
        <time>2016-02-15T10:22:32.000Z</time>
      </trkpt>
      <trkpt lat="47.20179" lon="3.1837">
        <ele>229.93090820312</ele>
        <time>2016-02-15T10:22:34.000Z</time>
      </trkpt>
      <trkpt lat="47.20184" lon="3.18369">
        <ele>229.89074707031</ele>
        <time>2016-02-15T10:22:37.000Z</time>
      </trkpt>
      <trkpt lat="47.20186" lon="3.18369">
        <ele>229.85920715332</ele>
        <time>2016-02-15T10:22:39.000Z</time>
      </trkpt>
      <trkpt lat="47.20191" lon="3.18367">
        <ele>229.83613586426</ele>
        <time>2016-02-15T10:22:42.000Z</time>
      </trkpt>
      <trkpt lat="47.20195" lon="3.18367">
        <ele>229.82827758789</ele>
        <time>2016-02-15T10:22:45.000Z</time>
      </trkpt>
      <trkpt lat="47.20198" lon="3.18367">
        <ele>229.82438659668</ele>
        <time>2016-02-15T10:22:47.000Z</time>
      </trkpt>
      <trkpt lat="47.20201" lon="3.18366">
        <ele>229.82272338867</ele>
        <time>2016-02-15T10:22:50.000Z</time>
      </trkpt>
      <trkpt lat="47.20205" lon="3.18365">
        <ele>229.82206726074</ele>
        <time>2016-02-15T10:22:53.000Z</time>
      </trkpt>
      <trkpt lat="47.20208" lon="3.18365">
        <ele>229.82661437988</ele>
        <time>2016-02-15T10:22:55.000Z</time>
      </trkpt>
      <trkpt lat="47.20213" lon="3.18365">
        <ele>229.83334350586</ele>
        <time>2016-02-15T10:22:59.000Z</time>
      </trkpt>
      <trkpt lat="47.20216" lon="3.18364">
        <ele>229.83659362793</ele>
        <time>2016-02-15T10:23:00.000Z</time>
      </trkpt>
      <trkpt lat="47.20219" lon="3.18363">
        <ele>229.83401489258</ele>
        <time>2016-02-15T10:23:03.000Z</time>
      </trkpt>
      <trkpt lat="47.20222" lon="3.18362">
        <ele>229.83100891113</ele>
        <time>2016-02-15T10:23:05.000Z</time>
      </trkpt>
      <trkpt lat="47.20225" lon="3.18361">
        <ele>229.82397460938</ele>
        <time>2016-02-15T10:23:07.000Z</time>
      </trkpt>
      <trkpt lat="47.2023" lon="3.18359">
        <ele>229.80082702637</ele>
        <time>2016-02-15T10:23:10.000Z</time>
      </trkpt>
      <trkpt lat="47.20232" lon="3.18358">
        <ele>229.77633666992</ele>
        <time>2016-02-15T10:23:12.000Z</time>
      </trkpt>
      <trkpt lat="47.20235" lon="3.18356">
        <ele>229.75231933594</ele>
        <time>2016-02-15T10:23:14.000Z</time>
      </trkpt>
      <trkpt lat="47.20237" lon="3.18354">
        <ele>229.71379089355</ele>
        <time>2016-02-15T10:23:16.000Z</time>
      </trkpt>
      <trkpt lat="47.20239" lon="3.1835">
        <ele>229.65180969238</ele>
        <time>2016-02-15T10:23:19.000Z</time>
      </trkpt>
      <trkpt lat="47.2024" lon="3.18344">
        <ele>229.5601348877</ele>
        <time>2016-02-15T10:23:22.000Z</time>
      </trkpt>
      <trkpt lat="47.20242" lon="3.18338">
        <ele>229.42683410645</ele>
        <time>2016-02-15T10:23:25.000Z</time>
      </trkpt>
      <trkpt lat="47.20244" lon="3.18331">
        <ele>229.24931335449</ele>
        <time>2016-02-15T10:23:28.000Z</time>
      </trkpt>
      <trkpt lat="47.20244" lon="3.18327">
        <ele>229.04756164551</ele>
        <time>2016-02-15T10:23:30.000Z</time>
      </trkpt>
      <trkpt lat="47.20245" lon="3.18321">
        <ele>228.82138061523</ele>
        <time>2016-02-15T10:23:38.000Z</time>
      </trkpt>
      <trkpt lat="47.20245" lon="3.18316">
        <ele>228.59005737305</ele>
        <time>2016-02-15T10:23:38.000Z</time>
      </trkpt>
      <trkpt lat="47.20245" lon="3.18312">
        <ele>228.35961914062</ele>
        <time>2016-02-15T10:23:38.000Z</time>
      </trkpt>
      <trkpt lat="47.20245" lon="3.18307">
        <ele>228.13647460938</ele>
        <time>2016-02-15T10:23:40.000Z</time>
      </trkpt>
      <trkpt lat="47.20245" lon="3.18301">
        <ele>227.89672851562</ele>
        <time>2016-02-15T10:23:43.000Z</time>
      </trkpt>
      <trkpt lat="47.20245" lon="3.18297">
        <ele>227.66528320312</ele>
        <time>2016-02-15T10:23:45.000Z</time>
      </trkpt>
      <trkpt lat="47.20245" lon="3.18291">
        <ele>227.42016601562</ele>
        <time>2016-02-15T10:23:48.000Z</time>
      </trkpt>
      <trkpt lat="47.20245" lon="3.18286">
        <ele>227.16918945312</ele>
        <time>2016-02-15T10:23:55.000Z</time>
      </trkpt>
      <trkpt lat="47.20245" lon="3.18282">
        <ele>226.92797851562</ele>
        <time>2016-02-15T10:23:55.000Z</time>
      </trkpt>
      <trkpt lat="47.20245" lon="3.18276">
        <ele>226.68676757812</ele>
        <time>2016-02-15T10:23:55.000Z</time>
      </trkpt>
      <trkpt lat="47.20245" lon="3.18272">
        <ele>226.44409179688</ele>
        <time>2016-02-15T10:23:57.000Z</time>
      </trkpt>
      <trkpt lat="47.20246" lon="3.18266">
        <ele>226.20678710938</ele>
        <time>2016-02-15T10:24:00.000Z</time>
      </trkpt>
      <trkpt lat="47.20246" lon="3.1826">
        <ele>225.96215820312</ele>
        <time>2016-02-15T10:24:02.000Z</time>
      </trkpt>
      <trkpt lat="47.20246" lon="3.18255">
        <ele>225.70336914062</ele>
        <time>2016-02-15T10:24:04.000Z</time>
      </trkpt>
      <trkpt lat="47.20247" lon="3.18249">
        <ele>225.45324707031</ele>
        <time>2016-02-15T10:24:07.000Z</time>
      </trkpt>
      <trkpt lat="47.20246" lon="3.18243">
        <ele>225.2314453125</ele>
        <time>2016-02-15T10:24:11.000Z</time>
      </trkpt>
      <trkpt lat="47.20246" lon="3.18238">
        <ele>225.05570983887</ele>
        <time>2016-02-15T10:24:12.000Z</time>
      </trkpt>
      <trkpt lat="47.20247" lon="3.18234">
        <ele>224.92724609375</ele>
        <time>2016-02-15T10:24:15.000Z</time>
      </trkpt>
      <trkpt lat="47.20246" lon="3.18226">
        <ele>224.83061218262</ele>
        <time>2016-02-15T10:24:18.000Z</time>
      </trkpt>
      <trkpt lat="47.20245" lon="3.18222">
        <ele>224.7738494873</ele>
        <time>2016-02-15T10:24:20.000Z</time>
      </trkpt>
      <trkpt lat="47.20245" lon="3.18216">
        <ele>224.72012329102</ele>
        <time>2016-02-15T10:24:26.000Z</time>
      </trkpt>
      <trkpt lat="47.20244" lon="3.18212">
        <ele>224.66703796387</ele>
        <time>2016-02-15T10:24:26.000Z</time>
      </trkpt>
      <trkpt lat="47.20244" lon="3.18204">
        <ele>224.6091003418</ele>
        <time>2016-02-15T10:24:28.000Z</time>
      </trkpt>
      <trkpt lat="47.20243" lon="3.18198">
        <ele>224.55949401855</ele>
        <time>2016-02-15T10:24:30.000Z</time>
      </trkpt>
      <trkpt lat="47.20242" lon="3.18193">
        <ele>224.50927734375</ele>
        <time>2016-02-15T10:24:33.000Z</time>
      </trkpt>
      <trkpt lat="47.20241" lon="3.1819">
        <ele>224.46841430664</ele>
        <time>2016-02-15T10:24:35.000Z</time>
      </trkpt>
      <trkpt lat="47.2024" lon="3.18183">
        <ele>224.42947387695</ele>
        <time>2016-02-15T10:24:38.000Z</time>
      </trkpt>
      <trkpt lat="47.20239" lon="3.18178">
        <ele>224.40007019043</ele>
        <time>2016-02-15T10:24:40.000Z</time>
      </trkpt>
      <trkpt lat="47.20238" lon="3.18174">
        <ele>224.37614440918</ele>
        <time>2016-02-15T10:24:44.000Z</time>
      </trkpt>
      <trkpt lat="47.20237" lon="3.1817">
        <ele>224.36079406738</ele>
        <time>2016-02-15T10:24:46.000Z</time>
      </trkpt>
      <trkpt lat="47.20236" lon="3.18167">
        <ele>224.34733581543</ele>
        <time>2016-02-15T10:24:47.000Z</time>
      </trkpt>
      <trkpt lat="47.20235" lon="3.18161">
        <ele>224.35592651367</ele>
        <time>2016-02-15T10:24:50.000Z</time>
      </trkpt>
      <trkpt lat="47.20233" lon="3.18153">
        <ele>224.39196777344</ele>
        <time>2016-02-15T10:24:53.000Z</time>
      </trkpt>
      <trkpt lat="47.20232" lon="3.18149">
        <ele>224.44506835938</ele>
        <time>2016-02-15T10:24:55.000Z</time>
      </trkpt>
      <trkpt lat="47.20231" lon="3.18144">
        <ele>224.50912475586</ele>
        <time>2016-02-15T10:24:58.000Z</time>
      </trkpt>
      <trkpt lat="47.20232" lon="3.1814">
        <ele>224.58100891113</ele>
        <time>2016-02-15T10:25:01.000Z</time>
      </trkpt>
      <trkpt lat="47.20232" lon="3.18133">
        <ele>224.64901733398</ele>
        <time>2016-02-15T10:25:04.000Z</time>
      </trkpt>
      <trkpt lat="47.20232" lon="3.18128">
        <ele>224.70304870605</ele>
        <time>2016-02-15T10:25:07.000Z</time>
      </trkpt>
      <trkpt lat="47.20233" lon="3.18121">
        <ele>224.75198364258</ele>
        <time>2016-02-15T10:25:10.000Z</time>
      </trkpt>
      <trkpt lat="47.20233" lon="3.18117">
        <ele>224.79544067383</ele>
        <time>2016-02-15T10:25:12.000Z</time>
      </trkpt>
      <trkpt lat="47.20235" lon="3.18112">
        <ele>224.83700561523</ele>
        <time>2016-02-15T10:25:15.000Z</time>
      </trkpt>
      <trkpt lat="47.20237" lon="3.18104">
        <ele>224.87614440918</ele>
        <time>2016-02-15T10:25:18.000Z</time>
      </trkpt>
      <trkpt lat="47.20238" lon="3.181">
        <ele>224.91059875488</ele>
        <time>2016-02-15T10:25:21.000Z</time>
      </trkpt>
      <trkpt lat="47.20239" lon="3.18096">
        <ele>224.94255065918</ele>
        <time>2016-02-15T10:25:24.000Z</time>
      </trkpt>
      <trkpt lat="47.20239" lon="3.18089">
        <ele>224.98086547852</ele>
        <time>2016-02-15T10:25:27.000Z</time>
      </trkpt>
      <trkpt lat="47.20239" lon="3.18083">
        <ele>225.02641296387</ele>
        <time>2016-02-15T10:25:29.000Z</time>
      </trkpt>
      <trkpt lat="47.20239" lon="3.18076">
        <ele>225.09733581543</ele>
        <time>2016-02-15T10:25:32.000Z</time>
      </trkpt>
      <trkpt lat="47.20239" lon="3.18073">
        <ele>225.18441772461</ele>
        <time>2016-02-15T10:25:35.000Z</time>
      </trkpt>
      <trkpt lat="47.20239" lon="3.18068">
        <ele>225.28645324707</ele>
        <time>2016-02-15T10:25:37.000Z</time>
      </trkpt>
      <trkpt lat="47.2024" lon="3.18062">
        <ele>225.40852355957</ele>
        <time>2016-02-15T10:25:40.000Z</time>
      </trkpt>
      <trkpt lat="47.20242" lon="3.18055">
        <ele>225.54438781738</ele>
        <time>2016-02-15T10:25:43.000Z</time>
      </trkpt>
      <trkpt lat="47.20243" lon="3.18052">
        <ele>225.65856933594</ele>
        <time>2016-02-15T10:25:46.000Z</time>
      </trkpt>
      <trkpt lat="47.20245" lon="3.18048">
        <ele>225.76681518555</ele>
        <time>2016-02-15T10:25:49.000Z</time>
      </trkpt>
      <trkpt lat="47.20247" lon="3.1804">
        <ele>225.88342285156</ele>
        <time>2016-02-15T10:25:52.000Z</time>
      </trkpt>
      <trkpt lat="47.20248" lon="3.18036">
        <ele>225.98359680176</ele>
        <time>2016-02-15T10:25:54.000Z</time>
      </trkpt>
      <trkpt lat="47.20248" lon="3.18033">
        <ele>226.07040405273</ele>
        <time>2016-02-15T10:25:56.000Z</time>
      </trkpt>
      <trkpt lat="47.20248" lon="3.1803">
        <ele>226.15751647949</ele>
        <time>2016-02-15T10:25:58.000Z</time>
      </trkpt>
      <trkpt lat="47.20248" lon="3.18024">
        <ele>226.2592010498</ele>
        <time>2016-02-15T10:26:02.000Z</time>
      </trkpt>
      <trkpt lat="47.20248" lon="3.1802">
        <ele>226.35134887695</ele>
        <time>2016-02-15T10:26:03.000Z</time>
      </trkpt>
      <trkpt lat="47.20247" lon="3.18013">
        <ele>226.46321105957</ele>
        <time>2016-02-15T10:26:06.000Z</time>
      </trkpt>
      <trkpt lat="47.20247" lon="3.18006">
        <ele>226.60066223145</ele>
        <time>2016-02-15T10:26:09.000Z</time>
      </trkpt>
      <trkpt lat="47.20247" lon="3.18002">
        <ele>226.74319458008</ele>
        <time>2016-02-15T10:26:12.000Z</time>
      </trkpt>
      <trkpt lat="47.20246" lon="3.17995">
        <ele>226.89416503906</ele>
        <time>2016-02-15T10:26:15.000Z</time>
      </trkpt>
      <trkpt lat="47.20246" lon="3.17993">
        <ele>227.03695678711</ele>
        <time>2016-02-15T10:26:17.000Z</time>
      </trkpt>
      <trkpt lat="47.20244" lon="3.17989">
        <ele>227.17013549805</ele>
        <time>2016-02-15T10:26:20.000Z</time>
      </trkpt>
      <trkpt lat="47.20243" lon="3.17986">
        <ele>227.28427124023</ele>
        <time>2016-02-15T10:26:23.000Z</time>
      </trkpt>
      <trkpt lat="47.20243" lon="3.17984">
        <ele>227.38835144043</ele>
        <time>2016-02-15T10:26:26.000Z</time>
      </trkpt>
      <trkpt lat="47.20243" lon="3.17982">
        <ele>227.462890625</ele>
        <time>2016-02-15T10:26:28.000Z</time>
      </trkpt>
      <trkpt lat="47.20243" lon="3.17982">
        <ele>227.462890625</ele>
        <time>2016-02-15T10:26:48.000Z</time>
      </trkpt>
      <trkpt lat="47.20243" lon="3.17982">
        <ele>227.462890625</ele>
        <time>2016-02-15T10:27:42.000Z</time>
      </trkpt>
    </trkseg>
  </trk>
</gpx>